<?xml version="1.0" encoding="UTF-8" standalone="no" ?>
<gpx xmlns="http://www.topografix.com/GPX/1/1" xmlns:xsi="http://www.w3.org/2001/XMLSchema-instance" xsi:schemaLocation="http://www.topografix.com/GPX/1/1 http://www.topografix.com/GPX/1/1/gpx.xsd" version="1.1" creator="VisuGPX - https://www.visugpx.com">
  <metadata>
    <name>lac hachard</name>
    <desc><![CDATA[2021-8-6 lac Achard

]]></desc>
  </metadata>
  <trk>
    <name><![CDATA[lac hachard_1]]></name>
    <cmt><![CDATA[2021-8-6 lac Achard]]></cmt>
    <trkseg>
      <trkpt lat="45.10635" lon="5.87536">
        <ele>1743</ele>
        <time>2021-08-06T09:00:52Z</time>
      </trkpt>
      <trkpt lat="45.10612" lon="5.87558">
        <ele>1740</ele>
        <time>2021-08-06T09:01:24Z</time>
      </trkpt>
      <trkpt lat="45.10611" lon="5.87559">
        <ele>1740</ele>
        <time>2021-08-06T09:01:26Z</time>
      </trkpt>
      <trkpt lat="45.10609" lon="5.8756">
        <ele>1740</ele>
        <time>2021-08-06T09:01:28Z</time>
      </trkpt>
      <trkpt lat="45.10607" lon="5.87562">
        <ele>1740</ele>
        <time>2021-08-06T09:01:30Z</time>
      </trkpt>
      <trkpt lat="45.10606" lon="5.87563">
        <ele>1740</ele>
        <time>2021-08-06T09:01:32Z</time>
      </trkpt>
      <trkpt lat="45.10604" lon="5.87564">
        <ele>1740</ele>
        <time>2021-08-06T09:01:34Z</time>
      </trkpt>
      <trkpt lat="45.10603" lon="5.87565">
        <ele>1740</ele>
        <time>2021-08-06T09:01:38Z</time>
      </trkpt>
      <trkpt lat="45.10601" lon="5.87566">
        <ele>1740</ele>
        <time>2021-08-06T09:01:41Z</time>
      </trkpt>
      <trkpt lat="45.106" lon="5.87566">
        <ele>1740</ele>
        <time>2021-08-06T09:01:43Z</time>
      </trkpt>
      <trkpt lat="45.10598" lon="5.87567">
        <ele>1740</ele>
        <time>2021-08-06T09:01:45Z</time>
      </trkpt>
      <trkpt lat="45.10597" lon="5.87566">
        <ele>1740</ele>
        <time>2021-08-06T09:01:46Z</time>
      </trkpt>
      <trkpt lat="45.10596" lon="5.87566">
        <ele>1740</ele>
        <time>2021-08-06T09:01:47Z</time>
      </trkpt>
      <trkpt lat="45.10595" lon="5.87566">
        <ele>1740</ele>
        <time>2021-08-06T09:01:48Z</time>
      </trkpt>
      <trkpt lat="45.10594" lon="5.87566">
        <ele>1740</ele>
        <time>2021-08-06T09:01:49Z</time>
      </trkpt>
      <trkpt lat="45.10593" lon="5.87566">
        <ele>1740</ele>
        <time>2021-08-06T09:01:50Z</time>
      </trkpt>
      <trkpt lat="45.1059" lon="5.87566">
        <ele>1740</ele>
        <time>2021-08-06T09:01:52Z</time>
      </trkpt>
      <trkpt lat="45.10589" lon="5.87565">
        <ele>1740</ele>
        <time>2021-08-06T09:01:53Z</time>
      </trkpt>
      <trkpt lat="45.10587" lon="5.87566">
        <ele>1740</ele>
        <time>2021-08-06T09:01:55Z</time>
      </trkpt>
      <trkpt lat="45.10585" lon="5.87567">
        <ele>1740</ele>
        <time>2021-08-06T09:01:57Z</time>
      </trkpt>
      <trkpt lat="45.10583" lon="5.87567">
        <ele>1740</ele>
        <time>2021-08-06T09:01:59Z</time>
      </trkpt>
      <trkpt lat="45.10582" lon="5.87568">
        <ele>1740</ele>
        <time>2021-08-06T09:02:01Z</time>
      </trkpt>
      <trkpt lat="45.1058" lon="5.87568">
        <ele>1740</ele>
        <time>2021-08-06T09:02:03Z</time>
      </trkpt>
      <trkpt lat="45.10578" lon="5.87569">
        <ele>1740</ele>
        <time>2021-08-06T09:02:05Z</time>
      </trkpt>
      <trkpt lat="45.10576" lon="5.8757">
        <ele>1740</ele>
        <time>2021-08-06T09:02:07Z</time>
      </trkpt>
      <trkpt lat="45.10575" lon="5.8757">
        <ele>1740</ele>
        <time>2021-08-06T09:02:08Z</time>
      </trkpt>
      <trkpt lat="45.10572" lon="5.8757">
        <ele>1740</ele>
        <time>2021-08-06T09:02:10Z</time>
      </trkpt>
      <trkpt lat="45.1057" lon="5.8757">
        <ele>1740</ele>
        <time>2021-08-06T09:02:12Z</time>
      </trkpt>
      <trkpt lat="45.10569" lon="5.87571">
        <ele>1740</ele>
        <time>2021-08-06T09:02:14Z</time>
      </trkpt>
      <trkpt lat="45.10567" lon="5.87572">
        <ele>1740</ele>
        <time>2021-08-06T09:02:16Z</time>
      </trkpt>
      <trkpt lat="45.10565" lon="5.87572">
        <ele>1740</ele>
        <time>2021-08-06T09:02:18Z</time>
      </trkpt>
      <trkpt lat="45.10564" lon="5.87572">
        <ele>1740</ele>
        <time>2021-08-06T09:02:19Z</time>
      </trkpt>
      <trkpt lat="45.10563" lon="5.87572">
        <ele>1740</ele>
        <time>2021-08-06T09:02:20Z</time>
      </trkpt>
      <trkpt lat="45.10562" lon="5.87573">
        <ele>1740</ele>
        <time>2021-08-06T09:02:21Z</time>
      </trkpt>
      <trkpt lat="45.1056" lon="5.87574">
        <ele>1740</ele>
        <time>2021-08-06T09:02:23Z</time>
      </trkpt>
      <trkpt lat="45.10558" lon="5.87575">
        <ele>1740</ele>
        <time>2021-08-06T09:02:25Z</time>
      </trkpt>
      <trkpt lat="45.10557" lon="5.87575">
        <ele>1740</ele>
        <time>2021-08-06T09:02:27Z</time>
      </trkpt>
      <trkpt lat="45.10555" lon="5.87576">
        <ele>1740</ele>
        <time>2021-08-06T09:02:29Z</time>
      </trkpt>
      <trkpt lat="45.10553" lon="5.87576">
        <ele>1740</ele>
        <time>2021-08-06T09:02:31Z</time>
      </trkpt>
      <trkpt lat="45.10551" lon="5.87577">
        <ele>1740</ele>
        <time>2021-08-06T09:02:33Z</time>
      </trkpt>
      <trkpt lat="45.1055" lon="5.87578">
        <ele>1740</ele>
        <time>2021-08-06T09:02:37Z</time>
      </trkpt>
      <trkpt lat="45.10548" lon="5.87578">
        <ele>1740</ele>
        <time>2021-08-06T09:02:39Z</time>
      </trkpt>
      <trkpt lat="45.10546" lon="5.87578">
        <ele>1740</ele>
        <time>2021-08-06T09:02:41Z</time>
      </trkpt>
      <trkpt lat="45.10544" lon="5.87578">
        <ele>1740</ele>
        <time>2021-08-06T09:02:43Z</time>
      </trkpt>
      <trkpt lat="45.10542" lon="5.87579">
        <ele>1740</ele>
        <time>2021-08-06T09:02:45Z</time>
      </trkpt>
      <trkpt lat="45.1054" lon="5.8758">
        <ele>1740</ele>
        <time>2021-08-06T09:02:47Z</time>
      </trkpt>
      <trkpt lat="45.10539" lon="5.87581">
        <ele>1740</ele>
        <time>2021-08-06T09:02:49Z</time>
      </trkpt>
      <trkpt lat="45.10537" lon="5.87581">
        <ele>1740</ele>
        <time>2021-08-06T09:02:51Z</time>
      </trkpt>
      <trkpt lat="45.10536" lon="5.87581">
        <ele>1740</ele>
        <time>2021-08-06T09:02:52Z</time>
      </trkpt>
      <trkpt lat="45.10535" lon="5.87581">
        <ele>1740</ele>
        <time>2021-08-06T09:02:53Z</time>
      </trkpt>
      <trkpt lat="45.10534" lon="5.87581">
        <ele>1740</ele>
        <time>2021-08-06T09:02:54Z</time>
      </trkpt>
      <trkpt lat="45.10531" lon="5.87582">
        <ele>1740</ele>
        <time>2021-08-06T09:02:56Z</time>
      </trkpt>
      <trkpt lat="45.10529" lon="5.87582">
        <ele>1740</ele>
        <time>2021-08-06T09:02:58Z</time>
      </trkpt>
      <trkpt lat="45.10528" lon="5.87583">
        <ele>1740</ele>
        <time>2021-08-06T09:02:59Z</time>
      </trkpt>
      <trkpt lat="45.10526" lon="5.87585">
        <ele>1740</ele>
        <time>2021-08-06T09:03:01Z</time>
      </trkpt>
      <trkpt lat="45.10525" lon="5.87586">
        <ele>1740</ele>
        <time>2021-08-06T09:03:03Z</time>
      </trkpt>
      <trkpt lat="45.10523" lon="5.87587">
        <ele>1740</ele>
        <time>2021-08-06T09:03:05Z</time>
      </trkpt>
      <trkpt lat="45.10521" lon="5.87588">
        <ele>1740</ele>
        <time>2021-08-06T09:03:07Z</time>
      </trkpt>
      <trkpt lat="45.10519" lon="5.87589">
        <ele>1740</ele>
        <time>2021-08-06T09:03:09Z</time>
      </trkpt>
      <trkpt lat="45.10518" lon="5.8759">
        <ele>1740</ele>
        <time>2021-08-06T09:03:11Z</time>
      </trkpt>
      <trkpt lat="45.10516" lon="5.87591">
        <ele>1740</ele>
        <time>2021-08-06T09:03:13Z</time>
      </trkpt>
      <trkpt lat="45.10514" lon="5.87593">
        <ele>1740</ele>
        <time>2021-08-06T09:03:15Z</time>
      </trkpt>
      <trkpt lat="45.10513" lon="5.87595">
        <ele>1740</ele>
        <time>2021-08-06T09:03:17Z</time>
      </trkpt>
      <trkpt lat="45.10511" lon="5.87596">
        <ele>1740</ele>
        <time>2021-08-06T09:03:19Z</time>
      </trkpt>
      <trkpt lat="45.10509" lon="5.87598">
        <ele>1740</ele>
        <time>2021-08-06T09:03:21Z</time>
      </trkpt>
      <trkpt lat="45.10508" lon="5.876">
        <ele>1740</ele>
        <time>2021-08-06T09:03:23Z</time>
      </trkpt>
      <trkpt lat="45.10507" lon="5.87603">
        <ele>1740</ele>
        <time>2021-08-06T09:03:25Z</time>
      </trkpt>
      <trkpt lat="45.10506" lon="5.87605">
        <ele>1740</ele>
        <time>2021-08-06T09:03:27Z</time>
      </trkpt>
      <trkpt lat="45.10505" lon="5.87608">
        <ele>1740</ele>
        <time>2021-08-06T09:03:29Z</time>
      </trkpt>
      <trkpt lat="45.10504" lon="5.8761">
        <ele>1740</ele>
        <time>2021-08-06T09:03:31Z</time>
      </trkpt>
      <trkpt lat="45.10502" lon="5.87611">
        <ele>1740</ele>
        <time>2021-08-06T09:03:33Z</time>
      </trkpt>
      <trkpt lat="45.10501" lon="5.87614">
        <ele>1740</ele>
        <time>2021-08-06T09:03:35Z</time>
      </trkpt>
      <trkpt lat="45.105" lon="5.87616">
        <ele>1740</ele>
        <time>2021-08-06T09:03:37Z</time>
      </trkpt>
      <trkpt lat="45.10498" lon="5.87619">
        <ele>1740</ele>
        <time>2021-08-06T09:03:39Z</time>
      </trkpt>
      <trkpt lat="45.10497" lon="5.87621">
        <ele>1740</ele>
        <time>2021-08-06T09:03:41Z</time>
      </trkpt>
      <trkpt lat="45.10496" lon="5.87623">
        <ele>1740</ele>
        <time>2021-08-06T09:03:42Z</time>
      </trkpt>
      <trkpt lat="45.10495" lon="5.87625">
        <ele>1740</ele>
        <time>2021-08-06T09:03:44Z</time>
      </trkpt>
      <trkpt lat="45.10494" lon="5.87628">
        <ele>1740</ele>
        <time>2021-08-06T09:03:46Z</time>
      </trkpt>
      <trkpt lat="45.10493" lon="5.8763">
        <ele>1740</ele>
        <time>2021-08-06T09:03:48Z</time>
      </trkpt>
      <trkpt lat="45.10492" lon="5.87632">
        <ele>1740</ele>
        <time>2021-08-06T09:03:49Z</time>
      </trkpt>
      <trkpt lat="45.10491" lon="5.87634">
        <ele>1740</ele>
        <time>2021-08-06T09:03:51Z</time>
      </trkpt>
      <trkpt lat="45.1049" lon="5.87637">
        <ele>1740</ele>
        <time>2021-08-06T09:03:53Z</time>
      </trkpt>
      <trkpt lat="45.10489" lon="5.8764">
        <ele>1740</ele>
        <time>2021-08-06T09:03:55Z</time>
      </trkpt>
      <trkpt lat="45.10488" lon="5.87642">
        <ele>1740</ele>
        <time>2021-08-06T09:03:57Z</time>
      </trkpt>
      <trkpt lat="45.10487" lon="5.87645">
        <ele>1740</ele>
        <time>2021-08-06T09:03:59Z</time>
      </trkpt>
      <trkpt lat="45.10486" lon="5.87647">
        <ele>1740</ele>
        <time>2021-08-06T09:04:01Z</time>
      </trkpt>
      <trkpt lat="45.10484" lon="5.8765">
        <ele>1740</ele>
        <time>2021-08-06T09:04:03Z</time>
      </trkpt>
      <trkpt lat="45.10484" lon="5.87652">
        <ele>1740</ele>
        <time>2021-08-06T09:04:05Z</time>
      </trkpt>
      <trkpt lat="45.10484" lon="5.87654">
        <ele>1740</ele>
        <time>2021-08-06T09:04:08Z</time>
      </trkpt>
      <trkpt lat="45.10482" lon="5.87656">
        <ele>1740</ele>
        <time>2021-08-06T09:04:10Z</time>
      </trkpt>
      <trkpt lat="45.10481" lon="5.87659">
        <ele>1740</ele>
        <time>2021-08-06T09:04:12Z</time>
      </trkpt>
      <trkpt lat="45.10479" lon="5.87661">
        <ele>1740</ele>
        <time>2021-08-06T09:04:14Z</time>
      </trkpt>
      <trkpt lat="45.10478" lon="5.87664">
        <ele>1740</ele>
        <time>2021-08-06T09:04:16Z</time>
      </trkpt>
      <trkpt lat="45.10477" lon="5.87666">
        <ele>1740</ele>
        <time>2021-08-06T09:04:18Z</time>
      </trkpt>
      <trkpt lat="45.10476" lon="5.87669">
        <ele>1740</ele>
        <time>2021-08-06T09:04:20Z</time>
      </trkpt>
      <trkpt lat="45.10475" lon="5.87672">
        <ele>1740</ele>
        <time>2021-08-06T09:04:22Z</time>
      </trkpt>
      <trkpt lat="45.10473" lon="5.87674">
        <ele>1740</ele>
        <time>2021-08-06T09:04:24Z</time>
      </trkpt>
      <trkpt lat="45.10472" lon="5.87676">
        <ele>1740</ele>
        <time>2021-08-06T09:04:26Z</time>
      </trkpt>
      <trkpt lat="45.10471" lon="5.87679">
        <ele>1740</ele>
        <time>2021-08-06T09:04:28Z</time>
      </trkpt>
      <trkpt lat="45.1047" lon="5.87681">
        <ele>1740</ele>
        <time>2021-08-06T09:04:30Z</time>
      </trkpt>
      <trkpt lat="45.10468" lon="5.87684">
        <ele>1740</ele>
        <time>2021-08-06T09:04:32Z</time>
      </trkpt>
      <trkpt lat="45.10467" lon="5.87686">
        <ele>1740</ele>
        <time>2021-08-06T09:04:34Z</time>
      </trkpt>
      <trkpt lat="45.10466" lon="5.87689">
        <ele>1740</ele>
        <time>2021-08-06T09:04:36Z</time>
      </trkpt>
      <trkpt lat="45.10464" lon="5.87691">
        <ele>1740</ele>
        <time>2021-08-06T09:04:38Z</time>
      </trkpt>
      <trkpt lat="45.10463" lon="5.87694">
        <ele>1740</ele>
        <time>2021-08-06T09:04:40Z</time>
      </trkpt>
      <trkpt lat="45.10462" lon="5.87696">
        <ele>1740</ele>
        <time>2021-08-06T09:04:42Z</time>
      </trkpt>
      <trkpt lat="45.10461" lon="5.87698">
        <ele>1740</ele>
        <time>2021-08-06T09:04:44Z</time>
      </trkpt>
      <trkpt lat="45.10461" lon="5.87701">
        <ele>1740</ele>
        <time>2021-08-06T09:04:46Z</time>
      </trkpt>
      <trkpt lat="45.10461" lon="5.87703">
        <ele>1740</ele>
        <time>2021-08-06T09:04:48Z</time>
      </trkpt>
      <trkpt lat="45.10461" lon="5.87704">
        <ele>1740</ele>
        <time>2021-08-06T09:04:51Z</time>
      </trkpt>
      <trkpt lat="45.10461" lon="5.87706">
        <ele>1740</ele>
        <time>2021-08-06T09:04:59Z</time>
      </trkpt>
      <trkpt lat="45.10461" lon="5.87707">
        <ele>1740</ele>
        <time>2021-08-06T09:05:04Z</time>
      </trkpt>
      <trkpt lat="45.10461" lon="5.8771">
        <ele>1740</ele>
        <time>2021-08-06T09:05:06Z</time>
      </trkpt>
      <trkpt lat="45.1046" lon="5.87712">
        <ele>1740</ele>
        <time>2021-08-06T09:05:08Z</time>
      </trkpt>
      <trkpt lat="45.1046" lon="5.87713">
        <ele>1740</ele>
        <time>2021-08-06T09:05:09Z</time>
      </trkpt>
      <trkpt lat="45.1046" lon="5.87715">
        <ele>1740</ele>
        <time>2021-08-06T09:05:11Z</time>
      </trkpt>
      <trkpt lat="45.1046" lon="5.87718">
        <ele>1740</ele>
        <time>2021-08-06T09:05:13Z</time>
      </trkpt>
      <trkpt lat="45.1046" lon="5.8772">
        <ele>1740</ele>
        <time>2021-08-06T09:05:15Z</time>
      </trkpt>
      <trkpt lat="45.1046" lon="5.87722">
        <ele>1740</ele>
        <time>2021-08-06T09:05:17Z</time>
      </trkpt>
      <trkpt lat="45.1046" lon="5.87725">
        <ele>1740</ele>
        <time>2021-08-06T09:05:19Z</time>
      </trkpt>
      <trkpt lat="45.1046" lon="5.87727">
        <ele>1740</ele>
        <time>2021-08-06T09:05:21Z</time>
      </trkpt>
      <trkpt lat="45.10459" lon="5.8773">
        <ele>1740</ele>
        <time>2021-08-06T09:05:23Z</time>
      </trkpt>
      <trkpt lat="45.10458" lon="5.87731">
        <ele>1740</ele>
        <time>2021-08-06T09:05:25Z</time>
      </trkpt>
      <trkpt lat="45.10458" lon="5.87734">
        <ele>1740</ele>
        <time>2021-08-06T09:05:27Z</time>
      </trkpt>
      <trkpt lat="45.10458" lon="5.87736">
        <ele>1740</ele>
        <time>2021-08-06T09:05:29Z</time>
      </trkpt>
      <trkpt lat="45.10457" lon="5.87738">
        <ele>1740</ele>
        <time>2021-08-06T09:05:31Z</time>
      </trkpt>
      <trkpt lat="45.10457" lon="5.87741">
        <ele>1740</ele>
        <time>2021-08-06T09:05:33Z</time>
      </trkpt>
      <trkpt lat="45.10456" lon="5.87742">
        <ele>1740</ele>
        <time>2021-08-06T09:05:35Z</time>
      </trkpt>
      <trkpt lat="45.10456" lon="5.87745">
        <ele>1740</ele>
        <time>2021-08-06T09:05:42Z</time>
      </trkpt>
      <trkpt lat="45.10455" lon="5.87746">
        <ele>1740</ele>
        <time>2021-08-06T09:05:44Z</time>
      </trkpt>
      <trkpt lat="45.10455" lon="5.87749">
        <ele>1740</ele>
        <time>2021-08-06T09:05:46Z</time>
      </trkpt>
      <trkpt lat="45.10455" lon="5.87751">
        <ele>1740</ele>
        <time>2021-08-06T09:05:48Z</time>
      </trkpt>
      <trkpt lat="45.10455" lon="5.87754">
        <ele>1740</ele>
        <time>2021-08-06T09:05:50Z</time>
      </trkpt>
      <trkpt lat="45.10454" lon="5.87756">
        <ele>1740</ele>
        <time>2021-08-06T09:05:52Z</time>
      </trkpt>
      <trkpt lat="45.10454" lon="5.87758">
        <ele>1740</ele>
        <time>2021-08-06T09:05:54Z</time>
      </trkpt>
      <trkpt lat="45.10454" lon="5.8776">
        <ele>1740</ele>
        <time>2021-08-06T09:05:56Z</time>
      </trkpt>
      <trkpt lat="45.10454" lon="5.87762">
        <ele>1740</ele>
        <time>2021-08-06T09:05:58Z</time>
      </trkpt>
      <trkpt lat="45.10454" lon="5.87765">
        <ele>1740</ele>
        <time>2021-08-06T09:06:00Z</time>
      </trkpt>
      <trkpt lat="45.10454" lon="5.87767">
        <ele>1740</ele>
        <time>2021-08-06T09:06:02Z</time>
      </trkpt>
      <trkpt lat="45.10453" lon="5.87769">
        <ele>1740</ele>
        <time>2021-08-06T09:06:04Z</time>
      </trkpt>
      <trkpt lat="45.10453" lon="5.87771">
        <ele>1740</ele>
        <time>2021-08-06T09:06:06Z</time>
      </trkpt>
      <trkpt lat="45.10453" lon="5.87773">
        <ele>1740</ele>
        <time>2021-08-06T09:06:08Z</time>
      </trkpt>
      <trkpt lat="45.10453" lon="5.87776">
        <ele>1740</ele>
        <time>2021-08-06T09:06:10Z</time>
      </trkpt>
      <trkpt lat="45.10453" lon="5.87778">
        <ele>1740</ele>
        <time>2021-08-06T09:06:12Z</time>
      </trkpt>
      <trkpt lat="45.10452" lon="5.8778">
        <ele>1740</ele>
        <time>2021-08-06T09:06:14Z</time>
      </trkpt>
      <trkpt lat="45.10452" lon="5.87782">
        <ele>1740</ele>
        <time>2021-08-06T09:06:16Z</time>
      </trkpt>
      <trkpt lat="45.10452" lon="5.87785">
        <ele>1741</ele>
        <time>2021-08-06T09:06:18Z</time>
      </trkpt>
      <trkpt lat="45.10451" lon="5.87787">
        <ele>1741</ele>
        <time>2021-08-06T09:06:20Z</time>
      </trkpt>
      <trkpt lat="45.10451" lon="5.87789">
        <ele>1741</ele>
        <time>2021-08-06T09:06:22Z</time>
      </trkpt>
      <trkpt lat="45.1045" lon="5.87791">
        <ele>1741</ele>
        <time>2021-08-06T09:06:24Z</time>
      </trkpt>
      <trkpt lat="45.1045" lon="5.87793">
        <ele>1741</ele>
        <time>2021-08-06T09:06:26Z</time>
      </trkpt>
      <trkpt lat="45.10449" lon="5.87796">
        <ele>1741</ele>
        <time>2021-08-06T09:06:28Z</time>
      </trkpt>
      <trkpt lat="45.10449" lon="5.87798">
        <ele>1742</ele>
        <time>2021-08-06T09:06:30Z</time>
      </trkpt>
      <trkpt lat="45.10448" lon="5.878">
        <ele>1742</ele>
        <time>2021-08-06T09:06:32Z</time>
      </trkpt>
      <trkpt lat="45.10447" lon="5.87802">
        <ele>1742</ele>
        <time>2021-08-06T09:06:34Z</time>
      </trkpt>
      <trkpt lat="45.10447" lon="5.87804">
        <ele>1742</ele>
        <time>2021-08-06T09:06:36Z</time>
      </trkpt>
      <trkpt lat="45.10446" lon="5.87806">
        <ele>1743</ele>
        <time>2021-08-06T09:06:38Z</time>
      </trkpt>
      <trkpt lat="45.10446" lon="5.87808">
        <ele>1743</ele>
        <time>2021-08-06T09:06:40Z</time>
      </trkpt>
      <trkpt lat="45.10445" lon="5.8781">
        <ele>1744</ele>
        <time>2021-08-06T09:06:44Z</time>
      </trkpt>
      <trkpt lat="45.10445" lon="5.87812">
        <ele>1744</ele>
        <time>2021-08-06T09:06:46Z</time>
      </trkpt>
      <trkpt lat="45.10445" lon="5.87814">
        <ele>1744</ele>
        <time>2021-08-06T09:06:48Z</time>
      </trkpt>
      <trkpt lat="45.10445" lon="5.87817">
        <ele>1744</ele>
        <time>2021-08-06T09:06:50Z</time>
      </trkpt>
      <trkpt lat="45.10445" lon="5.87819">
        <ele>1744</ele>
        <time>2021-08-06T09:06:52Z</time>
      </trkpt>
      <trkpt lat="45.10446" lon="5.87821">
        <ele>1744</ele>
        <time>2021-08-06T09:06:54Z</time>
      </trkpt>
      <trkpt lat="45.10446" lon="5.87822">
        <ele>1744</ele>
        <time>2021-08-06T09:06:56Z</time>
      </trkpt>
      <trkpt lat="45.10447" lon="5.87824">
        <ele>1744</ele>
        <time>2021-08-06T09:06:58Z</time>
      </trkpt>
      <trkpt lat="45.10447" lon="5.87826">
        <ele>1744</ele>
        <time>2021-08-06T09:07:00Z</time>
      </trkpt>
      <trkpt lat="45.10448" lon="5.87828">
        <ele>1745</ele>
        <time>2021-08-06T09:07:02Z</time>
      </trkpt>
      <trkpt lat="45.10449" lon="5.87829">
        <ele>1745</ele>
        <time>2021-08-06T09:07:04Z</time>
      </trkpt>
      <trkpt lat="45.1045" lon="5.87831">
        <ele>1746</ele>
        <time>2021-08-06T09:07:07Z</time>
      </trkpt>
      <trkpt lat="45.10451" lon="5.87833">
        <ele>1746</ele>
        <time>2021-08-06T09:07:09Z</time>
      </trkpt>
      <trkpt lat="45.10453" lon="5.87835">
        <ele>1747</ele>
        <time>2021-08-06T09:07:12Z</time>
      </trkpt>
      <trkpt lat="45.10454" lon="5.87836">
        <ele>1747</ele>
        <time>2021-08-06T09:07:15Z</time>
      </trkpt>
      <trkpt lat="45.10455" lon="5.87837">
        <ele>1747</ele>
        <time>2021-08-06T09:07:17Z</time>
      </trkpt>
      <trkpt lat="45.10457" lon="5.87838">
        <ele>1747</ele>
        <time>2021-08-06T09:07:19Z</time>
      </trkpt>
      <trkpt lat="45.10458" lon="5.87838">
        <ele>1747</ele>
        <time>2021-08-06T09:07:21Z</time>
      </trkpt>
      <trkpt lat="45.1046" lon="5.87838">
        <ele>1747</ele>
        <time>2021-08-06T09:07:23Z</time>
      </trkpt>
      <trkpt lat="45.10461" lon="5.87838">
        <ele>1747</ele>
        <time>2021-08-06T09:07:25Z</time>
      </trkpt>
      <trkpt lat="45.10463" lon="5.87838">
        <ele>1747</ele>
        <time>2021-08-06T09:07:27Z</time>
      </trkpt>
      <trkpt lat="45.10465" lon="5.87837">
        <ele>1747</ele>
        <time>2021-08-06T09:07:29Z</time>
      </trkpt>
      <trkpt lat="45.10466" lon="5.87837">
        <ele>1747</ele>
        <time>2021-08-06T09:07:31Z</time>
      </trkpt>
      <trkpt lat="45.10467" lon="5.87838">
        <ele>1748</ele>
        <time>2021-08-06T09:07:38Z</time>
      </trkpt>
      <trkpt lat="45.10469" lon="5.87838">
        <ele>1748</ele>
        <time>2021-08-06T09:07:43Z</time>
      </trkpt>
      <trkpt lat="45.1047" lon="5.8784">
        <ele>1748</ele>
        <time>2021-08-06T09:07:51Z</time>
      </trkpt>
      <trkpt lat="45.10471" lon="5.87841">
        <ele>1748</ele>
        <time>2021-08-06T09:07:54Z</time>
      </trkpt>
      <trkpt lat="45.10473" lon="5.87842">
        <ele>1748</ele>
        <time>2021-08-06T09:07:57Z</time>
      </trkpt>
      <trkpt lat="45.10473" lon="5.87843">
        <ele>1748</ele>
        <time>2021-08-06T09:08:06Z</time>
      </trkpt>
      <trkpt lat="45.10474" lon="5.87845">
        <ele>1749</ele>
        <time>2021-08-06T09:08:11Z</time>
      </trkpt>
      <trkpt lat="45.10475" lon="5.87847">
        <ele>1749</ele>
        <time>2021-08-06T09:08:13Z</time>
      </trkpt>
      <trkpt lat="45.10475" lon="5.87848">
        <ele>1749</ele>
        <time>2021-08-06T09:08:16Z</time>
      </trkpt>
      <trkpt lat="45.10476" lon="5.87851">
        <ele>1750</ele>
        <time>2021-08-06T09:08:19Z</time>
      </trkpt>
      <trkpt lat="45.10476" lon="5.87852">
        <ele>1750</ele>
        <time>2021-08-06T09:08:21Z</time>
      </trkpt>
      <trkpt lat="45.10477" lon="5.87854">
        <ele>1750</ele>
        <time>2021-08-06T09:08:24Z</time>
      </trkpt>
      <trkpt lat="45.10477" lon="5.87855">
        <ele>1751</ele>
        <time>2021-08-06T09:08:27Z</time>
      </trkpt>
      <trkpt lat="45.10478" lon="5.87858">
        <ele>1751</ele>
        <time>2021-08-06T09:08:30Z</time>
      </trkpt>
      <trkpt lat="45.10478" lon="5.87859">
        <ele>1752</ele>
        <time>2021-08-06T09:08:33Z</time>
      </trkpt>
      <trkpt lat="45.10479" lon="5.87861">
        <ele>1752</ele>
        <time>2021-08-06T09:08:36Z</time>
      </trkpt>
      <trkpt lat="45.10479" lon="5.87863">
        <ele>1753</ele>
        <time>2021-08-06T09:08:38Z</time>
      </trkpt>
      <trkpt lat="45.10479" lon="5.87865">
        <ele>1753</ele>
        <time>2021-08-06T09:08:41Z</time>
      </trkpt>
      <trkpt lat="45.10479" lon="5.87867">
        <ele>1754</ele>
        <time>2021-08-06T09:08:44Z</time>
      </trkpt>
      <trkpt lat="45.10479" lon="5.87868">
        <ele>1755</ele>
        <time>2021-08-06T09:08:46Z</time>
      </trkpt>
      <trkpt lat="45.1048" lon="5.8787">
        <ele>1755</ele>
        <time>2021-08-06T09:08:48Z</time>
      </trkpt>
      <trkpt lat="45.1048" lon="5.87873">
        <ele>1755</ele>
        <time>2021-08-06T09:08:50Z</time>
      </trkpt>
      <trkpt lat="45.10481" lon="5.87875">
        <ele>1756</ele>
        <time>2021-08-06T09:08:52Z</time>
      </trkpt>
      <trkpt lat="45.10481" lon="5.87877">
        <ele>1756</ele>
        <time>2021-08-06T09:08:54Z</time>
      </trkpt>
      <trkpt lat="45.10482" lon="5.87879">
        <ele>1756</ele>
        <time>2021-08-06T09:08:56Z</time>
      </trkpt>
      <trkpt lat="45.10482" lon="5.87882">
        <ele>1756</ele>
        <time>2021-08-06T09:08:58Z</time>
      </trkpt>
      <trkpt lat="45.10482" lon="5.87884">
        <ele>1756</ele>
        <time>2021-08-06T09:09:00Z</time>
      </trkpt>
      <trkpt lat="45.10482" lon="5.87886">
        <ele>1757</ele>
        <time>2021-08-06T09:09:02Z</time>
      </trkpt>
      <trkpt lat="45.10482" lon="5.87888">
        <ele>1757</ele>
        <time>2021-08-06T09:09:04Z</time>
      </trkpt>
      <trkpt lat="45.10483" lon="5.8789">
        <ele>1757</ele>
        <time>2021-08-06T09:09:06Z</time>
      </trkpt>
      <trkpt lat="45.10483" lon="5.87893">
        <ele>1758</ele>
        <time>2021-08-06T09:09:08Z</time>
      </trkpt>
      <trkpt lat="45.10483" lon="5.87895">
        <ele>1758</ele>
        <time>2021-08-06T09:09:10Z</time>
      </trkpt>
      <trkpt lat="45.10483" lon="5.87897">
        <ele>1758</ele>
        <time>2021-08-06T09:09:12Z</time>
      </trkpt>
      <trkpt lat="45.10484" lon="5.879">
        <ele>1759</ele>
        <time>2021-08-06T09:09:14Z</time>
      </trkpt>
      <trkpt lat="45.10484" lon="5.87902">
        <ele>1759</ele>
        <time>2021-08-06T09:09:16Z</time>
      </trkpt>
      <trkpt lat="45.10484" lon="5.87904">
        <ele>1759</ele>
        <time>2021-08-06T09:09:18Z</time>
      </trkpt>
      <trkpt lat="45.10484" lon="5.87906">
        <ele>1760</ele>
        <time>2021-08-06T09:09:20Z</time>
      </trkpt>
      <trkpt lat="45.10484" lon="5.87909">
        <ele>1760</ele>
        <time>2021-08-06T09:09:22Z</time>
      </trkpt>
      <trkpt lat="45.10483" lon="5.87911">
        <ele>1760</ele>
        <time>2021-08-06T09:09:24Z</time>
      </trkpt>
      <trkpt lat="45.10483" lon="5.87913">
        <ele>1760</ele>
        <time>2021-08-06T09:09:26Z</time>
      </trkpt>
      <trkpt lat="45.10483" lon="5.87915">
        <ele>1760</ele>
        <time>2021-08-06T09:09:28Z</time>
      </trkpt>
      <trkpt lat="45.10484" lon="5.87917">
        <ele>1760</ele>
        <time>2021-08-06T09:09:30Z</time>
      </trkpt>
      <trkpt lat="45.10484" lon="5.8792">
        <ele>1761</ele>
        <time>2021-08-06T09:09:32Z</time>
      </trkpt>
      <trkpt lat="45.10484" lon="5.87922">
        <ele>1761</ele>
        <time>2021-08-06T09:09:34Z</time>
      </trkpt>
      <trkpt lat="45.10483" lon="5.87924">
        <ele>1761</ele>
        <time>2021-08-06T09:09:36Z</time>
      </trkpt>
      <trkpt lat="45.10483" lon="5.87927">
        <ele>1761</ele>
        <time>2021-08-06T09:09:38Z</time>
      </trkpt>
      <trkpt lat="45.10483" lon="5.87929">
        <ele>1762</ele>
        <time>2021-08-06T09:09:40Z</time>
      </trkpt>
      <trkpt lat="45.10483" lon="5.87931">
        <ele>1762</ele>
        <time>2021-08-06T09:09:42Z</time>
      </trkpt>
      <trkpt lat="45.10483" lon="5.87933">
        <ele>1763</ele>
        <time>2021-08-06T09:09:44Z</time>
      </trkpt>
      <trkpt lat="45.10483" lon="5.87935">
        <ele>1763</ele>
        <time>2021-08-06T09:09:46Z</time>
      </trkpt>
      <trkpt lat="45.10483" lon="5.87938">
        <ele>1764</ele>
        <time>2021-08-06T09:09:48Z</time>
      </trkpt>
      <trkpt lat="45.10483" lon="5.87941">
        <ele>1764</ele>
        <time>2021-08-06T09:09:50Z</time>
      </trkpt>
      <trkpt lat="45.10483" lon="5.87943">
        <ele>1764</ele>
        <time>2021-08-06T09:09:52Z</time>
      </trkpt>
      <trkpt lat="45.10483" lon="5.87946">
        <ele>1764</ele>
        <time>2021-08-06T09:09:54Z</time>
      </trkpt>
      <trkpt lat="45.10484" lon="5.87948">
        <ele>1764</ele>
        <time>2021-08-06T09:09:56Z</time>
      </trkpt>
      <trkpt lat="45.10484" lon="5.8795">
        <ele>1764</ele>
        <time>2021-08-06T09:09:58Z</time>
      </trkpt>
      <trkpt lat="45.10485" lon="5.87952">
        <ele>1764</ele>
        <time>2021-08-06T09:10:00Z</time>
      </trkpt>
      <trkpt lat="45.10485" lon="5.87954">
        <ele>1764</ele>
        <time>2021-08-06T09:10:02Z</time>
      </trkpt>
      <trkpt lat="45.10486" lon="5.87956">
        <ele>1764</ele>
        <time>2021-08-06T09:10:04Z</time>
      </trkpt>
      <trkpt lat="45.10487" lon="5.87958">
        <ele>1764</ele>
        <time>2021-08-06T09:10:06Z</time>
      </trkpt>
      <trkpt lat="45.10487" lon="5.8796">
        <ele>1764</ele>
        <time>2021-08-06T09:10:08Z</time>
      </trkpt>
      <trkpt lat="45.10488" lon="5.87962">
        <ele>1764</ele>
        <time>2021-08-06T09:10:10Z</time>
      </trkpt>
      <trkpt lat="45.10489" lon="5.87963">
        <ele>1764</ele>
        <time>2021-08-06T09:10:12Z</time>
      </trkpt>
      <trkpt lat="45.10489" lon="5.87965">
        <ele>1764</ele>
        <time>2021-08-06T09:10:14Z</time>
      </trkpt>
      <trkpt lat="45.10489" lon="5.87967">
        <ele>1764</ele>
        <time>2021-08-06T09:10:16Z</time>
      </trkpt>
      <trkpt lat="45.1049" lon="5.87969">
        <ele>1765</ele>
        <time>2021-08-06T09:10:18Z</time>
      </trkpt>
      <trkpt lat="45.10491" lon="5.8797">
        <ele>1765</ele>
        <time>2021-08-06T09:10:20Z</time>
      </trkpt>
      <trkpt lat="45.10491" lon="5.87972">
        <ele>1765</ele>
        <time>2021-08-06T09:10:22Z</time>
      </trkpt>
      <trkpt lat="45.10492" lon="5.87974">
        <ele>1765</ele>
        <time>2021-08-06T09:10:25Z</time>
      </trkpt>
      <trkpt lat="45.10492" lon="5.87976">
        <ele>1765</ele>
        <time>2021-08-06T09:10:27Z</time>
      </trkpt>
      <trkpt lat="45.10493" lon="5.87978">
        <ele>1765</ele>
        <time>2021-08-06T09:10:29Z</time>
      </trkpt>
      <trkpt lat="45.10493" lon="5.87981">
        <ele>1765</ele>
        <time>2021-08-06T09:10:31Z</time>
      </trkpt>
      <trkpt lat="45.10494" lon="5.87983">
        <ele>1765</ele>
        <time>2021-08-06T09:10:33Z</time>
      </trkpt>
      <trkpt lat="45.10494" lon="5.87985">
        <ele>1765</ele>
        <time>2021-08-06T09:10:35Z</time>
      </trkpt>
      <trkpt lat="45.10494" lon="5.87987">
        <ele>1765</ele>
        <time>2021-08-06T09:10:37Z</time>
      </trkpt>
      <trkpt lat="45.10495" lon="5.87989">
        <ele>1765</ele>
        <time>2021-08-06T09:10:39Z</time>
      </trkpt>
      <trkpt lat="45.10495" lon="5.87991">
        <ele>1766</ele>
        <time>2021-08-06T09:10:41Z</time>
      </trkpt>
      <trkpt lat="45.10495" lon="5.87992">
        <ele>1766</ele>
        <time>2021-08-06T09:10:43Z</time>
      </trkpt>
      <trkpt lat="45.10495" lon="5.87994">
        <ele>1766</ele>
        <time>2021-08-06T09:10:45Z</time>
      </trkpt>
      <trkpt lat="45.10496" lon="5.87996">
        <ele>1766</ele>
        <time>2021-08-06T09:10:47Z</time>
      </trkpt>
      <trkpt lat="45.10496" lon="5.87998">
        <ele>1766</ele>
        <time>2021-08-06T09:10:49Z</time>
      </trkpt>
      <trkpt lat="45.10497" lon="5.88001">
        <ele>1766</ele>
        <time>2021-08-06T09:10:52Z</time>
      </trkpt>
      <trkpt lat="45.10497" lon="5.88003">
        <ele>1766</ele>
        <time>2021-08-06T09:10:54Z</time>
      </trkpt>
      <trkpt lat="45.10497" lon="5.88005">
        <ele>1766</ele>
        <time>2021-08-06T09:10:56Z</time>
      </trkpt>
      <trkpt lat="45.10497" lon="5.88008">
        <ele>1766</ele>
        <time>2021-08-06T09:10:58Z</time>
      </trkpt>
      <trkpt lat="45.10497" lon="5.8801">
        <ele>1767</ele>
        <time>2021-08-06T09:11:00Z</time>
      </trkpt>
      <trkpt lat="45.10497" lon="5.88012">
        <ele>1767</ele>
        <time>2021-08-06T09:11:02Z</time>
      </trkpt>
      <trkpt lat="45.10497" lon="5.88013">
        <ele>1767</ele>
        <time>2021-08-06T09:11:04Z</time>
      </trkpt>
      <trkpt lat="45.10497" lon="5.88015">
        <ele>1767</ele>
        <time>2021-08-06T09:11:06Z</time>
      </trkpt>
      <trkpt lat="45.10497" lon="5.88018">
        <ele>1767</ele>
        <time>2021-08-06T09:11:08Z</time>
      </trkpt>
      <trkpt lat="45.10498" lon="5.8802">
        <ele>1767</ele>
        <time>2021-08-06T09:11:10Z</time>
      </trkpt>
      <trkpt lat="45.10498" lon="5.88022">
        <ele>1767</ele>
        <time>2021-08-06T09:11:12Z</time>
      </trkpt>
      <trkpt lat="45.10498" lon="5.88024">
        <ele>1767</ele>
        <time>2021-08-06T09:11:14Z</time>
      </trkpt>
      <trkpt lat="45.10498" lon="5.88026">
        <ele>1768</ele>
        <time>2021-08-06T09:11:16Z</time>
      </trkpt>
      <trkpt lat="45.10498" lon="5.88028">
        <ele>1768</ele>
        <time>2021-08-06T09:11:18Z</time>
      </trkpt>
      <trkpt lat="45.10498" lon="5.88031">
        <ele>1768</ele>
        <time>2021-08-06T09:11:20Z</time>
      </trkpt>
      <trkpt lat="45.10498" lon="5.88033">
        <ele>1768</ele>
        <time>2021-08-06T09:11:22Z</time>
      </trkpt>
      <trkpt lat="45.10498" lon="5.88036">
        <ele>1768</ele>
        <time>2021-08-06T09:11:24Z</time>
      </trkpt>
      <trkpt lat="45.10499" lon="5.88038">
        <ele>1768</ele>
        <time>2021-08-06T09:11:26Z</time>
      </trkpt>
      <trkpt lat="45.10499" lon="5.8804">
        <ele>1768</ele>
        <time>2021-08-06T09:11:28Z</time>
      </trkpt>
      <trkpt lat="45.10499" lon="5.88042">
        <ele>1768</ele>
        <time>2021-08-06T09:11:30Z</time>
      </trkpt>
      <trkpt lat="45.10499" lon="5.88045">
        <ele>1768</ele>
        <time>2021-08-06T09:11:32Z</time>
      </trkpt>
      <trkpt lat="45.10499" lon="5.88047">
        <ele>1768</ele>
        <time>2021-08-06T09:11:34Z</time>
      </trkpt>
      <trkpt lat="45.10499" lon="5.88049">
        <ele>1768</ele>
        <time>2021-08-06T09:11:36Z</time>
      </trkpt>
      <trkpt lat="45.10499" lon="5.88051">
        <ele>1768</ele>
        <time>2021-08-06T09:11:38Z</time>
      </trkpt>
      <trkpt lat="45.10499" lon="5.88054">
        <ele>1768</ele>
        <time>2021-08-06T09:11:40Z</time>
      </trkpt>
      <trkpt lat="45.10499" lon="5.88056">
        <ele>1768</ele>
        <time>2021-08-06T09:11:42Z</time>
      </trkpt>
      <trkpt lat="45.10499" lon="5.88058">
        <ele>1768</ele>
        <time>2021-08-06T09:11:44Z</time>
      </trkpt>
      <trkpt lat="45.10499" lon="5.88061">
        <ele>1768</ele>
        <time>2021-08-06T09:11:46Z</time>
      </trkpt>
      <trkpt lat="45.105" lon="5.88063">
        <ele>1768</ele>
        <time>2021-08-06T09:11:48Z</time>
      </trkpt>
      <trkpt lat="45.105" lon="5.88065">
        <ele>1768</ele>
        <time>2021-08-06T09:11:50Z</time>
      </trkpt>
      <trkpt lat="45.105" lon="5.88068">
        <ele>1768</ele>
        <time>2021-08-06T09:11:52Z</time>
      </trkpt>
      <trkpt lat="45.105" lon="5.8807">
        <ele>1768</ele>
        <time>2021-08-06T09:11:54Z</time>
      </trkpt>
      <trkpt lat="45.105" lon="5.88073">
        <ele>1768</ele>
        <time>2021-08-06T09:11:56Z</time>
      </trkpt>
      <trkpt lat="45.105" lon="5.88075">
        <ele>1768</ele>
        <time>2021-08-06T09:11:58Z</time>
      </trkpt>
      <trkpt lat="45.105" lon="5.88077">
        <ele>1768</ele>
        <time>2021-08-06T09:12:00Z</time>
      </trkpt>
      <trkpt lat="45.10501" lon="5.8808">
        <ele>1768</ele>
        <time>2021-08-06T09:12:02Z</time>
      </trkpt>
      <trkpt lat="45.10501" lon="5.88082">
        <ele>1768</ele>
        <time>2021-08-06T09:12:04Z</time>
      </trkpt>
      <trkpt lat="45.10501" lon="5.88084">
        <ele>1768</ele>
        <time>2021-08-06T09:12:06Z</time>
      </trkpt>
      <trkpt lat="45.105" lon="5.88087">
        <ele>1768</ele>
        <time>2021-08-06T09:12:08Z</time>
      </trkpt>
      <trkpt lat="45.105" lon="5.88089">
        <ele>1768</ele>
        <time>2021-08-06T09:12:10Z</time>
      </trkpt>
      <trkpt lat="45.105" lon="5.88092">
        <ele>1768</ele>
        <time>2021-08-06T09:12:12Z</time>
      </trkpt>
      <trkpt lat="45.105" lon="5.88094">
        <ele>1768</ele>
        <time>2021-08-06T09:12:14Z</time>
      </trkpt>
      <trkpt lat="45.105" lon="5.88097">
        <ele>1768</ele>
        <time>2021-08-06T09:12:16Z</time>
      </trkpt>
      <trkpt lat="45.105" lon="5.88099">
        <ele>1769</ele>
        <time>2021-08-06T09:12:18Z</time>
      </trkpt>
      <trkpt lat="45.105" lon="5.88101">
        <ele>1769</ele>
        <time>2021-08-06T09:12:20Z</time>
      </trkpt>
      <trkpt lat="45.105" lon="5.88104">
        <ele>1769</ele>
        <time>2021-08-06T09:12:22Z</time>
      </trkpt>
      <trkpt lat="45.105" lon="5.88106">
        <ele>1769</ele>
        <time>2021-08-06T09:12:24Z</time>
      </trkpt>
      <trkpt lat="45.105" lon="5.88108">
        <ele>1769</ele>
        <time>2021-08-06T09:12:26Z</time>
      </trkpt>
      <trkpt lat="45.105" lon="5.8811">
        <ele>1769</ele>
        <time>2021-08-06T09:12:28Z</time>
      </trkpt>
      <trkpt lat="45.105" lon="5.88113">
        <ele>1769</ele>
        <time>2021-08-06T09:12:30Z</time>
      </trkpt>
      <trkpt lat="45.105" lon="5.88114">
        <ele>1769</ele>
        <time>2021-08-06T09:12:31Z</time>
      </trkpt>
      <trkpt lat="45.105" lon="5.88117">
        <ele>1769</ele>
        <time>2021-08-06T09:12:33Z</time>
      </trkpt>
      <trkpt lat="45.10499" lon="5.88119">
        <ele>1769</ele>
        <time>2021-08-06T09:12:35Z</time>
      </trkpt>
      <trkpt lat="45.10499" lon="5.88122">
        <ele>1769</ele>
        <time>2021-08-06T09:12:37Z</time>
      </trkpt>
      <trkpt lat="45.10499" lon="5.88124">
        <ele>1769</ele>
        <time>2021-08-06T09:12:39Z</time>
      </trkpt>
      <trkpt lat="45.10499" lon="5.88127">
        <ele>1769</ele>
        <time>2021-08-06T09:12:41Z</time>
      </trkpt>
      <trkpt lat="45.10498" lon="5.88129">
        <ele>1769</ele>
        <time>2021-08-06T09:12:43Z</time>
      </trkpt>
      <trkpt lat="45.10498" lon="5.88131">
        <ele>1769</ele>
        <time>2021-08-06T09:12:45Z</time>
      </trkpt>
      <trkpt lat="45.10498" lon="5.88133">
        <ele>1769</ele>
        <time>2021-08-06T09:12:47Z</time>
      </trkpt>
      <trkpt lat="45.10498" lon="5.88135">
        <ele>1769</ele>
        <time>2021-08-06T09:12:49Z</time>
      </trkpt>
      <trkpt lat="45.10498" lon="5.88137">
        <ele>1769</ele>
        <time>2021-08-06T09:12:51Z</time>
      </trkpt>
      <trkpt lat="45.10498" lon="5.88139">
        <ele>1769</ele>
        <time>2021-08-06T09:12:53Z</time>
      </trkpt>
      <trkpt lat="45.10498" lon="5.88141">
        <ele>1769</ele>
        <time>2021-08-06T09:12:55Z</time>
      </trkpt>
      <trkpt lat="45.10498" lon="5.88143">
        <ele>1769</ele>
        <time>2021-08-06T09:12:57Z</time>
      </trkpt>
      <trkpt lat="45.10497" lon="5.88146">
        <ele>1769</ele>
        <time>2021-08-06T09:12:59Z</time>
      </trkpt>
      <trkpt lat="45.10497" lon="5.88149">
        <ele>1769</ele>
        <time>2021-08-06T09:13:01Z</time>
      </trkpt>
      <trkpt lat="45.10498" lon="5.88151">
        <ele>1769</ele>
        <time>2021-08-06T09:13:03Z</time>
      </trkpt>
      <trkpt lat="45.10498" lon="5.88153">
        <ele>1769</ele>
        <time>2021-08-06T09:13:05Z</time>
      </trkpt>
      <trkpt lat="45.10499" lon="5.88155">
        <ele>1769</ele>
        <time>2021-08-06T09:13:07Z</time>
      </trkpt>
      <trkpt lat="45.10501" lon="5.88157">
        <ele>1769</ele>
        <time>2021-08-06T09:13:09Z</time>
      </trkpt>
      <trkpt lat="45.10502" lon="5.88159">
        <ele>1769</ele>
        <time>2021-08-06T09:13:11Z</time>
      </trkpt>
      <trkpt lat="45.10503" lon="5.88161">
        <ele>1769</ele>
        <time>2021-08-06T09:13:13Z</time>
      </trkpt>
      <trkpt lat="45.10504" lon="5.88163">
        <ele>1769</ele>
        <time>2021-08-06T09:13:15Z</time>
      </trkpt>
      <trkpt lat="45.10505" lon="5.88165">
        <ele>1769</ele>
        <time>2021-08-06T09:13:17Z</time>
      </trkpt>
      <trkpt lat="45.10505" lon="5.88167">
        <ele>1769</ele>
        <time>2021-08-06T09:13:19Z</time>
      </trkpt>
      <trkpt lat="45.10506" lon="5.88168">
        <ele>1769</ele>
        <time>2021-08-06T09:13:21Z</time>
      </trkpt>
      <trkpt lat="45.10507" lon="5.8817">
        <ele>1769</ele>
        <time>2021-08-06T09:13:24Z</time>
      </trkpt>
      <trkpt lat="45.10509" lon="5.88172">
        <ele>1769</ele>
        <time>2021-08-06T09:13:32Z</time>
      </trkpt>
      <trkpt lat="45.1051" lon="5.88174">
        <ele>1769</ele>
        <time>2021-08-06T09:13:34Z</time>
      </trkpt>
      <trkpt lat="45.10511" lon="5.88176">
        <ele>1769</ele>
        <time>2021-08-06T09:13:36Z</time>
      </trkpt>
      <trkpt lat="45.10512" lon="5.88179">
        <ele>1769</ele>
        <time>2021-08-06T09:13:38Z</time>
      </trkpt>
      <trkpt lat="45.10512" lon="5.88181">
        <ele>1769</ele>
        <time>2021-08-06T09:13:40Z</time>
      </trkpt>
      <trkpt lat="45.10513" lon="5.88183">
        <ele>1769</ele>
        <time>2021-08-06T09:13:42Z</time>
      </trkpt>
      <trkpt lat="45.10514" lon="5.88184">
        <ele>1769</ele>
        <time>2021-08-06T09:13:46Z</time>
      </trkpt>
      <trkpt lat="45.10516" lon="5.88185">
        <ele>1769</ele>
        <time>2021-08-06T09:13:49Z</time>
      </trkpt>
      <trkpt lat="45.10517" lon="5.88185">
        <ele>1769</ele>
        <time>2021-08-06T09:13:51Z</time>
      </trkpt>
      <trkpt lat="45.10519" lon="5.88186">
        <ele>1769</ele>
        <time>2021-08-06T09:13:53Z</time>
      </trkpt>
      <trkpt lat="45.1052" lon="5.88187">
        <ele>1769</ele>
        <time>2021-08-06T09:13:55Z</time>
      </trkpt>
      <trkpt lat="45.10521" lon="5.88189">
        <ele>1769</ele>
        <time>2021-08-06T09:13:58Z</time>
      </trkpt>
      <trkpt lat="45.10521" lon="5.8819">
        <ele>1769</ele>
        <time>2021-08-06T09:14:00Z</time>
      </trkpt>
      <trkpt lat="45.10522" lon="5.88192">
        <ele>1769</ele>
        <time>2021-08-06T09:14:02Z</time>
      </trkpt>
      <trkpt lat="45.10523" lon="5.88193">
        <ele>1769</ele>
        <time>2021-08-06T09:14:04Z</time>
      </trkpt>
      <trkpt lat="45.10523" lon="5.88195">
        <ele>1769</ele>
        <time>2021-08-06T09:14:06Z</time>
      </trkpt>
      <trkpt lat="45.10525" lon="5.88197">
        <ele>1769</ele>
        <time>2021-08-06T09:14:09Z</time>
      </trkpt>
      <trkpt lat="45.10526" lon="5.88198">
        <ele>1769</ele>
        <time>2021-08-06T09:14:12Z</time>
      </trkpt>
      <trkpt lat="45.10527" lon="5.882">
        <ele>1769</ele>
        <time>2021-08-06T09:14:14Z</time>
      </trkpt>
      <trkpt lat="45.10528" lon="5.88202">
        <ele>1769</ele>
        <time>2021-08-06T09:14:16Z</time>
      </trkpt>
      <trkpt lat="45.10529" lon="5.88204">
        <ele>1769</ele>
        <time>2021-08-06T09:14:18Z</time>
      </trkpt>
      <trkpt lat="45.1053" lon="5.88206">
        <ele>1769</ele>
        <time>2021-08-06T09:14:20Z</time>
      </trkpt>
      <trkpt lat="45.10531" lon="5.88209">
        <ele>1769</ele>
        <time>2021-08-06T09:14:22Z</time>
      </trkpt>
      <trkpt lat="45.10532" lon="5.8821">
        <ele>1769</ele>
        <time>2021-08-06T09:14:25Z</time>
      </trkpt>
      <trkpt lat="45.10533" lon="5.88212">
        <ele>1769</ele>
        <time>2021-08-06T09:14:28Z</time>
      </trkpt>
      <trkpt lat="45.10534" lon="5.88214">
        <ele>1770</ele>
        <time>2021-08-06T09:14:30Z</time>
      </trkpt>
      <trkpt lat="45.10535" lon="5.88216">
        <ele>1770</ele>
        <time>2021-08-06T09:14:32Z</time>
      </trkpt>
      <trkpt lat="45.10536" lon="5.88218">
        <ele>1770</ele>
        <time>2021-08-06T09:14:35Z</time>
      </trkpt>
      <trkpt lat="45.10536" lon="5.88216">
        <ele>1770</ele>
        <time>2021-08-06T09:14:52Z</time>
      </trkpt>
      <trkpt lat="45.10537" lon="5.88218">
        <ele>1774</ele>
        <time>2021-08-06T09:15:10Z</time>
      </trkpt>
      <trkpt lat="45.10538" lon="5.88219">
        <ele>1774</ele>
        <time>2021-08-06T09:15:11Z</time>
      </trkpt>
      <trkpt lat="45.10539" lon="5.88222">
        <ele>1774</ele>
        <time>2021-08-06T09:15:13Z</time>
      </trkpt>
      <trkpt lat="45.1054" lon="5.88224">
        <ele>1774</ele>
        <time>2021-08-06T09:15:15Z</time>
      </trkpt>
      <trkpt lat="45.1054" lon="5.88226">
        <ele>1774</ele>
        <time>2021-08-06T09:15:17Z</time>
      </trkpt>
      <trkpt lat="45.10541" lon="5.88228">
        <ele>1774</ele>
        <time>2021-08-06T09:15:19Z</time>
      </trkpt>
      <trkpt lat="45.1054" lon="5.8823">
        <ele>1774</ele>
        <time>2021-08-06T09:15:21Z</time>
      </trkpt>
      <trkpt lat="45.10541" lon="5.88232">
        <ele>1774</ele>
        <time>2021-08-06T09:15:23Z</time>
      </trkpt>
      <trkpt lat="45.1054" lon="5.88233">
        <ele>1774</ele>
        <time>2021-08-06T09:15:25Z</time>
      </trkpt>
      <trkpt lat="45.1054" lon="5.88235">
        <ele>1774</ele>
        <time>2021-08-06T09:15:27Z</time>
      </trkpt>
      <trkpt lat="45.1054" lon="5.88237">
        <ele>1774</ele>
        <time>2021-08-06T09:15:29Z</time>
      </trkpt>
      <trkpt lat="45.10539" lon="5.8824">
        <ele>1774</ele>
        <time>2021-08-06T09:15:31Z</time>
      </trkpt>
      <trkpt lat="45.10539" lon="5.88242">
        <ele>1774</ele>
        <time>2021-08-06T09:15:43Z</time>
      </trkpt>
      <trkpt lat="45.10539" lon="5.88244">
        <ele>1774</ele>
        <time>2021-08-06T09:15:45Z</time>
      </trkpt>
      <trkpt lat="45.1054" lon="5.88246">
        <ele>1774</ele>
        <time>2021-08-06T09:15:47Z</time>
      </trkpt>
      <trkpt lat="45.1054" lon="5.88247">
        <ele>1774</ele>
        <time>2021-08-06T09:15:49Z</time>
      </trkpt>
      <trkpt lat="45.1054" lon="5.88249">
        <ele>1774</ele>
        <time>2021-08-06T09:15:51Z</time>
      </trkpt>
      <trkpt lat="45.1054" lon="5.88252">
        <ele>1774</ele>
        <time>2021-08-06T09:15:53Z</time>
      </trkpt>
      <trkpt lat="45.10541" lon="5.88254">
        <ele>1774</ele>
        <time>2021-08-06T09:15:55Z</time>
      </trkpt>
      <trkpt lat="45.10542" lon="5.88256">
        <ele>1774</ele>
        <time>2021-08-06T09:15:58Z</time>
      </trkpt>
      <trkpt lat="45.10542" lon="5.88257">
        <ele>1774</ele>
        <time>2021-08-06T09:16:00Z</time>
      </trkpt>
      <trkpt lat="45.10542" lon="5.88259">
        <ele>1774</ele>
        <time>2021-08-06T09:16:04Z</time>
      </trkpt>
      <trkpt lat="45.10543" lon="5.88261">
        <ele>1774</ele>
        <time>2021-08-06T09:16:07Z</time>
      </trkpt>
      <trkpt lat="45.10544" lon="5.88263">
        <ele>1774</ele>
        <time>2021-08-06T09:16:09Z</time>
      </trkpt>
      <trkpt lat="45.10544" lon="5.88264">
        <ele>1774</ele>
        <time>2021-08-06T09:16:14Z</time>
      </trkpt>
      <trkpt lat="45.10546" lon="5.88266">
        <ele>1774</ele>
        <time>2021-08-06T09:16:18Z</time>
      </trkpt>
      <trkpt lat="45.10547" lon="5.88267">
        <ele>1774</ele>
        <time>2021-08-06T09:16:20Z</time>
      </trkpt>
      <trkpt lat="45.10548" lon="5.88267">
        <ele>1774</ele>
        <time>2021-08-06T09:16:22Z</time>
      </trkpt>
      <trkpt lat="45.10549" lon="5.8827">
        <ele>1774</ele>
        <time>2021-08-06T09:16:24Z</time>
      </trkpt>
      <trkpt lat="45.1055" lon="5.88272">
        <ele>1774</ele>
        <time>2021-08-06T09:16:26Z</time>
      </trkpt>
      <trkpt lat="45.10551" lon="5.88273">
        <ele>1775</ele>
        <time>2021-08-06T09:16:28Z</time>
      </trkpt>
      <trkpt lat="45.10551" lon="5.88274">
        <ele>1775</ele>
        <time>2021-08-06T09:16:31Z</time>
      </trkpt>
      <trkpt lat="45.10552" lon="5.88276">
        <ele>1775</ele>
        <time>2021-08-06T09:16:35Z</time>
      </trkpt>
      <trkpt lat="45.10553" lon="5.88278">
        <ele>1775</ele>
        <time>2021-08-06T09:16:38Z</time>
      </trkpt>
      <trkpt lat="45.10553" lon="5.8828">
        <ele>1775</ele>
        <time>2021-08-06T09:16:40Z</time>
      </trkpt>
      <trkpt lat="45.10555" lon="5.88282">
        <ele>1775</ele>
        <time>2021-08-06T09:16:42Z</time>
      </trkpt>
      <trkpt lat="45.10556" lon="5.88284">
        <ele>1775</ele>
        <time>2021-08-06T09:16:45Z</time>
      </trkpt>
      <trkpt lat="45.10557" lon="5.88286">
        <ele>1775</ele>
        <time>2021-08-06T09:16:48Z</time>
      </trkpt>
      <trkpt lat="45.10558" lon="5.88288">
        <ele>1775</ele>
        <time>2021-08-06T09:16:51Z</time>
      </trkpt>
      <trkpt lat="45.10559" lon="5.8829">
        <ele>1775</ele>
        <time>2021-08-06T09:16:54Z</time>
      </trkpt>
      <trkpt lat="45.10561" lon="5.88292">
        <ele>1775</ele>
        <time>2021-08-06T09:16:57Z</time>
      </trkpt>
      <trkpt lat="45.10562" lon="5.88292">
        <ele>1775</ele>
        <time>2021-08-06T09:17:00Z</time>
      </trkpt>
      <trkpt lat="45.10563" lon="5.88293">
        <ele>1775</ele>
        <time>2021-08-06T09:17:03Z</time>
      </trkpt>
      <trkpt lat="45.10564" lon="5.88295">
        <ele>1776</ele>
        <time>2021-08-06T09:17:07Z</time>
      </trkpt>
      <trkpt lat="45.10565" lon="5.88296">
        <ele>1776</ele>
        <time>2021-08-06T09:17:10Z</time>
      </trkpt>
      <trkpt lat="45.10567" lon="5.88298">
        <ele>1776</ele>
        <time>2021-08-06T09:17:13Z</time>
      </trkpt>
      <trkpt lat="45.10568" lon="5.88299">
        <ele>1776</ele>
        <time>2021-08-06T09:17:16Z</time>
      </trkpt>
      <trkpt lat="45.10569" lon="5.88301">
        <ele>1776</ele>
        <time>2021-08-06T09:17:18Z</time>
      </trkpt>
      <trkpt lat="45.10569" lon="5.88303">
        <ele>1776</ele>
        <time>2021-08-06T09:17:20Z</time>
      </trkpt>
      <trkpt lat="45.1057" lon="5.88304">
        <ele>1777</ele>
        <time>2021-08-06T09:17:22Z</time>
      </trkpt>
      <trkpt lat="45.10571" lon="5.88306">
        <ele>1777</ele>
        <time>2021-08-06T09:17:24Z</time>
      </trkpt>
      <trkpt lat="45.10571" lon="5.88308">
        <ele>1777</ele>
        <time>2021-08-06T09:17:26Z</time>
      </trkpt>
      <trkpt lat="45.10571" lon="5.88309">
        <ele>1777</ele>
        <time>2021-08-06T09:17:28Z</time>
      </trkpt>
      <trkpt lat="45.10572" lon="5.88311">
        <ele>1777</ele>
        <time>2021-08-06T09:17:31Z</time>
      </trkpt>
      <trkpt lat="45.10572" lon="5.88313">
        <ele>1777</ele>
        <time>2021-08-06T09:17:33Z</time>
      </trkpt>
      <trkpt lat="45.10573" lon="5.88314">
        <ele>1777</ele>
        <time>2021-08-06T09:17:37Z</time>
      </trkpt>
      <trkpt lat="45.10574" lon="5.88316">
        <ele>1777</ele>
        <time>2021-08-06T09:17:40Z</time>
      </trkpt>
      <trkpt lat="45.10574" lon="5.88317">
        <ele>1777</ele>
        <time>2021-08-06T09:17:42Z</time>
      </trkpt>
      <trkpt lat="45.10576" lon="5.88317">
        <ele>1777</ele>
        <time>2021-08-06T09:17:44Z</time>
      </trkpt>
      <trkpt lat="45.10577" lon="5.88319">
        <ele>1777</ele>
        <time>2021-08-06T09:17:46Z</time>
      </trkpt>
      <trkpt lat="45.10579" lon="5.88321">
        <ele>1777</ele>
        <time>2021-08-06T09:17:49Z</time>
      </trkpt>
      <trkpt lat="45.10579" lon="5.88322">
        <ele>1779</ele>
        <time>2021-08-06T09:17:55Z</time>
      </trkpt>
      <trkpt lat="45.10579" lon="5.88324">
        <ele>1779</ele>
        <time>2021-08-06T09:17:57Z</time>
      </trkpt>
      <trkpt lat="45.1058" lon="5.88324">
        <ele>1779</ele>
        <time>2021-08-06T09:18:02Z</time>
      </trkpt>
      <trkpt lat="45.10582" lon="5.88325">
        <ele>1779</ele>
        <time>2021-08-06T09:18:07Z</time>
      </trkpt>
      <trkpt lat="45.10583" lon="5.88326">
        <ele>1779</ele>
        <time>2021-08-06T09:18:09Z</time>
      </trkpt>
      <trkpt lat="45.10585" lon="5.88327">
        <ele>1779</ele>
        <time>2021-08-06T09:18:12Z</time>
      </trkpt>
      <trkpt lat="45.10586" lon="5.88328">
        <ele>1779</ele>
        <time>2021-08-06T09:18:14Z</time>
      </trkpt>
      <trkpt lat="45.10588" lon="5.88329">
        <ele>1779</ele>
        <time>2021-08-06T09:18:16Z</time>
      </trkpt>
      <trkpt lat="45.10589" lon="5.8833">
        <ele>1779</ele>
        <time>2021-08-06T09:18:18Z</time>
      </trkpt>
      <trkpt lat="45.1059" lon="5.88332">
        <ele>1779</ele>
        <time>2021-08-06T09:18:21Z</time>
      </trkpt>
      <trkpt lat="45.10592" lon="5.88334">
        <ele>1779</ele>
        <time>2021-08-06T09:18:24Z</time>
      </trkpt>
      <trkpt lat="45.10591" lon="5.88335">
        <ele>1779</ele>
        <time>2021-08-06T09:18:25Z</time>
      </trkpt>
      <trkpt lat="45.10593" lon="5.88337">
        <ele>1779</ele>
        <time>2021-08-06T09:18:27Z</time>
      </trkpt>
      <trkpt lat="45.10594" lon="5.88338">
        <ele>1780</ele>
        <time>2021-08-06T09:18:30Z</time>
      </trkpt>
      <trkpt lat="45.10595" lon="5.88339">
        <ele>1780</ele>
        <time>2021-08-06T09:18:33Z</time>
      </trkpt>
      <trkpt lat="45.10596" lon="5.88341">
        <ele>1781</ele>
        <time>2021-08-06T09:18:37Z</time>
      </trkpt>
      <trkpt lat="45.10596" lon="5.88343">
        <ele>1781</ele>
        <time>2021-08-06T09:18:38Z</time>
      </trkpt>
      <trkpt lat="45.10598" lon="5.88344">
        <ele>1782</ele>
        <time>2021-08-06T09:18:41Z</time>
      </trkpt>
      <trkpt lat="45.106" lon="5.88343">
        <ele>1782</ele>
        <time>2021-08-06T09:18:44Z</time>
      </trkpt>
      <trkpt lat="45.10601" lon="5.88343">
        <ele>1782</ele>
        <time>2021-08-06T09:18:47Z</time>
      </trkpt>
      <trkpt lat="45.10602" lon="5.88344">
        <ele>1782</ele>
        <time>2021-08-06T09:18:51Z</time>
      </trkpt>
      <trkpt lat="45.10603" lon="5.88345">
        <ele>1782</ele>
        <time>2021-08-06T09:18:54Z</time>
      </trkpt>
      <trkpt lat="45.10605" lon="5.88344">
        <ele>1783</ele>
        <time>2021-08-06T09:18:57Z</time>
      </trkpt>
      <trkpt lat="45.10606" lon="5.88346">
        <ele>1784</ele>
        <time>2021-08-06T09:19:02Z</time>
      </trkpt>
      <trkpt lat="45.10607" lon="5.88347">
        <ele>1785</ele>
        <time>2021-08-06T09:19:07Z</time>
      </trkpt>
      <trkpt lat="45.10609" lon="5.88347">
        <ele>1785</ele>
        <time>2021-08-06T09:19:10Z</time>
      </trkpt>
      <trkpt lat="45.1061" lon="5.88347">
        <ele>1785</ele>
        <time>2021-08-06T09:19:15Z</time>
      </trkpt>
      <trkpt lat="45.10611" lon="5.88347">
        <ele>1785</ele>
        <time>2021-08-06T09:19:22Z</time>
      </trkpt>
      <trkpt lat="45.10612" lon="5.88347">
        <ele>1785</ele>
        <time>2021-08-06T09:19:36Z</time>
      </trkpt>
      <trkpt lat="45.10614" lon="5.88349">
        <ele>1786</ele>
        <time>2021-08-06T09:19:57Z</time>
      </trkpt>
      <trkpt lat="45.10614" lon="5.8835">
        <ele>1786</ele>
        <time>2021-08-06T09:19:59Z</time>
      </trkpt>
      <trkpt lat="45.10614" lon="5.88352">
        <ele>1786</ele>
        <time>2021-08-06T09:20:01Z</time>
      </trkpt>
      <trkpt lat="45.10616" lon="5.88354">
        <ele>1787</ele>
        <time>2021-08-06T09:20:09Z</time>
      </trkpt>
      <trkpt lat="45.10617" lon="5.88354">
        <ele>1787</ele>
        <time>2021-08-06T09:20:11Z</time>
      </trkpt>
      <trkpt lat="45.10618" lon="5.88354">
        <ele>1788</ele>
        <time>2021-08-06T09:20:13Z</time>
      </trkpt>
      <trkpt lat="45.10619" lon="5.88354">
        <ele>1788</ele>
        <time>2021-08-06T09:20:15Z</time>
      </trkpt>
      <trkpt lat="45.1062" lon="5.88354">
        <ele>1788</ele>
        <time>2021-08-06T09:20:17Z</time>
      </trkpt>
      <trkpt lat="45.10622" lon="5.88353">
        <ele>1788</ele>
        <time>2021-08-06T09:20:19Z</time>
      </trkpt>
      <trkpt lat="45.10623" lon="5.88352">
        <ele>1788</ele>
        <time>2021-08-06T09:20:21Z</time>
      </trkpt>
      <trkpt lat="45.10624" lon="5.88352">
        <ele>1788</ele>
        <time>2021-08-06T09:20:24Z</time>
      </trkpt>
      <trkpt lat="45.10626" lon="5.88354">
        <ele>1788</ele>
        <time>2021-08-06T09:20:27Z</time>
      </trkpt>
      <trkpt lat="45.10627" lon="5.88355">
        <ele>1788</ele>
        <time>2021-08-06T09:20:30Z</time>
      </trkpt>
      <trkpt lat="45.10628" lon="5.88356">
        <ele>1788</ele>
        <time>2021-08-06T09:20:33Z</time>
      </trkpt>
      <trkpt lat="45.10629" lon="5.88358">
        <ele>1788</ele>
        <time>2021-08-06T09:20:35Z</time>
      </trkpt>
      <trkpt lat="45.1063" lon="5.88359">
        <ele>1788</ele>
        <time>2021-08-06T09:20:37Z</time>
      </trkpt>
      <trkpt lat="45.10631" lon="5.88361">
        <ele>1788</ele>
        <time>2021-08-06T09:20:39Z</time>
      </trkpt>
      <trkpt lat="45.10633" lon="5.88363">
        <ele>1788</ele>
        <time>2021-08-06T09:20:42Z</time>
      </trkpt>
      <trkpt lat="45.10634" lon="5.88365">
        <ele>1788</ele>
        <time>2021-08-06T09:20:45Z</time>
      </trkpt>
      <trkpt lat="45.10635" lon="5.88366">
        <ele>1788</ele>
        <time>2021-08-06T09:20:47Z</time>
      </trkpt>
      <trkpt lat="45.10637" lon="5.88367">
        <ele>1788</ele>
        <time>2021-08-06T09:20:49Z</time>
      </trkpt>
      <trkpt lat="45.10638" lon="5.88367">
        <ele>1788</ele>
        <time>2021-08-06T09:20:51Z</time>
      </trkpt>
      <trkpt lat="45.1064" lon="5.8837">
        <ele>1788</ele>
        <time>2021-08-06T09:20:53Z</time>
      </trkpt>
      <trkpt lat="45.10641" lon="5.88371">
        <ele>1788</ele>
        <time>2021-08-06T09:20:55Z</time>
      </trkpt>
      <trkpt lat="45.10642" lon="5.88373">
        <ele>1788</ele>
        <time>2021-08-06T09:20:57Z</time>
      </trkpt>
      <trkpt lat="45.10643" lon="5.88374">
        <ele>1788</ele>
        <time>2021-08-06T09:20:59Z</time>
      </trkpt>
      <trkpt lat="45.10644" lon="5.88377">
        <ele>1788</ele>
        <time>2021-08-06T09:21:02Z</time>
      </trkpt>
      <trkpt lat="45.10645" lon="5.88379">
        <ele>1788</ele>
        <time>2021-08-06T09:21:04Z</time>
      </trkpt>
      <trkpt lat="45.10646" lon="5.8838">
        <ele>1788</ele>
        <time>2021-08-06T09:21:07Z</time>
      </trkpt>
      <trkpt lat="45.10647" lon="5.88381">
        <ele>1788</ele>
        <time>2021-08-06T09:21:09Z</time>
      </trkpt>
      <trkpt lat="45.10648" lon="5.88383">
        <ele>1788</ele>
        <time>2021-08-06T09:21:11Z</time>
      </trkpt>
      <trkpt lat="45.10649" lon="5.88385">
        <ele>1788</ele>
        <time>2021-08-06T09:21:13Z</time>
      </trkpt>
      <trkpt lat="45.1065" lon="5.88385">
        <ele>1789</ele>
        <time>2021-08-06T09:21:15Z</time>
      </trkpt>
      <trkpt lat="45.10652" lon="5.88385">
        <ele>1790</ele>
        <time>2021-08-06T09:21:17Z</time>
      </trkpt>
      <trkpt lat="45.10654" lon="5.88385">
        <ele>1791</ele>
        <time>2021-08-06T09:21:19Z</time>
      </trkpt>
      <trkpt lat="45.10655" lon="5.88384">
        <ele>1791</ele>
        <time>2021-08-06T09:21:21Z</time>
      </trkpt>
      <trkpt lat="45.10657" lon="5.88383">
        <ele>1791</ele>
        <time>2021-08-06T09:21:23Z</time>
      </trkpt>
      <trkpt lat="45.10659" lon="5.88383">
        <ele>1791</ele>
        <time>2021-08-06T09:21:25Z</time>
      </trkpt>
      <trkpt lat="45.1066" lon="5.88384">
        <ele>1791</ele>
        <time>2021-08-06T09:21:27Z</time>
      </trkpt>
      <trkpt lat="45.10662" lon="5.88386">
        <ele>1791</ele>
        <time>2021-08-06T09:21:29Z</time>
      </trkpt>
      <trkpt lat="45.10663" lon="5.88387">
        <ele>1791</ele>
        <time>2021-08-06T09:21:31Z</time>
      </trkpt>
      <trkpt lat="45.10665" lon="5.88388">
        <ele>1791</ele>
        <time>2021-08-06T09:21:33Z</time>
      </trkpt>
      <trkpt lat="45.10666" lon="5.8839">
        <ele>1792</ele>
        <time>2021-08-06T09:21:35Z</time>
      </trkpt>
      <trkpt lat="45.10667" lon="5.8839">
        <ele>1792</ele>
        <time>2021-08-06T09:21:37Z</time>
      </trkpt>
      <trkpt lat="45.10669" lon="5.8839">
        <ele>1792</ele>
        <time>2021-08-06T09:21:38Z</time>
      </trkpt>
      <trkpt lat="45.10671" lon="5.8839">
        <ele>1792</ele>
        <time>2021-08-06T09:21:41Z</time>
      </trkpt>
      <trkpt lat="45.10672" lon="5.8839">
        <ele>1792</ele>
        <time>2021-08-06T09:21:44Z</time>
      </trkpt>
      <trkpt lat="45.10674" lon="5.88391">
        <ele>1793</ele>
        <time>2021-08-06T09:21:47Z</time>
      </trkpt>
      <trkpt lat="45.10675" lon="5.88391">
        <ele>1795</ele>
        <time>2021-08-06T09:21:50Z</time>
      </trkpt>
      <trkpt lat="45.10676" lon="5.88392">
        <ele>1795</ele>
        <time>2021-08-06T09:21:52Z</time>
      </trkpt>
      <trkpt lat="45.10677" lon="5.88393">
        <ele>1795</ele>
        <time>2021-08-06T09:21:54Z</time>
      </trkpt>
      <trkpt lat="45.10678" lon="5.88394">
        <ele>1795</ele>
        <time>2021-08-06T09:21:57Z</time>
      </trkpt>
      <trkpt lat="45.1068" lon="5.88395">
        <ele>1795</ele>
        <time>2021-08-06T09:22:00Z</time>
      </trkpt>
      <trkpt lat="45.10681" lon="5.88396">
        <ele>1796</ele>
        <time>2021-08-06T09:22:03Z</time>
      </trkpt>
      <trkpt lat="45.10683" lon="5.88398">
        <ele>1796</ele>
        <time>2021-08-06T09:22:06Z</time>
      </trkpt>
      <trkpt lat="45.10684" lon="5.88398">
        <ele>1796</ele>
        <time>2021-08-06T09:22:08Z</time>
      </trkpt>
      <trkpt lat="45.10686" lon="5.88399">
        <ele>1796</ele>
        <time>2021-08-06T09:22:11Z</time>
      </trkpt>
      <trkpt lat="45.10687" lon="5.88399">
        <ele>1796</ele>
        <time>2021-08-06T09:22:13Z</time>
      </trkpt>
      <trkpt lat="45.10688" lon="5.88399">
        <ele>1796</ele>
        <time>2021-08-06T09:22:15Z</time>
      </trkpt>
      <trkpt lat="45.1069" lon="5.88401">
        <ele>1796</ele>
        <time>2021-08-06T09:22:18Z</time>
      </trkpt>
      <trkpt lat="45.10691" lon="5.88403">
        <ele>1796</ele>
        <time>2021-08-06T09:22:20Z</time>
      </trkpt>
      <trkpt lat="45.10692" lon="5.88404">
        <ele>1796</ele>
        <time>2021-08-06T09:22:23Z</time>
      </trkpt>
      <trkpt lat="45.10693" lon="5.88405">
        <ele>1796</ele>
        <time>2021-08-06T09:22:25Z</time>
      </trkpt>
      <trkpt lat="45.10695" lon="5.88407">
        <ele>1796</ele>
        <time>2021-08-06T09:22:28Z</time>
      </trkpt>
      <trkpt lat="45.10695" lon="5.88409">
        <ele>1796</ele>
        <time>2021-08-06T09:22:30Z</time>
      </trkpt>
      <trkpt lat="45.10696" lon="5.8841">
        <ele>1796</ele>
        <time>2021-08-06T09:22:32Z</time>
      </trkpt>
      <trkpt lat="45.10696" lon="5.88412">
        <ele>1796</ele>
        <time>2021-08-06T09:22:34Z</time>
      </trkpt>
      <trkpt lat="45.10696" lon="5.88414">
        <ele>1796</ele>
        <time>2021-08-06T09:22:36Z</time>
      </trkpt>
      <trkpt lat="45.10697" lon="5.88416">
        <ele>1796</ele>
        <time>2021-08-06T09:22:38Z</time>
      </trkpt>
      <trkpt lat="45.10698" lon="5.88418">
        <ele>1796</ele>
        <time>2021-08-06T09:22:40Z</time>
      </trkpt>
      <trkpt lat="45.10698" lon="5.8842">
        <ele>1796</ele>
        <time>2021-08-06T09:22:42Z</time>
      </trkpt>
      <trkpt lat="45.10699" lon="5.88421">
        <ele>1796</ele>
        <time>2021-08-06T09:22:44Z</time>
      </trkpt>
      <trkpt lat="45.107" lon="5.88424">
        <ele>1796</ele>
        <time>2021-08-06T09:22:47Z</time>
      </trkpt>
      <trkpt lat="45.10701" lon="5.88426">
        <ele>1796</ele>
        <time>2021-08-06T09:22:49Z</time>
      </trkpt>
      <trkpt lat="45.10701" lon="5.88427">
        <ele>1796</ele>
        <time>2021-08-06T09:22:51Z</time>
      </trkpt>
      <trkpt lat="45.10701" lon="5.8843">
        <ele>1796</ele>
        <time>2021-08-06T09:22:53Z</time>
      </trkpt>
      <trkpt lat="45.10702" lon="5.88432">
        <ele>1796</ele>
        <time>2021-08-06T09:22:55Z</time>
      </trkpt>
      <trkpt lat="45.10703" lon="5.88434">
        <ele>1796</ele>
        <time>2021-08-06T09:22:57Z</time>
      </trkpt>
      <trkpt lat="45.10704" lon="5.88436">
        <ele>1796</ele>
        <time>2021-08-06T09:22:59Z</time>
      </trkpt>
      <trkpt lat="45.10704" lon="5.88437">
        <ele>1796</ele>
        <time>2021-08-06T09:23:01Z</time>
      </trkpt>
      <trkpt lat="45.10706" lon="5.88439">
        <ele>1796</ele>
        <time>2021-08-06T09:23:03Z</time>
      </trkpt>
      <trkpt lat="45.10707" lon="5.88441">
        <ele>1796</ele>
        <time>2021-08-06T09:23:05Z</time>
      </trkpt>
      <trkpt lat="45.10708" lon="5.88442">
        <ele>1796</ele>
        <time>2021-08-06T09:23:07Z</time>
      </trkpt>
      <trkpt lat="45.10709" lon="5.88444">
        <ele>1796</ele>
        <time>2021-08-06T09:23:09Z</time>
      </trkpt>
      <trkpt lat="45.10709" lon="5.88447">
        <ele>1796</ele>
        <time>2021-08-06T09:23:11Z</time>
      </trkpt>
      <trkpt lat="45.10709" lon="5.88449">
        <ele>1796</ele>
        <time>2021-08-06T09:23:13Z</time>
      </trkpt>
      <trkpt lat="45.10711" lon="5.88451">
        <ele>1796</ele>
        <time>2021-08-06T09:23:15Z</time>
      </trkpt>
      <trkpt lat="45.10711" lon="5.88453">
        <ele>1796</ele>
        <time>2021-08-06T09:23:17Z</time>
      </trkpt>
      <trkpt lat="45.10712" lon="5.88454">
        <ele>1796</ele>
        <time>2021-08-06T09:23:19Z</time>
      </trkpt>
      <trkpt lat="45.10714" lon="5.88456">
        <ele>1796</ele>
        <time>2021-08-06T09:23:22Z</time>
      </trkpt>
      <trkpt lat="45.10714" lon="5.88458">
        <ele>1796</ele>
        <time>2021-08-06T09:23:25Z</time>
      </trkpt>
      <trkpt lat="45.10715" lon="5.8846">
        <ele>1796</ele>
        <time>2021-08-06T09:23:27Z</time>
      </trkpt>
      <trkpt lat="45.10715" lon="5.88462">
        <ele>1796</ele>
        <time>2021-08-06T09:23:28Z</time>
      </trkpt>
      <trkpt lat="45.10715" lon="5.88463">
        <ele>1796</ele>
        <time>2021-08-06T09:23:29Z</time>
      </trkpt>
      <trkpt lat="45.10716" lon="5.88465">
        <ele>1796</ele>
        <time>2021-08-06T09:23:31Z</time>
      </trkpt>
      <trkpt lat="45.10717" lon="5.88467">
        <ele>1797</ele>
        <time>2021-08-06T09:23:34Z</time>
      </trkpt>
      <trkpt lat="45.10717" lon="5.88468">
        <ele>1797</ele>
        <time>2021-08-06T09:23:35Z</time>
      </trkpt>
      <trkpt lat="45.10717" lon="5.8847">
        <ele>1798</ele>
        <time>2021-08-06T09:23:37Z</time>
      </trkpt>
      <trkpt lat="45.10717" lon="5.88472">
        <ele>1799</ele>
        <time>2021-08-06T09:23:39Z</time>
      </trkpt>
      <trkpt lat="45.10717" lon="5.88473">
        <ele>1800</ele>
        <time>2021-08-06T09:23:42Z</time>
      </trkpt>
      <trkpt lat="45.10718" lon="5.88475">
        <ele>1800</ele>
        <time>2021-08-06T09:23:44Z</time>
      </trkpt>
      <trkpt lat="45.10718" lon="5.88477">
        <ele>1800</ele>
        <time>2021-08-06T09:23:48Z</time>
      </trkpt>
      <trkpt lat="45.10718" lon="5.88478">
        <ele>1800</ele>
        <time>2021-08-06T09:23:50Z</time>
      </trkpt>
      <trkpt lat="45.10718" lon="5.8848">
        <ele>1800</ele>
        <time>2021-08-06T09:23:55Z</time>
      </trkpt>
      <trkpt lat="45.10719" lon="5.88482">
        <ele>1800</ele>
        <time>2021-08-06T09:24:01Z</time>
      </trkpt>
      <trkpt lat="45.1072" lon="5.88483">
        <ele>1800</ele>
        <time>2021-08-06T09:24:05Z</time>
      </trkpt>
      <trkpt lat="45.1072" lon="5.88485">
        <ele>1800</ele>
        <time>2021-08-06T09:24:08Z</time>
      </trkpt>
      <trkpt lat="45.10721" lon="5.88487">
        <ele>1800</ele>
        <time>2021-08-06T09:24:10Z</time>
      </trkpt>
      <trkpt lat="45.10722" lon="5.88489">
        <ele>1800</ele>
        <time>2021-08-06T09:24:12Z</time>
      </trkpt>
      <trkpt lat="45.10723" lon="5.8849">
        <ele>1800</ele>
        <time>2021-08-06T09:24:14Z</time>
      </trkpt>
      <trkpt lat="45.10723" lon="5.88493">
        <ele>1800</ele>
        <time>2021-08-06T09:24:16Z</time>
      </trkpt>
      <trkpt lat="45.10723" lon="5.88495">
        <ele>1800</ele>
        <time>2021-08-06T09:24:18Z</time>
      </trkpt>
      <trkpt lat="45.10723" lon="5.88497">
        <ele>1800</ele>
        <time>2021-08-06T09:24:20Z</time>
      </trkpt>
      <trkpt lat="45.10722" lon="5.885">
        <ele>1800</ele>
        <time>2021-08-06T09:24:22Z</time>
      </trkpt>
      <trkpt lat="45.10722" lon="5.88502">
        <ele>1800</ele>
        <time>2021-08-06T09:24:24Z</time>
      </trkpt>
      <trkpt lat="45.10723" lon="5.88504">
        <ele>1800</ele>
        <time>2021-08-06T09:24:26Z</time>
      </trkpt>
      <trkpt lat="45.10723" lon="5.88506">
        <ele>1800</ele>
        <time>2021-08-06T09:24:28Z</time>
      </trkpt>
      <trkpt lat="45.10723" lon="5.88509">
        <ele>1800</ele>
        <time>2021-08-06T09:24:30Z</time>
      </trkpt>
      <trkpt lat="45.10722" lon="5.88511">
        <ele>1800</ele>
        <time>2021-08-06T09:24:31Z</time>
      </trkpt>
      <trkpt lat="45.10723" lon="5.88513">
        <ele>1800</ele>
        <time>2021-08-06T09:24:33Z</time>
      </trkpt>
      <trkpt lat="45.10724" lon="5.88514">
        <ele>1800</ele>
        <time>2021-08-06T09:24:35Z</time>
      </trkpt>
      <trkpt lat="45.10725" lon="5.88516">
        <ele>1800</ele>
        <time>2021-08-06T09:24:38Z</time>
      </trkpt>
      <trkpt lat="45.10725" lon="5.88518">
        <ele>1800</ele>
        <time>2021-08-06T09:24:40Z</time>
      </trkpt>
      <trkpt lat="45.10726" lon="5.8852">
        <ele>1800</ele>
        <time>2021-08-06T09:24:42Z</time>
      </trkpt>
      <trkpt lat="45.10726" lon="5.88521">
        <ele>1800</ele>
        <time>2021-08-06T09:24:44Z</time>
      </trkpt>
      <trkpt lat="45.10727" lon="5.88523">
        <ele>1800</ele>
        <time>2021-08-06T09:24:46Z</time>
      </trkpt>
      <trkpt lat="45.10727" lon="5.88525">
        <ele>1800</ele>
        <time>2021-08-06T09:24:49Z</time>
      </trkpt>
      <trkpt lat="45.10728" lon="5.88526">
        <ele>1800</ele>
        <time>2021-08-06T09:24:54Z</time>
      </trkpt>
      <trkpt lat="45.1073" lon="5.88527">
        <ele>1800</ele>
        <time>2021-08-06T09:24:57Z</time>
      </trkpt>
      <trkpt lat="45.10731" lon="5.88529">
        <ele>1800</ele>
        <time>2021-08-06T09:24:59Z</time>
      </trkpt>
      <trkpt lat="45.1073" lon="5.8853">
        <ele>1800</ele>
        <time>2021-08-06T09:25:02Z</time>
      </trkpt>
      <trkpt lat="45.10729" lon="5.88533">
        <ele>1800</ele>
        <time>2021-08-06T09:25:05Z</time>
      </trkpt>
      <trkpt lat="45.10728" lon="5.88535">
        <ele>1800</ele>
        <time>2021-08-06T09:25:07Z</time>
      </trkpt>
      <trkpt lat="45.10728" lon="5.88537">
        <ele>1800</ele>
        <time>2021-08-06T09:25:09Z</time>
      </trkpt>
      <trkpt lat="45.10728" lon="5.88539">
        <ele>1800</ele>
        <time>2021-08-06T09:25:11Z</time>
      </trkpt>
      <trkpt lat="45.10727" lon="5.88541">
        <ele>1800</ele>
        <time>2021-08-06T09:25:13Z</time>
      </trkpt>
      <trkpt lat="45.10727" lon="5.88542">
        <ele>1800</ele>
        <time>2021-08-06T09:25:15Z</time>
      </trkpt>
      <trkpt lat="45.10726" lon="5.88544">
        <ele>1800</ele>
        <time>2021-08-06T09:25:17Z</time>
      </trkpt>
      <trkpt lat="45.10726" lon="5.88545">
        <ele>1800</ele>
        <time>2021-08-06T09:25:19Z</time>
      </trkpt>
      <trkpt lat="45.10726" lon="5.88547">
        <ele>1800</ele>
        <time>2021-08-06T09:25:21Z</time>
      </trkpt>
      <trkpt lat="45.10726" lon="5.88549">
        <ele>1800</ele>
        <time>2021-08-06T09:25:23Z</time>
      </trkpt>
      <trkpt lat="45.10726" lon="5.88551">
        <ele>1800</ele>
        <time>2021-08-06T09:25:25Z</time>
      </trkpt>
      <trkpt lat="45.10725" lon="5.88553">
        <ele>1800</ele>
        <time>2021-08-06T09:25:28Z</time>
      </trkpt>
      <trkpt lat="45.10725" lon="5.88555">
        <ele>1800</ele>
        <time>2021-08-06T09:25:30Z</time>
      </trkpt>
      <trkpt lat="45.10725" lon="5.88557">
        <ele>1800</ele>
        <time>2021-08-06T09:25:32Z</time>
      </trkpt>
      <trkpt lat="45.10726" lon="5.88559">
        <ele>1800</ele>
        <time>2021-08-06T09:25:35Z</time>
      </trkpt>
      <trkpt lat="45.10727" lon="5.8856">
        <ele>1800</ele>
        <time>2021-08-06T09:25:39Z</time>
      </trkpt>
      <trkpt lat="45.10728" lon="5.88562">
        <ele>1800</ele>
        <time>2021-08-06T09:25:42Z</time>
      </trkpt>
      <trkpt lat="45.10729" lon="5.88563">
        <ele>1800</ele>
        <time>2021-08-06T09:25:47Z</time>
      </trkpt>
      <trkpt lat="45.1073" lon="5.88564">
        <ele>1800</ele>
        <time>2021-08-06T09:25:51Z</time>
      </trkpt>
      <trkpt lat="45.10732" lon="5.88564">
        <ele>1800</ele>
        <time>2021-08-06T09:25:54Z</time>
      </trkpt>
      <trkpt lat="45.10733" lon="5.88564">
        <ele>1800</ele>
        <time>2021-08-06T09:25:59Z</time>
      </trkpt>
      <trkpt lat="45.10733" lon="5.88566">
        <ele>1800</ele>
        <time>2021-08-06T09:26:04Z</time>
      </trkpt>
      <trkpt lat="45.10733" lon="5.88568">
        <ele>1800</ele>
        <time>2021-08-06T09:26:06Z</time>
      </trkpt>
      <trkpt lat="45.10733" lon="5.88569">
        <ele>1800</ele>
        <time>2021-08-06T09:26:08Z</time>
      </trkpt>
      <trkpt lat="45.10734" lon="5.88571">
        <ele>1800</ele>
        <time>2021-08-06T09:26:10Z</time>
      </trkpt>
      <trkpt lat="45.10734" lon="5.88573">
        <ele>1800</ele>
        <time>2021-08-06T09:26:12Z</time>
      </trkpt>
      <trkpt lat="45.10734" lon="5.88575">
        <ele>1800</ele>
        <time>2021-08-06T09:26:14Z</time>
      </trkpt>
      <trkpt lat="45.10735" lon="5.88577">
        <ele>1800</ele>
        <time>2021-08-06T09:26:16Z</time>
      </trkpt>
      <trkpt lat="45.10735" lon="5.88579">
        <ele>1800</ele>
        <time>2021-08-06T09:26:18Z</time>
      </trkpt>
      <trkpt lat="45.10736" lon="5.8858">
        <ele>1800</ele>
        <time>2021-08-06T09:26:21Z</time>
      </trkpt>
      <trkpt lat="45.10736" lon="5.88583">
        <ele>1800</ele>
        <time>2021-08-06T09:26:24Z</time>
      </trkpt>
      <trkpt lat="45.10737" lon="5.88584">
        <ele>1800</ele>
        <time>2021-08-06T09:26:26Z</time>
      </trkpt>
      <trkpt lat="45.10737" lon="5.88586">
        <ele>1800</ele>
        <time>2021-08-06T09:26:29Z</time>
      </trkpt>
      <trkpt lat="45.10737" lon="5.88588">
        <ele>1800</ele>
        <time>2021-08-06T09:26:32Z</time>
      </trkpt>
      <trkpt lat="45.10738" lon="5.88589">
        <ele>1800</ele>
        <time>2021-08-06T09:26:37Z</time>
      </trkpt>
      <trkpt lat="45.10738" lon="5.88591">
        <ele>1802</ele>
        <time>2021-08-06T09:26:44Z</time>
      </trkpt>
      <trkpt lat="45.10738" lon="5.88592">
        <ele>1803</ele>
        <time>2021-08-06T09:26:48Z</time>
      </trkpt>
      <trkpt lat="45.1074" lon="5.88593">
        <ele>1803</ele>
        <time>2021-08-06T09:26:53Z</time>
      </trkpt>
      <trkpt lat="45.10739" lon="5.88595">
        <ele>1803</ele>
        <time>2021-08-06T09:26:55Z</time>
      </trkpt>
      <trkpt lat="45.1074" lon="5.88597">
        <ele>1803</ele>
        <time>2021-08-06T09:26:57Z</time>
      </trkpt>
      <trkpt lat="45.10741" lon="5.88599">
        <ele>1803</ele>
        <time>2021-08-06T09:27:02Z</time>
      </trkpt>
      <trkpt lat="45.10741" lon="5.886">
        <ele>1804</ele>
        <time>2021-08-06T09:27:07Z</time>
      </trkpt>
      <trkpt lat="45.10741" lon="5.88602">
        <ele>1805</ele>
        <time>2021-08-06T09:27:11Z</time>
      </trkpt>
      <trkpt lat="45.10741" lon="5.88603">
        <ele>1806</ele>
        <time>2021-08-06T09:27:18Z</time>
      </trkpt>
      <trkpt lat="45.10741" lon="5.88605">
        <ele>1806</ele>
        <time>2021-08-06T09:27:26Z</time>
      </trkpt>
      <trkpt lat="45.10741" lon="5.88607">
        <ele>1806</ele>
        <time>2021-08-06T09:27:30Z</time>
      </trkpt>
      <trkpt lat="45.10742" lon="5.88608">
        <ele>1806</ele>
        <time>2021-08-06T09:27:34Z</time>
      </trkpt>
      <trkpt lat="45.10743" lon="5.88611">
        <ele>1806</ele>
        <time>2021-08-06T09:27:37Z</time>
      </trkpt>
      <trkpt lat="45.10743" lon="5.88612">
        <ele>1806</ele>
        <time>2021-08-06T09:27:39Z</time>
      </trkpt>
      <trkpt lat="45.10744" lon="5.88614">
        <ele>1806</ele>
        <time>2021-08-06T09:27:42Z</time>
      </trkpt>
      <trkpt lat="45.10744" lon="5.88616">
        <ele>1806</ele>
        <time>2021-08-06T09:27:44Z</time>
      </trkpt>
      <trkpt lat="45.10744" lon="5.88619">
        <ele>1806</ele>
        <time>2021-08-06T09:27:46Z</time>
      </trkpt>
      <trkpt lat="45.10744" lon="5.8862">
        <ele>1806</ele>
        <time>2021-08-06T09:27:47Z</time>
      </trkpt>
      <trkpt lat="45.10745" lon="5.88622">
        <ele>1806</ele>
        <time>2021-08-06T09:27:49Z</time>
      </trkpt>
      <trkpt lat="45.10746" lon="5.88624">
        <ele>1806</ele>
        <time>2021-08-06T09:27:51Z</time>
      </trkpt>
      <trkpt lat="45.10746" lon="5.88626">
        <ele>1806</ele>
        <time>2021-08-06T09:27:53Z</time>
      </trkpt>
      <trkpt lat="45.10747" lon="5.88627">
        <ele>1806</ele>
        <time>2021-08-06T09:27:55Z</time>
      </trkpt>
      <trkpt lat="45.10747" lon="5.88629">
        <ele>1806</ele>
        <time>2021-08-06T09:27:57Z</time>
      </trkpt>
      <trkpt lat="45.10747" lon="5.88632">
        <ele>1806</ele>
        <time>2021-08-06T09:27:59Z</time>
      </trkpt>
      <trkpt lat="45.10748" lon="5.88634">
        <ele>1806</ele>
        <time>2021-08-06T09:28:01Z</time>
      </trkpt>
      <trkpt lat="45.10747" lon="5.88636">
        <ele>1806</ele>
        <time>2021-08-06T09:28:02Z</time>
      </trkpt>
      <trkpt lat="45.10748" lon="5.88638">
        <ele>1806</ele>
        <time>2021-08-06T09:28:04Z</time>
      </trkpt>
      <trkpt lat="45.10749" lon="5.88639">
        <ele>1806</ele>
        <time>2021-08-06T09:28:06Z</time>
      </trkpt>
      <trkpt lat="45.10751" lon="5.88642">
        <ele>1806</ele>
        <time>2021-08-06T09:28:10Z</time>
      </trkpt>
      <trkpt lat="45.10752" lon="5.88643">
        <ele>1806</ele>
        <time>2021-08-06T09:28:13Z</time>
      </trkpt>
      <trkpt lat="45.10753" lon="5.88645">
        <ele>1806</ele>
        <time>2021-08-06T09:28:16Z</time>
      </trkpt>
      <trkpt lat="45.10753" lon="5.88647">
        <ele>1806</ele>
        <time>2021-08-06T09:28:19Z</time>
      </trkpt>
      <trkpt lat="45.10752" lon="5.88648">
        <ele>1806</ele>
        <time>2021-08-06T09:28:23Z</time>
      </trkpt>
      <trkpt lat="45.10752" lon="5.88651">
        <ele>1806</ele>
        <time>2021-08-06T09:28:26Z</time>
      </trkpt>
      <trkpt lat="45.10752" lon="5.88652">
        <ele>1806</ele>
        <time>2021-08-06T09:28:28Z</time>
      </trkpt>
      <trkpt lat="45.10752" lon="5.88655">
        <ele>1806</ele>
        <time>2021-08-06T09:28:30Z</time>
      </trkpt>
      <trkpt lat="45.10753" lon="5.88657">
        <ele>1806</ele>
        <time>2021-08-06T09:28:32Z</time>
      </trkpt>
      <trkpt lat="45.10754" lon="5.88658">
        <ele>1806</ele>
        <time>2021-08-06T09:28:34Z</time>
      </trkpt>
      <trkpt lat="45.10754" lon="5.8866">
        <ele>1806</ele>
        <time>2021-08-06T09:28:36Z</time>
      </trkpt>
      <trkpt lat="45.10755" lon="5.88662">
        <ele>1806</ele>
        <time>2021-08-06T09:28:39Z</time>
      </trkpt>
      <trkpt lat="45.10755" lon="5.88664">
        <ele>1806</ele>
        <time>2021-08-06T09:28:42Z</time>
      </trkpt>
      <trkpt lat="45.10756" lon="5.88666">
        <ele>1806</ele>
        <time>2021-08-06T09:28:45Z</time>
      </trkpt>
      <trkpt lat="45.10757" lon="5.88667">
        <ele>1806</ele>
        <time>2021-08-06T09:28:48Z</time>
      </trkpt>
      <trkpt lat="45.10759" lon="5.88667">
        <ele>1806</ele>
        <time>2021-08-06T09:28:50Z</time>
      </trkpt>
      <trkpt lat="45.1076" lon="5.88667">
        <ele>1806</ele>
        <time>2021-08-06T09:28:52Z</time>
      </trkpt>
      <trkpt lat="45.10762" lon="5.88667">
        <ele>1806</ele>
        <time>2021-08-06T09:28:54Z</time>
      </trkpt>
      <trkpt lat="45.10763" lon="5.88668">
        <ele>1806</ele>
        <time>2021-08-06T09:28:57Z</time>
      </trkpt>
      <trkpt lat="45.10764" lon="5.88668">
        <ele>1806</ele>
        <time>2021-08-06T09:28:59Z</time>
      </trkpt>
      <trkpt lat="45.10766" lon="5.88669">
        <ele>1806</ele>
        <time>2021-08-06T09:29:01Z</time>
      </trkpt>
      <trkpt lat="45.10767" lon="5.88671">
        <ele>1806</ele>
        <time>2021-08-06T09:29:03Z</time>
      </trkpt>
      <trkpt lat="45.10768" lon="5.88673">
        <ele>1806</ele>
        <time>2021-08-06T09:29:06Z</time>
      </trkpt>
      <trkpt lat="45.10769" lon="5.88676">
        <ele>1806</ele>
        <time>2021-08-06T09:29:09Z</time>
      </trkpt>
      <trkpt lat="45.1077" lon="5.88677">
        <ele>1807</ele>
        <time>2021-08-06T09:29:12Z</time>
      </trkpt>
      <trkpt lat="45.1077" lon="5.88679">
        <ele>1807</ele>
        <time>2021-08-06T09:29:15Z</time>
      </trkpt>
      <trkpt lat="45.10771" lon="5.88681">
        <ele>1807</ele>
        <time>2021-08-06T09:29:17Z</time>
      </trkpt>
      <trkpt lat="45.10771" lon="5.88682">
        <ele>1807</ele>
        <time>2021-08-06T09:29:19Z</time>
      </trkpt>
      <trkpt lat="45.10772" lon="5.88684">
        <ele>1807</ele>
        <time>2021-08-06T09:29:23Z</time>
      </trkpt>
      <trkpt lat="45.10773" lon="5.88686">
        <ele>1807</ele>
        <time>2021-08-06T09:29:25Z</time>
      </trkpt>
      <trkpt lat="45.10773" lon="5.88688">
        <ele>1807</ele>
        <time>2021-08-06T09:29:27Z</time>
      </trkpt>
      <trkpt lat="45.10775" lon="5.8869">
        <ele>1807</ele>
        <time>2021-08-06T09:29:30Z</time>
      </trkpt>
      <trkpt lat="45.10776" lon="5.88691">
        <ele>1807</ele>
        <time>2021-08-06T09:29:33Z</time>
      </trkpt>
      <trkpt lat="45.10777" lon="5.88693">
        <ele>1807</ele>
        <time>2021-08-06T09:29:36Z</time>
      </trkpt>
      <trkpt lat="45.10777" lon="5.88694">
        <ele>1807</ele>
        <time>2021-08-06T09:29:40Z</time>
      </trkpt>
      <trkpt lat="45.10777" lon="5.88696">
        <ele>1807</ele>
        <time>2021-08-06T09:29:50Z</time>
      </trkpt>
      <trkpt lat="45.10777" lon="5.88698">
        <ele>1807</ele>
        <time>2021-08-06T09:29:54Z</time>
      </trkpt>
      <trkpt lat="45.10777" lon="5.88699">
        <ele>1807</ele>
        <time>2021-08-06T09:29:56Z</time>
      </trkpt>
      <trkpt lat="45.10777" lon="5.88701">
        <ele>1807</ele>
        <time>2021-08-06T09:30:00Z</time>
      </trkpt>
      <trkpt lat="45.10778" lon="5.88702">
        <ele>1807</ele>
        <time>2021-08-06T09:30:05Z</time>
      </trkpt>
      <trkpt lat="45.10779" lon="5.88702">
        <ele>1807</ele>
        <time>2021-08-06T09:30:15Z</time>
      </trkpt>
      <trkpt lat="45.1078" lon="5.88703">
        <ele>1807</ele>
        <time>2021-08-06T09:30:22Z</time>
      </trkpt>
      <trkpt lat="45.10782" lon="5.88704">
        <ele>1807</ele>
        <time>2021-08-06T09:30:27Z</time>
      </trkpt>
      <trkpt lat="45.10783" lon="5.88706">
        <ele>1807</ele>
        <time>2021-08-06T09:30:32Z</time>
      </trkpt>
      <trkpt lat="45.10783" lon="5.88708">
        <ele>1807</ele>
        <time>2021-08-06T09:30:37Z</time>
      </trkpt>
      <trkpt lat="45.10782" lon="5.8871">
        <ele>1807</ele>
        <time>2021-08-06T09:30:52Z</time>
      </trkpt>
      <trkpt lat="45.10781" lon="5.88712">
        <ele>1807</ele>
        <time>2021-08-06T09:30:55Z</time>
      </trkpt>
      <trkpt lat="45.1078" lon="5.88713">
        <ele>1809</ele>
        <time>2021-08-06T09:30:59Z</time>
      </trkpt>
      <trkpt lat="45.10779" lon="5.88714">
        <ele>1810</ele>
        <time>2021-08-06T09:31:03Z</time>
      </trkpt>
      <trkpt lat="45.10781" lon="5.88715">
        <ele>1811</ele>
        <time>2021-08-06T09:31:08Z</time>
      </trkpt>
      <trkpt lat="45.10783" lon="5.88714">
        <ele>1811</ele>
        <time>2021-08-06T09:31:11Z</time>
      </trkpt>
      <trkpt lat="45.10783" lon="5.88713">
        <ele>1811</ele>
        <time>2021-08-06T09:31:14Z</time>
      </trkpt>
      <trkpt lat="45.10784" lon="5.88711">
        <ele>1811</ele>
        <time>2021-08-06T09:31:18Z</time>
      </trkpt>
      <trkpt lat="45.10785" lon="5.8871">
        <ele>1811</ele>
        <time>2021-08-06T09:31:24Z</time>
      </trkpt>
      <trkpt lat="45.10786" lon="5.88711">
        <ele>1811</ele>
        <time>2021-08-06T09:31:34Z</time>
      </trkpt>
      <trkpt lat="45.10787" lon="5.88713">
        <ele>1811</ele>
        <time>2021-08-06T09:31:47Z</time>
      </trkpt>
      <trkpt lat="45.10787" lon="5.88716">
        <ele>1811</ele>
        <time>2021-08-06T09:31:51Z</time>
      </trkpt>
      <trkpt lat="45.10787" lon="5.88718">
        <ele>1811</ele>
        <time>2021-08-06T09:31:53Z</time>
      </trkpt>
      <trkpt lat="45.10788" lon="5.88719">
        <ele>1811</ele>
        <time>2021-08-06T09:31:56Z</time>
      </trkpt>
      <trkpt lat="45.10789" lon="5.88719">
        <ele>1811</ele>
        <time>2021-08-06T09:32:00Z</time>
      </trkpt>
      <trkpt lat="45.10791" lon="5.88719">
        <ele>1811</ele>
        <time>2021-08-06T09:32:03Z</time>
      </trkpt>
      <trkpt lat="45.10793" lon="5.88719">
        <ele>1811</ele>
        <time>2021-08-06T09:32:05Z</time>
      </trkpt>
      <trkpt lat="45.10794" lon="5.8872">
        <ele>1811</ele>
        <time>2021-08-06T09:32:10Z</time>
      </trkpt>
      <trkpt lat="45.10794" lon="5.88721">
        <ele>1811</ele>
        <time>2021-08-06T09:32:17Z</time>
      </trkpt>
      <trkpt lat="45.10794" lon="5.88723">
        <ele>1810</ele>
        <time>2021-08-06T09:32:26Z</time>
      </trkpt>
      <trkpt lat="45.10793" lon="5.88725">
        <ele>1810</ele>
        <time>2021-08-06T09:32:29Z</time>
      </trkpt>
      <trkpt lat="45.10793" lon="5.88727">
        <ele>1810</ele>
        <time>2021-08-06T09:32:31Z</time>
      </trkpt>
      <trkpt lat="45.10794" lon="5.88729">
        <ele>1810</ele>
        <time>2021-08-06T09:32:34Z</time>
      </trkpt>
      <trkpt lat="45.10795" lon="5.8873">
        <ele>1810</ele>
        <time>2021-08-06T09:32:37Z</time>
      </trkpt>
      <trkpt lat="45.10796" lon="5.8873">
        <ele>1810</ele>
        <time>2021-08-06T09:32:39Z</time>
      </trkpt>
      <trkpt lat="45.10798" lon="5.8873">
        <ele>1810</ele>
        <time>2021-08-06T09:32:44Z</time>
      </trkpt>
      <trkpt lat="45.10798" lon="5.88729">
        <ele>1810</ele>
        <time>2021-08-06T09:32:46Z</time>
      </trkpt>
      <trkpt lat="45.10799" lon="5.8873">
        <ele>1812</ele>
        <time>2021-08-06T09:33:04Z</time>
      </trkpt>
      <trkpt lat="45.10801" lon="5.88731">
        <ele>1812</ele>
        <time>2021-08-06T09:33:05Z</time>
      </trkpt>
      <trkpt lat="45.108" lon="5.88729">
        <ele>1812</ele>
        <time>2021-08-06T09:33:07Z</time>
      </trkpt>
      <trkpt lat="45.10802" lon="5.8873">
        <ele>1814</ele>
        <time>2021-08-06T09:33:15Z</time>
      </trkpt>
      <trkpt lat="45.10802" lon="5.88731">
        <ele>1815</ele>
        <time>2021-08-06T09:33:21Z</time>
      </trkpt>
      <trkpt lat="45.108" lon="5.88731">
        <ele>1815</ele>
        <time>2021-08-06T09:33:27Z</time>
      </trkpt>
      <trkpt lat="45.10799" lon="5.88731">
        <ele>1815</ele>
        <time>2021-08-06T09:33:30Z</time>
      </trkpt>
      <trkpt lat="45.10801" lon="5.88732">
        <ele>1815</ele>
        <time>2021-08-06T09:33:35Z</time>
      </trkpt>
      <trkpt lat="45.10802" lon="5.88733">
        <ele>1815</ele>
        <time>2021-08-06T09:33:41Z</time>
      </trkpt>
      <trkpt lat="45.10803" lon="5.88735">
        <ele>1815</ele>
        <time>2021-08-06T09:33:45Z</time>
      </trkpt>
      <trkpt lat="45.10802" lon="5.88737">
        <ele>1815</ele>
        <time>2021-08-06T09:33:50Z</time>
      </trkpt>
      <trkpt lat="45.10802" lon="5.88739">
        <ele>1815</ele>
        <time>2021-08-06T09:33:58Z</time>
      </trkpt>
      <trkpt lat="45.10801" lon="5.8874">
        <ele>1815</ele>
        <time>2021-08-06T09:34:03Z</time>
      </trkpt>
      <trkpt lat="45.10801" lon="5.88742">
        <ele>1815</ele>
        <time>2021-08-06T09:34:09Z</time>
      </trkpt>
      <trkpt lat="45.10802" lon="5.88744">
        <ele>1815</ele>
        <time>2021-08-06T09:34:11Z</time>
      </trkpt>
      <trkpt lat="45.10802" lon="5.88745">
        <ele>1815</ele>
        <time>2021-08-06T09:34:13Z</time>
      </trkpt>
      <trkpt lat="45.10804" lon="5.88747">
        <ele>1815</ele>
        <time>2021-08-06T09:34:16Z</time>
      </trkpt>
      <trkpt lat="45.10805" lon="5.88749">
        <ele>1815</ele>
        <time>2021-08-06T09:34:19Z</time>
      </trkpt>
      <trkpt lat="45.10806" lon="5.8875">
        <ele>1815</ele>
        <time>2021-08-06T09:34:23Z</time>
      </trkpt>
      <trkpt lat="45.10806" lon="5.88752">
        <ele>1815</ele>
        <time>2021-08-06T09:34:30Z</time>
      </trkpt>
      <trkpt lat="45.10807" lon="5.88755">
        <ele>1815</ele>
        <time>2021-08-06T09:34:32Z</time>
      </trkpt>
      <trkpt lat="45.10808" lon="5.88757">
        <ele>1815</ele>
        <time>2021-08-06T09:34:34Z</time>
      </trkpt>
      <trkpt lat="45.10809" lon="5.88758">
        <ele>1815</ele>
        <time>2021-08-06T09:34:37Z</time>
      </trkpt>
      <trkpt lat="45.10809" lon="5.8876">
        <ele>1815</ele>
        <time>2021-08-06T09:34:39Z</time>
      </trkpt>
      <trkpt lat="45.10809" lon="5.88762">
        <ele>1815</ele>
        <time>2021-08-06T09:34:42Z</time>
      </trkpt>
      <trkpt lat="45.10809" lon="5.88764">
        <ele>1815</ele>
        <time>2021-08-06T09:34:45Z</time>
      </trkpt>
      <trkpt lat="45.10809" lon="5.88765">
        <ele>1815</ele>
        <time>2021-08-06T09:34:52Z</time>
      </trkpt>
      <trkpt lat="45.10809" lon="5.88767">
        <ele>1815</ele>
        <time>2021-08-06T09:34:59Z</time>
      </trkpt>
      <trkpt lat="45.10809" lon="5.88769">
        <ele>1815</ele>
        <time>2021-08-06T09:35:01Z</time>
      </trkpt>
      <trkpt lat="45.10808" lon="5.8877">
        <ele>1815</ele>
        <time>2021-08-06T09:35:03Z</time>
      </trkpt>
      <trkpt lat="45.10808" lon="5.88772">
        <ele>1815</ele>
        <time>2021-08-06T09:35:08Z</time>
      </trkpt>
      <trkpt lat="45.10809" lon="5.88773">
        <ele>1815</ele>
        <time>2021-08-06T09:35:16Z</time>
      </trkpt>
      <trkpt lat="45.10808" lon="5.88775">
        <ele>1815</ele>
        <time>2021-08-06T09:35:23Z</time>
      </trkpt>
      <trkpt lat="45.10807" lon="5.88776">
        <ele>1815</ele>
        <time>2021-08-06T09:35:29Z</time>
      </trkpt>
      <trkpt lat="45.10807" lon="5.88778">
        <ele>1815</ele>
        <time>2021-08-06T09:35:31Z</time>
      </trkpt>
      <trkpt lat="45.10807" lon="5.8878">
        <ele>1815</ele>
        <time>2021-08-06T09:35:35Z</time>
      </trkpt>
      <trkpt lat="45.10807" lon="5.88781">
        <ele>1815</ele>
        <time>2021-08-06T09:35:41Z</time>
      </trkpt>
      <trkpt lat="45.10806" lon="5.88783">
        <ele>1815</ele>
        <time>2021-08-06T09:35:48Z</time>
      </trkpt>
      <trkpt lat="45.10806" lon="5.88785">
        <ele>1815</ele>
        <time>2021-08-06T09:35:52Z</time>
      </trkpt>
      <trkpt lat="45.10806" lon="5.88787">
        <ele>1815</ele>
        <time>2021-08-06T09:35:55Z</time>
      </trkpt>
      <trkpt lat="45.10806" lon="5.88789">
        <ele>1815</ele>
        <time>2021-08-06T09:35:59Z</time>
      </trkpt>
      <trkpt lat="45.10806" lon="5.88791">
        <ele>1815</ele>
        <time>2021-08-06T09:36:02Z</time>
      </trkpt>
      <trkpt lat="45.10805" lon="5.88792">
        <ele>1815</ele>
        <time>2021-08-06T09:36:06Z</time>
      </trkpt>
      <trkpt lat="45.10806" lon="5.88794">
        <ele>1815</ele>
        <time>2021-08-06T09:36:17Z</time>
      </trkpt>
      <trkpt lat="45.10806" lon="5.88795">
        <ele>1815</ele>
        <time>2021-08-06T09:36:23Z</time>
      </trkpt>
      <trkpt lat="45.10806" lon="5.88797">
        <ele>1815</ele>
        <time>2021-08-06T09:36:28Z</time>
      </trkpt>
      <trkpt lat="45.10807" lon="5.88799">
        <ele>1815</ele>
        <time>2021-08-06T09:36:37Z</time>
      </trkpt>
      <trkpt lat="45.10806" lon="5.88797">
        <ele>1815</ele>
        <time>2021-08-06T09:36:49Z</time>
      </trkpt>
      <trkpt lat="45.10806" lon="5.88796">
        <ele>1815</ele>
        <time>2021-08-06T09:36:52Z</time>
      </trkpt>
      <trkpt lat="45.10806" lon="5.88798">
        <ele>1815</ele>
        <time>2021-08-06T09:36:56Z</time>
      </trkpt>
      <trkpt lat="45.10807" lon="5.88799">
        <ele>1815</ele>
        <time>2021-08-06T09:36:58Z</time>
      </trkpt>
      <trkpt lat="45.10807" lon="5.88801">
        <ele>1815</ele>
        <time>2021-08-06T09:37:01Z</time>
      </trkpt>
      <trkpt lat="45.10808" lon="5.88802">
        <ele>1815</ele>
        <time>2021-08-06T09:37:02Z</time>
      </trkpt>
      <trkpt lat="45.10808" lon="5.88804">
        <ele>1815</ele>
        <time>2021-08-06T09:37:04Z</time>
      </trkpt>
      <trkpt lat="45.10807" lon="5.88807">
        <ele>1815</ele>
        <time>2021-08-06T09:37:06Z</time>
      </trkpt>
      <trkpt lat="45.10807" lon="5.8881">
        <ele>1815</ele>
        <time>2021-08-06T09:37:08Z</time>
      </trkpt>
      <trkpt lat="45.10808" lon="5.88812">
        <ele>1815</ele>
        <time>2021-08-06T09:37:10Z</time>
      </trkpt>
      <trkpt lat="45.10808" lon="5.88814">
        <ele>1815</ele>
        <time>2021-08-06T09:37:12Z</time>
      </trkpt>
      <trkpt lat="45.10809" lon="5.88816">
        <ele>1815</ele>
        <time>2021-08-06T09:37:14Z</time>
      </trkpt>
      <trkpt lat="45.10809" lon="5.88818">
        <ele>1815</ele>
        <time>2021-08-06T09:37:16Z</time>
      </trkpt>
      <trkpt lat="45.10807" lon="5.8882">
        <ele>1815</ele>
        <time>2021-08-06T09:37:19Z</time>
      </trkpt>
      <trkpt lat="45.10807" lon="5.88821">
        <ele>1815</ele>
        <time>2021-08-06T09:37:22Z</time>
      </trkpt>
      <trkpt lat="45.10807" lon="5.88823">
        <ele>1815</ele>
        <time>2021-08-06T09:37:28Z</time>
      </trkpt>
      <trkpt lat="45.10806" lon="5.88824">
        <ele>1815</ele>
        <time>2021-08-06T09:37:31Z</time>
      </trkpt>
      <trkpt lat="45.10805" lon="5.88825">
        <ele>1818</ele>
        <time>2021-08-06T09:38:04Z</time>
      </trkpt>
      <trkpt lat="45.10806" lon="5.88827">
        <ele>1819</ele>
        <time>2021-08-06T09:38:19Z</time>
      </trkpt>
      <trkpt lat="45.10807" lon="5.88827">
        <ele>1819</ele>
        <time>2021-08-06T09:38:40Z</time>
      </trkpt>
      <trkpt lat="45.10806" lon="5.88826">
        <ele>1819</ele>
        <time>2021-08-06T09:39:32Z</time>
      </trkpt>
      <trkpt lat="45.10807" lon="5.88826">
        <ele>1819</ele>
        <time>2021-08-06T09:40:55Z</time>
      </trkpt>
      <trkpt lat="45.10807" lon="5.88828">
        <ele>1819</ele>
        <time>2021-08-06T09:41:31Z</time>
      </trkpt>
      <trkpt lat="45.10809" lon="5.88829">
        <ele>1819</ele>
        <time>2021-08-06T09:41:35Z</time>
      </trkpt>
      <trkpt lat="45.10809" lon="5.88831">
        <ele>1819</ele>
        <time>2021-08-06T09:41:39Z</time>
      </trkpt>
      <trkpt lat="45.1081" lon="5.88833">
        <ele>1819</ele>
        <time>2021-08-06T09:41:42Z</time>
      </trkpt>
      <trkpt lat="45.10811" lon="5.88835">
        <ele>1819</ele>
        <time>2021-08-06T09:41:46Z</time>
      </trkpt>
      <trkpt lat="45.10812" lon="5.88836">
        <ele>1819</ele>
        <time>2021-08-06T09:41:51Z</time>
      </trkpt>
      <trkpt lat="45.10813" lon="5.88838">
        <ele>1819</ele>
        <time>2021-08-06T09:42:01Z</time>
      </trkpt>
      <trkpt lat="45.10813" lon="5.8884">
        <ele>1819</ele>
        <time>2021-08-06T09:42:06Z</time>
      </trkpt>
      <trkpt lat="45.10813" lon="5.88841">
        <ele>1819</ele>
        <time>2021-08-06T09:42:11Z</time>
      </trkpt>
      <trkpt lat="45.10814" lon="5.88842">
        <ele>1819</ele>
        <time>2021-08-06T09:42:20Z</time>
      </trkpt>
      <trkpt lat="45.10816" lon="5.88844">
        <ele>1819</ele>
        <time>2021-08-06T09:42:29Z</time>
      </trkpt>
      <trkpt lat="45.10817" lon="5.88845">
        <ele>1819</ele>
        <time>2021-08-06T09:42:33Z</time>
      </trkpt>
      <trkpt lat="45.10818" lon="5.88847">
        <ele>1819</ele>
        <time>2021-08-06T09:42:42Z</time>
      </trkpt>
      <trkpt lat="45.10817" lon="5.88845">
        <ele>1821</ele>
        <time>2021-08-06T09:43:25Z</time>
      </trkpt>
      <trkpt lat="45.10818" lon="5.88844">
        <ele>1821</ele>
        <time>2021-08-06T09:43:36Z</time>
      </trkpt>
      <trkpt lat="45.10817" lon="5.88844">
        <ele>1821</ele>
        <time>2021-08-06T09:43:44Z</time>
      </trkpt>
      <trkpt lat="45.10816" lon="5.88843">
        <ele>1821</ele>
        <time>2021-08-06T09:43:48Z</time>
      </trkpt>
      <trkpt lat="45.10815" lon="5.88843">
        <ele>1821</ele>
        <time>2021-08-06T09:43:52Z</time>
      </trkpt>
      <trkpt lat="45.10814" lon="5.88842">
        <ele>1821</ele>
        <time>2021-08-06T09:43:56Z</time>
      </trkpt>
      <trkpt lat="45.10812" lon="5.88842">
        <ele>1821</ele>
        <time>2021-08-06T09:44:05Z</time>
      </trkpt>
      <trkpt lat="45.10811" lon="5.88843">
        <ele>1821</ele>
        <time>2021-08-06T09:44:12Z</time>
      </trkpt>
      <trkpt lat="45.1081" lon="5.88844">
        <ele>1821</ele>
        <time>2021-08-06T09:44:19Z</time>
      </trkpt>
      <trkpt lat="45.1081" lon="5.88846">
        <ele>1821</ele>
        <time>2021-08-06T09:44:29Z</time>
      </trkpt>
      <trkpt lat="45.10809" lon="5.88847">
        <ele>1821</ele>
        <time>2021-08-06T09:44:40Z</time>
      </trkpt>
      <trkpt lat="45.10808" lon="5.88847">
        <ele>1821</ele>
        <time>2021-08-06T09:44:45Z</time>
      </trkpt>
      <trkpt lat="45.10807" lon="5.88849">
        <ele>1821</ele>
        <time>2021-08-06T09:44:48Z</time>
      </trkpt>
      <trkpt lat="45.10807" lon="5.88851">
        <ele>1820</ele>
        <time>2021-08-06T09:44:50Z</time>
      </trkpt>
      <trkpt lat="45.10808" lon="5.88852">
        <ele>1820</ele>
        <time>2021-08-06T09:44:52Z</time>
      </trkpt>
      <trkpt lat="45.10809" lon="5.88854">
        <ele>1820</ele>
        <time>2021-08-06T09:44:54Z</time>
      </trkpt>
      <trkpt lat="45.1081" lon="5.88856">
        <ele>1819</ele>
        <time>2021-08-06T09:44:57Z</time>
      </trkpt>
      <trkpt lat="45.10811" lon="5.88857">
        <ele>1818</ele>
        <time>2021-08-06T09:45:00Z</time>
      </trkpt>
      <trkpt lat="45.10812" lon="5.88858">
        <ele>1818</ele>
        <time>2021-08-06T09:45:03Z</time>
      </trkpt>
      <trkpt lat="45.10813" lon="5.8886">
        <ele>1817</ele>
        <time>2021-08-06T09:45:06Z</time>
      </trkpt>
      <trkpt lat="45.10813" lon="5.88861">
        <ele>1817</ele>
        <time>2021-08-06T09:45:08Z</time>
      </trkpt>
      <trkpt lat="45.10815" lon="5.88862">
        <ele>1816</ele>
        <time>2021-08-06T09:45:12Z</time>
      </trkpt>
      <trkpt lat="45.10815" lon="5.88864">
        <ele>1816</ele>
        <time>2021-08-06T09:45:14Z</time>
      </trkpt>
      <trkpt lat="45.10814" lon="5.88866">
        <ele>1815</ele>
        <time>2021-08-06T09:45:23Z</time>
      </trkpt>
      <trkpt lat="45.10814" lon="5.88867">
        <ele>1815</ele>
        <time>2021-08-06T09:45:25Z</time>
      </trkpt>
      <trkpt lat="45.10813" lon="5.88869">
        <ele>1815</ele>
        <time>2021-08-06T09:45:27Z</time>
      </trkpt>
      <trkpt lat="45.10813" lon="5.8887">
        <ele>1815</ele>
        <time>2021-08-06T09:45:34Z</time>
      </trkpt>
      <trkpt lat="45.10813" lon="5.88872">
        <ele>1815</ele>
        <time>2021-08-06T09:45:47Z</time>
      </trkpt>
      <trkpt lat="45.10814" lon="5.88874">
        <ele>1815</ele>
        <time>2021-08-06T09:45:49Z</time>
      </trkpt>
      <trkpt lat="45.10814" lon="5.88875">
        <ele>1814</ele>
        <time>2021-08-06T09:45:50Z</time>
      </trkpt>
      <trkpt lat="45.10815" lon="5.88877">
        <ele>1814</ele>
        <time>2021-08-06T09:45:51Z</time>
      </trkpt>
      <trkpt lat="45.10815" lon="5.88879">
        <ele>1813</ele>
        <time>2021-08-06T09:45:53Z</time>
      </trkpt>
      <trkpt lat="45.10817" lon="5.88881">
        <ele>1813</ele>
        <time>2021-08-06T09:45:55Z</time>
      </trkpt>
      <trkpt lat="45.10818" lon="5.88883">
        <ele>1813</ele>
        <time>2021-08-06T09:45:58Z</time>
      </trkpt>
      <trkpt lat="45.10819" lon="5.88885">
        <ele>1813</ele>
        <time>2021-08-06T09:46:00Z</time>
      </trkpt>
      <trkpt lat="45.1082" lon="5.88887">
        <ele>1813</ele>
        <time>2021-08-06T09:46:02Z</time>
      </trkpt>
      <trkpt lat="45.1082" lon="5.88889">
        <ele>1813</ele>
        <time>2021-08-06T09:46:04Z</time>
      </trkpt>
      <trkpt lat="45.10822" lon="5.8889">
        <ele>1813</ele>
        <time>2021-08-06T09:46:07Z</time>
      </trkpt>
      <trkpt lat="45.10822" lon="5.88891">
        <ele>1813</ele>
        <time>2021-08-06T09:46:09Z</time>
      </trkpt>
      <trkpt lat="45.10822" lon="5.88893">
        <ele>1813</ele>
        <time>2021-08-06T09:46:11Z</time>
      </trkpt>
      <trkpt lat="45.10822" lon="5.88895">
        <ele>1813</ele>
        <time>2021-08-06T09:46:21Z</time>
      </trkpt>
      <trkpt lat="45.10823" lon="5.88897">
        <ele>1813</ele>
        <time>2021-08-06T09:46:25Z</time>
      </trkpt>
      <trkpt lat="45.10825" lon="5.88898">
        <ele>1813</ele>
        <time>2021-08-06T09:46:29Z</time>
      </trkpt>
      <trkpt lat="45.10826" lon="5.88899">
        <ele>1813</ele>
        <time>2021-08-06T09:46:47Z</time>
      </trkpt>
      <trkpt lat="45.10827" lon="5.889">
        <ele>1813</ele>
        <time>2021-08-06T09:46:51Z</time>
      </trkpt>
      <trkpt lat="45.10828" lon="5.889">
        <ele>1813</ele>
        <time>2021-08-06T09:46:55Z</time>
      </trkpt>
      <trkpt lat="45.10828" lon="5.88901">
        <ele>1813</ele>
        <time>2021-08-06T09:47:04Z</time>
      </trkpt>
      <trkpt lat="45.1083" lon="5.88902">
        <ele>1813</ele>
        <time>2021-08-06T09:47:07Z</time>
      </trkpt>
      <trkpt lat="45.10831" lon="5.88902">
        <ele>1813</ele>
        <time>2021-08-06T09:47:10Z</time>
      </trkpt>
      <trkpt lat="45.10831" lon="5.88903">
        <ele>1818</ele>
        <time>2021-08-06T09:47:35Z</time>
      </trkpt>
      <trkpt lat="45.10831" lon="5.88905">
        <ele>1818</ele>
        <time>2021-08-06T09:47:44Z</time>
      </trkpt>
      <trkpt lat="45.10832" lon="5.88906">
        <ele>1818</ele>
        <time>2021-08-06T09:47:47Z</time>
      </trkpt>
      <trkpt lat="45.10833" lon="5.88908">
        <ele>1818</ele>
        <time>2021-08-06T09:47:50Z</time>
      </trkpt>
      <trkpt lat="45.10834" lon="5.88909">
        <ele>1818</ele>
        <time>2021-08-06T09:47:53Z</time>
      </trkpt>
      <trkpt lat="45.10835" lon="5.88911">
        <ele>1818</ele>
        <time>2021-08-06T09:47:56Z</time>
      </trkpt>
      <trkpt lat="45.10835" lon="5.88913">
        <ele>1818</ele>
        <time>2021-08-06T09:47:58Z</time>
      </trkpt>
      <trkpt lat="45.10836" lon="5.88914">
        <ele>1818</ele>
        <time>2021-08-06T09:48:01Z</time>
      </trkpt>
      <trkpt lat="45.10837" lon="5.88915">
        <ele>1818</ele>
        <time>2021-08-06T09:48:08Z</time>
      </trkpt>
      <trkpt lat="45.10838" lon="5.88916">
        <ele>1818</ele>
        <time>2021-08-06T09:48:10Z</time>
      </trkpt>
      <trkpt lat="45.1084" lon="5.88918">
        <ele>1818</ele>
        <time>2021-08-06T09:48:13Z</time>
      </trkpt>
      <trkpt lat="45.10841" lon="5.8892">
        <ele>1818</ele>
        <time>2021-08-06T09:48:15Z</time>
      </trkpt>
      <trkpt lat="45.10842" lon="5.88921">
        <ele>1818</ele>
        <time>2021-08-06T09:48:17Z</time>
      </trkpt>
      <trkpt lat="45.10843" lon="5.88923">
        <ele>1818</ele>
        <time>2021-08-06T09:48:20Z</time>
      </trkpt>
      <trkpt lat="45.10845" lon="5.88924">
        <ele>1818</ele>
        <time>2021-08-06T09:48:23Z</time>
      </trkpt>
      <trkpt lat="45.10846" lon="5.88925">
        <ele>1818</ele>
        <time>2021-08-06T09:48:26Z</time>
      </trkpt>
      <trkpt lat="45.10847" lon="5.88927">
        <ele>1818</ele>
        <time>2021-08-06T09:48:29Z</time>
      </trkpt>
      <trkpt lat="45.10848" lon="5.88929">
        <ele>1818</ele>
        <time>2021-08-06T09:48:31Z</time>
      </trkpt>
      <trkpt lat="45.10848" lon="5.88931">
        <ele>1818</ele>
        <time>2021-08-06T09:48:33Z</time>
      </trkpt>
      <trkpt lat="45.10849" lon="5.88933">
        <ele>1818</ele>
        <time>2021-08-06T09:48:36Z</time>
      </trkpt>
      <trkpt lat="45.1085" lon="5.88933">
        <ele>1818</ele>
        <time>2021-08-06T09:48:39Z</time>
      </trkpt>
      <trkpt lat="45.10851" lon="5.88933">
        <ele>1818</ele>
        <time>2021-08-06T09:48:43Z</time>
      </trkpt>
      <trkpt lat="45.10852" lon="5.88934">
        <ele>1818</ele>
        <time>2021-08-06T09:48:49Z</time>
      </trkpt>
      <trkpt lat="45.10853" lon="5.88936">
        <ele>1818</ele>
        <time>2021-08-06T09:48:53Z</time>
      </trkpt>
      <trkpt lat="45.10854" lon="5.88938">
        <ele>1818</ele>
        <time>2021-08-06T09:48:59Z</time>
      </trkpt>
      <trkpt lat="45.10855" lon="5.88939">
        <ele>1818</ele>
        <time>2021-08-06T09:49:01Z</time>
      </trkpt>
      <trkpt lat="45.10856" lon="5.88941">
        <ele>1818</ele>
        <time>2021-08-06T09:49:05Z</time>
      </trkpt>
      <trkpt lat="45.10856" lon="5.88943">
        <ele>1818</ele>
        <time>2021-08-06T09:49:06Z</time>
      </trkpt>
      <trkpt lat="45.10857" lon="5.88945">
        <ele>1818</ele>
        <time>2021-08-06T09:49:11Z</time>
      </trkpt>
      <trkpt lat="45.10857" lon="5.88948">
        <ele>1818</ele>
        <time>2021-08-06T09:49:13Z</time>
      </trkpt>
      <trkpt lat="45.10857" lon="5.8895">
        <ele>1818</ele>
        <time>2021-08-06T09:49:16Z</time>
      </trkpt>
      <trkpt lat="45.10857" lon="5.88952">
        <ele>1818</ele>
        <time>2021-08-06T09:49:18Z</time>
      </trkpt>
      <trkpt lat="45.10857" lon="5.88953">
        <ele>1818</ele>
        <time>2021-08-06T09:49:19Z</time>
      </trkpt>
      <trkpt lat="45.10857" lon="5.88955">
        <ele>1818</ele>
        <time>2021-08-06T09:49:23Z</time>
      </trkpt>
      <trkpt lat="45.10857" lon="5.88958">
        <ele>1817</ele>
        <time>2021-08-06T09:49:26Z</time>
      </trkpt>
      <trkpt lat="45.10857" lon="5.88959">
        <ele>1817</ele>
        <time>2021-08-06T09:49:28Z</time>
      </trkpt>
      <trkpt lat="45.10857" lon="5.88961">
        <ele>1817</ele>
        <time>2021-08-06T09:49:29Z</time>
      </trkpt>
      <trkpt lat="45.10858" lon="5.88962">
        <ele>1817</ele>
        <time>2021-08-06T09:49:33Z</time>
      </trkpt>
      <trkpt lat="45.10859" lon="5.88964">
        <ele>1817</ele>
        <time>2021-08-06T09:49:36Z</time>
      </trkpt>
      <trkpt lat="45.10859" lon="5.88966">
        <ele>1817</ele>
        <time>2021-08-06T09:49:44Z</time>
      </trkpt>
      <trkpt lat="45.10859" lon="5.88967">
        <ele>1817</ele>
        <time>2021-08-06T09:49:46Z</time>
      </trkpt>
      <trkpt lat="45.1086" lon="5.88969">
        <ele>1817</ele>
        <time>2021-08-06T09:49:48Z</time>
      </trkpt>
      <trkpt lat="45.1086" lon="5.88971">
        <ele>1817</ele>
        <time>2021-08-06T09:49:50Z</time>
      </trkpt>
      <trkpt lat="45.1086" lon="5.88973">
        <ele>1817</ele>
        <time>2021-08-06T09:49:52Z</time>
      </trkpt>
      <trkpt lat="45.1086" lon="5.88975">
        <ele>1817</ele>
        <time>2021-08-06T09:49:54Z</time>
      </trkpt>
      <trkpt lat="45.1086" lon="5.88976">
        <ele>1817</ele>
        <time>2021-08-06T09:49:56Z</time>
      </trkpt>
      <trkpt lat="45.1086" lon="5.88978">
        <ele>1817</ele>
        <time>2021-08-06T09:49:58Z</time>
      </trkpt>
      <trkpt lat="45.1086" lon="5.8898">
        <ele>1817</ele>
        <time>2021-08-06T09:50:00Z</time>
      </trkpt>
      <trkpt lat="45.1086" lon="5.88982">
        <ele>1817</ele>
        <time>2021-08-06T09:50:02Z</time>
      </trkpt>
      <trkpt lat="45.1086" lon="5.88984">
        <ele>1817</ele>
        <time>2021-08-06T09:50:04Z</time>
      </trkpt>
      <trkpt lat="45.1086" lon="5.88985">
        <ele>1817</ele>
        <time>2021-08-06T09:50:06Z</time>
      </trkpt>
      <trkpt lat="45.1086" lon="5.88987">
        <ele>1817</ele>
        <time>2021-08-06T09:50:10Z</time>
      </trkpt>
      <trkpt lat="45.10861" lon="5.88988">
        <ele>1817</ele>
        <time>2021-08-06T09:50:16Z</time>
      </trkpt>
      <trkpt lat="45.10861" lon="5.8899">
        <ele>1817</ele>
        <time>2021-08-06T09:50:22Z</time>
      </trkpt>
      <trkpt lat="45.10861" lon="5.88992">
        <ele>1817</ele>
        <time>2021-08-06T09:50:25Z</time>
      </trkpt>
      <trkpt lat="45.10862" lon="5.88994">
        <ele>1817</ele>
        <time>2021-08-06T09:50:27Z</time>
      </trkpt>
      <trkpt lat="45.10863" lon="5.88996">
        <ele>1817</ele>
        <time>2021-08-06T09:50:30Z</time>
      </trkpt>
      <trkpt lat="45.10864" lon="5.88997">
        <ele>1817</ele>
        <time>2021-08-06T09:50:32Z</time>
      </trkpt>
      <trkpt lat="45.10865" lon="5.88999">
        <ele>1817</ele>
        <time>2021-08-06T09:50:35Z</time>
      </trkpt>
      <trkpt lat="45.10865" lon="5.89001">
        <ele>1817</ele>
        <time>2021-08-06T09:50:36Z</time>
      </trkpt>
      <trkpt lat="45.10866" lon="5.89003">
        <ele>1817</ele>
        <time>2021-08-06T09:50:39Z</time>
      </trkpt>
      <trkpt lat="45.10866" lon="5.89004">
        <ele>1817</ele>
        <time>2021-08-06T09:50:42Z</time>
      </trkpt>
      <trkpt lat="45.10867" lon="5.89006">
        <ele>1817</ele>
        <time>2021-08-06T09:50:46Z</time>
      </trkpt>
      <trkpt lat="45.10868" lon="5.89008">
        <ele>1817</ele>
        <time>2021-08-06T09:50:49Z</time>
      </trkpt>
      <trkpt lat="45.10868" lon="5.89009">
        <ele>1817</ele>
        <time>2021-08-06T09:50:52Z</time>
      </trkpt>
      <trkpt lat="45.10868" lon="5.89011">
        <ele>1817</ele>
        <time>2021-08-06T09:50:54Z</time>
      </trkpt>
      <trkpt lat="45.10869" lon="5.89013">
        <ele>1817</ele>
        <time>2021-08-06T09:50:58Z</time>
      </trkpt>
      <trkpt lat="45.10869" lon="5.89014">
        <ele>1817</ele>
        <time>2021-08-06T09:51:00Z</time>
      </trkpt>
      <trkpt lat="45.10869" lon="5.89017">
        <ele>1817</ele>
        <time>2021-08-06T09:51:03Z</time>
      </trkpt>
      <trkpt lat="45.10869" lon="5.89019">
        <ele>1817</ele>
        <time>2021-08-06T09:51:06Z</time>
      </trkpt>
      <trkpt lat="45.10869" lon="5.8902">
        <ele>1817</ele>
        <time>2021-08-06T09:51:09Z</time>
      </trkpt>
      <trkpt lat="45.10868" lon="5.89022">
        <ele>1817</ele>
        <time>2021-08-06T09:51:10Z</time>
      </trkpt>
      <trkpt lat="45.10868" lon="5.89024">
        <ele>1817</ele>
        <time>2021-08-06T09:51:13Z</time>
      </trkpt>
      <trkpt lat="45.10867" lon="5.89026">
        <ele>1817</ele>
        <time>2021-08-06T09:51:15Z</time>
      </trkpt>
      <trkpt lat="45.10867" lon="5.89028">
        <ele>1817</ele>
        <time>2021-08-06T09:51:18Z</time>
      </trkpt>
      <trkpt lat="45.10867" lon="5.8903">
        <ele>1817</ele>
        <time>2021-08-06T09:51:20Z</time>
      </trkpt>
      <trkpt lat="45.10867" lon="5.89031">
        <ele>1817</ele>
        <time>2021-08-06T09:51:22Z</time>
      </trkpt>
      <trkpt lat="45.10867" lon="5.89034">
        <ele>1817</ele>
        <time>2021-08-06T09:51:24Z</time>
      </trkpt>
      <trkpt lat="45.10868" lon="5.89035">
        <ele>1817</ele>
        <time>2021-08-06T09:51:26Z</time>
      </trkpt>
      <trkpt lat="45.10869" lon="5.89037">
        <ele>1817</ele>
        <time>2021-08-06T09:51:28Z</time>
      </trkpt>
      <trkpt lat="45.1087" lon="5.89038">
        <ele>1817</ele>
        <time>2021-08-06T09:51:30Z</time>
      </trkpt>
      <trkpt lat="45.1087" lon="5.8904">
        <ele>1817</ele>
        <time>2021-08-06T09:51:32Z</time>
      </trkpt>
      <trkpt lat="45.10871" lon="5.89042">
        <ele>1817</ele>
        <time>2021-08-06T09:51:35Z</time>
      </trkpt>
      <trkpt lat="45.10872" lon="5.89044">
        <ele>1817</ele>
        <time>2021-08-06T09:51:38Z</time>
      </trkpt>
      <trkpt lat="45.10872" lon="5.89046">
        <ele>1817</ele>
        <time>2021-08-06T09:51:40Z</time>
      </trkpt>
      <trkpt lat="45.10873" lon="5.89049">
        <ele>1817</ele>
        <time>2021-08-06T09:51:42Z</time>
      </trkpt>
      <trkpt lat="45.10873" lon="5.8905">
        <ele>1817</ele>
        <time>2021-08-06T09:51:44Z</time>
      </trkpt>
      <trkpt lat="45.10875" lon="5.89052">
        <ele>1817</ele>
        <time>2021-08-06T09:51:47Z</time>
      </trkpt>
      <trkpt lat="45.10876" lon="5.89053">
        <ele>1817</ele>
        <time>2021-08-06T09:51:49Z</time>
      </trkpt>
      <trkpt lat="45.10877" lon="5.89054">
        <ele>1817</ele>
        <time>2021-08-06T09:51:52Z</time>
      </trkpt>
      <trkpt lat="45.10878" lon="5.89056">
        <ele>1817</ele>
        <time>2021-08-06T09:51:56Z</time>
      </trkpt>
      <trkpt lat="45.1088" lon="5.89056">
        <ele>1817</ele>
        <time>2021-08-06T09:51:58Z</time>
      </trkpt>
      <trkpt lat="45.10881" lon="5.89058">
        <ele>1817</ele>
        <time>2021-08-06T09:52:02Z</time>
      </trkpt>
      <trkpt lat="45.10883" lon="5.89059">
        <ele>1817</ele>
        <time>2021-08-06T09:52:05Z</time>
      </trkpt>
      <trkpt lat="45.10883" lon="5.89061">
        <ele>1817</ele>
        <time>2021-08-06T09:52:08Z</time>
      </trkpt>
      <trkpt lat="45.10883" lon="5.89063">
        <ele>1817</ele>
        <time>2021-08-06T09:52:09Z</time>
      </trkpt>
      <trkpt lat="45.10884" lon="5.89064">
        <ele>1817</ele>
        <time>2021-08-06T09:52:12Z</time>
      </trkpt>
      <trkpt lat="45.10885" lon="5.89066">
        <ele>1817</ele>
        <time>2021-08-06T09:52:14Z</time>
      </trkpt>
      <trkpt lat="45.10886" lon="5.89067">
        <ele>1817</ele>
        <time>2021-08-06T09:52:16Z</time>
      </trkpt>
      <trkpt lat="45.10888" lon="5.89068">
        <ele>1818</ele>
        <time>2021-08-06T09:52:20Z</time>
      </trkpt>
      <trkpt lat="45.10888" lon="5.8907">
        <ele>1818</ele>
        <time>2021-08-06T09:52:21Z</time>
      </trkpt>
      <trkpt lat="45.10888" lon="5.89071">
        <ele>1818</ele>
        <time>2021-08-06T09:52:23Z</time>
      </trkpt>
      <trkpt lat="45.10889" lon="5.89073">
        <ele>1818</ele>
        <time>2021-08-06T09:52:28Z</time>
      </trkpt>
      <trkpt lat="45.10891" lon="5.89074">
        <ele>1818</ele>
        <time>2021-08-06T09:52:35Z</time>
      </trkpt>
      <trkpt lat="45.10892" lon="5.89074">
        <ele>1818</ele>
        <time>2021-08-06T09:52:40Z</time>
      </trkpt>
      <trkpt lat="45.10893" lon="5.89076">
        <ele>1818</ele>
        <time>2021-08-06T09:52:43Z</time>
      </trkpt>
      <trkpt lat="45.10895" lon="5.89077">
        <ele>1818</ele>
        <time>2021-08-06T09:52:46Z</time>
      </trkpt>
      <trkpt lat="45.10897" lon="5.89078">
        <ele>1818</ele>
        <time>2021-08-06T09:52:48Z</time>
      </trkpt>
      <trkpt lat="45.10898" lon="5.89079">
        <ele>1818</ele>
        <time>2021-08-06T09:52:49Z</time>
      </trkpt>
      <trkpt lat="45.10899" lon="5.8908">
        <ele>1818</ele>
        <time>2021-08-06T09:52:52Z</time>
      </trkpt>
      <trkpt lat="45.109" lon="5.89082">
        <ele>1818</ele>
        <time>2021-08-06T09:52:53Z</time>
      </trkpt>
      <trkpt lat="45.10901" lon="5.89083">
        <ele>1818</ele>
        <time>2021-08-06T09:52:55Z</time>
      </trkpt>
      <trkpt lat="45.10902" lon="5.89084">
        <ele>1818</ele>
        <time>2021-08-06T09:53:00Z</time>
      </trkpt>
      <trkpt lat="45.10903" lon="5.89085">
        <ele>1818</ele>
        <time>2021-08-06T09:53:01Z</time>
      </trkpt>
      <trkpt lat="45.10904" lon="5.89087">
        <ele>1818</ele>
        <time>2021-08-06T09:53:05Z</time>
      </trkpt>
      <trkpt lat="45.10905" lon="5.89089">
        <ele>1818</ele>
        <time>2021-08-06T09:53:06Z</time>
      </trkpt>
      <trkpt lat="45.10906" lon="5.89091">
        <ele>1818</ele>
        <time>2021-08-06T09:53:11Z</time>
      </trkpt>
      <trkpt lat="45.10907" lon="5.89092">
        <ele>1819</ele>
        <time>2021-08-06T09:53:13Z</time>
      </trkpt>
      <trkpt lat="45.10907" lon="5.89094">
        <ele>1820</ele>
        <time>2021-08-06T09:53:18Z</time>
      </trkpt>
      <trkpt lat="45.10907" lon="5.89097">
        <ele>1821</ele>
        <time>2021-08-06T09:53:20Z</time>
      </trkpt>
      <trkpt lat="45.10908" lon="5.89099">
        <ele>1821</ele>
        <time>2021-08-06T09:53:26Z</time>
      </trkpt>
      <trkpt lat="45.1091" lon="5.89101">
        <ele>1821</ele>
        <time>2021-08-06T09:53:28Z</time>
      </trkpt>
      <trkpt lat="45.10911" lon="5.89103">
        <ele>1821</ele>
        <time>2021-08-06T09:53:32Z</time>
      </trkpt>
      <trkpt lat="45.10912" lon="5.89104">
        <ele>1821</ele>
        <time>2021-08-06T09:53:33Z</time>
      </trkpt>
      <trkpt lat="45.10913" lon="5.89106">
        <ele>1821</ele>
        <time>2021-08-06T09:53:35Z</time>
      </trkpt>
      <trkpt lat="45.10915" lon="5.89107">
        <ele>1821</ele>
        <time>2021-08-06T09:53:38Z</time>
      </trkpt>
      <trkpt lat="45.10916" lon="5.89107">
        <ele>1821</ele>
        <time>2021-08-06T09:53:39Z</time>
      </trkpt>
      <trkpt lat="45.10917" lon="5.89108">
        <ele>1821</ele>
        <time>2021-08-06T09:53:41Z</time>
      </trkpt>
      <trkpt lat="45.10919" lon="5.8911">
        <ele>1821</ele>
        <time>2021-08-06T09:53:45Z</time>
      </trkpt>
      <trkpt lat="45.1092" lon="5.89112">
        <ele>1821</ele>
        <time>2021-08-06T09:53:47Z</time>
      </trkpt>
      <trkpt lat="45.10921" lon="5.89112">
        <ele>1821</ele>
        <time>2021-08-06T09:53:51Z</time>
      </trkpt>
      <trkpt lat="45.10921" lon="5.89114">
        <ele>1821</ele>
        <time>2021-08-06T09:53:53Z</time>
      </trkpt>
      <trkpt lat="45.10921" lon="5.89116">
        <ele>1820</ele>
        <time>2021-08-06T09:53:57Z</time>
      </trkpt>
      <trkpt lat="45.10923" lon="5.89117">
        <ele>1820</ele>
        <time>2021-08-06T09:53:59Z</time>
      </trkpt>
      <trkpt lat="45.10924" lon="5.89118">
        <ele>1820</ele>
        <time>2021-08-06T09:54:03Z</time>
      </trkpt>
      <trkpt lat="45.10924" lon="5.8912">
        <ele>1820</ele>
        <time>2021-08-06T09:54:05Z</time>
      </trkpt>
      <trkpt lat="45.10923" lon="5.89122">
        <ele>1820</ele>
        <time>2021-08-06T09:54:08Z</time>
      </trkpt>
      <trkpt lat="45.10924" lon="5.89122">
        <ele>1820</ele>
        <time>2021-08-06T09:54:10Z</time>
      </trkpt>
      <trkpt lat="45.10926" lon="5.89122">
        <ele>1820</ele>
        <time>2021-08-06T09:54:13Z</time>
      </trkpt>
      <trkpt lat="45.10926" lon="5.89123">
        <ele>1820</ele>
        <time>2021-08-06T09:54:17Z</time>
      </trkpt>
      <trkpt lat="45.10928" lon="5.89125">
        <ele>1821</ele>
        <time>2021-08-06T09:54:28Z</time>
      </trkpt>
      <trkpt lat="45.10928" lon="5.89126">
        <ele>1821</ele>
        <time>2021-08-06T09:54:29Z</time>
      </trkpt>
      <trkpt lat="45.10928" lon="5.89128">
        <ele>1821</ele>
        <time>2021-08-06T09:54:31Z</time>
      </trkpt>
      <trkpt lat="45.10928" lon="5.89129">
        <ele>1821</ele>
        <time>2021-08-06T09:54:34Z</time>
      </trkpt>
      <trkpt lat="45.10929" lon="5.89131">
        <ele>1822</ele>
        <time>2021-08-06T09:54:36Z</time>
      </trkpt>
      <trkpt lat="45.1093" lon="5.89133">
        <ele>1822</ele>
        <time>2021-08-06T09:54:39Z</time>
      </trkpt>
      <trkpt lat="45.10931" lon="5.89135">
        <ele>1822</ele>
        <time>2021-08-06T09:54:41Z</time>
      </trkpt>
      <trkpt lat="45.10931" lon="5.89137">
        <ele>1823</ele>
        <time>2021-08-06T09:54:46Z</time>
      </trkpt>
      <trkpt lat="45.10932" lon="5.89139">
        <ele>1823</ele>
        <time>2021-08-06T09:54:47Z</time>
      </trkpt>
      <trkpt lat="45.10933" lon="5.8914">
        <ele>1824</ele>
        <time>2021-08-06T09:54:52Z</time>
      </trkpt>
      <trkpt lat="45.10934" lon="5.89142">
        <ele>1825</ele>
        <time>2021-08-06T09:54:53Z</time>
      </trkpt>
      <trkpt lat="45.10934" lon="5.89144">
        <ele>1825</ele>
        <time>2021-08-06T09:54:57Z</time>
      </trkpt>
      <trkpt lat="45.10935" lon="5.89146">
        <ele>1825</ele>
        <time>2021-08-06T09:54:59Z</time>
      </trkpt>
      <trkpt lat="45.10935" lon="5.89147">
        <ele>1825</ele>
        <time>2021-08-06T09:55:00Z</time>
      </trkpt>
      <trkpt lat="45.10936" lon="5.89149">
        <ele>1825</ele>
        <time>2021-08-06T09:55:03Z</time>
      </trkpt>
      <trkpt lat="45.10937" lon="5.8915">
        <ele>1825</ele>
        <time>2021-08-06T09:55:05Z</time>
      </trkpt>
      <trkpt lat="45.10938" lon="5.89152">
        <ele>1825</ele>
        <time>2021-08-06T09:55:09Z</time>
      </trkpt>
      <trkpt lat="45.10938" lon="5.89154">
        <ele>1825</ele>
        <time>2021-08-06T09:55:11Z</time>
      </trkpt>
      <trkpt lat="45.10937" lon="5.89156">
        <ele>1825</ele>
        <time>2021-08-06T09:55:15Z</time>
      </trkpt>
      <trkpt lat="45.10937" lon="5.89157">
        <ele>1825</ele>
        <time>2021-08-06T09:55:17Z</time>
      </trkpt>
      <trkpt lat="45.10936" lon="5.89159">
        <ele>1825</ele>
        <time>2021-08-06T09:55:20Z</time>
      </trkpt>
      <trkpt lat="45.10936" lon="5.89161">
        <ele>1825</ele>
        <time>2021-08-06T09:55:23Z</time>
      </trkpt>
      <trkpt lat="45.10935" lon="5.89163">
        <ele>1825</ele>
        <time>2021-08-06T09:55:27Z</time>
      </trkpt>
      <trkpt lat="45.10935" lon="5.89165">
        <ele>1825</ele>
        <time>2021-08-06T09:55:28Z</time>
      </trkpt>
      <trkpt lat="45.10934" lon="5.89167">
        <ele>1825</ele>
        <time>2021-08-06T09:55:30Z</time>
      </trkpt>
      <trkpt lat="45.10935" lon="5.8917">
        <ele>1825</ele>
        <time>2021-08-06T09:55:33Z</time>
      </trkpt>
      <trkpt lat="45.10936" lon="5.89171">
        <ele>1825</ele>
        <time>2021-08-06T09:55:35Z</time>
      </trkpt>
      <trkpt lat="45.10937" lon="5.89173">
        <ele>1825</ele>
        <time>2021-08-06T09:55:38Z</time>
      </trkpt>
      <trkpt lat="45.10937" lon="5.89175">
        <ele>1825</ele>
        <time>2021-08-06T09:55:39Z</time>
      </trkpt>
      <trkpt lat="45.10937" lon="5.89177">
        <ele>1825</ele>
        <time>2021-08-06T09:55:41Z</time>
      </trkpt>
      <trkpt lat="45.10937" lon="5.89179">
        <ele>1825</ele>
        <time>2021-08-06T09:55:45Z</time>
      </trkpt>
      <trkpt lat="45.10937" lon="5.89181">
        <ele>1825</ele>
        <time>2021-08-06T09:55:47Z</time>
      </trkpt>
      <trkpt lat="45.10938" lon="5.89183">
        <ele>1825</ele>
        <time>2021-08-06T09:55:51Z</time>
      </trkpt>
      <trkpt lat="45.10938" lon="5.89184">
        <ele>1825</ele>
        <time>2021-08-06T09:55:58Z</time>
      </trkpt>
      <trkpt lat="45.10938" lon="5.89186">
        <ele>1825</ele>
        <time>2021-08-06T09:56:04Z</time>
      </trkpt>
      <trkpt lat="45.10938" lon="5.89187">
        <ele>1825</ele>
        <time>2021-08-06T09:56:15Z</time>
      </trkpt>
      <trkpt lat="45.10939" lon="5.89188">
        <ele>1825</ele>
        <time>2021-08-06T09:56:17Z</time>
      </trkpt>
      <trkpt lat="45.10939" lon="5.89189">
        <ele>1825</ele>
        <time>2021-08-06T09:56:21Z</time>
      </trkpt>
      <trkpt lat="45.10938" lon="5.89191">
        <ele>1825</ele>
        <time>2021-08-06T09:56:26Z</time>
      </trkpt>
      <trkpt lat="45.1094" lon="5.89192">
        <ele>1825</ele>
        <time>2021-08-06T09:56:38Z</time>
      </trkpt>
      <trkpt lat="45.10941" lon="5.89192">
        <ele>1825</ele>
        <time>2021-08-06T09:56:44Z</time>
      </trkpt>
      <trkpt lat="45.10942" lon="5.89193">
        <ele>1825</ele>
        <time>2021-08-06T09:56:48Z</time>
      </trkpt>
      <trkpt lat="45.10943" lon="5.89193">
        <ele>1825</ele>
        <time>2021-08-06T09:56:55Z</time>
      </trkpt>
      <trkpt lat="45.10944" lon="5.89192">
        <ele>1825</ele>
        <time>2021-08-06T09:57:03Z</time>
      </trkpt>
      <trkpt lat="45.10946" lon="5.89191">
        <ele>1825</ele>
        <time>2021-08-06T09:57:13Z</time>
      </trkpt>
      <trkpt lat="45.10947" lon="5.89192">
        <ele>1825</ele>
        <time>2021-08-06T09:57:19Z</time>
      </trkpt>
      <trkpt lat="45.10947" lon="5.89194">
        <ele>1825</ele>
        <time>2021-08-06T09:57:24Z</time>
      </trkpt>
      <trkpt lat="45.10949" lon="5.89196">
        <ele>1825</ele>
        <time>2021-08-06T09:57:26Z</time>
      </trkpt>
      <trkpt lat="45.10949" lon="5.89197">
        <ele>1825</ele>
        <time>2021-08-06T09:57:30Z</time>
      </trkpt>
      <trkpt lat="45.10949" lon="5.89199">
        <ele>1825</ele>
        <time>2021-08-06T09:57:32Z</time>
      </trkpt>
      <trkpt lat="45.10949" lon="5.89201">
        <ele>1825</ele>
        <time>2021-08-06T09:57:35Z</time>
      </trkpt>
      <trkpt lat="45.1095" lon="5.89202">
        <ele>1825</ele>
        <time>2021-08-06T09:57:39Z</time>
      </trkpt>
      <trkpt lat="45.10951" lon="5.89203">
        <ele>1825</ele>
        <time>2021-08-06T09:57:44Z</time>
      </trkpt>
      <trkpt lat="45.10952" lon="5.89205">
        <ele>1825</ele>
        <time>2021-08-06T09:57:50Z</time>
      </trkpt>
      <trkpt lat="45.10953" lon="5.89207">
        <ele>1826</ele>
        <time>2021-08-06T09:57:53Z</time>
      </trkpt>
      <trkpt lat="45.10954" lon="5.89208">
        <ele>1827</ele>
        <time>2021-08-06T09:57:56Z</time>
      </trkpt>
      <trkpt lat="45.10955" lon="5.8921">
        <ele>1827</ele>
        <time>2021-08-06T09:57:59Z</time>
      </trkpt>
      <trkpt lat="45.10955" lon="5.89211">
        <ele>1827</ele>
        <time>2021-08-06T09:58:02Z</time>
      </trkpt>
      <trkpt lat="45.10957" lon="5.89213">
        <ele>1827</ele>
        <time>2021-08-06T09:58:09Z</time>
      </trkpt>
      <trkpt lat="45.10956" lon="5.89215">
        <ele>1827</ele>
        <time>2021-08-06T09:58:12Z</time>
      </trkpt>
      <trkpt lat="45.10957" lon="5.89216">
        <ele>1828</ele>
        <time>2021-08-06T09:58:23Z</time>
      </trkpt>
      <trkpt lat="45.10955" lon="5.89217">
        <ele>1828</ele>
        <time>2021-08-06T09:58:46Z</time>
      </trkpt>
      <trkpt lat="45.10955" lon="5.89219">
        <ele>1828</ele>
        <time>2021-08-06T09:59:00Z</time>
      </trkpt>
      <trkpt lat="45.10955" lon="5.8922">
        <ele>1828</ele>
        <time>2021-08-06T09:59:03Z</time>
      </trkpt>
      <trkpt lat="45.10955" lon="5.89222">
        <ele>1828</ele>
        <time>2021-08-06T09:59:14Z</time>
      </trkpt>
      <trkpt lat="45.10956" lon="5.89223">
        <ele>1828</ele>
        <time>2021-08-06T09:59:19Z</time>
      </trkpt>
      <trkpt lat="45.10958" lon="5.89223">
        <ele>1829</ele>
        <time>2021-08-06T09:59:50Z</time>
      </trkpt>
      <trkpt lat="45.10959" lon="5.89223">
        <ele>1829</ele>
        <time>2021-08-06T09:59:53Z</time>
      </trkpt>
      <trkpt lat="45.1096" lon="5.89223">
        <ele>1829</ele>
        <time>2021-08-06T09:59:55Z</time>
      </trkpt>
      <trkpt lat="45.10961" lon="5.89223">
        <ele>1829</ele>
        <time>2021-08-06T09:59:57Z</time>
      </trkpt>
      <trkpt lat="45.10963" lon="5.89223">
        <ele>1829</ele>
        <time>2021-08-06T10:00:03Z</time>
      </trkpt>
      <trkpt lat="45.10962" lon="5.89225">
        <ele>1830</ele>
        <time>2021-08-06T10:00:16Z</time>
      </trkpt>
      <trkpt lat="45.10961" lon="5.89225">
        <ele>1830</ele>
        <time>2021-08-06T10:00:23Z</time>
      </trkpt>
      <trkpt lat="45.1096" lon="5.89227">
        <ele>1831</ele>
        <time>2021-08-06T10:00:35Z</time>
      </trkpt>
      <trkpt lat="45.1096" lon="5.89229">
        <ele>1832</ele>
        <time>2021-08-06T10:00:42Z</time>
      </trkpt>
      <trkpt lat="45.10959" lon="5.8923">
        <ele>1834</ele>
        <time>2021-08-06T10:00:53Z</time>
      </trkpt>
      <trkpt lat="45.1096" lon="5.89231">
        <ele>1834</ele>
        <time>2021-08-06T10:01:04Z</time>
      </trkpt>
      <trkpt lat="45.10961" lon="5.89231">
        <ele>1834</ele>
        <time>2021-08-06T10:01:13Z</time>
      </trkpt>
      <trkpt lat="45.10962" lon="5.89232">
        <ele>1834</ele>
        <time>2021-08-06T10:01:17Z</time>
      </trkpt>
      <trkpt lat="45.10963" lon="5.89234">
        <ele>1834</ele>
        <time>2021-08-06T10:01:20Z</time>
      </trkpt>
      <trkpt lat="45.10964" lon="5.89235">
        <ele>1834</ele>
        <time>2021-08-06T10:01:22Z</time>
      </trkpt>
      <trkpt lat="45.10965" lon="5.89236">
        <ele>1834</ele>
        <time>2021-08-06T10:01:26Z</time>
      </trkpt>
      <trkpt lat="45.10965" lon="5.89238">
        <ele>1834</ele>
        <time>2021-08-06T10:01:30Z</time>
      </trkpt>
      <trkpt lat="45.10966" lon="5.8924">
        <ele>1834</ele>
        <time>2021-08-06T10:01:33Z</time>
      </trkpt>
      <trkpt lat="45.10967" lon="5.89241">
        <ele>1834</ele>
        <time>2021-08-06T10:01:36Z</time>
      </trkpt>
      <trkpt lat="45.10967" lon="5.89243">
        <ele>1834</ele>
        <time>2021-08-06T10:01:38Z</time>
      </trkpt>
      <trkpt lat="45.10966" lon="5.89243">
        <ele>1834</ele>
        <time>2021-08-06T10:01:41Z</time>
      </trkpt>
      <trkpt lat="45.10965" lon="5.89245">
        <ele>1836</ele>
        <time>2021-08-06T10:01:44Z</time>
      </trkpt>
      <trkpt lat="45.10965" lon="5.89247">
        <ele>1836</ele>
        <time>2021-08-06T10:01:46Z</time>
      </trkpt>
      <trkpt lat="45.10964" lon="5.89249">
        <ele>1836</ele>
        <time>2021-08-06T10:01:50Z</time>
      </trkpt>
      <trkpt lat="45.10965" lon="5.8925">
        <ele>1838</ele>
        <time>2021-08-06T10:02:18Z</time>
      </trkpt>
      <trkpt lat="45.10966" lon="5.89249">
        <ele>1838</ele>
        <time>2021-08-06T10:02:30Z</time>
      </trkpt>
      <trkpt lat="45.10966" lon="5.89248">
        <ele>1838</ele>
        <time>2021-08-06T10:02:47Z</time>
      </trkpt>
      <trkpt lat="45.10968" lon="5.89248">
        <ele>1838</ele>
        <time>2021-08-06T10:02:58Z</time>
      </trkpt>
      <trkpt lat="45.10968" lon="5.8925">
        <ele>1838</ele>
        <time>2021-08-06T10:03:03Z</time>
      </trkpt>
      <trkpt lat="45.10967" lon="5.89251">
        <ele>1840</ele>
        <time>2021-08-06T10:03:11Z</time>
      </trkpt>
      <trkpt lat="45.10966" lon="5.89253">
        <ele>1840</ele>
        <time>2021-08-06T10:03:15Z</time>
      </trkpt>
      <trkpt lat="45.10967" lon="5.89255">
        <ele>1841</ele>
        <time>2021-08-06T10:03:22Z</time>
      </trkpt>
      <trkpt lat="45.10968" lon="5.89255">
        <ele>1841</ele>
        <time>2021-08-06T10:03:28Z</time>
      </trkpt>
      <trkpt lat="45.10969" lon="5.89257">
        <ele>1841</ele>
        <time>2021-08-06T10:03:40Z</time>
      </trkpt>
      <trkpt lat="45.10969" lon="5.89258">
        <ele>1841</ele>
        <time>2021-08-06T10:03:49Z</time>
      </trkpt>
      <trkpt lat="45.1097" lon="5.8926">
        <ele>1841</ele>
        <time>2021-08-06T10:04:02Z</time>
      </trkpt>
      <trkpt lat="45.1097" lon="5.89261">
        <ele>1841</ele>
        <time>2021-08-06T10:04:17Z</time>
      </trkpt>
      <trkpt lat="45.1097" lon="5.89263">
        <ele>1841</ele>
        <time>2021-08-06T10:04:21Z</time>
      </trkpt>
      <trkpt lat="45.1097" lon="5.89265">
        <ele>1841</ele>
        <time>2021-08-06T10:04:26Z</time>
      </trkpt>
      <trkpt lat="45.1097" lon="5.89266">
        <ele>1841</ele>
        <time>2021-08-06T10:04:31Z</time>
      </trkpt>
      <trkpt lat="45.1097" lon="5.89268">
        <ele>1841</ele>
        <time>2021-08-06T10:04:36Z</time>
      </trkpt>
      <trkpt lat="45.10971" lon="5.89269">
        <ele>1841</ele>
        <time>2021-08-06T10:04:43Z</time>
      </trkpt>
      <trkpt lat="45.10971" lon="5.89271">
        <ele>1841</ele>
        <time>2021-08-06T10:04:49Z</time>
      </trkpt>
      <trkpt lat="45.1097" lon="5.89273">
        <ele>1841</ele>
        <time>2021-08-06T10:04:53Z</time>
      </trkpt>
      <trkpt lat="45.1097" lon="5.89274">
        <ele>1841</ele>
        <time>2021-08-06T10:04:56Z</time>
      </trkpt>
      <trkpt lat="45.1097" lon="5.89276">
        <ele>1841</ele>
        <time>2021-08-06T10:05:04Z</time>
      </trkpt>
      <trkpt lat="45.10971" lon="5.89278">
        <ele>1841</ele>
        <time>2021-08-06T10:05:08Z</time>
      </trkpt>
      <trkpt lat="45.10971" lon="5.89279">
        <ele>1843</ele>
        <time>2021-08-06T10:05:17Z</time>
      </trkpt>
      <trkpt lat="45.10971" lon="5.89281">
        <ele>1843</ele>
        <time>2021-08-06T10:05:20Z</time>
      </trkpt>
      <trkpt lat="45.10971" lon="5.89283">
        <ele>1844</ele>
        <time>2021-08-06T10:05:24Z</time>
      </trkpt>
      <trkpt lat="45.10972" lon="5.89283">
        <ele>1844</ele>
        <time>2021-08-06T10:05:40Z</time>
      </trkpt>
      <trkpt lat="45.10973" lon="5.89284">
        <ele>1844</ele>
        <time>2021-08-06T10:05:43Z</time>
      </trkpt>
      <trkpt lat="45.10975" lon="5.89284">
        <ele>1846</ele>
        <time>2021-08-06T10:06:10Z</time>
      </trkpt>
      <trkpt lat="45.10976" lon="5.89284">
        <ele>1846</ele>
        <time>2021-08-06T10:06:13Z</time>
      </trkpt>
      <trkpt lat="45.10977" lon="5.89283">
        <ele>1846</ele>
        <time>2021-08-06T10:06:15Z</time>
      </trkpt>
      <trkpt lat="45.10979" lon="5.89281">
        <ele>1846</ele>
        <time>2021-08-06T10:06:18Z</time>
      </trkpt>
      <trkpt lat="45.1098" lon="5.8928">
        <ele>1846</ele>
        <time>2021-08-06T10:06:22Z</time>
      </trkpt>
      <trkpt lat="45.10981" lon="5.8928">
        <ele>1846</ele>
        <time>2021-08-06T10:06:27Z</time>
      </trkpt>
      <trkpt lat="45.10982" lon="5.89279">
        <ele>1846</ele>
        <time>2021-08-06T10:06:31Z</time>
      </trkpt>
      <trkpt lat="45.10984" lon="5.89279">
        <ele>1846</ele>
        <time>2021-08-06T10:06:44Z</time>
      </trkpt>
      <trkpt lat="45.10985" lon="5.89278">
        <ele>1846</ele>
        <time>2021-08-06T10:06:55Z</time>
      </trkpt>
      <trkpt lat="45.10986" lon="5.8928">
        <ele>1846</ele>
        <time>2021-08-06T10:07:00Z</time>
      </trkpt>
      <trkpt lat="45.10987" lon="5.89281">
        <ele>1846</ele>
        <time>2021-08-06T10:07:03Z</time>
      </trkpt>
      <trkpt lat="45.10987" lon="5.89283">
        <ele>1846</ele>
        <time>2021-08-06T10:07:10Z</time>
      </trkpt>
      <trkpt lat="45.10986" lon="5.89284">
        <ele>1848</ele>
        <time>2021-08-06T10:07:19Z</time>
      </trkpt>
      <trkpt lat="45.10987" lon="5.89286">
        <ele>1849</ele>
        <time>2021-08-06T10:07:24Z</time>
      </trkpt>
      <trkpt lat="45.10989" lon="5.89287">
        <ele>1849</ele>
        <time>2021-08-06T10:07:27Z</time>
      </trkpt>
      <trkpt lat="45.1099" lon="5.89287">
        <ele>1850</ele>
        <time>2021-08-06T10:07:30Z</time>
      </trkpt>
      <trkpt lat="45.10992" lon="5.89287">
        <ele>1850</ele>
        <time>2021-08-06T10:07:32Z</time>
      </trkpt>
      <trkpt lat="45.10993" lon="5.89287">
        <ele>1850</ele>
        <time>2021-08-06T10:07:35Z</time>
      </trkpt>
      <trkpt lat="45.10994" lon="5.89287">
        <ele>1850</ele>
        <time>2021-08-06T10:07:38Z</time>
      </trkpt>
      <trkpt lat="45.10995" lon="5.89289">
        <ele>1850</ele>
        <time>2021-08-06T10:07:42Z</time>
      </trkpt>
      <trkpt lat="45.10995" lon="5.89291">
        <ele>1851</ele>
        <time>2021-08-06T10:07:44Z</time>
      </trkpt>
      <trkpt lat="45.10995" lon="5.89293">
        <ele>1851</ele>
        <time>2021-08-06T10:07:47Z</time>
      </trkpt>
      <trkpt lat="45.10995" lon="5.89295">
        <ele>1852</ele>
        <time>2021-08-06T10:07:49Z</time>
      </trkpt>
      <trkpt lat="45.10995" lon="5.89296">
        <ele>1852</ele>
        <time>2021-08-06T10:07:51Z</time>
      </trkpt>
      <trkpt lat="45.10997" lon="5.89298">
        <ele>1852</ele>
        <time>2021-08-06T10:07:55Z</time>
      </trkpt>
      <trkpt lat="45.10997" lon="5.893">
        <ele>1852</ele>
        <time>2021-08-06T10:07:58Z</time>
      </trkpt>
      <trkpt lat="45.10998" lon="5.89301">
        <ele>1852</ele>
        <time>2021-08-06T10:08:01Z</time>
      </trkpt>
      <trkpt lat="45.10999" lon="5.89303">
        <ele>1852</ele>
        <time>2021-08-06T10:08:05Z</time>
      </trkpt>
      <trkpt lat="45.11" lon="5.89303">
        <ele>1852</ele>
        <time>2021-08-06T10:08:07Z</time>
      </trkpt>
      <trkpt lat="45.11" lon="5.89305">
        <ele>1852</ele>
        <time>2021-08-06T10:08:12Z</time>
      </trkpt>
      <trkpt lat="45.11" lon="5.89306">
        <ele>1852</ele>
        <time>2021-08-06T10:08:19Z</time>
      </trkpt>
      <trkpt lat="45.11" lon="5.89308">
        <ele>1852</ele>
        <time>2021-08-06T10:08:21Z</time>
      </trkpt>
      <trkpt lat="45.10999" lon="5.89309">
        <ele>1852</ele>
        <time>2021-08-06T10:08:23Z</time>
      </trkpt>
      <trkpt lat="45.10999" lon="5.89311">
        <ele>1852</ele>
        <time>2021-08-06T10:08:25Z</time>
      </trkpt>
      <trkpt lat="45.11" lon="5.89313">
        <ele>1852</ele>
        <time>2021-08-06T10:08:27Z</time>
      </trkpt>
      <trkpt lat="45.11" lon="5.89315">
        <ele>1852</ele>
        <time>2021-08-06T10:08:29Z</time>
      </trkpt>
      <trkpt lat="45.10999" lon="5.89316">
        <ele>1852</ele>
        <time>2021-08-06T10:08:31Z</time>
      </trkpt>
      <trkpt lat="45.10999" lon="5.89318">
        <ele>1852</ele>
        <time>2021-08-06T10:08:33Z</time>
      </trkpt>
      <trkpt lat="45.10998" lon="5.89319">
        <ele>1852</ele>
        <time>2021-08-06T10:08:35Z</time>
      </trkpt>
      <trkpt lat="45.10997" lon="5.89321">
        <ele>1852</ele>
        <time>2021-08-06T10:08:38Z</time>
      </trkpt>
      <trkpt lat="45.10996" lon="5.89323">
        <ele>1852</ele>
        <time>2021-08-06T10:08:41Z</time>
      </trkpt>
      <trkpt lat="45.10996" lon="5.89325">
        <ele>1852</ele>
        <time>2021-08-06T10:08:44Z</time>
      </trkpt>
      <trkpt lat="45.10996" lon="5.89326">
        <ele>1852</ele>
        <time>2021-08-06T10:08:47Z</time>
      </trkpt>
      <trkpt lat="45.10995" lon="5.89327">
        <ele>1853</ele>
        <time>2021-08-06T10:08:50Z</time>
      </trkpt>
      <trkpt lat="45.10993" lon="5.89329">
        <ele>1855</ele>
        <time>2021-08-06T10:08:55Z</time>
      </trkpt>
      <trkpt lat="45.10991" lon="5.89328">
        <ele>1857</ele>
        <time>2021-08-06T10:08:57Z</time>
      </trkpt>
      <trkpt lat="45.10992" lon="5.89329">
        <ele>1858</ele>
        <time>2021-08-06T10:08:59Z</time>
      </trkpt>
      <trkpt lat="45.10991" lon="5.89331">
        <ele>1858</ele>
        <time>2021-08-06T10:09:02Z</time>
      </trkpt>
      <trkpt lat="45.10991" lon="5.89333">
        <ele>1858</ele>
        <time>2021-08-06T10:09:14Z</time>
      </trkpt>
      <trkpt lat="45.1099" lon="5.89335">
        <ele>1860</ele>
        <time>2021-08-06T10:09:24Z</time>
      </trkpt>
      <trkpt lat="45.10989" lon="5.89334">
        <ele>1861</ele>
        <time>2021-08-06T10:09:32Z</time>
      </trkpt>
      <trkpt lat="45.10989" lon="5.89336">
        <ele>1863</ele>
        <time>2021-08-06T10:09:39Z</time>
      </trkpt>
      <trkpt lat="45.10989" lon="5.89338">
        <ele>1863</ele>
        <time>2021-08-06T10:09:46Z</time>
      </trkpt>
      <trkpt lat="45.10989" lon="5.89339">
        <ele>1863</ele>
        <time>2021-08-06T10:09:49Z</time>
      </trkpt>
      <trkpt lat="45.10989" lon="5.89341">
        <ele>1863</ele>
        <time>2021-08-06T10:09:53Z</time>
      </trkpt>
      <trkpt lat="45.1099" lon="5.89341">
        <ele>1863</ele>
        <time>2021-08-06T10:09:55Z</time>
      </trkpt>
      <trkpt lat="45.10991" lon="5.89343">
        <ele>1863</ele>
        <time>2021-08-06T10:09:59Z</time>
      </trkpt>
      <trkpt lat="45.10992" lon="5.89345">
        <ele>1863</ele>
        <time>2021-08-06T10:10:02Z</time>
      </trkpt>
      <trkpt lat="45.10992" lon="5.89347">
        <ele>1863</ele>
        <time>2021-08-06T10:10:05Z</time>
      </trkpt>
      <trkpt lat="45.10992" lon="5.89348">
        <ele>1863</ele>
        <time>2021-08-06T10:10:09Z</time>
      </trkpt>
      <trkpt lat="45.10991" lon="5.8935">
        <ele>1863</ele>
        <time>2021-08-06T10:10:13Z</time>
      </trkpt>
      <trkpt lat="45.1099" lon="5.89352">
        <ele>1863</ele>
        <time>2021-08-06T10:10:18Z</time>
      </trkpt>
      <trkpt lat="45.1099" lon="5.89353">
        <ele>1863</ele>
        <time>2021-08-06T10:10:38Z</time>
      </trkpt>
      <trkpt lat="45.1099" lon="5.89355">
        <ele>1863</ele>
        <time>2021-08-06T10:10:48Z</time>
      </trkpt>
      <trkpt lat="45.10991" lon="5.89357">
        <ele>1863</ele>
        <time>2021-08-06T10:10:50Z</time>
      </trkpt>
      <trkpt lat="45.10992" lon="5.89358">
        <ele>1863</ele>
        <time>2021-08-06T10:10:54Z</time>
      </trkpt>
      <trkpt lat="45.10993" lon="5.89359">
        <ele>1863</ele>
        <time>2021-08-06T10:10:59Z</time>
      </trkpt>
      <trkpt lat="45.10994" lon="5.89359">
        <ele>1863</ele>
        <time>2021-08-06T10:11:04Z</time>
      </trkpt>
      <trkpt lat="45.10995" lon="5.89359">
        <ele>1863</ele>
        <time>2021-08-06T10:11:08Z</time>
      </trkpt>
      <trkpt lat="45.10997" lon="5.8936">
        <ele>1863</ele>
        <time>2021-08-06T10:11:11Z</time>
      </trkpt>
      <trkpt lat="45.10998" lon="5.89359">
        <ele>1863</ele>
        <time>2021-08-06T10:11:15Z</time>
      </trkpt>
      <trkpt lat="45.10998" lon="5.8936">
        <ele>1863</ele>
        <time>2021-08-06T10:11:31Z</time>
      </trkpt>
      <trkpt lat="45.10998" lon="5.89362">
        <ele>1863</ele>
        <time>2021-08-06T10:11:35Z</time>
      </trkpt>
      <trkpt lat="45.10998" lon="5.89363">
        <ele>1863</ele>
        <time>2021-08-06T10:11:39Z</time>
      </trkpt>
      <trkpt lat="45.10997" lon="5.89365">
        <ele>1863</ele>
        <time>2021-08-06T10:11:43Z</time>
      </trkpt>
      <trkpt lat="45.10997" lon="5.89366">
        <ele>1863</ele>
        <time>2021-08-06T10:11:46Z</time>
      </trkpt>
      <trkpt lat="45.10997" lon="5.89368">
        <ele>1863</ele>
        <time>2021-08-06T10:11:50Z</time>
      </trkpt>
      <trkpt lat="45.10999" lon="5.8937">
        <ele>1863</ele>
        <time>2021-08-06T10:11:54Z</time>
      </trkpt>
      <trkpt lat="45.11" lon="5.89371">
        <ele>1863</ele>
        <time>2021-08-06T10:12:17Z</time>
      </trkpt>
      <trkpt lat="45.11" lon="5.89373">
        <ele>1863</ele>
        <time>2021-08-06T10:12:21Z</time>
      </trkpt>
      <trkpt lat="45.11001" lon="5.89375">
        <ele>1864</ele>
        <time>2021-08-06T10:12:31Z</time>
      </trkpt>
      <trkpt lat="45.11001" lon="5.89376">
        <ele>1864</ele>
        <time>2021-08-06T10:12:37Z</time>
      </trkpt>
      <trkpt lat="45.11001" lon="5.89378">
        <ele>1864</ele>
        <time>2021-08-06T10:12:44Z</time>
      </trkpt>
      <trkpt lat="45.11002" lon="5.89377">
        <ele>1865</ele>
        <time>2021-08-06T10:12:48Z</time>
      </trkpt>
      <trkpt lat="45.11003" lon="5.89376">
        <ele>1865</ele>
        <time>2021-08-06T10:12:51Z</time>
      </trkpt>
      <trkpt lat="45.11005" lon="5.89375">
        <ele>1865</ele>
        <time>2021-08-06T10:12:53Z</time>
      </trkpt>
      <trkpt lat="45.11006" lon="5.89375">
        <ele>1865</ele>
        <time>2021-08-06T10:12:59Z</time>
      </trkpt>
      <trkpt lat="45.11006" lon="5.89377">
        <ele>1866</ele>
        <time>2021-08-06T10:13:03Z</time>
      </trkpt>
      <trkpt lat="45.11005" lon="5.89379">
        <ele>1866</ele>
        <time>2021-08-06T10:13:07Z</time>
      </trkpt>
      <trkpt lat="45.11005" lon="5.89381">
        <ele>1866</ele>
        <time>2021-08-06T10:13:10Z</time>
      </trkpt>
      <trkpt lat="45.11004" lon="5.89383">
        <ele>1866</ele>
        <time>2021-08-06T10:13:14Z</time>
      </trkpt>
      <trkpt lat="45.11004" lon="5.89384">
        <ele>1866</ele>
        <time>2021-08-06T10:13:17Z</time>
      </trkpt>
      <trkpt lat="45.11003" lon="5.89386">
        <ele>1866</ele>
        <time>2021-08-06T10:13:21Z</time>
      </trkpt>
      <trkpt lat="45.11003" lon="5.89388">
        <ele>1866</ele>
        <time>2021-08-06T10:13:24Z</time>
      </trkpt>
      <trkpt lat="45.11003" lon="5.89389">
        <ele>1866</ele>
        <time>2021-08-06T10:13:27Z</time>
      </trkpt>
      <trkpt lat="45.11003" lon="5.89391">
        <ele>1867</ele>
        <time>2021-08-06T10:13:36Z</time>
      </trkpt>
      <trkpt lat="45.11004" lon="5.89393">
        <ele>1868</ele>
        <time>2021-08-06T10:13:40Z</time>
      </trkpt>
      <trkpt lat="45.11004" lon="5.89394">
        <ele>1868</ele>
        <time>2021-08-06T10:13:43Z</time>
      </trkpt>
      <trkpt lat="45.11004" lon="5.89396">
        <ele>1869</ele>
        <time>2021-08-06T10:13:48Z</time>
      </trkpt>
      <trkpt lat="45.11005" lon="5.89397">
        <ele>1871</ele>
        <time>2021-08-06T10:13:56Z</time>
      </trkpt>
      <trkpt lat="45.11004" lon="5.89399">
        <ele>1872</ele>
        <time>2021-08-06T10:14:10Z</time>
      </trkpt>
      <trkpt lat="45.11003" lon="5.89401">
        <ele>1872</ele>
        <time>2021-08-06T10:14:14Z</time>
      </trkpt>
      <trkpt lat="45.11002" lon="5.89402">
        <ele>1873</ele>
        <time>2021-08-06T10:14:19Z</time>
      </trkpt>
      <trkpt lat="45.11001" lon="5.89402">
        <ele>1873</ele>
        <time>2021-08-06T10:14:21Z</time>
      </trkpt>
      <trkpt lat="45.10999" lon="5.89403">
        <ele>1873</ele>
        <time>2021-08-06T10:14:24Z</time>
      </trkpt>
      <trkpt lat="45.10998" lon="5.89405">
        <ele>1874</ele>
        <time>2021-08-06T10:14:27Z</time>
      </trkpt>
      <trkpt lat="45.10997" lon="5.89406">
        <ele>1874</ele>
        <time>2021-08-06T10:14:30Z</time>
      </trkpt>
      <trkpt lat="45.10997" lon="5.89408">
        <ele>1875</ele>
        <time>2021-08-06T10:14:33Z</time>
      </trkpt>
      <trkpt lat="45.10998" lon="5.8941">
        <ele>1875</ele>
        <time>2021-08-06T10:14:36Z</time>
      </trkpt>
      <trkpt lat="45.10997" lon="5.89411">
        <ele>1876</ele>
        <time>2021-08-06T10:14:59Z</time>
      </trkpt>
      <trkpt lat="45.10997" lon="5.89413">
        <ele>1876</ele>
        <time>2021-08-06T10:15:03Z</time>
      </trkpt>
      <trkpt lat="45.10997" lon="5.89415">
        <ele>1877</ele>
        <time>2021-08-06T10:15:06Z</time>
      </trkpt>
      <trkpt lat="45.10997" lon="5.89416">
        <ele>1877</ele>
        <time>2021-08-06T10:15:29Z</time>
      </trkpt>
      <trkpt lat="45.10997" lon="5.89418">
        <ele>1877</ele>
        <time>2021-08-06T10:15:31Z</time>
      </trkpt>
      <trkpt lat="45.10997" lon="5.8942">
        <ele>1878</ele>
        <time>2021-08-06T10:15:34Z</time>
      </trkpt>
      <trkpt lat="45.10998" lon="5.89422">
        <ele>1878</ele>
        <time>2021-08-06T10:15:36Z</time>
      </trkpt>
      <trkpt lat="45.10999" lon="5.89424">
        <ele>1878</ele>
        <time>2021-08-06T10:15:38Z</time>
      </trkpt>
      <trkpt lat="45.10999" lon="5.89425">
        <ele>1878</ele>
        <time>2021-08-06T10:15:40Z</time>
      </trkpt>
      <trkpt lat="45.10999" lon="5.89427">
        <ele>1878</ele>
        <time>2021-08-06T10:15:42Z</time>
      </trkpt>
      <trkpt lat="45.11" lon="5.8943">
        <ele>1879</ele>
        <time>2021-08-06T10:15:44Z</time>
      </trkpt>
      <trkpt lat="45.11" lon="5.89432">
        <ele>1879</ele>
        <time>2021-08-06T10:15:46Z</time>
      </trkpt>
      <trkpt lat="45.11" lon="5.89434">
        <ele>1879</ele>
        <time>2021-08-06T10:15:48Z</time>
      </trkpt>
      <trkpt lat="45.11" lon="5.89435">
        <ele>1879</ele>
        <time>2021-08-06T10:15:50Z</time>
      </trkpt>
      <trkpt lat="45.11001" lon="5.89437">
        <ele>1879</ele>
        <time>2021-08-06T10:15:52Z</time>
      </trkpt>
      <trkpt lat="45.11001" lon="5.89438">
        <ele>1879</ele>
        <time>2021-08-06T10:15:55Z</time>
      </trkpt>
      <trkpt lat="45.11002" lon="5.8944">
        <ele>1881</ele>
        <time>2021-08-06T10:18:00Z</time>
      </trkpt>
      <trkpt lat="45.11002" lon="5.89441">
        <ele>1881</ele>
        <time>2021-08-06T10:18:04Z</time>
      </trkpt>
      <trkpt lat="45.11002" lon="5.89443">
        <ele>1881</ele>
        <time>2021-08-06T10:18:06Z</time>
      </trkpt>
      <trkpt lat="45.11003" lon="5.89444">
        <ele>1881</ele>
        <time>2021-08-06T10:18:08Z</time>
      </trkpt>
      <trkpt lat="45.11003" lon="5.89446">
        <ele>1881</ele>
        <time>2021-08-06T10:18:10Z</time>
      </trkpt>
      <trkpt lat="45.11003" lon="5.89448">
        <ele>1881</ele>
        <time>2021-08-06T10:18:13Z</time>
      </trkpt>
      <trkpt lat="45.11003" lon="5.8945">
        <ele>1881</ele>
        <time>2021-08-06T10:18:26Z</time>
      </trkpt>
      <trkpt lat="45.11004" lon="5.89452">
        <ele>1881</ele>
        <time>2021-08-06T10:18:29Z</time>
      </trkpt>
      <trkpt lat="45.11004" lon="5.89453">
        <ele>1881</ele>
        <time>2021-08-06T10:18:31Z</time>
      </trkpt>
      <trkpt lat="45.11004" lon="5.89455">
        <ele>1881</ele>
        <time>2021-08-06T10:18:32Z</time>
      </trkpt>
      <trkpt lat="45.11004" lon="5.89457">
        <ele>1881</ele>
        <time>2021-08-06T10:18:34Z</time>
      </trkpt>
      <trkpt lat="45.11004" lon="5.89459">
        <ele>1881</ele>
        <time>2021-08-06T10:18:36Z</time>
      </trkpt>
      <trkpt lat="45.11005" lon="5.8946">
        <ele>1881</ele>
        <time>2021-08-06T10:18:38Z</time>
      </trkpt>
      <trkpt lat="45.11006" lon="5.89462">
        <ele>1881</ele>
        <time>2021-08-06T10:18:41Z</time>
      </trkpt>
      <trkpt lat="45.11007" lon="5.89463">
        <ele>1881</ele>
        <time>2021-08-06T10:18:45Z</time>
      </trkpt>
      <trkpt lat="45.11007" lon="5.89465">
        <ele>1881</ele>
        <time>2021-08-06T10:18:47Z</time>
      </trkpt>
      <trkpt lat="45.11007" lon="5.89466">
        <ele>1881</ele>
        <time>2021-08-06T10:18:49Z</time>
      </trkpt>
      <trkpt lat="45.11008" lon="5.89468">
        <ele>1881</ele>
        <time>2021-08-06T10:18:52Z</time>
      </trkpt>
      <trkpt lat="45.11008" lon="5.89469">
        <ele>1881</ele>
        <time>2021-08-06T10:18:55Z</time>
      </trkpt>
      <trkpt lat="45.11008" lon="5.89471">
        <ele>1881</ele>
        <time>2021-08-06T10:19:02Z</time>
      </trkpt>
      <trkpt lat="45.11008" lon="5.89473">
        <ele>1881</ele>
        <time>2021-08-06T10:19:12Z</time>
      </trkpt>
      <trkpt lat="45.11008" lon="5.89475">
        <ele>1881</ele>
        <time>2021-08-06T10:19:31Z</time>
      </trkpt>
      <trkpt lat="45.11008" lon="5.89476">
        <ele>1881</ele>
        <time>2021-08-06T10:19:41Z</time>
      </trkpt>
      <trkpt lat="45.11008" lon="5.89478">
        <ele>1881</ele>
        <time>2021-08-06T10:19:55Z</time>
      </trkpt>
      <trkpt lat="45.11008" lon="5.89479">
        <ele>1881</ele>
        <time>2021-08-06T10:19:57Z</time>
      </trkpt>
      <trkpt lat="45.11009" lon="5.89481">
        <ele>1881</ele>
        <time>2021-08-06T10:20:15Z</time>
      </trkpt>
      <trkpt lat="45.1101" lon="5.89483">
        <ele>1881</ele>
        <time>2021-08-06T10:20:18Z</time>
      </trkpt>
      <trkpt lat="45.1101" lon="5.89485">
        <ele>1881</ele>
        <time>2021-08-06T10:20:21Z</time>
      </trkpt>
      <trkpt lat="45.11011" lon="5.89487">
        <ele>1881</ele>
        <time>2021-08-06T10:20:23Z</time>
      </trkpt>
      <trkpt lat="45.11012" lon="5.89488">
        <ele>1881</ele>
        <time>2021-08-06T10:20:25Z</time>
      </trkpt>
      <trkpt lat="45.11014" lon="5.8949">
        <ele>1881</ele>
        <time>2021-08-06T10:20:28Z</time>
      </trkpt>
      <trkpt lat="45.11014" lon="5.89492">
        <ele>1881</ele>
        <time>2021-08-06T10:20:35Z</time>
      </trkpt>
      <trkpt lat="45.11015" lon="5.89493">
        <ele>1881</ele>
        <time>2021-08-06T10:20:37Z</time>
      </trkpt>
      <trkpt lat="45.11015" lon="5.89495">
        <ele>1881</ele>
        <time>2021-08-06T10:20:39Z</time>
      </trkpt>
      <trkpt lat="45.11015" lon="5.89497">
        <ele>1881</ele>
        <time>2021-08-06T10:20:41Z</time>
      </trkpt>
      <trkpt lat="45.11015" lon="5.89499">
        <ele>1881</ele>
        <time>2021-08-06T10:20:43Z</time>
      </trkpt>
      <trkpt lat="45.11015" lon="5.89501">
        <ele>1881</ele>
        <time>2021-08-06T10:20:45Z</time>
      </trkpt>
      <trkpt lat="45.11016" lon="5.89503">
        <ele>1881</ele>
        <time>2021-08-06T10:20:47Z</time>
      </trkpt>
      <trkpt lat="45.11015" lon="5.89502">
        <ele>1881</ele>
        <time>2021-08-06T10:20:59Z</time>
      </trkpt>
      <trkpt lat="45.11015" lon="5.89504">
        <ele>1881</ele>
        <time>2021-08-06T10:21:11Z</time>
      </trkpt>
      <trkpt lat="45.11015" lon="5.89506">
        <ele>1881</ele>
        <time>2021-08-06T10:21:13Z</time>
      </trkpt>
      <trkpt lat="45.11016" lon="5.89508">
        <ele>1881</ele>
        <time>2021-08-06T10:21:16Z</time>
      </trkpt>
      <trkpt lat="45.11017" lon="5.8951">
        <ele>1881</ele>
        <time>2021-08-06T10:21:18Z</time>
      </trkpt>
      <trkpt lat="45.11018" lon="5.89512">
        <ele>1879</ele>
        <time>2021-08-06T10:21:22Z</time>
      </trkpt>
      <trkpt lat="45.11018" lon="5.89514">
        <ele>1879</ele>
        <time>2021-08-06T10:21:25Z</time>
      </trkpt>
      <trkpt lat="45.11018" lon="5.89516">
        <ele>1879</ele>
        <time>2021-08-06T10:21:27Z</time>
      </trkpt>
      <trkpt lat="45.1102" lon="5.89517">
        <ele>1879</ele>
        <time>2021-08-06T10:21:30Z</time>
      </trkpt>
      <trkpt lat="45.1102" lon="5.89518">
        <ele>1879</ele>
        <time>2021-08-06T10:21:38Z</time>
      </trkpt>
      <trkpt lat="45.11021" lon="5.89518">
        <ele>1879</ele>
        <time>2021-08-06T10:21:49Z</time>
      </trkpt>
      <trkpt lat="45.1102" lon="5.8952">
        <ele>1879</ele>
        <time>2021-08-06T10:21:54Z</time>
      </trkpt>
      <trkpt lat="45.11021" lon="5.89522">
        <ele>1879</ele>
        <time>2021-08-06T10:21:59Z</time>
      </trkpt>
      <trkpt lat="45.11022" lon="5.89523">
        <ele>1879</ele>
        <time>2021-08-06T10:22:02Z</time>
      </trkpt>
      <trkpt lat="45.11023" lon="5.89524">
        <ele>1879</ele>
        <time>2021-08-06T10:22:05Z</time>
      </trkpt>
      <trkpt lat="45.11025" lon="5.89526">
        <ele>1879</ele>
        <time>2021-08-06T10:22:08Z</time>
      </trkpt>
      <trkpt lat="45.11025" lon="5.89527">
        <ele>1879</ele>
        <time>2021-08-06T10:22:10Z</time>
      </trkpt>
      <trkpt lat="45.11026" lon="5.89529">
        <ele>1879</ele>
        <time>2021-08-06T10:22:12Z</time>
      </trkpt>
      <trkpt lat="45.11027" lon="5.8953">
        <ele>1879</ele>
        <time>2021-08-06T10:22:15Z</time>
      </trkpt>
      <trkpt lat="45.11028" lon="5.89532">
        <ele>1879</ele>
        <time>2021-08-06T10:22:18Z</time>
      </trkpt>
      <trkpt lat="45.11029" lon="5.89533">
        <ele>1879</ele>
        <time>2021-08-06T10:22:21Z</time>
      </trkpt>
      <trkpt lat="45.11029" lon="5.89535">
        <ele>1879</ele>
        <time>2021-08-06T10:22:25Z</time>
      </trkpt>
      <trkpt lat="45.1103" lon="5.89537">
        <ele>1879</ele>
        <time>2021-08-06T10:22:28Z</time>
      </trkpt>
      <trkpt lat="45.11031" lon="5.89538">
        <ele>1879</ele>
        <time>2021-08-06T10:22:31Z</time>
      </trkpt>
      <trkpt lat="45.11031" lon="5.8954">
        <ele>1879</ele>
        <time>2021-08-06T10:22:35Z</time>
      </trkpt>
      <trkpt lat="45.11032" lon="5.89541">
        <ele>1879</ele>
        <time>2021-08-06T10:22:39Z</time>
      </trkpt>
      <trkpt lat="45.11034" lon="5.89541">
        <ele>1879</ele>
        <time>2021-08-06T10:22:42Z</time>
      </trkpt>
      <trkpt lat="45.11035" lon="5.89541">
        <ele>1879</ele>
        <time>2021-08-06T10:22:49Z</time>
      </trkpt>
      <trkpt lat="45.11036" lon="5.89543">
        <ele>1879</ele>
        <time>2021-08-06T10:23:01Z</time>
      </trkpt>
      <trkpt lat="45.11037" lon="5.89544">
        <ele>1879</ele>
        <time>2021-08-06T10:23:04Z</time>
      </trkpt>
      <trkpt lat="45.11038" lon="5.89546">
        <ele>1879</ele>
        <time>2021-08-06T10:23:07Z</time>
      </trkpt>
      <trkpt lat="45.11039" lon="5.89547">
        <ele>1879</ele>
        <time>2021-08-06T10:23:11Z</time>
      </trkpt>
      <trkpt lat="45.1104" lon="5.89548">
        <ele>1879</ele>
        <time>2021-08-06T10:23:15Z</time>
      </trkpt>
      <trkpt lat="45.1104" lon="5.89547">
        <ele>1883</ele>
        <time>2021-08-06T10:23:27Z</time>
      </trkpt>
      <trkpt lat="45.11039" lon="5.89545">
        <ele>1886</ele>
        <time>2021-08-06T10:23:31Z</time>
      </trkpt>
      <trkpt lat="45.11038" lon="5.89543">
        <ele>1888</ele>
        <time>2021-08-06T10:23:33Z</time>
      </trkpt>
      <trkpt lat="45.11036" lon="5.89545">
        <ele>1892</ele>
        <time>2021-08-06T10:23:39Z</time>
      </trkpt>
      <trkpt lat="45.11036" lon="5.89546">
        <ele>1893</ele>
        <time>2021-08-06T10:23:44Z</time>
      </trkpt>
      <trkpt lat="45.11036" lon="5.89548">
        <ele>1893</ele>
        <time>2021-08-06T10:23:53Z</time>
      </trkpt>
      <trkpt lat="45.11036" lon="5.89549">
        <ele>1893</ele>
        <time>2021-08-06T10:23:59Z</time>
      </trkpt>
      <trkpt lat="45.11036" lon="5.89551">
        <ele>1893</ele>
        <time>2021-08-06T10:24:02Z</time>
      </trkpt>
      <trkpt lat="45.11036" lon="5.89553">
        <ele>1893</ele>
        <time>2021-08-06T10:24:05Z</time>
      </trkpt>
      <trkpt lat="45.11037" lon="5.89555">
        <ele>1893</ele>
        <time>2021-08-06T10:24:12Z</time>
      </trkpt>
      <trkpt lat="45.11039" lon="5.89556">
        <ele>1893</ele>
        <time>2021-08-06T10:24:18Z</time>
      </trkpt>
      <trkpt lat="45.11039" lon="5.89558">
        <ele>1893</ele>
        <time>2021-08-06T10:24:23Z</time>
      </trkpt>
      <trkpt lat="45.1104" lon="5.89559">
        <ele>1893</ele>
        <time>2021-08-06T10:24:28Z</time>
      </trkpt>
      <trkpt lat="45.1104" lon="5.89561">
        <ele>1893</ele>
        <time>2021-08-06T10:24:31Z</time>
      </trkpt>
      <trkpt lat="45.1104" lon="5.89563">
        <ele>1893</ele>
        <time>2021-08-06T10:24:34Z</time>
      </trkpt>
      <trkpt lat="45.11041" lon="5.89564">
        <ele>1893</ele>
        <time>2021-08-06T10:24:55Z</time>
      </trkpt>
      <trkpt lat="45.11041" lon="5.89566">
        <ele>1893</ele>
        <time>2021-08-06T10:24:59Z</time>
      </trkpt>
      <trkpt lat="45.11041" lon="5.89567">
        <ele>1893</ele>
        <time>2021-08-06T10:25:05Z</time>
      </trkpt>
      <trkpt lat="45.11042" lon="5.89568">
        <ele>1893</ele>
        <time>2021-08-06T10:25:09Z</time>
      </trkpt>
      <trkpt lat="45.11042" lon="5.8957">
        <ele>1893</ele>
        <time>2021-08-06T10:25:14Z</time>
      </trkpt>
      <trkpt lat="45.11042" lon="5.89572">
        <ele>1893</ele>
        <time>2021-08-06T10:25:18Z</time>
      </trkpt>
      <trkpt lat="45.11042" lon="5.89573">
        <ele>1893</ele>
        <time>2021-08-06T10:25:38Z</time>
      </trkpt>
      <trkpt lat="45.11043" lon="5.89574">
        <ele>1894</ele>
        <time>2021-08-06T10:25:44Z</time>
      </trkpt>
      <trkpt lat="45.11043" lon="5.89576">
        <ele>1897</ele>
        <time>2021-08-06T10:26:01Z</time>
      </trkpt>
      <trkpt lat="45.11044" lon="5.89578">
        <ele>1897</ele>
        <time>2021-08-06T10:26:06Z</time>
      </trkpt>
      <trkpt lat="45.11045" lon="5.89579">
        <ele>1898</ele>
        <time>2021-08-06T10:26:10Z</time>
      </trkpt>
      <trkpt lat="45.11045" lon="5.89581">
        <ele>1898</ele>
        <time>2021-08-06T10:26:13Z</time>
      </trkpt>
      <trkpt lat="45.11046" lon="5.89583">
        <ele>1898</ele>
        <time>2021-08-06T10:26:16Z</time>
      </trkpt>
      <trkpt lat="45.11045" lon="5.89585">
        <ele>1898</ele>
        <time>2021-08-06T10:26:20Z</time>
      </trkpt>
      <trkpt lat="45.11046" lon="5.89586">
        <ele>1898</ele>
        <time>2021-08-06T10:26:27Z</time>
      </trkpt>
      <trkpt lat="45.11046" lon="5.89588">
        <ele>1898</ele>
        <time>2021-08-06T10:26:34Z</time>
      </trkpt>
      <trkpt lat="45.11046" lon="5.8959">
        <ele>1898</ele>
        <time>2021-08-06T10:26:38Z</time>
      </trkpt>
      <trkpt lat="45.11047" lon="5.89591">
        <ele>1899</ele>
        <time>2021-08-06T10:26:42Z</time>
      </trkpt>
      <trkpt lat="45.11047" lon="5.89593">
        <ele>1899</ele>
        <time>2021-08-06T10:26:47Z</time>
      </trkpt>
      <trkpt lat="45.11047" lon="5.89594">
        <ele>1900</ele>
        <time>2021-08-06T10:26:53Z</time>
      </trkpt>
      <trkpt lat="45.11048" lon="5.89596">
        <ele>1900</ele>
        <time>2021-08-06T10:27:10Z</time>
      </trkpt>
      <trkpt lat="45.11048" lon="5.89598">
        <ele>1901</ele>
        <time>2021-08-06T10:27:15Z</time>
      </trkpt>
      <trkpt lat="45.11048" lon="5.896">
        <ele>1901</ele>
        <time>2021-08-06T10:27:18Z</time>
      </trkpt>
      <trkpt lat="45.11048" lon="5.89602">
        <ele>1901</ele>
        <time>2021-08-06T10:27:21Z</time>
      </trkpt>
      <trkpt lat="45.11049" lon="5.89604">
        <ele>1902</ele>
        <time>2021-08-06T10:27:23Z</time>
      </trkpt>
      <trkpt lat="45.1105" lon="5.89606">
        <ele>1902</ele>
        <time>2021-08-06T10:27:27Z</time>
      </trkpt>
      <trkpt lat="45.11051" lon="5.89607">
        <ele>1903</ele>
        <time>2021-08-06T10:27:30Z</time>
      </trkpt>
      <trkpt lat="45.11052" lon="5.89609">
        <ele>1903</ele>
        <time>2021-08-06T10:27:34Z</time>
      </trkpt>
      <trkpt lat="45.11052" lon="5.89611">
        <ele>1903</ele>
        <time>2021-08-06T10:27:39Z</time>
      </trkpt>
      <trkpt lat="45.11051" lon="5.89612">
        <ele>1903</ele>
        <time>2021-08-06T10:27:42Z</time>
      </trkpt>
      <trkpt lat="45.1105" lon="5.89614">
        <ele>1903</ele>
        <time>2021-08-06T10:27:44Z</time>
      </trkpt>
      <trkpt lat="45.1105" lon="5.89616">
        <ele>1903</ele>
        <time>2021-08-06T10:27:46Z</time>
      </trkpt>
      <trkpt lat="45.1105" lon="5.89617">
        <ele>1903</ele>
        <time>2021-08-06T10:27:48Z</time>
      </trkpt>
      <trkpt lat="45.1105" lon="5.8962">
        <ele>1903</ele>
        <time>2021-08-06T10:27:51Z</time>
      </trkpt>
      <trkpt lat="45.1105" lon="5.89622">
        <ele>1903</ele>
        <time>2021-08-06T10:27:53Z</time>
      </trkpt>
      <trkpt lat="45.1105" lon="5.89624">
        <ele>1903</ele>
        <time>2021-08-06T10:27:55Z</time>
      </trkpt>
      <trkpt lat="45.1105" lon="5.89625">
        <ele>1903</ele>
        <time>2021-08-06T10:27:57Z</time>
      </trkpt>
      <trkpt lat="45.11052" lon="5.89627">
        <ele>1903</ele>
        <time>2021-08-06T10:28:00Z</time>
      </trkpt>
      <trkpt lat="45.11053" lon="5.89628">
        <ele>1903</ele>
        <time>2021-08-06T10:28:04Z</time>
      </trkpt>
      <trkpt lat="45.11054" lon="5.8963">
        <ele>1903</ele>
        <time>2021-08-06T10:28:07Z</time>
      </trkpt>
      <trkpt lat="45.11055" lon="5.89632">
        <ele>1902</ele>
        <time>2021-08-06T10:28:11Z</time>
      </trkpt>
      <trkpt lat="45.11055" lon="5.89634">
        <ele>1902</ele>
        <time>2021-08-06T10:28:14Z</time>
      </trkpt>
      <trkpt lat="45.11055" lon="5.89635">
        <ele>1902</ele>
        <time>2021-08-06T10:28:16Z</time>
      </trkpt>
      <trkpt lat="45.11055" lon="5.89637">
        <ele>1902</ele>
        <time>2021-08-06T10:28:20Z</time>
      </trkpt>
      <trkpt lat="45.11056" lon="5.89638">
        <ele>1901</ele>
        <time>2021-08-06T10:28:23Z</time>
      </trkpt>
      <trkpt lat="45.11057" lon="5.8964">
        <ele>1901</ele>
        <time>2021-08-06T10:28:26Z</time>
      </trkpt>
      <trkpt lat="45.11058" lon="5.89641">
        <ele>1900</ele>
        <time>2021-08-06T10:28:29Z</time>
      </trkpt>
      <trkpt lat="45.1106" lon="5.89642">
        <ele>1900</ele>
        <time>2021-08-06T10:28:32Z</time>
      </trkpt>
      <trkpt lat="45.11061" lon="5.89644">
        <ele>1900</ele>
        <time>2021-08-06T10:28:35Z</time>
      </trkpt>
      <trkpt lat="45.11063" lon="5.89645">
        <ele>1900</ele>
        <time>2021-08-06T10:28:37Z</time>
      </trkpt>
      <trkpt lat="45.11064" lon="5.89646">
        <ele>1900</ele>
        <time>2021-08-06T10:28:40Z</time>
      </trkpt>
      <trkpt lat="45.11065" lon="5.89647">
        <ele>1900</ele>
        <time>2021-08-06T10:28:43Z</time>
      </trkpt>
      <trkpt lat="45.11066" lon="5.89647">
        <ele>1900</ele>
        <time>2021-08-06T10:28:46Z</time>
      </trkpt>
      <trkpt lat="45.11067" lon="5.89649">
        <ele>1900</ele>
        <time>2021-08-06T10:28:49Z</time>
      </trkpt>
      <trkpt lat="45.11066" lon="5.89651">
        <ele>1900</ele>
        <time>2021-08-06T10:28:51Z</time>
      </trkpt>
      <trkpt lat="45.11066" lon="5.89653">
        <ele>1900</ele>
        <time>2021-08-06T10:28:53Z</time>
      </trkpt>
      <trkpt lat="45.11065" lon="5.89655">
        <ele>1900</ele>
        <time>2021-08-06T10:28:55Z</time>
      </trkpt>
      <trkpt lat="45.11065" lon="5.89658">
        <ele>1900</ele>
        <time>2021-08-06T10:28:57Z</time>
      </trkpt>
      <trkpt lat="45.11064" lon="5.8966">
        <ele>1900</ele>
        <time>2021-08-06T10:28:59Z</time>
      </trkpt>
      <trkpt lat="45.11063" lon="5.89662">
        <ele>1900</ele>
        <time>2021-08-06T10:29:01Z</time>
      </trkpt>
      <trkpt lat="45.11063" lon="5.89663">
        <ele>1900</ele>
        <time>2021-08-06T10:29:03Z</time>
      </trkpt>
      <trkpt lat="45.11061" lon="5.89664">
        <ele>1900</ele>
        <time>2021-08-06T10:29:05Z</time>
      </trkpt>
      <trkpt lat="45.11061" lon="5.89667">
        <ele>1900</ele>
        <time>2021-08-06T10:29:07Z</time>
      </trkpt>
      <trkpt lat="45.11061" lon="5.89668">
        <ele>1900</ele>
        <time>2021-08-06T10:29:09Z</time>
      </trkpt>
      <trkpt lat="45.11062" lon="5.8967">
        <ele>1900</ele>
        <time>2021-08-06T10:29:12Z</time>
      </trkpt>
      <trkpt lat="45.11063" lon="5.89671">
        <ele>1900</ele>
        <time>2021-08-06T10:29:15Z</time>
      </trkpt>
      <trkpt lat="45.11064" lon="5.89673">
        <ele>1900</ele>
        <time>2021-08-06T10:29:18Z</time>
      </trkpt>
      <trkpt lat="45.11065" lon="5.89675">
        <ele>1900</ele>
        <time>2021-08-06T10:29:20Z</time>
      </trkpt>
      <trkpt lat="45.11066" lon="5.89676">
        <ele>1900</ele>
        <time>2021-08-06T10:29:24Z</time>
      </trkpt>
      <trkpt lat="45.11066" lon="5.89678">
        <ele>1901</ele>
        <time>2021-08-06T10:29:27Z</time>
      </trkpt>
      <trkpt lat="45.11066" lon="5.89679">
        <ele>1901</ele>
        <time>2021-08-06T10:29:37Z</time>
      </trkpt>
      <trkpt lat="45.11066" lon="5.89681">
        <ele>1901</ele>
        <time>2021-08-06T10:29:40Z</time>
      </trkpt>
      <trkpt lat="45.11068" lon="5.89683">
        <ele>1901</ele>
        <time>2021-08-06T10:29:43Z</time>
      </trkpt>
      <trkpt lat="45.11069" lon="5.89684">
        <ele>1902</ele>
        <time>2021-08-06T10:29:47Z</time>
      </trkpt>
      <trkpt lat="45.11069" lon="5.89686">
        <ele>1902</ele>
        <time>2021-08-06T10:29:50Z</time>
      </trkpt>
      <trkpt lat="45.1107" lon="5.89688">
        <ele>1902</ele>
        <time>2021-08-06T10:29:53Z</time>
      </trkpt>
      <trkpt lat="45.1107" lon="5.8969">
        <ele>1902</ele>
        <time>2021-08-06T10:29:55Z</time>
      </trkpt>
      <trkpt lat="45.11071" lon="5.89691">
        <ele>1902</ele>
        <time>2021-08-06T10:29:57Z</time>
      </trkpt>
      <trkpt lat="45.11071" lon="5.89693">
        <ele>1902</ele>
        <time>2021-08-06T10:29:59Z</time>
      </trkpt>
      <trkpt lat="45.11071" lon="5.89695">
        <ele>1902</ele>
        <time>2021-08-06T10:30:02Z</time>
      </trkpt>
      <trkpt lat="45.11071" lon="5.89697">
        <ele>1902</ele>
        <time>2021-08-06T10:30:05Z</time>
      </trkpt>
      <trkpt lat="45.11072" lon="5.89698">
        <ele>1902</ele>
        <time>2021-08-06T10:30:08Z</time>
      </trkpt>
      <trkpt lat="45.11073" lon="5.897">
        <ele>1902</ele>
        <time>2021-08-06T10:30:11Z</time>
      </trkpt>
      <trkpt lat="45.11073" lon="5.89702">
        <ele>1902</ele>
        <time>2021-08-06T10:30:14Z</time>
      </trkpt>
      <trkpt lat="45.11072" lon="5.89704">
        <ele>1902</ele>
        <time>2021-08-06T10:30:18Z</time>
      </trkpt>
      <trkpt lat="45.11071" lon="5.89705">
        <ele>1902</ele>
        <time>2021-08-06T10:30:22Z</time>
      </trkpt>
      <trkpt lat="45.11071" lon="5.89707">
        <ele>1902</ele>
        <time>2021-08-06T10:30:26Z</time>
      </trkpt>
      <trkpt lat="45.11072" lon="5.89709">
        <ele>1902</ele>
        <time>2021-08-06T10:30:29Z</time>
      </trkpt>
      <trkpt lat="45.11073" lon="5.89709">
        <ele>1902</ele>
        <time>2021-08-06T10:30:34Z</time>
      </trkpt>
      <trkpt lat="45.11072" lon="5.89711">
        <ele>1903</ele>
        <time>2021-08-06T10:30:43Z</time>
      </trkpt>
      <trkpt lat="45.11073" lon="5.89712">
        <ele>1903</ele>
        <time>2021-08-06T10:30:45Z</time>
      </trkpt>
      <trkpt lat="45.11073" lon="5.89714">
        <ele>1903</ele>
        <time>2021-08-06T10:30:49Z</time>
      </trkpt>
      <trkpt lat="45.11072" lon="5.89714">
        <ele>1903</ele>
        <time>2021-08-06T10:30:50Z</time>
      </trkpt>
      <trkpt lat="45.1107" lon="5.89715">
        <ele>1903</ele>
        <time>2021-08-06T10:30:53Z</time>
      </trkpt>
      <trkpt lat="45.11069" lon="5.89716">
        <ele>1903</ele>
        <time>2021-08-06T10:30:57Z</time>
      </trkpt>
      <trkpt lat="45.11068" lon="5.89717">
        <ele>1904</ele>
        <time>2021-08-06T10:31:04Z</time>
      </trkpt>
      <trkpt lat="45.11068" lon="5.89719">
        <ele>1905</ele>
        <time>2021-08-06T10:31:12Z</time>
      </trkpt>
      <trkpt lat="45.11069" lon="5.8972">
        <ele>1905</ele>
        <time>2021-08-06T10:31:16Z</time>
      </trkpt>
      <trkpt lat="45.11069" lon="5.89722">
        <ele>1905</ele>
        <time>2021-08-06T10:31:20Z</time>
      </trkpt>
      <trkpt lat="45.11068" lon="5.89724">
        <ele>1905</ele>
        <time>2021-08-06T10:31:23Z</time>
      </trkpt>
      <trkpt lat="45.11069" lon="5.89726">
        <ele>1905</ele>
        <time>2021-08-06T10:31:25Z</time>
      </trkpt>
      <trkpt lat="45.11069" lon="5.89727">
        <ele>1905</ele>
        <time>2021-08-06T10:31:27Z</time>
      </trkpt>
      <trkpt lat="45.1107" lon="5.8973">
        <ele>1905</ele>
        <time>2021-08-06T10:31:30Z</time>
      </trkpt>
      <trkpt lat="45.11071" lon="5.89732">
        <ele>1905</ele>
        <time>2021-08-06T10:31:32Z</time>
      </trkpt>
      <trkpt lat="45.11071" lon="5.89733">
        <ele>1905</ele>
        <time>2021-08-06T10:31:34Z</time>
      </trkpt>
      <trkpt lat="45.11071" lon="5.89735">
        <ele>1905</ele>
        <time>2021-08-06T10:31:36Z</time>
      </trkpt>
      <trkpt lat="45.11072" lon="5.89737">
        <ele>1905</ele>
        <time>2021-08-06T10:31:38Z</time>
      </trkpt>
      <trkpt lat="45.11073" lon="5.89738">
        <ele>1905</ele>
        <time>2021-08-06T10:31:41Z</time>
      </trkpt>
      <trkpt lat="45.11074" lon="5.8974">
        <ele>1905</ele>
        <time>2021-08-06T10:31:44Z</time>
      </trkpt>
      <trkpt lat="45.11074" lon="5.89742">
        <ele>1905</ele>
        <time>2021-08-06T10:31:46Z</time>
      </trkpt>
      <trkpt lat="45.11074" lon="5.89744">
        <ele>1905</ele>
        <time>2021-08-06T10:31:49Z</time>
      </trkpt>
      <trkpt lat="45.11073" lon="5.89746">
        <ele>1905</ele>
        <time>2021-08-06T10:31:51Z</time>
      </trkpt>
      <trkpt lat="45.11073" lon="5.89747">
        <ele>1905</ele>
        <time>2021-08-06T10:31:52Z</time>
      </trkpt>
      <trkpt lat="45.11073" lon="5.89749">
        <ele>1905</ele>
        <time>2021-08-06T10:31:54Z</time>
      </trkpt>
      <trkpt lat="45.11073" lon="5.89752">
        <ele>1905</ele>
        <time>2021-08-06T10:31:56Z</time>
      </trkpt>
      <trkpt lat="45.11074" lon="5.89754">
        <ele>1905</ele>
        <time>2021-08-06T10:31:58Z</time>
      </trkpt>
      <trkpt lat="45.11074" lon="5.89756">
        <ele>1905</ele>
        <time>2021-08-06T10:32:00Z</time>
      </trkpt>
      <trkpt lat="45.11075" lon="5.89758">
        <ele>1905</ele>
        <time>2021-08-06T10:32:02Z</time>
      </trkpt>
      <trkpt lat="45.11075" lon="5.8976">
        <ele>1905</ele>
        <time>2021-08-06T10:32:04Z</time>
      </trkpt>
      <trkpt lat="45.11075" lon="5.89762">
        <ele>1905</ele>
        <time>2021-08-06T10:32:06Z</time>
      </trkpt>
      <trkpt lat="45.11076" lon="5.89764">
        <ele>1905</ele>
        <time>2021-08-06T10:32:09Z</time>
      </trkpt>
      <trkpt lat="45.11077" lon="5.89766">
        <ele>1905</ele>
        <time>2021-08-06T10:32:12Z</time>
      </trkpt>
      <trkpt lat="45.11077" lon="5.89767">
        <ele>1905</ele>
        <time>2021-08-06T10:32:15Z</time>
      </trkpt>
      <trkpt lat="45.11078" lon="5.89769">
        <ele>1905</ele>
        <time>2021-08-06T10:32:18Z</time>
      </trkpt>
      <trkpt lat="45.11079" lon="5.8977">
        <ele>1905</ele>
        <time>2021-08-06T10:32:20Z</time>
      </trkpt>
      <trkpt lat="45.11079" lon="5.89772">
        <ele>1905</ele>
        <time>2021-08-06T10:32:22Z</time>
      </trkpt>
      <trkpt lat="45.11079" lon="5.89774">
        <ele>1905</ele>
        <time>2021-08-06T10:32:24Z</time>
      </trkpt>
      <trkpt lat="45.11079" lon="5.89776">
        <ele>1905</ele>
        <time>2021-08-06T10:32:27Z</time>
      </trkpt>
      <trkpt lat="45.1108" lon="5.89778">
        <ele>1905</ele>
        <time>2021-08-06T10:32:36Z</time>
      </trkpt>
      <trkpt lat="45.11081" lon="5.89779">
        <ele>1905</ele>
        <time>2021-08-06T10:32:39Z</time>
      </trkpt>
      <trkpt lat="45.11081" lon="5.89781">
        <ele>1905</ele>
        <time>2021-08-06T10:32:42Z</time>
      </trkpt>
      <trkpt lat="45.11081" lon="5.89782">
        <ele>1905</ele>
        <time>2021-08-06T10:32:45Z</time>
      </trkpt>
      <trkpt lat="45.11081" lon="5.89784">
        <ele>1905</ele>
        <time>2021-08-06T10:32:48Z</time>
      </trkpt>
      <trkpt lat="45.11081" lon="5.89786">
        <ele>1905</ele>
        <time>2021-08-06T10:32:51Z</time>
      </trkpt>
      <trkpt lat="45.1108" lon="5.89788">
        <ele>1905</ele>
        <time>2021-08-06T10:32:53Z</time>
      </trkpt>
      <trkpt lat="45.1108" lon="5.89789">
        <ele>1905</ele>
        <time>2021-08-06T10:32:56Z</time>
      </trkpt>
      <trkpt lat="45.11081" lon="5.89791">
        <ele>1905</ele>
        <time>2021-08-06T10:33:06Z</time>
      </trkpt>
      <trkpt lat="45.11081" lon="5.89793">
        <ele>1905</ele>
        <time>2021-08-06T10:33:09Z</time>
      </trkpt>
      <trkpt lat="45.11082" lon="5.89795">
        <ele>1905</ele>
        <time>2021-08-06T10:33:11Z</time>
      </trkpt>
      <trkpt lat="45.11082" lon="5.89796">
        <ele>1906</ele>
        <time>2021-08-06T10:33:14Z</time>
      </trkpt>
      <trkpt lat="45.11083" lon="5.89798">
        <ele>1907</ele>
        <time>2021-08-06T10:33:18Z</time>
      </trkpt>
      <trkpt lat="45.11084" lon="5.89799">
        <ele>1908</ele>
        <time>2021-08-06T10:33:22Z</time>
      </trkpt>
      <trkpt lat="45.11086" lon="5.898">
        <ele>1908</ele>
        <time>2021-08-06T10:33:24Z</time>
      </trkpt>
      <trkpt lat="45.11086" lon="5.89802">
        <ele>1908</ele>
        <time>2021-08-06T10:33:32Z</time>
      </trkpt>
      <trkpt lat="45.11085" lon="5.89803">
        <ele>1909</ele>
        <time>2021-08-06T10:33:42Z</time>
      </trkpt>
      <trkpt lat="45.11083" lon="5.89804">
        <ele>1909</ele>
        <time>2021-08-06T10:33:45Z</time>
      </trkpt>
      <trkpt lat="45.11082" lon="5.89805">
        <ele>1910</ele>
        <time>2021-08-06T10:33:48Z</time>
      </trkpt>
      <trkpt lat="45.11083" lon="5.89807">
        <ele>1911</ele>
        <time>2021-08-06T10:33:53Z</time>
      </trkpt>
      <trkpt lat="45.11084" lon="5.89808">
        <ele>1911</ele>
        <time>2021-08-06T10:33:57Z</time>
      </trkpt>
      <trkpt lat="45.11085" lon="5.8981">
        <ele>1911</ele>
        <time>2021-08-06T10:34:01Z</time>
      </trkpt>
      <trkpt lat="45.11086" lon="5.89811">
        <ele>1911</ele>
        <time>2021-08-06T10:34:08Z</time>
      </trkpt>
      <trkpt lat="45.11086" lon="5.89813">
        <ele>1911</ele>
        <time>2021-08-06T10:34:11Z</time>
      </trkpt>
      <trkpt lat="45.11086" lon="5.89815">
        <ele>1911</ele>
        <time>2021-08-06T10:34:20Z</time>
      </trkpt>
      <trkpt lat="45.11086" lon="5.89817">
        <ele>1911</ele>
        <time>2021-08-06T10:34:23Z</time>
      </trkpt>
      <trkpt lat="45.11087" lon="5.89818">
        <ele>1911</ele>
        <time>2021-08-06T10:34:26Z</time>
      </trkpt>
      <trkpt lat="45.11088" lon="5.8982">
        <ele>1912</ele>
        <time>2021-08-06T10:34:29Z</time>
      </trkpt>
      <trkpt lat="45.11089" lon="5.89821">
        <ele>1912</ele>
        <time>2021-08-06T10:34:31Z</time>
      </trkpt>
      <trkpt lat="45.11091" lon="5.89821">
        <ele>1912</ele>
        <time>2021-08-06T10:34:33Z</time>
      </trkpt>
      <trkpt lat="45.11093" lon="5.89822">
        <ele>1912</ele>
        <time>2021-08-06T10:34:35Z</time>
      </trkpt>
      <trkpt lat="45.11094" lon="5.89823">
        <ele>1912</ele>
        <time>2021-08-06T10:34:37Z</time>
      </trkpt>
      <trkpt lat="45.11095" lon="5.89824">
        <ele>1912</ele>
        <time>2021-08-06T10:34:39Z</time>
      </trkpt>
      <trkpt lat="45.11096" lon="5.89825">
        <ele>1912</ele>
        <time>2021-08-06T10:34:42Z</time>
      </trkpt>
      <trkpt lat="45.11097" lon="5.89827">
        <ele>1912</ele>
        <time>2021-08-06T10:34:44Z</time>
      </trkpt>
      <trkpt lat="45.11098" lon="5.89828">
        <ele>1912</ele>
        <time>2021-08-06T10:34:47Z</time>
      </trkpt>
      <trkpt lat="45.11099" lon="5.8983">
        <ele>1913</ele>
        <time>2021-08-06T10:34:52Z</time>
      </trkpt>
      <trkpt lat="45.111" lon="5.89831">
        <ele>1914</ele>
        <time>2021-08-06T10:34:56Z</time>
      </trkpt>
      <trkpt lat="45.11101" lon="5.89832">
        <ele>1914</ele>
        <time>2021-08-06T10:34:59Z</time>
      </trkpt>
      <trkpt lat="45.11102" lon="5.89832">
        <ele>1914</ele>
        <time>2021-08-06T10:35:03Z</time>
      </trkpt>
      <trkpt lat="45.11103" lon="5.89831">
        <ele>1914</ele>
        <time>2021-08-06T10:35:05Z</time>
      </trkpt>
      <trkpt lat="45.11105" lon="5.89832">
        <ele>1914</ele>
        <time>2021-08-06T10:35:09Z</time>
      </trkpt>
      <trkpt lat="45.11106" lon="5.89833">
        <ele>1914</ele>
        <time>2021-08-06T10:35:12Z</time>
      </trkpt>
      <trkpt lat="45.11107" lon="5.89833">
        <ele>1914</ele>
        <time>2021-08-06T10:35:18Z</time>
      </trkpt>
      <trkpt lat="45.11108" lon="5.89834">
        <ele>1914</ele>
        <time>2021-08-06T10:35:31Z</time>
      </trkpt>
      <trkpt lat="45.11109" lon="5.89836">
        <ele>1914</ele>
        <time>2021-08-06T10:35:35Z</time>
      </trkpt>
      <trkpt lat="45.11111" lon="5.89838">
        <ele>1914</ele>
        <time>2021-08-06T10:35:55Z</time>
      </trkpt>
      <trkpt lat="45.11112" lon="5.89838">
        <ele>1914</ele>
        <time>2021-08-06T10:35:58Z</time>
      </trkpt>
      <trkpt lat="45.11112" lon="5.8984">
        <ele>1914</ele>
        <time>2021-08-06T10:36:00Z</time>
      </trkpt>
      <trkpt lat="45.11112" lon="5.89842">
        <ele>1914</ele>
        <time>2021-08-06T10:36:02Z</time>
      </trkpt>
      <trkpt lat="45.11112" lon="5.89844">
        <ele>1914</ele>
        <time>2021-08-06T10:36:04Z</time>
      </trkpt>
      <trkpt lat="45.11112" lon="5.89846">
        <ele>1914</ele>
        <time>2021-08-06T10:36:06Z</time>
      </trkpt>
      <trkpt lat="45.11112" lon="5.89848">
        <ele>1914</ele>
        <time>2021-08-06T10:36:08Z</time>
      </trkpt>
      <trkpt lat="45.11113" lon="5.8985">
        <ele>1914</ele>
        <time>2021-08-06T10:36:10Z</time>
      </trkpt>
      <trkpt lat="45.11113" lon="5.89852">
        <ele>1914</ele>
        <time>2021-08-06T10:36:12Z</time>
      </trkpt>
      <trkpt lat="45.11113" lon="5.89853">
        <ele>1914</ele>
        <time>2021-08-06T10:36:14Z</time>
      </trkpt>
      <trkpt lat="45.11114" lon="5.89855">
        <ele>1914</ele>
        <time>2021-08-06T10:36:17Z</time>
      </trkpt>
      <trkpt lat="45.11114" lon="5.89857">
        <ele>1914</ele>
        <time>2021-08-06T10:36:19Z</time>
      </trkpt>
      <trkpt lat="45.11115" lon="5.89858">
        <ele>1914</ele>
        <time>2021-08-06T10:36:21Z</time>
      </trkpt>
      <trkpt lat="45.11115" lon="5.8986">
        <ele>1914</ele>
        <time>2021-08-06T10:36:24Z</time>
      </trkpt>
      <trkpt lat="45.11115" lon="5.89861">
        <ele>1915</ele>
        <time>2021-08-06T10:36:27Z</time>
      </trkpt>
      <trkpt lat="45.11115" lon="5.89863">
        <ele>1915</ele>
        <time>2021-08-06T10:36:30Z</time>
      </trkpt>
      <trkpt lat="45.11116" lon="5.89865">
        <ele>1915</ele>
        <time>2021-08-06T10:36:34Z</time>
      </trkpt>
      <trkpt lat="45.11116" lon="5.89866">
        <ele>1915</ele>
        <time>2021-08-06T10:36:38Z</time>
      </trkpt>
      <trkpt lat="45.11116" lon="5.89868">
        <ele>1915</ele>
        <time>2021-08-06T10:36:44Z</time>
      </trkpt>
      <trkpt lat="45.11116" lon="5.89869">
        <ele>1915</ele>
        <time>2021-08-06T10:36:46Z</time>
      </trkpt>
      <trkpt lat="45.11116" lon="5.89871">
        <ele>1915</ele>
        <time>2021-08-06T10:36:48Z</time>
      </trkpt>
      <trkpt lat="45.11116" lon="5.89872">
        <ele>1915</ele>
        <time>2021-08-06T10:36:51Z</time>
      </trkpt>
      <trkpt lat="45.11115" lon="5.89874">
        <ele>1915</ele>
        <time>2021-08-06T10:36:56Z</time>
      </trkpt>
      <trkpt lat="45.11114" lon="5.89876">
        <ele>1915</ele>
        <time>2021-08-06T10:37:00Z</time>
      </trkpt>
      <trkpt lat="45.11114" lon="5.89878">
        <ele>1915</ele>
        <time>2021-08-06T10:37:03Z</time>
      </trkpt>
      <trkpt lat="45.11114" lon="5.89879">
        <ele>1915</ele>
        <time>2021-08-06T10:37:05Z</time>
      </trkpt>
      <trkpt lat="45.11113" lon="5.89881">
        <ele>1915</ele>
        <time>2021-08-06T10:37:08Z</time>
      </trkpt>
      <trkpt lat="45.11114" lon="5.89883">
        <ele>1915</ele>
        <time>2021-08-06T10:37:10Z</time>
      </trkpt>
      <trkpt lat="45.11114" lon="5.89885">
        <ele>1915</ele>
        <time>2021-08-06T10:37:12Z</time>
      </trkpt>
      <trkpt lat="45.11114" lon="5.89887">
        <ele>1915</ele>
        <time>2021-08-06T10:37:14Z</time>
      </trkpt>
      <trkpt lat="45.11115" lon="5.89889">
        <ele>1915</ele>
        <time>2021-08-06T10:37:17Z</time>
      </trkpt>
      <trkpt lat="45.11115" lon="5.8989">
        <ele>1915</ele>
        <time>2021-08-06T10:37:20Z</time>
      </trkpt>
      <trkpt lat="45.11115" lon="5.89892">
        <ele>1915</ele>
        <time>2021-08-06T10:37:23Z</time>
      </trkpt>
      <trkpt lat="45.11116" lon="5.89894">
        <ele>1915</ele>
        <time>2021-08-06T10:37:29Z</time>
      </trkpt>
      <trkpt lat="45.11115" lon="5.89897">
        <ele>1915</ele>
        <time>2021-08-06T10:37:34Z</time>
      </trkpt>
      <trkpt lat="45.11115" lon="5.89898">
        <ele>1915</ele>
        <time>2021-08-06T10:37:35Z</time>
      </trkpt>
      <trkpt lat="45.11115" lon="5.89901">
        <ele>1915</ele>
        <time>2021-08-06T10:37:37Z</time>
      </trkpt>
      <trkpt lat="45.11115" lon="5.89903">
        <ele>1915</ele>
        <time>2021-08-06T10:37:38Z</time>
      </trkpt>
      <trkpt lat="45.11116" lon="5.89905">
        <ele>1915</ele>
        <time>2021-08-06T10:37:40Z</time>
      </trkpt>
      <trkpt lat="45.11117" lon="5.89907">
        <ele>1915</ele>
        <time>2021-08-06T10:37:42Z</time>
      </trkpt>
      <trkpt lat="45.11118" lon="5.8991">
        <ele>1915</ele>
        <time>2021-08-06T10:37:44Z</time>
      </trkpt>
      <trkpt lat="45.1112" lon="5.89911">
        <ele>1915</ele>
        <time>2021-08-06T10:37:46Z</time>
      </trkpt>
      <trkpt lat="45.11121" lon="5.89913">
        <ele>1915</ele>
        <time>2021-08-06T10:37:48Z</time>
      </trkpt>
      <trkpt lat="45.11122" lon="5.89915">
        <ele>1915</ele>
        <time>2021-08-06T10:37:50Z</time>
      </trkpt>
      <trkpt lat="45.11124" lon="5.89917">
        <ele>1915</ele>
        <time>2021-08-06T10:37:52Z</time>
      </trkpt>
      <trkpt lat="45.11125" lon="5.89918">
        <ele>1915</ele>
        <time>2021-08-06T10:37:54Z</time>
      </trkpt>
      <trkpt lat="45.11126" lon="5.89921">
        <ele>1915</ele>
        <time>2021-08-06T10:37:56Z</time>
      </trkpt>
      <trkpt lat="45.11127" lon="5.89922">
        <ele>1915</ele>
        <time>2021-08-06T10:37:58Z</time>
      </trkpt>
      <trkpt lat="45.11128" lon="5.89924">
        <ele>1915</ele>
        <time>2021-08-06T10:38:00Z</time>
      </trkpt>
      <trkpt lat="45.11129" lon="5.89926">
        <ele>1915</ele>
        <time>2021-08-06T10:38:02Z</time>
      </trkpt>
      <trkpt lat="45.11131" lon="5.89928">
        <ele>1915</ele>
        <time>2021-08-06T10:38:04Z</time>
      </trkpt>
      <trkpt lat="45.11132" lon="5.89929">
        <ele>1915</ele>
        <time>2021-08-06T10:38:06Z</time>
      </trkpt>
      <trkpt lat="45.11133" lon="5.89929">
        <ele>1915</ele>
        <time>2021-08-06T10:38:08Z</time>
      </trkpt>
      <trkpt lat="45.11134" lon="5.89931">
        <ele>1915</ele>
        <time>2021-08-06T10:38:10Z</time>
      </trkpt>
      <trkpt lat="45.11134" lon="5.89933">
        <ele>1915</ele>
        <time>2021-08-06T10:38:12Z</time>
      </trkpt>
      <trkpt lat="45.11135" lon="5.89935">
        <ele>1915</ele>
        <time>2021-08-06T10:38:14Z</time>
      </trkpt>
      <trkpt lat="45.11136" lon="5.89936">
        <ele>1915</ele>
        <time>2021-08-06T10:38:16Z</time>
      </trkpt>
      <trkpt lat="45.11137" lon="5.89938">
        <ele>1915</ele>
        <time>2021-08-06T10:38:19Z</time>
      </trkpt>
      <trkpt lat="45.11139" lon="5.8994">
        <ele>1915</ele>
        <time>2021-08-06T10:38:22Z</time>
      </trkpt>
      <trkpt lat="45.11139" lon="5.89941">
        <ele>1915</ele>
        <time>2021-08-06T10:38:28Z</time>
      </trkpt>
      <trkpt lat="45.1114" lon="5.89943">
        <ele>1916</ele>
        <time>2021-08-06T10:38:34Z</time>
      </trkpt>
      <trkpt lat="45.11142" lon="5.89943">
        <ele>1916</ele>
        <time>2021-08-06T10:38:37Z</time>
      </trkpt>
      <trkpt lat="45.11143" lon="5.89943">
        <ele>1916</ele>
        <time>2021-08-06T10:38:47Z</time>
      </trkpt>
      <trkpt lat="45.11145" lon="5.89944">
        <ele>1916</ele>
        <time>2021-08-06T10:38:52Z</time>
      </trkpt>
      <trkpt lat="45.11146" lon="5.89946">
        <ele>1916</ele>
        <time>2021-08-06T10:38:55Z</time>
      </trkpt>
      <trkpt lat="45.11147" lon="5.89947">
        <ele>1916</ele>
        <time>2021-08-06T10:38:58Z</time>
      </trkpt>
      <trkpt lat="45.11148" lon="5.89948">
        <ele>1916</ele>
        <time>2021-08-06T10:39:01Z</time>
      </trkpt>
      <trkpt lat="45.1115" lon="5.89948">
        <ele>1916</ele>
        <time>2021-08-06T10:39:04Z</time>
      </trkpt>
      <trkpt lat="45.11151" lon="5.89949">
        <ele>1916</ele>
        <time>2021-08-06T10:39:06Z</time>
      </trkpt>
      <trkpt lat="45.11152" lon="5.89949">
        <ele>1916</ele>
        <time>2021-08-06T10:39:08Z</time>
      </trkpt>
      <trkpt lat="45.11154" lon="5.89948">
        <ele>1916</ele>
        <time>2021-08-06T10:39:11Z</time>
      </trkpt>
      <trkpt lat="45.11155" lon="5.89949">
        <ele>1916</ele>
        <time>2021-08-06T10:39:14Z</time>
      </trkpt>
      <trkpt lat="45.11156" lon="5.8995">
        <ele>1916</ele>
        <time>2021-08-06T10:39:17Z</time>
      </trkpt>
      <trkpt lat="45.11157" lon="5.89952">
        <ele>1916</ele>
        <time>2021-08-06T10:39:20Z</time>
      </trkpt>
      <trkpt lat="45.11159" lon="5.89953">
        <ele>1916</ele>
        <time>2021-08-06T10:39:23Z</time>
      </trkpt>
      <trkpt lat="45.1116" lon="5.89955">
        <ele>1916</ele>
        <time>2021-08-06T10:39:26Z</time>
      </trkpt>
      <trkpt lat="45.11161" lon="5.89957">
        <ele>1916</ele>
        <time>2021-08-06T10:39:29Z</time>
      </trkpt>
      <trkpt lat="45.11162" lon="5.89958">
        <ele>1916</ele>
        <time>2021-08-06T10:39:31Z</time>
      </trkpt>
      <trkpt lat="45.11163" lon="5.89957">
        <ele>1916</ele>
        <time>2021-08-06T10:39:34Z</time>
      </trkpt>
      <trkpt lat="45.11165" lon="5.89957">
        <ele>1916</ele>
        <time>2021-08-06T10:39:38Z</time>
      </trkpt>
      <trkpt lat="45.11166" lon="5.89958">
        <ele>1916</ele>
        <time>2021-08-06T10:39:48Z</time>
      </trkpt>
      <trkpt lat="45.11167" lon="5.8996">
        <ele>1916</ele>
        <time>2021-08-06T10:39:55Z</time>
      </trkpt>
      <trkpt lat="45.11168" lon="5.89961">
        <ele>1916</ele>
        <time>2021-08-06T10:39:58Z</time>
      </trkpt>
      <trkpt lat="45.11169" lon="5.89962">
        <ele>1916</ele>
        <time>2021-08-06T10:40:06Z</time>
      </trkpt>
      <trkpt lat="45.1117" lon="5.89964">
        <ele>1916</ele>
        <time>2021-08-06T10:40:09Z</time>
      </trkpt>
      <trkpt lat="45.11171" lon="5.89964">
        <ele>1916</ele>
        <time>2021-08-06T10:40:15Z</time>
      </trkpt>
      <trkpt lat="45.11172" lon="5.89966">
        <ele>1916</ele>
        <time>2021-08-06T10:40:17Z</time>
      </trkpt>
      <trkpt lat="45.11173" lon="5.89968">
        <ele>1916</ele>
        <time>2021-08-06T10:40:19Z</time>
      </trkpt>
      <trkpt lat="45.11174" lon="5.89969">
        <ele>1916</ele>
        <time>2021-08-06T10:40:22Z</time>
      </trkpt>
      <trkpt lat="45.11175" lon="5.89971">
        <ele>1916</ele>
        <time>2021-08-06T10:40:25Z</time>
      </trkpt>
      <trkpt lat="45.11175" lon="5.89972">
        <ele>1916</ele>
        <time>2021-08-06T10:40:27Z</time>
      </trkpt>
      <trkpt lat="45.11176" lon="5.89974">
        <ele>1916</ele>
        <time>2021-08-06T10:40:29Z</time>
      </trkpt>
      <trkpt lat="45.11177" lon="5.89976">
        <ele>1916</ele>
        <time>2021-08-06T10:40:32Z</time>
      </trkpt>
      <trkpt lat="45.11178" lon="5.89978">
        <ele>1916</ele>
        <time>2021-08-06T10:40:34Z</time>
      </trkpt>
      <trkpt lat="45.1118" lon="5.89979">
        <ele>1916</ele>
        <time>2021-08-06T10:40:36Z</time>
      </trkpt>
      <trkpt lat="45.11181" lon="5.89981">
        <ele>1916</ele>
        <time>2021-08-06T10:40:39Z</time>
      </trkpt>
      <trkpt lat="45.11182" lon="5.89983">
        <ele>1916</ele>
        <time>2021-08-06T10:40:41Z</time>
      </trkpt>
      <trkpt lat="45.11182" lon="5.89985">
        <ele>1916</ele>
        <time>2021-08-06T10:40:43Z</time>
      </trkpt>
      <trkpt lat="45.11182" lon="5.89987">
        <ele>1916</ele>
        <time>2021-08-06T10:40:45Z</time>
      </trkpt>
      <trkpt lat="45.11183" lon="5.89988">
        <ele>1916</ele>
        <time>2021-08-06T10:40:47Z</time>
      </trkpt>
      <trkpt lat="45.11184" lon="5.8999">
        <ele>1916</ele>
        <time>2021-08-06T10:40:50Z</time>
      </trkpt>
      <trkpt lat="45.11185" lon="5.89991">
        <ele>1916</ele>
        <time>2021-08-06T10:40:54Z</time>
      </trkpt>
      <trkpt lat="45.11186" lon="5.89993">
        <ele>1916</ele>
        <time>2021-08-06T10:40:59Z</time>
      </trkpt>
      <trkpt lat="45.11187" lon="5.89995">
        <ele>1916</ele>
        <time>2021-08-06T10:41:04Z</time>
      </trkpt>
      <trkpt lat="45.11188" lon="5.89996">
        <ele>1916</ele>
        <time>2021-08-06T10:41:07Z</time>
      </trkpt>
      <trkpt lat="45.11188" lon="5.89999">
        <ele>1916</ele>
        <time>2021-08-06T10:41:10Z</time>
      </trkpt>
      <trkpt lat="45.1119" lon="5.9">
        <ele>1916</ele>
        <time>2021-08-06T10:41:13Z</time>
      </trkpt>
      <trkpt lat="45.11191" lon="5.90002">
        <ele>1916</ele>
        <time>2021-08-06T10:41:17Z</time>
      </trkpt>
      <trkpt lat="45.11192" lon="5.90003">
        <ele>1916</ele>
        <time>2021-08-06T10:41:20Z</time>
      </trkpt>
      <trkpt lat="45.11193" lon="5.90005">
        <ele>1916</ele>
        <time>2021-08-06T10:41:22Z</time>
      </trkpt>
      <trkpt lat="45.11194" lon="5.90006">
        <ele>1916</ele>
        <time>2021-08-06T10:41:24Z</time>
      </trkpt>
      <trkpt lat="45.11195" lon="5.90007">
        <ele>1916</ele>
        <time>2021-08-06T10:41:26Z</time>
      </trkpt>
      <trkpt lat="45.11197" lon="5.90009">
        <ele>1916</ele>
        <time>2021-08-06T10:41:29Z</time>
      </trkpt>
      <trkpt lat="45.11198" lon="5.90011">
        <ele>1916</ele>
        <time>2021-08-06T10:41:32Z</time>
      </trkpt>
      <trkpt lat="45.11199" lon="5.90012">
        <ele>1916</ele>
        <time>2021-08-06T10:41:34Z</time>
      </trkpt>
      <trkpt lat="45.112" lon="5.90012">
        <ele>1916</ele>
        <time>2021-08-06T10:41:36Z</time>
      </trkpt>
      <trkpt lat="45.11202" lon="5.90013">
        <ele>1916</ele>
        <time>2021-08-06T10:41:38Z</time>
      </trkpt>
      <trkpt lat="45.11203" lon="5.90014">
        <ele>1916</ele>
        <time>2021-08-06T10:41:40Z</time>
      </trkpt>
      <trkpt lat="45.11204" lon="5.90014">
        <ele>1916</ele>
        <time>2021-08-06T10:41:42Z</time>
      </trkpt>
      <trkpt lat="45.11206" lon="5.90015">
        <ele>1916</ele>
        <time>2021-08-06T10:41:45Z</time>
      </trkpt>
      <trkpt lat="45.11207" lon="5.90015">
        <ele>1916</ele>
        <time>2021-08-06T10:41:46Z</time>
      </trkpt>
      <trkpt lat="45.11209" lon="5.90015">
        <ele>1916</ele>
        <time>2021-08-06T10:41:48Z</time>
      </trkpt>
      <trkpt lat="45.1121" lon="5.90015">
        <ele>1916</ele>
        <time>2021-08-06T10:41:50Z</time>
      </trkpt>
      <trkpt lat="45.11211" lon="5.90014">
        <ele>1916</ele>
        <time>2021-08-06T10:41:52Z</time>
      </trkpt>
      <trkpt lat="45.11213" lon="5.90014">
        <ele>1916</ele>
        <time>2021-08-06T10:41:55Z</time>
      </trkpt>
      <trkpt lat="45.11213" lon="5.90015">
        <ele>1916</ele>
        <time>2021-08-06T10:42:06Z</time>
      </trkpt>
      <trkpt lat="45.11214" lon="5.90016">
        <ele>1917</ele>
        <time>2021-08-06T10:42:10Z</time>
      </trkpt>
      <trkpt lat="45.11216" lon="5.90016">
        <ele>1917</ele>
        <time>2021-08-06T10:42:13Z</time>
      </trkpt>
      <trkpt lat="45.11217" lon="5.90016">
        <ele>1917</ele>
        <time>2021-08-06T10:42:15Z</time>
      </trkpt>
      <trkpt lat="45.11218" lon="5.90017">
        <ele>1918</ele>
        <time>2021-08-06T10:42:19Z</time>
      </trkpt>
      <trkpt lat="45.11219" lon="5.90017">
        <ele>1918</ele>
        <time>2021-08-06T10:42:22Z</time>
      </trkpt>
      <trkpt lat="45.11221" lon="5.90019">
        <ele>1918</ele>
        <time>2021-08-06T10:42:25Z</time>
      </trkpt>
      <trkpt lat="45.11222" lon="5.90019">
        <ele>1918</ele>
        <time>2021-08-06T10:42:27Z</time>
      </trkpt>
      <trkpt lat="45.11223" lon="5.90019">
        <ele>1918</ele>
        <time>2021-08-06T10:42:30Z</time>
      </trkpt>
      <trkpt lat="45.11224" lon="5.9002">
        <ele>1918</ele>
        <time>2021-08-06T10:42:34Z</time>
      </trkpt>
      <trkpt lat="45.11226" lon="5.90019">
        <ele>1918</ele>
        <time>2021-08-06T10:42:41Z</time>
      </trkpt>
      <trkpt lat="45.11227" lon="5.9002">
        <ele>1918</ele>
        <time>2021-08-06T10:42:45Z</time>
      </trkpt>
      <trkpt lat="45.11228" lon="5.9002">
        <ele>1918</ele>
        <time>2021-08-06T10:42:49Z</time>
      </trkpt>
      <trkpt lat="45.11229" lon="5.9002">
        <ele>1918</ele>
        <time>2021-08-06T10:42:53Z</time>
      </trkpt>
      <trkpt lat="45.1123" lon="5.90021">
        <ele>1918</ele>
        <time>2021-08-06T10:42:57Z</time>
      </trkpt>
      <trkpt lat="45.11232" lon="5.90022">
        <ele>1918</ele>
        <time>2021-08-06T10:43:01Z</time>
      </trkpt>
      <trkpt lat="45.11233" lon="5.90023">
        <ele>1918</ele>
        <time>2021-08-06T10:43:06Z</time>
      </trkpt>
      <trkpt lat="45.11234" lon="5.90024">
        <ele>1918</ele>
        <time>2021-08-06T10:43:09Z</time>
      </trkpt>
      <trkpt lat="45.11235" lon="5.90025">
        <ele>1918</ele>
        <time>2021-08-06T10:43:12Z</time>
      </trkpt>
      <trkpt lat="45.11237" lon="5.90025">
        <ele>1918</ele>
        <time>2021-08-06T10:43:15Z</time>
      </trkpt>
      <trkpt lat="45.11238" lon="5.90026">
        <ele>1918</ele>
        <time>2021-08-06T10:43:19Z</time>
      </trkpt>
      <trkpt lat="45.1124" lon="5.90027">
        <ele>1918</ele>
        <time>2021-08-06T10:43:22Z</time>
      </trkpt>
      <trkpt lat="45.11241" lon="5.90029">
        <ele>1918</ele>
        <time>2021-08-06T10:43:25Z</time>
      </trkpt>
      <trkpt lat="45.11242" lon="5.90031">
        <ele>1918</ele>
        <time>2021-08-06T10:43:27Z</time>
      </trkpt>
      <trkpt lat="45.11243" lon="5.90032">
        <ele>1918</ele>
        <time>2021-08-06T10:43:29Z</time>
      </trkpt>
      <trkpt lat="45.11245" lon="5.90033">
        <ele>1918</ele>
        <time>2021-08-06T10:43:33Z</time>
      </trkpt>
      <trkpt lat="45.11245" lon="5.90035">
        <ele>1918</ele>
        <time>2021-08-06T10:43:37Z</time>
      </trkpt>
      <trkpt lat="45.11246" lon="5.90037">
        <ele>1918</ele>
        <time>2021-08-06T10:43:40Z</time>
      </trkpt>
      <trkpt lat="45.11246" lon="5.90038">
        <ele>1918</ele>
        <time>2021-08-06T10:43:43Z</time>
      </trkpt>
      <trkpt lat="45.11247" lon="5.9004">
        <ele>1918</ele>
        <time>2021-08-06T10:43:46Z</time>
      </trkpt>
      <trkpt lat="45.11247" lon="5.90042">
        <ele>1918</ele>
        <time>2021-08-06T10:43:49Z</time>
      </trkpt>
      <trkpt lat="45.11247" lon="5.90044">
        <ele>1918</ele>
        <time>2021-08-06T10:43:52Z</time>
      </trkpt>
      <trkpt lat="45.11247" lon="5.90046">
        <ele>1918</ele>
        <time>2021-08-06T10:43:55Z</time>
      </trkpt>
      <trkpt lat="45.11248" lon="5.90048">
        <ele>1918</ele>
        <time>2021-08-06T10:43:58Z</time>
      </trkpt>
      <trkpt lat="45.11249" lon="5.9005">
        <ele>1918</ele>
        <time>2021-08-06T10:44:00Z</time>
      </trkpt>
      <trkpt lat="45.1125" lon="5.90052">
        <ele>1918</ele>
        <time>2021-08-06T10:44:02Z</time>
      </trkpt>
      <trkpt lat="45.11251" lon="5.90054">
        <ele>1918</ele>
        <time>2021-08-06T10:44:04Z</time>
      </trkpt>
      <trkpt lat="45.11252" lon="5.90055">
        <ele>1918</ele>
        <time>2021-08-06T10:44:05Z</time>
      </trkpt>
      <trkpt lat="45.11254" lon="5.90055">
        <ele>1918</ele>
        <time>2021-08-06T10:44:06Z</time>
      </trkpt>
      <trkpt lat="45.11255" lon="5.90056">
        <ele>1918</ele>
        <time>2021-08-06T10:44:07Z</time>
      </trkpt>
      <trkpt lat="45.11256" lon="5.90057">
        <ele>1918</ele>
        <time>2021-08-06T10:44:09Z</time>
      </trkpt>
      <trkpt lat="45.11258" lon="5.90058">
        <ele>1918</ele>
        <time>2021-08-06T10:44:11Z</time>
      </trkpt>
      <trkpt lat="45.11259" lon="5.9006">
        <ele>1918</ele>
        <time>2021-08-06T10:44:14Z</time>
      </trkpt>
      <trkpt lat="45.11258" lon="5.90061">
        <ele>1918</ele>
        <time>2021-08-06T10:44:38Z</time>
      </trkpt>
      <trkpt lat="45.11259" lon="5.90063">
        <ele>1918</ele>
        <time>2021-08-06T10:44:42Z</time>
      </trkpt>
      <trkpt lat="45.11259" lon="5.90065">
        <ele>1918</ele>
        <time>2021-08-06T10:44:45Z</time>
      </trkpt>
      <trkpt lat="45.11259" lon="5.90067">
        <ele>1918</ele>
        <time>2021-08-06T10:44:47Z</time>
      </trkpt>
      <trkpt lat="45.1126" lon="5.90069">
        <ele>1918</ele>
        <time>2021-08-06T10:44:50Z</time>
      </trkpt>
      <trkpt lat="45.11261" lon="5.9007">
        <ele>1918</ele>
        <time>2021-08-06T10:44:53Z</time>
      </trkpt>
      <trkpt lat="45.11261" lon="5.90072">
        <ele>1918</ele>
        <time>2021-08-06T10:44:55Z</time>
      </trkpt>
      <trkpt lat="45.11262" lon="5.90074">
        <ele>1918</ele>
        <time>2021-08-06T10:44:58Z</time>
      </trkpt>
      <trkpt lat="45.11262" lon="5.90075">
        <ele>1918</ele>
        <time>2021-08-06T10:45:00Z</time>
      </trkpt>
      <trkpt lat="45.11263" lon="5.90077">
        <ele>1918</ele>
        <time>2021-08-06T10:45:02Z</time>
      </trkpt>
      <trkpt lat="45.11264" lon="5.90078">
        <ele>1918</ele>
        <time>2021-08-06T10:45:04Z</time>
      </trkpt>
      <trkpt lat="45.11265" lon="5.9008">
        <ele>1918</ele>
        <time>2021-08-06T10:45:06Z</time>
      </trkpt>
      <trkpt lat="45.11266" lon="5.90081">
        <ele>1918</ele>
        <time>2021-08-06T10:45:08Z</time>
      </trkpt>
      <trkpt lat="45.11266" lon="5.90083">
        <ele>1918</ele>
        <time>2021-08-06T10:45:10Z</time>
      </trkpt>
      <trkpt lat="45.11266" lon="5.90085">
        <ele>1918</ele>
        <time>2021-08-06T10:45:12Z</time>
      </trkpt>
      <trkpt lat="45.11266" lon="5.90087">
        <ele>1918</ele>
        <time>2021-08-06T10:45:14Z</time>
      </trkpt>
      <trkpt lat="45.11267" lon="5.9009">
        <ele>1918</ele>
        <time>2021-08-06T10:45:16Z</time>
      </trkpt>
      <trkpt lat="45.11267" lon="5.90092">
        <ele>1918</ele>
        <time>2021-08-06T10:45:18Z</time>
      </trkpt>
      <trkpt lat="45.11267" lon="5.90095">
        <ele>1918</ele>
        <time>2021-08-06T10:45:20Z</time>
      </trkpt>
      <trkpt lat="45.11268" lon="5.90097">
        <ele>1918</ele>
        <time>2021-08-06T10:45:22Z</time>
      </trkpt>
      <trkpt lat="45.11269" lon="5.90098">
        <ele>1918</ele>
        <time>2021-08-06T10:45:24Z</time>
      </trkpt>
      <trkpt lat="45.11269" lon="5.901">
        <ele>1918</ele>
        <time>2021-08-06T10:45:26Z</time>
      </trkpt>
      <trkpt lat="45.1127" lon="5.90102">
        <ele>1918</ele>
        <time>2021-08-06T10:45:28Z</time>
      </trkpt>
      <trkpt lat="45.11272" lon="5.90103">
        <ele>1918</ele>
        <time>2021-08-06T10:45:30Z</time>
      </trkpt>
      <trkpt lat="45.11273" lon="5.90105">
        <ele>1918</ele>
        <time>2021-08-06T10:45:33Z</time>
      </trkpt>
      <trkpt lat="45.11274" lon="5.90107">
        <ele>1918</ele>
        <time>2021-08-06T10:45:36Z</time>
      </trkpt>
      <trkpt lat="45.11275" lon="5.90108">
        <ele>1918</ele>
        <time>2021-08-06T10:45:38Z</time>
      </trkpt>
      <trkpt lat="45.11277" lon="5.9011">
        <ele>1918</ele>
        <time>2021-08-06T10:45:40Z</time>
      </trkpt>
      <trkpt lat="45.11278" lon="5.9011">
        <ele>1918</ele>
        <time>2021-08-06T10:45:42Z</time>
      </trkpt>
      <trkpt lat="45.11279" lon="5.90111">
        <ele>1918</ele>
        <time>2021-08-06T10:45:44Z</time>
      </trkpt>
      <trkpt lat="45.1128" lon="5.90113">
        <ele>1918</ele>
        <time>2021-08-06T10:45:46Z</time>
      </trkpt>
      <trkpt lat="45.11281" lon="5.90115">
        <ele>1918</ele>
        <time>2021-08-06T10:45:48Z</time>
      </trkpt>
      <trkpt lat="45.11282" lon="5.90117">
        <ele>1918</ele>
        <time>2021-08-06T10:45:50Z</time>
      </trkpt>
      <trkpt lat="45.11282" lon="5.9012">
        <ele>1918</ele>
        <time>2021-08-06T10:45:52Z</time>
      </trkpt>
      <trkpt lat="45.11283" lon="5.90121">
        <ele>1918</ele>
        <time>2021-08-06T10:45:54Z</time>
      </trkpt>
      <trkpt lat="45.11284" lon="5.90123">
        <ele>1918</ele>
        <time>2021-08-06T10:45:56Z</time>
      </trkpt>
      <trkpt lat="45.11285" lon="5.90125">
        <ele>1918</ele>
        <time>2021-08-06T10:45:58Z</time>
      </trkpt>
      <trkpt lat="45.11286" lon="5.90127">
        <ele>1918</ele>
        <time>2021-08-06T10:46:01Z</time>
      </trkpt>
      <trkpt lat="45.11287" lon="5.90128">
        <ele>1918</ele>
        <time>2021-08-06T10:46:04Z</time>
      </trkpt>
      <trkpt lat="45.11288" lon="5.90129">
        <ele>1918</ele>
        <time>2021-08-06T10:46:12Z</time>
      </trkpt>
      <trkpt lat="45.11289" lon="5.90131">
        <ele>1919</ele>
        <time>2021-08-06T10:46:50Z</time>
      </trkpt>
      <trkpt lat="45.11289" lon="5.90129">
        <ele>1919</ele>
        <time>2021-08-06T10:47:07Z</time>
      </trkpt>
      <trkpt lat="45.11287" lon="5.9013">
        <ele>1919</ele>
        <time>2021-08-06T10:47:10Z</time>
      </trkpt>
      <trkpt lat="45.11286" lon="5.90131">
        <ele>1919</ele>
        <time>2021-08-06T10:47:12Z</time>
      </trkpt>
      <trkpt lat="45.11286" lon="5.90133">
        <ele>1919</ele>
        <time>2021-08-06T10:47:16Z</time>
      </trkpt>
      <trkpt lat="45.11286" lon="5.90135">
        <ele>1919</ele>
        <time>2021-08-06T10:47:21Z</time>
      </trkpt>
      <trkpt lat="45.11287" lon="5.90134">
        <ele>1920</ele>
        <time>2021-08-06T10:47:46Z</time>
      </trkpt>
      <trkpt lat="45.11287" lon="5.90136">
        <ele>1920</ele>
        <time>2021-08-06T10:47:56Z</time>
      </trkpt>
      <trkpt lat="45.11288" lon="5.90136">
        <ele>1921</ele>
        <time>2021-08-06T10:48:01Z</time>
      </trkpt>
      <trkpt lat="45.11289" lon="5.90135">
        <ele>1922</ele>
        <time>2021-08-06T10:48:38Z</time>
      </trkpt>
      <trkpt lat="45.1129" lon="5.90136">
        <ele>1922</ele>
        <time>2021-08-06T10:49:12Z</time>
      </trkpt>
      <trkpt lat="45.11292" lon="5.90136">
        <ele>1922</ele>
        <time>2021-08-06T10:49:14Z</time>
      </trkpt>
      <trkpt lat="45.11293" lon="5.90135">
        <ele>1922</ele>
        <time>2021-08-06T10:49:16Z</time>
      </trkpt>
      <trkpt lat="45.11292" lon="5.90135">
        <ele>1922</ele>
        <time>2021-08-06T10:49:48Z</time>
      </trkpt>
      <trkpt lat="45.1129" lon="5.90135">
        <ele>1922</ele>
        <time>2021-08-06T10:49:50Z</time>
      </trkpt>
      <trkpt lat="45.11289" lon="5.90136">
        <ele>1922</ele>
        <time>2021-08-06T10:49:52Z</time>
      </trkpt>
      <trkpt lat="45.11288" lon="5.90135">
        <ele>1922</ele>
        <time>2021-08-06T10:49:54Z</time>
      </trkpt>
      <trkpt lat="45.11286" lon="5.90134">
        <ele>1922</ele>
        <time>2021-08-06T10:49:56Z</time>
      </trkpt>
      <trkpt lat="45.11286" lon="5.90135">
        <ele>1922</ele>
        <time>2021-08-06T10:50:01Z</time>
      </trkpt>
      <trkpt lat="45.11287" lon="5.90137">
        <ele>1922</ele>
        <time>2021-08-06T10:50:06Z</time>
      </trkpt>
      <trkpt lat="45.11288" lon="5.90138">
        <ele>1922</ele>
        <time>2021-08-06T10:50:10Z</time>
      </trkpt>
      <trkpt lat="45.11288" lon="5.9014">
        <ele>1922</ele>
        <time>2021-08-06T10:50:13Z</time>
      </trkpt>
      <trkpt lat="45.11288" lon="5.90141">
        <ele>1922</ele>
        <time>2021-08-06T10:50:16Z</time>
      </trkpt>
      <trkpt lat="45.11287" lon="5.90143">
        <ele>1922</ele>
        <time>2021-08-06T10:50:39Z</time>
      </trkpt>
      <trkpt lat="45.11287" lon="5.90146">
        <ele>1922</ele>
        <time>2021-08-06T10:50:41Z</time>
      </trkpt>
      <trkpt lat="45.11287" lon="5.90148">
        <ele>1922</ele>
        <time>2021-08-06T10:50:43Z</time>
      </trkpt>
      <trkpt lat="45.11287" lon="5.90151">
        <ele>1922</ele>
        <time>2021-08-06T10:50:45Z</time>
      </trkpt>
      <trkpt lat="45.11287" lon="5.90153">
        <ele>1922</ele>
        <time>2021-08-06T10:50:47Z</time>
      </trkpt>
      <trkpt lat="45.11287" lon="5.90155">
        <ele>1922</ele>
        <time>2021-08-06T10:50:49Z</time>
      </trkpt>
      <trkpt lat="45.11288" lon="5.90157">
        <ele>1922</ele>
        <time>2021-08-06T10:50:52Z</time>
      </trkpt>
      <trkpt lat="45.11288" lon="5.90159">
        <ele>1922</ele>
        <time>2021-08-06T10:50:58Z</time>
      </trkpt>
      <trkpt lat="45.1129" lon="5.9016">
        <ele>1922</ele>
        <time>2021-08-06T10:51:01Z</time>
      </trkpt>
      <trkpt lat="45.1129" lon="5.90162">
        <ele>1922</ele>
        <time>2021-08-06T10:51:03Z</time>
      </trkpt>
      <trkpt lat="45.11289" lon="5.90164">
        <ele>1922</ele>
        <time>2021-08-06T10:51:05Z</time>
      </trkpt>
      <trkpt lat="45.11289" lon="5.90166">
        <ele>1922</ele>
        <time>2021-08-06T10:51:07Z</time>
      </trkpt>
      <trkpt lat="45.11289" lon="5.90168">
        <ele>1922</ele>
        <time>2021-08-06T10:51:09Z</time>
      </trkpt>
      <trkpt lat="45.11289" lon="5.90169">
        <ele>1922</ele>
        <time>2021-08-06T10:51:11Z</time>
      </trkpt>
      <trkpt lat="45.11288" lon="5.90171">
        <ele>1922</ele>
        <time>2021-08-06T10:51:19Z</time>
      </trkpt>
      <trkpt lat="45.11288" lon="5.90173">
        <ele>1922</ele>
        <time>2021-08-06T10:51:21Z</time>
      </trkpt>
      <trkpt lat="45.11288" lon="5.90175">
        <ele>1922</ele>
        <time>2021-08-06T10:51:23Z</time>
      </trkpt>
      <trkpt lat="45.11288" lon="5.90177">
        <ele>1922</ele>
        <time>2021-08-06T10:51:25Z</time>
      </trkpt>
      <trkpt lat="45.11287" lon="5.9018">
        <ele>1922</ele>
        <time>2021-08-06T10:51:27Z</time>
      </trkpt>
      <trkpt lat="45.11286" lon="5.90182">
        <ele>1922</ele>
        <time>2021-08-06T10:51:29Z</time>
      </trkpt>
      <trkpt lat="45.11286" lon="5.90184">
        <ele>1922</ele>
        <time>2021-08-06T10:51:31Z</time>
      </trkpt>
      <trkpt lat="45.11287" lon="5.90186">
        <ele>1922</ele>
        <time>2021-08-06T10:52:00Z</time>
      </trkpt>
      <trkpt lat="45.11286" lon="5.90187">
        <ele>1922</ele>
        <time>2021-08-06T10:53:07Z</time>
      </trkpt>
      <trkpt lat="45.11286" lon="5.90189">
        <ele>1922</ele>
        <time>2021-08-06T10:53:11Z</time>
      </trkpt>
      <trkpt lat="45.11287" lon="5.90191">
        <ele>1922</ele>
        <time>2021-08-06T10:53:13Z</time>
      </trkpt>
      <trkpt lat="45.11287" lon="5.90192">
        <ele>1922</ele>
        <time>2021-08-06T10:53:15Z</time>
      </trkpt>
      <trkpt lat="45.11288" lon="5.90194">
        <ele>1922</ele>
        <time>2021-08-06T10:53:17Z</time>
      </trkpt>
      <trkpt lat="45.11288" lon="5.90196">
        <ele>1922</ele>
        <time>2021-08-06T10:53:19Z</time>
      </trkpt>
      <trkpt lat="45.11288" lon="5.90198">
        <ele>1922</ele>
        <time>2021-08-06T10:53:21Z</time>
      </trkpt>
      <trkpt lat="45.11289" lon="5.902">
        <ele>1922</ele>
        <time>2021-08-06T10:53:23Z</time>
      </trkpt>
      <trkpt lat="45.1129" lon="5.90201">
        <ele>1922</ele>
        <time>2021-08-06T10:53:27Z</time>
      </trkpt>
      <trkpt lat="45.11291" lon="5.90203">
        <ele>1922</ele>
        <time>2021-08-06T10:53:29Z</time>
      </trkpt>
      <trkpt lat="45.11292" lon="5.90205">
        <ele>1922</ele>
        <time>2021-08-06T10:53:31Z</time>
      </trkpt>
      <trkpt lat="45.11293" lon="5.90206">
        <ele>1922</ele>
        <time>2021-08-06T10:53:33Z</time>
      </trkpt>
      <trkpt lat="45.11294" lon="5.90208">
        <ele>1922</ele>
        <time>2021-08-06T10:53:35Z</time>
      </trkpt>
      <trkpt lat="45.11296" lon="5.90209">
        <ele>1922</ele>
        <time>2021-08-06T10:53:37Z</time>
      </trkpt>
      <trkpt lat="45.11297" lon="5.90211">
        <ele>1922</ele>
        <time>2021-08-06T10:53:39Z</time>
      </trkpt>
      <trkpt lat="45.11298" lon="5.90212">
        <ele>1922</ele>
        <time>2021-08-06T10:53:41Z</time>
      </trkpt>
      <trkpt lat="45.11299" lon="5.90214">
        <ele>1922</ele>
        <time>2021-08-06T10:53:43Z</time>
      </trkpt>
      <trkpt lat="45.113" lon="5.90215">
        <ele>1922</ele>
        <time>2021-08-06T10:53:45Z</time>
      </trkpt>
      <trkpt lat="45.11301" lon="5.90217">
        <ele>1922</ele>
        <time>2021-08-06T10:53:47Z</time>
      </trkpt>
      <trkpt lat="45.11301" lon="5.90219">
        <ele>1922</ele>
        <time>2021-08-06T10:53:49Z</time>
      </trkpt>
      <trkpt lat="45.11302" lon="5.90221">
        <ele>1922</ele>
        <time>2021-08-06T10:53:51Z</time>
      </trkpt>
      <trkpt lat="45.11302" lon="5.90223">
        <ele>1922</ele>
        <time>2021-08-06T10:53:53Z</time>
      </trkpt>
      <trkpt lat="45.11302" lon="5.90225">
        <ele>1922</ele>
        <time>2021-08-06T10:53:56Z</time>
      </trkpt>
      <trkpt lat="45.11302" lon="5.90227">
        <ele>1922</ele>
        <time>2021-08-06T10:53:58Z</time>
      </trkpt>
      <trkpt lat="45.11302" lon="5.90229">
        <ele>1922</ele>
        <time>2021-08-06T10:54:00Z</time>
      </trkpt>
      <trkpt lat="45.11303" lon="5.90231">
        <ele>1922</ele>
        <time>2021-08-06T10:54:02Z</time>
      </trkpt>
      <trkpt lat="45.11303" lon="5.90232">
        <ele>1922</ele>
        <time>2021-08-06T10:54:05Z</time>
      </trkpt>
      <trkpt lat="45.11304" lon="5.90234">
        <ele>1922</ele>
        <time>2021-08-06T10:54:07Z</time>
      </trkpt>
      <trkpt lat="45.11305" lon="5.90236">
        <ele>1922</ele>
        <time>2021-08-06T10:54:09Z</time>
      </trkpt>
      <trkpt lat="45.11306" lon="5.90238">
        <ele>1922</ele>
        <time>2021-08-06T10:54:11Z</time>
      </trkpt>
      <trkpt lat="45.11307" lon="5.9024">
        <ele>1922</ele>
        <time>2021-08-06T10:54:14Z</time>
      </trkpt>
      <trkpt lat="45.11309" lon="5.90241">
        <ele>1922</ele>
        <time>2021-08-06T10:54:16Z</time>
      </trkpt>
      <trkpt lat="45.1131" lon="5.90241">
        <ele>1923</ele>
        <time>2021-08-06T10:54:18Z</time>
      </trkpt>
      <trkpt lat="45.11311" lon="5.90242">
        <ele>1923</ele>
        <time>2021-08-06T10:54:20Z</time>
      </trkpt>
      <trkpt lat="45.11312" lon="5.90243">
        <ele>1923</ele>
        <time>2021-08-06T10:54:22Z</time>
      </trkpt>
      <trkpt lat="45.11314" lon="5.90244">
        <ele>1923</ele>
        <time>2021-08-06T10:54:24Z</time>
      </trkpt>
      <trkpt lat="45.11315" lon="5.90246">
        <ele>1923</ele>
        <time>2021-08-06T10:54:27Z</time>
      </trkpt>
      <trkpt lat="45.11316" lon="5.90248">
        <ele>1923</ele>
        <time>2021-08-06T10:54:29Z</time>
      </trkpt>
      <trkpt lat="45.11317" lon="5.90249">
        <ele>1924</ele>
        <time>2021-08-06T10:54:31Z</time>
      </trkpt>
      <trkpt lat="45.11319" lon="5.90251">
        <ele>1924</ele>
        <time>2021-08-06T10:54:34Z</time>
      </trkpt>
      <trkpt lat="45.1132" lon="5.90252">
        <ele>1924</ele>
        <time>2021-08-06T10:54:37Z</time>
      </trkpt>
      <trkpt lat="45.11321" lon="5.90254">
        <ele>1924</ele>
        <time>2021-08-06T10:54:43Z</time>
      </trkpt>
      <trkpt lat="45.11322" lon="5.90255">
        <ele>1924</ele>
        <time>2021-08-06T10:54:46Z</time>
      </trkpt>
      <trkpt lat="45.11324" lon="5.90256">
        <ele>1925</ele>
        <time>2021-08-06T10:54:49Z</time>
      </trkpt>
      <trkpt lat="45.11325" lon="5.90257">
        <ele>1925</ele>
        <time>2021-08-06T10:54:51Z</time>
      </trkpt>
      <trkpt lat="45.11327" lon="5.90257">
        <ele>1925</ele>
        <time>2021-08-06T10:54:53Z</time>
      </trkpt>
      <trkpt lat="45.11328" lon="5.90258">
        <ele>1925</ele>
        <time>2021-08-06T10:54:55Z</time>
      </trkpt>
      <trkpt lat="45.1133" lon="5.90258">
        <ele>1925</ele>
        <time>2021-08-06T10:54:57Z</time>
      </trkpt>
      <trkpt lat="45.11331" lon="5.90258">
        <ele>1925</ele>
        <time>2021-08-06T10:55:00Z</time>
      </trkpt>
      <trkpt lat="45.11332" lon="5.9026">
        <ele>1926</ele>
        <time>2021-08-06T10:55:06Z</time>
      </trkpt>
      <trkpt lat="45.11333" lon="5.90261">
        <ele>1927</ele>
        <time>2021-08-06T10:55:10Z</time>
      </trkpt>
      <trkpt lat="45.11334" lon="5.90263">
        <ele>1927</ele>
        <time>2021-08-06T10:55:14Z</time>
      </trkpt>
      <trkpt lat="45.11336" lon="5.90264">
        <ele>1927</ele>
        <time>2021-08-06T10:55:18Z</time>
      </trkpt>
      <trkpt lat="45.11338" lon="5.90265">
        <ele>1927</ele>
        <time>2021-08-06T10:55:20Z</time>
      </trkpt>
      <trkpt lat="45.11339" lon="5.90265">
        <ele>1927</ele>
        <time>2021-08-06T10:55:22Z</time>
      </trkpt>
      <trkpt lat="45.11341" lon="5.90265">
        <ele>1927</ele>
        <time>2021-08-06T10:55:24Z</time>
      </trkpt>
      <trkpt lat="45.11342" lon="5.90265">
        <ele>1927</ele>
        <time>2021-08-06T10:55:26Z</time>
      </trkpt>
      <trkpt lat="45.11343" lon="5.90266">
        <ele>1927</ele>
        <time>2021-08-06T10:55:28Z</time>
      </trkpt>
      <trkpt lat="45.11345" lon="5.90266">
        <ele>1927</ele>
        <time>2021-08-06T10:55:30Z</time>
      </trkpt>
      <trkpt lat="45.11346" lon="5.90266">
        <ele>1927</ele>
        <time>2021-08-06T10:55:32Z</time>
      </trkpt>
      <trkpt lat="45.11347" lon="5.90266">
        <ele>1927</ele>
        <time>2021-08-06T10:55:34Z</time>
      </trkpt>
      <trkpt lat="45.11348" lon="5.90266">
        <ele>1927</ele>
        <time>2021-08-06T10:55:36Z</time>
      </trkpt>
      <trkpt lat="45.1135" lon="5.90267">
        <ele>1928</ele>
        <time>2021-08-06T10:55:39Z</time>
      </trkpt>
      <trkpt lat="45.11351" lon="5.90268">
        <ele>1928</ele>
        <time>2021-08-06T10:55:42Z</time>
      </trkpt>
      <trkpt lat="45.11352" lon="5.90269">
        <ele>1928</ele>
        <time>2021-08-06T10:55:45Z</time>
      </trkpt>
      <trkpt lat="45.11354" lon="5.9027">
        <ele>1928</ele>
        <time>2021-08-06T10:55:49Z</time>
      </trkpt>
      <trkpt lat="45.11355" lon="5.9027">
        <ele>1928</ele>
        <time>2021-08-06T10:55:52Z</time>
      </trkpt>
      <trkpt lat="45.11356" lon="5.90271">
        <ele>1928</ele>
        <time>2021-08-06T10:55:55Z</time>
      </trkpt>
      <trkpt lat="45.11357" lon="5.90271">
        <ele>1929</ele>
        <time>2021-08-06T10:55:58Z</time>
      </trkpt>
      <trkpt lat="45.11359" lon="5.90273">
        <ele>1929</ele>
        <time>2021-08-06T10:56:03Z</time>
      </trkpt>
      <trkpt lat="45.11359" lon="5.90274">
        <ele>1930</ele>
        <time>2021-08-06T10:56:06Z</time>
      </trkpt>
      <trkpt lat="45.11361" lon="5.90275">
        <ele>1930</ele>
        <time>2021-08-06T10:56:09Z</time>
      </trkpt>
      <trkpt lat="45.11362" lon="5.90276">
        <ele>1930</ele>
        <time>2021-08-06T10:56:12Z</time>
      </trkpt>
      <trkpt lat="45.11363" lon="5.90277">
        <ele>1930</ele>
        <time>2021-08-06T10:56:15Z</time>
      </trkpt>
      <trkpt lat="45.11364" lon="5.90278">
        <ele>1931</ele>
        <time>2021-08-06T10:56:19Z</time>
      </trkpt>
      <trkpt lat="45.11365" lon="5.9028">
        <ele>1931</ele>
        <time>2021-08-06T10:56:24Z</time>
      </trkpt>
      <trkpt lat="45.11366" lon="5.90282">
        <ele>1932</ele>
        <time>2021-08-06T10:56:28Z</time>
      </trkpt>
      <trkpt lat="45.11367" lon="5.90282">
        <ele>1933</ele>
        <time>2021-08-06T10:56:31Z</time>
      </trkpt>
      <trkpt lat="45.11369" lon="5.90283">
        <ele>1933</ele>
        <time>2021-08-06T10:56:35Z</time>
      </trkpt>
      <trkpt lat="45.1137" lon="5.90285">
        <ele>1933</ele>
        <time>2021-08-06T10:56:38Z</time>
      </trkpt>
      <trkpt lat="45.11371" lon="5.90286">
        <ele>1934</ele>
        <time>2021-08-06T10:56:42Z</time>
      </trkpt>
      <trkpt lat="45.11372" lon="5.90287">
        <ele>1934</ele>
        <time>2021-08-06T10:56:45Z</time>
      </trkpt>
      <trkpt lat="45.11374" lon="5.90288">
        <ele>1935</ele>
        <time>2021-08-06T10:56:48Z</time>
      </trkpt>
      <trkpt lat="45.11375" lon="5.90288">
        <ele>1935</ele>
        <time>2021-08-06T10:56:50Z</time>
      </trkpt>
      <trkpt lat="45.11377" lon="5.90288">
        <ele>1936</ele>
        <time>2021-08-06T10:56:52Z</time>
      </trkpt>
      <trkpt lat="45.11378" lon="5.90289">
        <ele>1936</ele>
        <time>2021-08-06T10:56:55Z</time>
      </trkpt>
      <trkpt lat="45.11378" lon="5.90291">
        <ele>1937</ele>
        <time>2021-08-06T10:57:00Z</time>
      </trkpt>
      <trkpt lat="45.1138" lon="5.90293">
        <ele>1937</ele>
        <time>2021-08-06T10:57:03Z</time>
      </trkpt>
      <trkpt lat="45.1138" lon="5.90294">
        <ele>1938</ele>
        <time>2021-08-06T10:57:06Z</time>
      </trkpt>
      <trkpt lat="45.11381" lon="5.90296">
        <ele>1938</ele>
        <time>2021-08-06T10:57:09Z</time>
      </trkpt>
      <trkpt lat="45.11382" lon="5.90296">
        <ele>1939</ele>
        <time>2021-08-06T10:57:26Z</time>
      </trkpt>
      <trkpt lat="45.11383" lon="5.90297">
        <ele>1939</ele>
        <time>2021-08-06T10:57:30Z</time>
      </trkpt>
      <trkpt lat="45.11385" lon="5.90298">
        <ele>1940</ele>
        <time>2021-08-06T10:57:36Z</time>
      </trkpt>
      <trkpt lat="45.11385" lon="5.903">
        <ele>1941</ele>
        <time>2021-08-06T10:57:41Z</time>
      </trkpt>
      <trkpt lat="45.11386" lon="5.90301">
        <ele>1941</ele>
        <time>2021-08-06T10:57:44Z</time>
      </trkpt>
      <trkpt lat="45.11387" lon="5.90302">
        <ele>1941</ele>
        <time>2021-08-06T10:57:49Z</time>
      </trkpt>
      <trkpt lat="45.11388" lon="5.90301">
        <ele>1942</ele>
        <time>2021-08-06T10:57:53Z</time>
      </trkpt>
      <trkpt lat="45.1139" lon="5.90302">
        <ele>1942</ele>
        <time>2021-08-06T10:57:57Z</time>
      </trkpt>
      <trkpt lat="45.11391" lon="5.90302">
        <ele>1942</ele>
        <time>2021-08-06T10:58:01Z</time>
      </trkpt>
      <trkpt lat="45.11392" lon="5.90303">
        <ele>1942</ele>
        <time>2021-08-06T10:58:04Z</time>
      </trkpt>
      <trkpt lat="45.11394" lon="5.90304">
        <ele>1942</ele>
        <time>2021-08-06T10:58:08Z</time>
      </trkpt>
      <trkpt lat="45.11394" lon="5.90305">
        <ele>1943</ele>
        <time>2021-08-06T10:58:19Z</time>
      </trkpt>
      <trkpt lat="45.11395" lon="5.90306">
        <ele>1946</ele>
        <time>2021-08-06T10:58:33Z</time>
      </trkpt>
      <trkpt lat="45.11396" lon="5.90307">
        <ele>1946</ele>
        <time>2021-08-06T10:58:35Z</time>
      </trkpt>
      <trkpt lat="45.11398" lon="5.90308">
        <ele>1946</ele>
        <time>2021-08-06T10:58:38Z</time>
      </trkpt>
      <trkpt lat="45.11399" lon="5.90309">
        <ele>1946</ele>
        <time>2021-08-06T10:58:43Z</time>
      </trkpt>
      <trkpt lat="45.114" lon="5.9031">
        <ele>1946</ele>
        <time>2021-08-06T10:58:48Z</time>
      </trkpt>
      <trkpt lat="45.11401" lon="5.90311">
        <ele>1946</ele>
        <time>2021-08-06T10:58:51Z</time>
      </trkpt>
      <trkpt lat="45.11402" lon="5.90313">
        <ele>1946</ele>
        <time>2021-08-06T10:58:55Z</time>
      </trkpt>
      <trkpt lat="45.11402" lon="5.90314">
        <ele>1946</ele>
        <time>2021-08-06T10:59:07Z</time>
      </trkpt>
      <trkpt lat="45.11403" lon="5.90316">
        <ele>1947</ele>
        <time>2021-08-06T10:59:18Z</time>
      </trkpt>
      <trkpt lat="45.11405" lon="5.90317">
        <ele>1947</ele>
        <time>2021-08-06T10:59:20Z</time>
      </trkpt>
      <trkpt lat="45.11406" lon="5.90318">
        <ele>1947</ele>
        <time>2021-08-06T10:59:22Z</time>
      </trkpt>
      <trkpt lat="45.11407" lon="5.9032">
        <ele>1947</ele>
        <time>2021-08-06T10:59:24Z</time>
      </trkpt>
      <trkpt lat="45.11409" lon="5.90322">
        <ele>1947</ele>
        <time>2021-08-06T10:59:27Z</time>
      </trkpt>
      <trkpt lat="45.1141" lon="5.90323">
        <ele>1947</ele>
        <time>2021-08-06T10:59:29Z</time>
      </trkpt>
      <trkpt lat="45.11411" lon="5.90323">
        <ele>1947</ele>
        <time>2021-08-06T10:59:32Z</time>
      </trkpt>
      <trkpt lat="45.11412" lon="5.90324">
        <ele>1947</ele>
        <time>2021-08-06T10:59:34Z</time>
      </trkpt>
      <trkpt lat="45.11414" lon="5.90325">
        <ele>1947</ele>
        <time>2021-08-06T10:59:36Z</time>
      </trkpt>
      <trkpt lat="45.11415" lon="5.90327">
        <ele>1947</ele>
        <time>2021-08-06T10:59:39Z</time>
      </trkpt>
      <trkpt lat="45.11416" lon="5.90327">
        <ele>1947</ele>
        <time>2021-08-06T10:59:41Z</time>
      </trkpt>
      <trkpt lat="45.11417" lon="5.90328">
        <ele>1947</ele>
        <time>2021-08-06T10:59:43Z</time>
      </trkpt>
      <trkpt lat="45.11419" lon="5.90329">
        <ele>1947</ele>
        <time>2021-08-06T10:59:45Z</time>
      </trkpt>
      <trkpt lat="45.1142" lon="5.9033">
        <ele>1947</ele>
        <time>2021-08-06T10:59:48Z</time>
      </trkpt>
      <trkpt lat="45.11421" lon="5.90332">
        <ele>1947</ele>
        <time>2021-08-06T10:59:51Z</time>
      </trkpt>
      <trkpt lat="45.11423" lon="5.90333">
        <ele>1947</ele>
        <time>2021-08-06T10:59:54Z</time>
      </trkpt>
      <trkpt lat="45.11424" lon="5.90334">
        <ele>1948</ele>
        <time>2021-08-06T10:59:57Z</time>
      </trkpt>
      <trkpt lat="45.11425" lon="5.90336">
        <ele>1948</ele>
        <time>2021-08-06T11:00:00Z</time>
      </trkpt>
      <trkpt lat="45.11426" lon="5.90338">
        <ele>1949</ele>
        <time>2021-08-06T11:00:02Z</time>
      </trkpt>
      <trkpt lat="45.11427" lon="5.90339">
        <ele>1949</ele>
        <time>2021-08-06T11:00:04Z</time>
      </trkpt>
      <trkpt lat="45.11429" lon="5.9034">
        <ele>1949</ele>
        <time>2021-08-06T11:00:07Z</time>
      </trkpt>
      <trkpt lat="45.11429" lon="5.90341">
        <ele>1952</ele>
        <time>2021-08-06T11:01:03Z</time>
      </trkpt>
      <trkpt lat="45.1143" lon="5.90343">
        <ele>1953</ele>
        <time>2021-08-06T11:01:06Z</time>
      </trkpt>
      <trkpt lat="45.11432" lon="5.90345">
        <ele>1953</ele>
        <time>2021-08-06T11:01:09Z</time>
      </trkpt>
      <trkpt lat="45.11432" lon="5.90347">
        <ele>1953</ele>
        <time>2021-08-06T11:01:12Z</time>
      </trkpt>
      <trkpt lat="45.11433" lon="5.90349">
        <ele>1953</ele>
        <time>2021-08-06T11:01:14Z</time>
      </trkpt>
      <trkpt lat="45.11434" lon="5.90351">
        <ele>1953</ele>
        <time>2021-08-06T11:01:16Z</time>
      </trkpt>
      <trkpt lat="45.11434" lon="5.90353">
        <ele>1953</ele>
        <time>2021-08-06T11:01:18Z</time>
      </trkpt>
      <trkpt lat="45.11435" lon="5.90355">
        <ele>1953</ele>
        <time>2021-08-06T11:01:20Z</time>
      </trkpt>
      <trkpt lat="45.11435" lon="5.90357">
        <ele>1953</ele>
        <time>2021-08-06T11:01:22Z</time>
      </trkpt>
      <trkpt lat="45.11435" lon="5.90359">
        <ele>1953</ele>
        <time>2021-08-06T11:01:24Z</time>
      </trkpt>
      <trkpt lat="45.11435" lon="5.90361">
        <ele>1953</ele>
        <time>2021-08-06T11:01:27Z</time>
      </trkpt>
      <trkpt lat="45.11436" lon="5.90363">
        <ele>1953</ele>
        <time>2021-08-06T11:01:29Z</time>
      </trkpt>
      <trkpt lat="45.11435" lon="5.90364">
        <ele>1953</ele>
        <time>2021-08-06T11:01:31Z</time>
      </trkpt>
      <trkpt lat="45.11435" lon="5.90366">
        <ele>1953</ele>
        <time>2021-08-06T11:01:34Z</time>
      </trkpt>
      <trkpt lat="45.11435" lon="5.90368">
        <ele>1953</ele>
        <time>2021-08-06T11:01:36Z</time>
      </trkpt>
      <trkpt lat="45.11435" lon="5.90369">
        <ele>1953</ele>
        <time>2021-08-06T11:01:38Z</time>
      </trkpt>
      <trkpt lat="45.11436" lon="5.90371">
        <ele>1953</ele>
        <time>2021-08-06T11:01:40Z</time>
      </trkpt>
      <trkpt lat="45.11437" lon="5.90373">
        <ele>1953</ele>
        <time>2021-08-06T11:01:42Z</time>
      </trkpt>
      <trkpt lat="45.11438" lon="5.90374">
        <ele>1953</ele>
        <time>2021-08-06T11:01:44Z</time>
      </trkpt>
      <trkpt lat="45.11439" lon="5.90374">
        <ele>1953</ele>
        <time>2021-08-06T11:01:47Z</time>
      </trkpt>
      <trkpt lat="45.11441" lon="5.90375">
        <ele>1953</ele>
        <time>2021-08-06T11:01:50Z</time>
      </trkpt>
      <trkpt lat="45.11442" lon="5.90375">
        <ele>1953</ele>
        <time>2021-08-06T11:01:53Z</time>
      </trkpt>
      <trkpt lat="45.11444" lon="5.90374">
        <ele>1953</ele>
        <time>2021-08-06T11:01:56Z</time>
      </trkpt>
      <trkpt lat="45.11445" lon="5.90374">
        <ele>1953</ele>
        <time>2021-08-06T11:01:58Z</time>
      </trkpt>
      <trkpt lat="45.11446" lon="5.90374">
        <ele>1953</ele>
        <time>2021-08-06T11:02:01Z</time>
      </trkpt>
      <trkpt lat="45.11448" lon="5.90375">
        <ele>1953</ele>
        <time>2021-08-06T11:02:05Z</time>
      </trkpt>
      <trkpt lat="45.11449" lon="5.90375">
        <ele>1953</ele>
        <time>2021-08-06T11:02:08Z</time>
      </trkpt>
      <trkpt lat="45.1145" lon="5.90374">
        <ele>1954</ele>
        <time>2021-08-06T11:02:13Z</time>
      </trkpt>
      <trkpt lat="45.11451" lon="5.90374">
        <ele>1954</ele>
        <time>2021-08-06T11:02:15Z</time>
      </trkpt>
      <trkpt lat="45.11453" lon="5.90375">
        <ele>1954</ele>
        <time>2021-08-06T11:02:18Z</time>
      </trkpt>
      <trkpt lat="45.11454" lon="5.90376">
        <ele>1954</ele>
        <time>2021-08-06T11:02:22Z</time>
      </trkpt>
      <trkpt lat="45.11455" lon="5.90378">
        <ele>1955</ele>
        <time>2021-08-06T11:02:26Z</time>
      </trkpt>
      <trkpt lat="45.11456" lon="5.90379">
        <ele>1955</ele>
        <time>2021-08-06T11:02:29Z</time>
      </trkpt>
      <trkpt lat="45.11457" lon="5.9038">
        <ele>1955</ele>
        <time>2021-08-06T11:02:32Z</time>
      </trkpt>
      <trkpt lat="45.11459" lon="5.90381">
        <ele>1955</ele>
        <time>2021-08-06T11:02:34Z</time>
      </trkpt>
      <trkpt lat="45.1146" lon="5.90382">
        <ele>1955</ele>
        <time>2021-08-06T11:02:36Z</time>
      </trkpt>
      <trkpt lat="45.11461" lon="5.90382">
        <ele>1955</ele>
        <time>2021-08-06T11:02:38Z</time>
      </trkpt>
      <trkpt lat="45.11462" lon="5.90384">
        <ele>1956</ele>
        <time>2021-08-06T11:02:42Z</time>
      </trkpt>
      <trkpt lat="45.11463" lon="5.90385">
        <ele>1956</ele>
        <time>2021-08-06T11:02:46Z</time>
      </trkpt>
      <trkpt lat="45.11464" lon="5.90386">
        <ele>1956</ele>
        <time>2021-08-06T11:02:52Z</time>
      </trkpt>
      <trkpt lat="45.11466" lon="5.90388">
        <ele>1956</ele>
        <time>2021-08-06T11:02:55Z</time>
      </trkpt>
      <trkpt lat="45.11467" lon="5.90389">
        <ele>1956</ele>
        <time>2021-08-06T11:02:57Z</time>
      </trkpt>
      <trkpt lat="45.11469" lon="5.90389">
        <ele>1956</ele>
        <time>2021-08-06T11:03:00Z</time>
      </trkpt>
      <trkpt lat="45.1147" lon="5.90389">
        <ele>1956</ele>
        <time>2021-08-06T11:03:04Z</time>
      </trkpt>
      <trkpt lat="45.11471" lon="5.90389">
        <ele>1956</ele>
        <time>2021-08-06T11:03:06Z</time>
      </trkpt>
      <trkpt lat="45.11473" lon="5.90389">
        <ele>1956</ele>
        <time>2021-08-06T11:03:09Z</time>
      </trkpt>
      <trkpt lat="45.11474" lon="5.9039">
        <ele>1956</ele>
        <time>2021-08-06T11:03:11Z</time>
      </trkpt>
      <trkpt lat="45.11475" lon="5.90391">
        <ele>1956</ele>
        <time>2021-08-06T11:03:14Z</time>
      </trkpt>
      <trkpt lat="45.11476" lon="5.90392">
        <ele>1956</ele>
        <time>2021-08-06T11:03:19Z</time>
      </trkpt>
      <trkpt lat="45.11477" lon="5.9039">
        <ele>1956</ele>
        <time>2021-08-06T11:03:24Z</time>
      </trkpt>
      <trkpt lat="45.11478" lon="5.9039">
        <ele>1956</ele>
        <time>2021-08-06T11:03:28Z</time>
      </trkpt>
      <trkpt lat="45.11479" lon="5.90392">
        <ele>1956</ele>
        <time>2021-08-06T11:03:30Z</time>
      </trkpt>
      <trkpt lat="45.1148" lon="5.90393">
        <ele>1956</ele>
        <time>2021-08-06T11:03:32Z</time>
      </trkpt>
      <trkpt lat="45.11481" lon="5.90394">
        <ele>1956</ele>
        <time>2021-08-06T11:03:34Z</time>
      </trkpt>
      <trkpt lat="45.11482" lon="5.90394">
        <ele>1956</ele>
        <time>2021-08-06T11:03:36Z</time>
      </trkpt>
      <trkpt lat="45.11481" lon="5.90396">
        <ele>1956</ele>
        <time>2021-08-06T11:03:43Z</time>
      </trkpt>
      <trkpt lat="45.11481" lon="5.90398">
        <ele>1956</ele>
        <time>2021-08-06T11:03:45Z</time>
      </trkpt>
      <trkpt lat="45.11482" lon="5.904">
        <ele>1956</ele>
        <time>2021-08-06T11:03:48Z</time>
      </trkpt>
      <trkpt lat="45.11484" lon="5.90402">
        <ele>1956</ele>
        <time>2021-08-06T11:03:51Z</time>
      </trkpt>
      <trkpt lat="45.11485" lon="5.90403">
        <ele>1956</ele>
        <time>2021-08-06T11:03:53Z</time>
      </trkpt>
      <trkpt lat="45.11486" lon="5.90404">
        <ele>1956</ele>
        <time>2021-08-06T11:03:56Z</time>
      </trkpt>
      <trkpt lat="45.11487" lon="5.90406">
        <ele>1956</ele>
        <time>2021-08-06T11:03:59Z</time>
      </trkpt>
      <trkpt lat="45.11488" lon="5.90406">
        <ele>1956</ele>
        <time>2021-08-06T11:04:01Z</time>
      </trkpt>
      <trkpt lat="45.1149" lon="5.90407">
        <ele>1956</ele>
        <time>2021-08-06T11:04:05Z</time>
      </trkpt>
      <trkpt lat="45.11491" lon="5.90408">
        <ele>1956</ele>
        <time>2021-08-06T11:04:07Z</time>
      </trkpt>
      <trkpt lat="45.11493" lon="5.90409">
        <ele>1956</ele>
        <time>2021-08-06T11:04:09Z</time>
      </trkpt>
      <trkpt lat="45.11494" lon="5.90411">
        <ele>1956</ele>
        <time>2021-08-06T11:04:11Z</time>
      </trkpt>
      <trkpt lat="45.11494" lon="5.90412">
        <ele>1956</ele>
        <time>2021-08-06T11:04:13Z</time>
      </trkpt>
      <trkpt lat="45.11495" lon="5.90414">
        <ele>1956</ele>
        <time>2021-08-06T11:04:15Z</time>
      </trkpt>
      <trkpt lat="45.11496" lon="5.90415">
        <ele>1956</ele>
        <time>2021-08-06T11:04:17Z</time>
      </trkpt>
      <trkpt lat="45.11497" lon="5.90417">
        <ele>1956</ele>
        <time>2021-08-06T11:04:19Z</time>
      </trkpt>
      <trkpt lat="45.11498" lon="5.90419">
        <ele>1956</ele>
        <time>2021-08-06T11:04:21Z</time>
      </trkpt>
      <trkpt lat="45.11499" lon="5.90421">
        <ele>1956</ele>
        <time>2021-08-06T11:04:23Z</time>
      </trkpt>
      <trkpt lat="45.115" lon="5.90423">
        <ele>1956</ele>
        <time>2021-08-06T11:04:25Z</time>
      </trkpt>
      <trkpt lat="45.11501" lon="5.90424">
        <ele>1956</ele>
        <time>2021-08-06T11:04:27Z</time>
      </trkpt>
      <trkpt lat="45.11502" lon="5.90426">
        <ele>1956</ele>
        <time>2021-08-06T11:04:29Z</time>
      </trkpt>
      <trkpt lat="45.11504" lon="5.90427">
        <ele>1956</ele>
        <time>2021-08-06T11:04:31Z</time>
      </trkpt>
      <trkpt lat="45.11505" lon="5.90428">
        <ele>1956</ele>
        <time>2021-08-06T11:04:33Z</time>
      </trkpt>
      <trkpt lat="45.11506" lon="5.90429">
        <ele>1957</ele>
        <time>2021-08-06T11:04:35Z</time>
      </trkpt>
      <trkpt lat="45.11508" lon="5.9043">
        <ele>1957</ele>
        <time>2021-08-06T11:04:37Z</time>
      </trkpt>
      <trkpt lat="45.11509" lon="5.90431">
        <ele>1957</ele>
        <time>2021-08-06T11:04:39Z</time>
      </trkpt>
      <trkpt lat="45.1151" lon="5.90431">
        <ele>1958</ele>
        <time>2021-08-06T11:04:41Z</time>
      </trkpt>
      <trkpt lat="45.11511" lon="5.90433">
        <ele>1958</ele>
        <time>2021-08-06T11:04:43Z</time>
      </trkpt>
      <trkpt lat="45.11513" lon="5.90435">
        <ele>1959</ele>
        <time>2021-08-06T11:04:46Z</time>
      </trkpt>
      <trkpt lat="45.11514" lon="5.90436">
        <ele>1959</ele>
        <time>2021-08-06T11:04:48Z</time>
      </trkpt>
      <trkpt lat="45.11515" lon="5.90437">
        <ele>1960</ele>
        <time>2021-08-06T11:04:50Z</time>
      </trkpt>
      <trkpt lat="45.11516" lon="5.90437">
        <ele>1960</ele>
        <time>2021-08-06T11:04:52Z</time>
      </trkpt>
      <trkpt lat="45.11517" lon="5.90439">
        <ele>1960</ele>
        <time>2021-08-06T11:04:55Z</time>
      </trkpt>
      <trkpt lat="45.11517" lon="5.9044">
        <ele>1960</ele>
        <time>2021-08-06T11:05:00Z</time>
      </trkpt>
      <trkpt lat="45.11519" lon="5.90441">
        <ele>1961</ele>
        <time>2021-08-06T11:05:04Z</time>
      </trkpt>
      <trkpt lat="45.1152" lon="5.90442">
        <ele>1961</ele>
        <time>2021-08-06T11:05:07Z</time>
      </trkpt>
      <trkpt lat="45.11522" lon="5.90443">
        <ele>1961</ele>
        <time>2021-08-06T11:05:10Z</time>
      </trkpt>
      <trkpt lat="45.11522" lon="5.90445">
        <ele>1961</ele>
        <time>2021-08-06T11:05:13Z</time>
      </trkpt>
      <trkpt lat="45.11524" lon="5.90447">
        <ele>1961</ele>
        <time>2021-08-06T11:05:16Z</time>
      </trkpt>
      <trkpt lat="45.11525" lon="5.90448">
        <ele>1962</ele>
        <time>2021-08-06T11:05:19Z</time>
      </trkpt>
      <trkpt lat="45.11526" lon="5.9045">
        <ele>1962</ele>
        <time>2021-08-06T11:05:22Z</time>
      </trkpt>
      <trkpt lat="45.11528" lon="5.90451">
        <ele>1963</ele>
        <time>2021-08-06T11:05:25Z</time>
      </trkpt>
      <trkpt lat="45.11529" lon="5.90452">
        <ele>1963</ele>
        <time>2021-08-06T11:05:28Z</time>
      </trkpt>
      <trkpt lat="45.1153" lon="5.90453">
        <ele>1963</ele>
        <time>2021-08-06T11:05:35Z</time>
      </trkpt>
      <trkpt lat="45.11531" lon="5.90453">
        <ele>1963</ele>
        <time>2021-08-06T11:05:37Z</time>
      </trkpt>
      <trkpt lat="45.11533" lon="5.90453">
        <ele>1963</ele>
        <time>2021-08-06T11:05:39Z</time>
      </trkpt>
      <trkpt lat="45.11534" lon="5.90453">
        <ele>1964</ele>
        <time>2021-08-06T11:05:41Z</time>
      </trkpt>
      <trkpt lat="45.11535" lon="5.90453">
        <ele>1964</ele>
        <time>2021-08-06T11:05:44Z</time>
      </trkpt>
      <trkpt lat="45.11535" lon="5.90455">
        <ele>1965</ele>
        <time>2021-08-06T11:05:55Z</time>
      </trkpt>
      <trkpt lat="45.11535" lon="5.90456">
        <ele>1966</ele>
        <time>2021-08-06T11:05:58Z</time>
      </trkpt>
      <trkpt lat="45.11536" lon="5.90457">
        <ele>1969</ele>
        <time>2021-08-06T11:06:06Z</time>
      </trkpt>
      <trkpt lat="45.11538" lon="5.90457">
        <ele>1969</ele>
        <time>2021-08-06T11:06:09Z</time>
      </trkpt>
      <trkpt lat="45.11539" lon="5.90457">
        <ele>1969</ele>
        <time>2021-08-06T11:06:12Z</time>
      </trkpt>
      <trkpt lat="45.1154" lon="5.90456">
        <ele>1969</ele>
        <time>2021-08-06T11:06:15Z</time>
      </trkpt>
      <trkpt lat="45.11541" lon="5.90455">
        <ele>1969</ele>
        <time>2021-08-06T11:07:03Z</time>
      </trkpt>
      <trkpt lat="45.11542" lon="5.90455">
        <ele>1969</ele>
        <time>2021-08-06T11:07:05Z</time>
      </trkpt>
      <trkpt lat="45.11544" lon="5.90456">
        <ele>1969</ele>
        <time>2021-08-06T11:07:07Z</time>
      </trkpt>
      <trkpt lat="45.11545" lon="5.90456">
        <ele>1969</ele>
        <time>2021-08-06T11:07:09Z</time>
      </trkpt>
      <trkpt lat="45.11546" lon="5.90456">
        <ele>1969</ele>
        <time>2021-08-06T11:07:11Z</time>
      </trkpt>
      <trkpt lat="45.11548" lon="5.90457">
        <ele>1969</ele>
        <time>2021-08-06T11:07:13Z</time>
      </trkpt>
      <trkpt lat="45.11549" lon="5.90457">
        <ele>1969</ele>
        <time>2021-08-06T11:07:15Z</time>
      </trkpt>
      <trkpt lat="45.11551" lon="5.90457">
        <ele>1969</ele>
        <time>2021-08-06T11:07:17Z</time>
      </trkpt>
      <trkpt lat="45.11552" lon="5.90458">
        <ele>1969</ele>
        <time>2021-08-06T11:07:19Z</time>
      </trkpt>
      <trkpt lat="45.11554" lon="5.90458">
        <ele>1969</ele>
        <time>2021-08-06T11:07:21Z</time>
      </trkpt>
      <trkpt lat="45.11555" lon="5.90458">
        <ele>1969</ele>
        <time>2021-08-06T11:07:23Z</time>
      </trkpt>
      <trkpt lat="45.11556" lon="5.90458">
        <ele>1969</ele>
        <time>2021-08-06T11:07:25Z</time>
      </trkpt>
      <trkpt lat="45.11557" lon="5.90459">
        <ele>1969</ele>
        <time>2021-08-06T11:07:27Z</time>
      </trkpt>
      <trkpt lat="45.11559" lon="5.90459">
        <ele>1969</ele>
        <time>2021-08-06T11:07:29Z</time>
      </trkpt>
      <trkpt lat="45.1156" lon="5.9046">
        <ele>1969</ele>
        <time>2021-08-06T11:07:31Z</time>
      </trkpt>
      <trkpt lat="45.11562" lon="5.9046">
        <ele>1969</ele>
        <time>2021-08-06T11:07:33Z</time>
      </trkpt>
      <trkpt lat="45.11563" lon="5.9046">
        <ele>1969</ele>
        <time>2021-08-06T11:07:35Z</time>
      </trkpt>
      <trkpt lat="45.11564" lon="5.9046">
        <ele>1969</ele>
        <time>2021-08-06T11:07:37Z</time>
      </trkpt>
      <trkpt lat="45.11566" lon="5.9046">
        <ele>1969</ele>
        <time>2021-08-06T11:07:40Z</time>
      </trkpt>
      <trkpt lat="45.11567" lon="5.9046">
        <ele>1970</ele>
        <time>2021-08-06T11:07:42Z</time>
      </trkpt>
      <trkpt lat="45.11568" lon="5.9046">
        <ele>1970</ele>
        <time>2021-08-06T11:07:44Z</time>
      </trkpt>
      <trkpt lat="45.11569" lon="5.9046">
        <ele>1970</ele>
        <time>2021-08-06T11:07:46Z</time>
      </trkpt>
      <trkpt lat="45.11571" lon="5.90459">
        <ele>1971</ele>
        <time>2021-08-06T11:07:48Z</time>
      </trkpt>
      <trkpt lat="45.11572" lon="5.90459">
        <ele>1971</ele>
        <time>2021-08-06T11:07:50Z</time>
      </trkpt>
      <trkpt lat="45.11573" lon="5.90459">
        <ele>1972</ele>
        <time>2021-08-06T11:07:52Z</time>
      </trkpt>
      <trkpt lat="45.11575" lon="5.9046">
        <ele>1972</ele>
        <time>2021-08-06T11:07:55Z</time>
      </trkpt>
      <trkpt lat="45.11576" lon="5.9046">
        <ele>1972</ele>
        <time>2021-08-06T11:07:57Z</time>
      </trkpt>
      <trkpt lat="45.11578" lon="5.90461">
        <ele>1973</ele>
        <time>2021-08-06T11:08:00Z</time>
      </trkpt>
      <trkpt lat="45.11579" lon="5.90461">
        <ele>1974</ele>
        <time>2021-08-06T11:08:02Z</time>
      </trkpt>
      <trkpt lat="45.1158" lon="5.90462">
        <ele>1974</ele>
        <time>2021-08-06T11:08:04Z</time>
      </trkpt>
      <trkpt lat="45.11581" lon="5.90462">
        <ele>1974</ele>
        <time>2021-08-06T11:08:06Z</time>
      </trkpt>
      <trkpt lat="45.11582" lon="5.90463">
        <ele>1975</ele>
        <time>2021-08-06T11:08:08Z</time>
      </trkpt>
      <trkpt lat="45.11583" lon="5.90463">
        <ele>1976</ele>
        <time>2021-08-06T11:08:10Z</time>
      </trkpt>
      <trkpt lat="45.11585" lon="5.90463">
        <ele>1976</ele>
        <time>2021-08-06T11:08:13Z</time>
      </trkpt>
      <trkpt lat="45.11586" lon="5.90464">
        <ele>1977</ele>
        <time>2021-08-06T11:08:16Z</time>
      </trkpt>
      <trkpt lat="45.11588" lon="5.90464">
        <ele>1977</ele>
        <time>2021-08-06T11:08:18Z</time>
      </trkpt>
      <trkpt lat="45.11589" lon="5.90463">
        <ele>1977</ele>
        <time>2021-08-06T11:08:20Z</time>
      </trkpt>
      <trkpt lat="45.11591" lon="5.90462">
        <ele>1977</ele>
        <time>2021-08-06T11:08:22Z</time>
      </trkpt>
      <trkpt lat="45.11592" lon="5.90462">
        <ele>1977</ele>
        <time>2021-08-06T11:08:24Z</time>
      </trkpt>
      <trkpt lat="45.11593" lon="5.90461">
        <ele>1977</ele>
        <time>2021-08-06T11:08:26Z</time>
      </trkpt>
      <trkpt lat="45.11594" lon="5.9046">
        <ele>1977</ele>
        <time>2021-08-06T11:08:29Z</time>
      </trkpt>
      <trkpt lat="45.11596" lon="5.90459">
        <ele>1977</ele>
        <time>2021-08-06T11:08:32Z</time>
      </trkpt>
      <trkpt lat="45.11597" lon="5.9046">
        <ele>1977</ele>
        <time>2021-08-06T11:08:35Z</time>
      </trkpt>
      <trkpt lat="45.11599" lon="5.90462">
        <ele>1977</ele>
        <time>2021-08-06T11:08:38Z</time>
      </trkpt>
      <trkpt lat="45.116" lon="5.90463">
        <ele>1977</ele>
        <time>2021-08-06T11:08:40Z</time>
      </trkpt>
      <trkpt lat="45.11601" lon="5.90463">
        <ele>1977</ele>
        <time>2021-08-06T11:08:43Z</time>
      </trkpt>
      <trkpt lat="45.11603" lon="5.90462">
        <ele>1977</ele>
        <time>2021-08-06T11:08:46Z</time>
      </trkpt>
      <trkpt lat="45.11604" lon="5.90462">
        <ele>1977</ele>
        <time>2021-08-06T11:08:49Z</time>
      </trkpt>
      <trkpt lat="45.11605" lon="5.90462">
        <ele>1977</ele>
        <time>2021-08-06T11:08:53Z</time>
      </trkpt>
      <trkpt lat="45.11607" lon="5.90463">
        <ele>1977</ele>
        <time>2021-08-06T11:08:56Z</time>
      </trkpt>
      <trkpt lat="45.11608" lon="5.90464">
        <ele>1977</ele>
        <time>2021-08-06T11:08:59Z</time>
      </trkpt>
      <trkpt lat="45.1161" lon="5.90465">
        <ele>1977</ele>
        <time>2021-08-06T11:09:02Z</time>
      </trkpt>
      <trkpt lat="45.11611" lon="5.90466">
        <ele>1977</ele>
        <time>2021-08-06T11:09:05Z</time>
      </trkpt>
      <trkpt lat="45.11612" lon="5.90467">
        <ele>1978</ele>
        <time>2021-08-06T11:09:08Z</time>
      </trkpt>
      <trkpt lat="45.11613" lon="5.90468">
        <ele>1978</ele>
        <time>2021-08-06T11:09:11Z</time>
      </trkpt>
      <trkpt lat="45.11615" lon="5.90469">
        <ele>1979</ele>
        <time>2021-08-06T11:09:13Z</time>
      </trkpt>
      <trkpt lat="45.11615" lon="5.90467">
        <ele>1979</ele>
        <time>2021-08-06T11:09:32Z</time>
      </trkpt>
      <trkpt lat="45.11616" lon="5.90465">
        <ele>1979</ele>
        <time>2021-08-06T11:09:39Z</time>
      </trkpt>
      <trkpt lat="45.11617" lon="5.90464">
        <ele>1979</ele>
        <time>2021-08-06T11:09:41Z</time>
      </trkpt>
      <trkpt lat="45.11618" lon="5.90462">
        <ele>1979</ele>
        <time>2021-08-06T11:09:43Z</time>
      </trkpt>
      <trkpt lat="45.11618" lon="5.90459">
        <ele>1979</ele>
        <time>2021-08-06T11:09:45Z</time>
      </trkpt>
      <trkpt lat="45.11619" lon="5.90458">
        <ele>1979</ele>
        <time>2021-08-06T11:09:47Z</time>
      </trkpt>
      <trkpt lat="45.11619" lon="5.90456">
        <ele>1979</ele>
        <time>2021-08-06T11:09:49Z</time>
      </trkpt>
      <trkpt lat="45.1162" lon="5.90454">
        <ele>1979</ele>
        <time>2021-08-06T11:09:51Z</time>
      </trkpt>
      <trkpt lat="45.11621" lon="5.90452">
        <ele>1979</ele>
        <time>2021-08-06T11:09:54Z</time>
      </trkpt>
      <trkpt lat="45.11621" lon="5.9045">
        <ele>1979</ele>
        <time>2021-08-06T11:09:56Z</time>
      </trkpt>
      <trkpt lat="45.11622" lon="5.90449">
        <ele>1979</ele>
        <time>2021-08-06T11:09:58Z</time>
      </trkpt>
      <trkpt lat="45.11622" lon="5.90447">
        <ele>1979</ele>
        <time>2021-08-06T11:10:01Z</time>
      </trkpt>
      <trkpt lat="45.11623" lon="5.90445">
        <ele>1979</ele>
        <time>2021-08-06T11:10:04Z</time>
      </trkpt>
      <trkpt lat="45.11621" lon="5.90445">
        <ele>1979</ele>
        <time>2021-08-06T11:10:08Z</time>
      </trkpt>
      <trkpt lat="45.11621" lon="5.90447">
        <ele>1979</ele>
        <time>2021-08-06T11:10:10Z</time>
      </trkpt>
      <trkpt lat="45.11621" lon="5.90448">
        <ele>1980</ele>
        <time>2021-08-06T11:10:12Z</time>
      </trkpt>
      <trkpt lat="45.11621" lon="5.9045">
        <ele>1980</ele>
        <time>2021-08-06T11:10:14Z</time>
      </trkpt>
      <trkpt lat="45.11622" lon="5.90452">
        <ele>1980</ele>
        <time>2021-08-06T11:10:17Z</time>
      </trkpt>
      <trkpt lat="45.11622" lon="5.90454">
        <ele>1980</ele>
        <time>2021-08-06T11:10:19Z</time>
      </trkpt>
      <trkpt lat="45.11623" lon="5.90456">
        <ele>1980</ele>
        <time>2021-08-06T11:10:22Z</time>
      </trkpt>
      <trkpt lat="45.11624" lon="5.90457">
        <ele>1980</ele>
        <time>2021-08-06T11:10:24Z</time>
      </trkpt>
      <trkpt lat="45.11625" lon="5.90459">
        <ele>1980</ele>
        <time>2021-08-06T11:10:26Z</time>
      </trkpt>
      <trkpt lat="45.11625" lon="5.9046">
        <ele>1980</ele>
        <time>2021-08-06T11:10:28Z</time>
      </trkpt>
      <trkpt lat="45.11626" lon="5.90462">
        <ele>1980</ele>
        <time>2021-08-06T11:10:30Z</time>
      </trkpt>
      <trkpt lat="45.11626" lon="5.90464">
        <ele>1980</ele>
        <time>2021-08-06T11:10:32Z</time>
      </trkpt>
      <trkpt lat="45.11626" lon="5.90466">
        <ele>1980</ele>
        <time>2021-08-06T11:10:34Z</time>
      </trkpt>
      <trkpt lat="45.11626" lon="5.90468">
        <ele>1980</ele>
        <time>2021-08-06T11:10:36Z</time>
      </trkpt>
      <trkpt lat="45.11627" lon="5.90469">
        <ele>1981</ele>
        <time>2021-08-06T11:10:39Z</time>
      </trkpt>
      <trkpt lat="45.11628" lon="5.90471">
        <ele>1981</ele>
        <time>2021-08-06T11:10:44Z</time>
      </trkpt>
      <trkpt lat="45.1163" lon="5.90473">
        <ele>1981</ele>
        <time>2021-08-06T11:10:47Z</time>
      </trkpt>
      <trkpt lat="45.11631" lon="5.90475">
        <ele>1982</ele>
        <time>2021-08-06T11:10:50Z</time>
      </trkpt>
      <trkpt lat="45.11631" lon="5.90476">
        <ele>1982</ele>
        <time>2021-08-06T11:10:52Z</time>
      </trkpt>
      <trkpt lat="45.11632" lon="5.90478">
        <ele>1982</ele>
        <time>2021-08-06T11:10:54Z</time>
      </trkpt>
      <trkpt lat="45.11633" lon="5.90479">
        <ele>1983</ele>
        <time>2021-08-06T11:10:58Z</time>
      </trkpt>
      <trkpt lat="45.11635" lon="5.9048">
        <ele>1983</ele>
        <time>2021-08-06T11:11:01Z</time>
      </trkpt>
      <trkpt lat="45.11636" lon="5.90481">
        <ele>1984</ele>
        <time>2021-08-06T11:11:04Z</time>
      </trkpt>
      <trkpt lat="45.11637" lon="5.90482">
        <ele>1985</ele>
        <time>2021-08-06T11:11:07Z</time>
      </trkpt>
      <trkpt lat="45.11639" lon="5.90482">
        <ele>1985</ele>
        <time>2021-08-06T11:11:10Z</time>
      </trkpt>
      <trkpt lat="45.1164" lon="5.90482">
        <ele>1986</ele>
        <time>2021-08-06T11:11:12Z</time>
      </trkpt>
      <trkpt lat="45.11642" lon="5.90483">
        <ele>1986</ele>
        <time>2021-08-06T11:11:15Z</time>
      </trkpt>
      <trkpt lat="45.11643" lon="5.90483">
        <ele>1986</ele>
        <time>2021-08-06T11:11:18Z</time>
      </trkpt>
      <trkpt lat="45.11644" lon="5.90484">
        <ele>1987</ele>
        <time>2021-08-06T11:11:21Z</time>
      </trkpt>
      <trkpt lat="45.11646" lon="5.90484">
        <ele>1987</ele>
        <time>2021-08-06T11:11:24Z</time>
      </trkpt>
      <trkpt lat="45.11647" lon="5.90485">
        <ele>1987</ele>
        <time>2021-08-06T11:11:27Z</time>
      </trkpt>
      <trkpt lat="45.11649" lon="5.90485">
        <ele>1988</ele>
        <time>2021-08-06T11:11:31Z</time>
      </trkpt>
      <trkpt lat="45.1165" lon="5.90486">
        <ele>1988</ele>
        <time>2021-08-06T11:11:33Z</time>
      </trkpt>
      <trkpt lat="45.11651" lon="5.90486">
        <ele>1988</ele>
        <time>2021-08-06T11:11:35Z</time>
      </trkpt>
      <trkpt lat="45.11652" lon="5.90486">
        <ele>1988</ele>
        <time>2021-08-06T11:11:38Z</time>
      </trkpt>
      <trkpt lat="45.11653" lon="5.90488">
        <ele>1988</ele>
        <time>2021-08-06T11:11:42Z</time>
      </trkpt>
      <trkpt lat="45.11655" lon="5.90489">
        <ele>1988</ele>
        <time>2021-08-06T11:11:45Z</time>
      </trkpt>
      <trkpt lat="45.11656" lon="5.90489">
        <ele>1988</ele>
        <time>2021-08-06T11:11:48Z</time>
      </trkpt>
      <trkpt lat="45.11657" lon="5.9049">
        <ele>1988</ele>
        <time>2021-08-06T11:11:51Z</time>
      </trkpt>
      <trkpt lat="45.11658" lon="5.9049">
        <ele>1988</ele>
        <time>2021-08-06T11:11:53Z</time>
      </trkpt>
      <trkpt lat="45.1166" lon="5.9049">
        <ele>1988</ele>
        <time>2021-08-06T11:11:55Z</time>
      </trkpt>
      <trkpt lat="45.11662" lon="5.9049">
        <ele>1988</ele>
        <time>2021-08-06T11:11:58Z</time>
      </trkpt>
      <trkpt lat="45.11663" lon="5.9049">
        <ele>1989</ele>
        <time>2021-08-06T11:12:01Z</time>
      </trkpt>
      <trkpt lat="45.11664" lon="5.9049">
        <ele>1989</ele>
        <time>2021-08-06T11:12:03Z</time>
      </trkpt>
      <trkpt lat="45.11665" lon="5.9049">
        <ele>1989</ele>
        <time>2021-08-06T11:12:06Z</time>
      </trkpt>
      <trkpt lat="45.11666" lon="5.9049">
        <ele>1990</ele>
        <time>2021-08-06T11:12:09Z</time>
      </trkpt>
      <trkpt lat="45.11668" lon="5.90491">
        <ele>1994</ele>
        <time>2021-08-06T11:12:19Z</time>
      </trkpt>
      <trkpt lat="45.11669" lon="5.90491">
        <ele>1994</ele>
        <time>2021-08-06T11:12:22Z</time>
      </trkpt>
      <trkpt lat="45.1167" lon="5.90491">
        <ele>1995</ele>
        <time>2021-08-06T11:12:24Z</time>
      </trkpt>
      <trkpt lat="45.11671" lon="5.9049">
        <ele>1995</ele>
        <time>2021-08-06T11:12:26Z</time>
      </trkpt>
      <trkpt lat="45.11673" lon="5.90489">
        <ele>1995</ele>
        <time>2021-08-06T11:12:29Z</time>
      </trkpt>
      <trkpt lat="45.11674" lon="5.90489">
        <ele>1995</ele>
        <time>2021-08-06T11:12:31Z</time>
      </trkpt>
      <trkpt lat="45.11676" lon="5.90489">
        <ele>1995</ele>
        <time>2021-08-06T11:12:34Z</time>
      </trkpt>
      <trkpt lat="45.11677" lon="5.9049">
        <ele>1995</ele>
        <time>2021-08-06T11:12:37Z</time>
      </trkpt>
      <trkpt lat="45.11678" lon="5.9049">
        <ele>1995</ele>
        <time>2021-08-06T11:12:39Z</time>
      </trkpt>
      <trkpt lat="45.11679" lon="5.9049">
        <ele>1995</ele>
        <time>2021-08-06T11:12:42Z</time>
      </trkpt>
      <trkpt lat="45.11681" lon="5.90491">
        <ele>1995</ele>
        <time>2021-08-06T11:12:46Z</time>
      </trkpt>
      <trkpt lat="45.11682" lon="5.90491">
        <ele>1995</ele>
        <time>2021-08-06T11:12:48Z</time>
      </trkpt>
      <trkpt lat="45.11683" lon="5.9049">
        <ele>1995</ele>
        <time>2021-08-06T11:12:51Z</time>
      </trkpt>
      <trkpt lat="45.11684" lon="5.90488">
        <ele>1995</ele>
        <time>2021-08-06T11:12:54Z</time>
      </trkpt>
      <trkpt lat="45.11686" lon="5.90487">
        <ele>1995</ele>
        <time>2021-08-06T11:12:56Z</time>
      </trkpt>
      <trkpt lat="45.11687" lon="5.90487">
        <ele>1996</ele>
        <time>2021-08-06T11:13:25Z</time>
      </trkpt>
      <trkpt lat="45.11686" lon="5.90488">
        <ele>1996</ele>
        <time>2021-08-06T11:13:57Z</time>
      </trkpt>
      <trkpt lat="45.11688" lon="5.90488">
        <ele>1997</ele>
        <time>2021-08-06T11:15:02Z</time>
      </trkpt>
      <trkpt lat="45.11689" lon="5.90487">
        <ele>1998</ele>
        <time>2021-08-06T11:15:19Z</time>
      </trkpt>
      <trkpt lat="45.1169" lon="5.90486">
        <ele>1998</ele>
        <time>2021-08-06T11:15:35Z</time>
      </trkpt>
      <trkpt lat="45.11692" lon="5.90486">
        <ele>1998</ele>
        <time>2021-08-06T11:16:05Z</time>
      </trkpt>
      <trkpt lat="45.11692" lon="5.90484">
        <ele>1998</ele>
        <time>2021-08-06T11:16:12Z</time>
      </trkpt>
      <trkpt lat="45.1169" lon="5.90485">
        <ele>1998</ele>
        <time>2021-08-06T11:16:34Z</time>
      </trkpt>
      <trkpt lat="45.1169" lon="5.90487">
        <ele>1998</ele>
        <time>2021-08-06T11:16:38Z</time>
      </trkpt>
      <trkpt lat="45.1169" lon="5.90488">
        <ele>1998</ele>
        <time>2021-08-06T11:16:40Z</time>
      </trkpt>
      <trkpt lat="45.11691" lon="5.9049">
        <ele>1998</ele>
        <time>2021-08-06T11:16:42Z</time>
      </trkpt>
      <trkpt lat="45.11692" lon="5.90491">
        <ele>1998</ele>
        <time>2021-08-06T11:16:45Z</time>
      </trkpt>
      <trkpt lat="45.11694" lon="5.90491">
        <ele>1998</ele>
        <time>2021-08-06T11:17:02Z</time>
      </trkpt>
      <trkpt lat="45.11695" lon="5.9049">
        <ele>1998</ele>
        <time>2021-08-06T11:17:32Z</time>
      </trkpt>
      <trkpt lat="45.11696" lon="5.9049">
        <ele>1998</ele>
        <time>2021-08-06T11:17:44Z</time>
      </trkpt>
      <trkpt lat="45.11695" lon="5.90488">
        <ele>1998</ele>
        <time>2021-08-06T11:18:08Z</time>
      </trkpt>
      <trkpt lat="45.11695" lon="5.90487">
        <ele>1998</ele>
        <time>2021-08-06T11:18:11Z</time>
      </trkpt>
      <trkpt lat="45.11697" lon="5.90485">
        <ele>1998</ele>
        <time>2021-08-06T11:18:20Z</time>
      </trkpt>
      <trkpt lat="45.11698" lon="5.90485">
        <ele>1998</ele>
        <time>2021-08-06T11:18:24Z</time>
      </trkpt>
      <trkpt lat="45.11699" lon="5.90486">
        <ele>1998</ele>
        <time>2021-08-06T11:18:34Z</time>
      </trkpt>
      <trkpt lat="45.117" lon="5.90487">
        <ele>1998</ele>
        <time>2021-08-06T11:18:41Z</time>
      </trkpt>
      <trkpt lat="45.11702" lon="5.90487">
        <ele>1998</ele>
        <time>2021-08-06T11:18:52Z</time>
      </trkpt>
      <trkpt lat="45.11703" lon="5.90486">
        <ele>1998</ele>
        <time>2021-08-06T11:18:56Z</time>
      </trkpt>
      <trkpt lat="45.11704" lon="5.90486">
        <ele>1998</ele>
        <time>2021-08-06T11:18:58Z</time>
      </trkpt>
      <trkpt lat="45.11705" lon="5.90485">
        <ele>1998</ele>
        <time>2021-08-06T11:19:02Z</time>
      </trkpt>
      <trkpt lat="45.11707" lon="5.90485">
        <ele>1998</ele>
        <time>2021-08-06T11:19:05Z</time>
      </trkpt>
      <trkpt lat="45.11708" lon="5.90485">
        <ele>1998</ele>
        <time>2021-08-06T11:19:08Z</time>
      </trkpt>
      <trkpt lat="45.1171" lon="5.90485">
        <ele>1998</ele>
        <time>2021-08-06T11:19:11Z</time>
      </trkpt>
      <trkpt lat="45.11711" lon="5.90485">
        <ele>1998</ele>
        <time>2021-08-06T11:19:14Z</time>
      </trkpt>
      <trkpt lat="45.11712" lon="5.90483">
        <ele>1998</ele>
        <time>2021-08-06T11:19:18Z</time>
      </trkpt>
      <trkpt lat="45.11713" lon="5.90482">
        <ele>1997</ele>
        <time>2021-08-06T11:19:23Z</time>
      </trkpt>
      <trkpt lat="45.11714" lon="5.90482">
        <ele>1996</ele>
        <time>2021-08-06T11:19:26Z</time>
      </trkpt>
      <trkpt lat="45.11715" lon="5.90483">
        <ele>1996</ele>
        <time>2021-08-06T11:19:29Z</time>
      </trkpt>
      <trkpt lat="45.11717" lon="5.90482">
        <ele>1995</ele>
        <time>2021-08-06T11:19:31Z</time>
      </trkpt>
      <trkpt lat="45.11718" lon="5.90482">
        <ele>1995</ele>
        <time>2021-08-06T11:19:33Z</time>
      </trkpt>
      <trkpt lat="45.11719" lon="5.90481">
        <ele>1995</ele>
        <time>2021-08-06T11:19:35Z</time>
      </trkpt>
      <trkpt lat="45.11721" lon="5.90479">
        <ele>1994</ele>
        <time>2021-08-06T11:19:38Z</time>
      </trkpt>
      <trkpt lat="45.11722" lon="5.90477">
        <ele>1993</ele>
        <time>2021-08-06T11:19:41Z</time>
      </trkpt>
      <trkpt lat="45.11723" lon="5.90476">
        <ele>1993</ele>
        <time>2021-08-06T11:19:44Z</time>
      </trkpt>
      <trkpt lat="45.11724" lon="5.90474">
        <ele>1992</ele>
        <time>2021-08-06T11:19:50Z</time>
      </trkpt>
      <trkpt lat="45.11725" lon="5.90472">
        <ele>1991</ele>
        <time>2021-08-06T11:19:54Z</time>
      </trkpt>
      <trkpt lat="45.11726" lon="5.90472">
        <ele>1991</ele>
        <time>2021-08-06T11:19:58Z</time>
      </trkpt>
      <trkpt lat="45.11727" lon="5.90471">
        <ele>1991</ele>
        <time>2021-08-06T11:20:01Z</time>
      </trkpt>
      <trkpt lat="45.11729" lon="5.9047">
        <ele>1990</ele>
        <time>2021-08-06T11:20:05Z</time>
      </trkpt>
      <trkpt lat="45.1173" lon="5.9047">
        <ele>1990</ele>
        <time>2021-08-06T11:20:07Z</time>
      </trkpt>
      <trkpt lat="45.11731" lon="5.9047">
        <ele>1990</ele>
        <time>2021-08-06T11:20:09Z</time>
      </trkpt>
      <trkpt lat="45.11732" lon="5.9047">
        <ele>1990</ele>
        <time>2021-08-06T11:20:12Z</time>
      </trkpt>
      <trkpt lat="45.11733" lon="5.90469">
        <ele>1989</ele>
        <time>2021-08-06T11:20:17Z</time>
      </trkpt>
      <trkpt lat="45.11734" lon="5.90468">
        <ele>1988</ele>
        <time>2021-08-06T11:20:19Z</time>
      </trkpt>
      <trkpt lat="45.11736" lon="5.90467">
        <ele>1987</ele>
        <time>2021-08-06T11:20:22Z</time>
      </trkpt>
      <trkpt lat="45.11737" lon="5.90466">
        <ele>1987</ele>
        <time>2021-08-06T11:20:24Z</time>
      </trkpt>
      <trkpt lat="45.11738" lon="5.90465">
        <ele>1987</ele>
        <time>2021-08-06T11:20:31Z</time>
      </trkpt>
      <trkpt lat="45.11739" lon="5.90465">
        <ele>1986</ele>
        <time>2021-08-06T11:20:33Z</time>
      </trkpt>
      <trkpt lat="45.11741" lon="5.90464">
        <ele>1986</ele>
        <time>2021-08-06T11:20:35Z</time>
      </trkpt>
      <trkpt lat="45.11742" lon="5.90463">
        <ele>1986</ele>
        <time>2021-08-06T11:20:38Z</time>
      </trkpt>
      <trkpt lat="45.11744" lon="5.90461">
        <ele>1985</ele>
        <time>2021-08-06T11:20:41Z</time>
      </trkpt>
      <trkpt lat="45.11745" lon="5.9046">
        <ele>1985</ele>
        <time>2021-08-06T11:20:44Z</time>
      </trkpt>
      <trkpt lat="45.11745" lon="5.90458">
        <ele>1985</ele>
        <time>2021-08-06T11:20:47Z</time>
      </trkpt>
      <trkpt lat="45.11745" lon="5.90455">
        <ele>1984</ele>
        <time>2021-08-06T11:20:50Z</time>
      </trkpt>
      <trkpt lat="45.11744" lon="5.90454">
        <ele>1984</ele>
        <time>2021-08-06T11:20:52Z</time>
      </trkpt>
      <trkpt lat="45.11743" lon="5.90452">
        <ele>1983</ele>
        <time>2021-08-06T11:20:55Z</time>
      </trkpt>
      <trkpt lat="45.11742" lon="5.90451">
        <ele>1982</ele>
        <time>2021-08-06T11:20:57Z</time>
      </trkpt>
      <trkpt lat="45.1174" lon="5.90451">
        <ele>1981</ele>
        <time>2021-08-06T11:20:59Z</time>
      </trkpt>
      <trkpt lat="45.11739" lon="5.90449">
        <ele>1981</ele>
        <time>2021-08-06T11:21:02Z</time>
      </trkpt>
      <trkpt lat="45.11737" lon="5.90448">
        <ele>1981</ele>
        <time>2021-08-06T11:21:04Z</time>
      </trkpt>
      <trkpt lat="45.11736" lon="5.90447">
        <ele>1980</ele>
        <time>2021-08-06T11:21:06Z</time>
      </trkpt>
      <trkpt lat="45.11735" lon="5.90446">
        <ele>1980</ele>
        <time>2021-08-06T11:21:08Z</time>
      </trkpt>
      <trkpt lat="45.11734" lon="5.90444">
        <ele>1980</ele>
        <time>2021-08-06T11:21:10Z</time>
      </trkpt>
      <trkpt lat="45.11732" lon="5.90442">
        <ele>1980</ele>
        <time>2021-08-06T11:21:12Z</time>
      </trkpt>
      <trkpt lat="45.11731" lon="5.90441">
        <ele>1980</ele>
        <time>2021-08-06T11:21:14Z</time>
      </trkpt>
      <trkpt lat="45.1173" lon="5.9044">
        <ele>1980</ele>
        <time>2021-08-06T11:21:16Z</time>
      </trkpt>
      <trkpt lat="45.11729" lon="5.90439">
        <ele>1980</ele>
        <time>2021-08-06T11:21:18Z</time>
      </trkpt>
      <trkpt lat="45.11727" lon="5.90437">
        <ele>1980</ele>
        <time>2021-08-06T11:21:24Z</time>
      </trkpt>
      <trkpt lat="45.11726" lon="5.90436">
        <ele>1980</ele>
        <time>2021-08-06T11:21:27Z</time>
      </trkpt>
      <trkpt lat="45.11725" lon="5.90435">
        <ele>1979</ele>
        <time>2021-08-06T11:21:29Z</time>
      </trkpt>
      <trkpt lat="45.11724" lon="5.90435">
        <ele>1979</ele>
        <time>2021-08-06T11:21:31Z</time>
      </trkpt>
      <trkpt lat="45.11723" lon="5.90435">
        <ele>1979</ele>
        <time>2021-08-06T11:21:33Z</time>
      </trkpt>
      <trkpt lat="45.11721" lon="5.90435">
        <ele>1978</ele>
        <time>2021-08-06T11:21:36Z</time>
      </trkpt>
      <trkpt lat="45.1172" lon="5.90435">
        <ele>1978</ele>
        <time>2021-08-06T11:21:40Z</time>
      </trkpt>
      <trkpt lat="45.1172" lon="5.90433">
        <ele>1978</ele>
        <time>2021-08-06T11:21:44Z</time>
      </trkpt>
      <trkpt lat="45.11718" lon="5.90433">
        <ele>1978</ele>
        <time>2021-08-06T11:21:50Z</time>
      </trkpt>
      <trkpt lat="45.11717" lon="5.90432">
        <ele>1978</ele>
        <time>2021-08-06T11:21:55Z</time>
      </trkpt>
      <trkpt lat="45.11717" lon="5.9043">
        <ele>1978</ele>
        <time>2021-08-06T11:22:00Z</time>
      </trkpt>
      <trkpt lat="45.11717" lon="5.90428">
        <ele>1978</ele>
        <time>2021-08-06T11:22:03Z</time>
      </trkpt>
      <trkpt lat="45.11717" lon="5.90426">
        <ele>1977</ele>
        <time>2021-08-06T11:22:06Z</time>
      </trkpt>
      <trkpt lat="45.11717" lon="5.90425">
        <ele>1977</ele>
        <time>2021-08-06T11:22:08Z</time>
      </trkpt>
      <trkpt lat="45.11717" lon="5.90423">
        <ele>1976</ele>
        <time>2021-08-06T11:22:10Z</time>
      </trkpt>
      <trkpt lat="45.11717" lon="5.90421">
        <ele>1976</ele>
        <time>2021-08-06T11:22:13Z</time>
      </trkpt>
      <trkpt lat="45.11717" lon="5.90419">
        <ele>1975</ele>
        <time>2021-08-06T11:22:16Z</time>
      </trkpt>
      <trkpt lat="45.11717" lon="5.90417">
        <ele>1974</ele>
        <time>2021-08-06T11:22:20Z</time>
      </trkpt>
      <trkpt lat="45.11717" lon="5.90416">
        <ele>1973</ele>
        <time>2021-08-06T11:22:24Z</time>
      </trkpt>
      <trkpt lat="45.11716" lon="5.90414">
        <ele>1973</ele>
        <time>2021-08-06T11:22:27Z</time>
      </trkpt>
      <trkpt lat="45.11715" lon="5.90413">
        <ele>1972</ele>
        <time>2021-08-06T11:22:29Z</time>
      </trkpt>
      <trkpt lat="45.11714" lon="5.90411">
        <ele>1971</ele>
        <time>2021-08-06T11:22:36Z</time>
      </trkpt>
      <trkpt lat="45.11714" lon="5.9041">
        <ele>1970</ele>
        <time>2021-08-06T11:22:41Z</time>
      </trkpt>
      <trkpt lat="45.11713" lon="5.90408">
        <ele>1970</ele>
        <time>2021-08-06T11:22:45Z</time>
      </trkpt>
      <trkpt lat="45.11713" lon="5.90407">
        <ele>1969</ele>
        <time>2021-08-06T11:22:48Z</time>
      </trkpt>
      <trkpt lat="45.11712" lon="5.90405">
        <ele>1969</ele>
        <time>2021-08-06T11:22:52Z</time>
      </trkpt>
      <trkpt lat="45.11711" lon="5.90404">
        <ele>1968</ele>
        <time>2021-08-06T11:22:55Z</time>
      </trkpt>
      <trkpt lat="45.11709" lon="5.90406">
        <ele>1968</ele>
        <time>2021-08-06T11:22:58Z</time>
      </trkpt>
      <trkpt lat="45.11708" lon="5.90406">
        <ele>1967</ele>
        <time>2021-08-06T11:23:01Z</time>
      </trkpt>
      <trkpt lat="45.11706" lon="5.90405">
        <ele>1967</ele>
        <time>2021-08-06T11:23:05Z</time>
      </trkpt>
      <trkpt lat="45.11706" lon="5.90403">
        <ele>1966</ele>
        <time>2021-08-06T11:23:08Z</time>
      </trkpt>
      <trkpt lat="45.11705" lon="5.90401">
        <ele>1965</ele>
        <time>2021-08-06T11:23:20Z</time>
      </trkpt>
      <trkpt lat="45.11705" lon="5.904">
        <ele>1965</ele>
        <time>2021-08-06T11:23:22Z</time>
      </trkpt>
      <trkpt lat="45.11704" lon="5.90398">
        <ele>1965</ele>
        <time>2021-08-06T11:23:25Z</time>
      </trkpt>
      <trkpt lat="45.11704" lon="5.90396">
        <ele>1965</ele>
        <time>2021-08-06T11:23:28Z</time>
      </trkpt>
      <trkpt lat="45.11704" lon="5.90394">
        <ele>1965</ele>
        <time>2021-08-06T11:23:31Z</time>
      </trkpt>
      <trkpt lat="45.11703" lon="5.90392">
        <ele>1964</ele>
        <time>2021-08-06T11:23:46Z</time>
      </trkpt>
      <trkpt lat="45.11704" lon="5.90391">
        <ele>1964</ele>
        <time>2021-08-06T11:23:49Z</time>
      </trkpt>
      <trkpt lat="45.11705" lon="5.90389">
        <ele>1964</ele>
        <time>2021-08-06T11:23:55Z</time>
      </trkpt>
      <trkpt lat="45.11705" lon="5.90387">
        <ele>1963</ele>
        <time>2021-08-06T11:23:59Z</time>
      </trkpt>
      <trkpt lat="45.11705" lon="5.90385">
        <ele>1963</ele>
        <time>2021-08-06T11:24:02Z</time>
      </trkpt>
      <trkpt lat="45.11705" lon="5.90384">
        <ele>1962</ele>
        <time>2021-08-06T11:24:08Z</time>
      </trkpt>
      <trkpt lat="45.11705" lon="5.90382">
        <ele>1961</ele>
        <time>2021-08-06T11:24:11Z</time>
      </trkpt>
      <trkpt lat="45.11705" lon="5.9038">
        <ele>1961</ele>
        <time>2021-08-06T11:24:14Z</time>
      </trkpt>
      <trkpt lat="45.11705" lon="5.90378">
        <ele>1960</ele>
        <time>2021-08-06T11:24:16Z</time>
      </trkpt>
      <trkpt lat="45.11705" lon="5.90376">
        <ele>1960</ele>
        <time>2021-08-06T11:24:18Z</time>
      </trkpt>
      <trkpt lat="45.11705" lon="5.90375">
        <ele>1959</ele>
        <time>2021-08-06T11:24:23Z</time>
      </trkpt>
      <trkpt lat="45.11706" lon="5.90373">
        <ele>1959</ele>
        <time>2021-08-06T11:24:26Z</time>
      </trkpt>
      <trkpt lat="45.11706" lon="5.90371">
        <ele>1959</ele>
        <time>2021-08-06T11:24:29Z</time>
      </trkpt>
      <trkpt lat="45.11705" lon="5.9037">
        <ele>1958</ele>
        <time>2021-08-06T11:24:37Z</time>
      </trkpt>
      <trkpt lat="45.11705" lon="5.90368">
        <ele>1958</ele>
        <time>2021-08-06T11:24:40Z</time>
      </trkpt>
      <trkpt lat="45.11705" lon="5.90366">
        <ele>1957</ele>
        <time>2021-08-06T11:24:45Z</time>
      </trkpt>
      <trkpt lat="45.11705" lon="5.90365">
        <ele>1957</ele>
        <time>2021-08-06T11:24:49Z</time>
      </trkpt>
      <trkpt lat="45.11703" lon="5.90364">
        <ele>1957</ele>
        <time>2021-08-06T11:24:59Z</time>
      </trkpt>
      <trkpt lat="45.11703" lon="5.90365">
        <ele>1957</ele>
        <time>2021-08-06T11:25:29Z</time>
      </trkpt>
      <trkpt lat="45.11702" lon="5.90364">
        <ele>1957</ele>
        <time>2021-08-06T11:25:49Z</time>
      </trkpt>
      <trkpt lat="45.11701" lon="5.90362">
        <ele>1957</ele>
        <time>2021-08-06T11:25:53Z</time>
      </trkpt>
      <trkpt lat="45.117" lon="5.9036">
        <ele>1957</ele>
        <time>2021-08-06T11:25:55Z</time>
      </trkpt>
      <trkpt lat="45.117" lon="5.90358">
        <ele>1957</ele>
        <time>2021-08-06T11:25:57Z</time>
      </trkpt>
      <trkpt lat="45.11699" lon="5.90356">
        <ele>1957</ele>
        <time>2021-08-06T11:25:59Z</time>
      </trkpt>
      <trkpt lat="45.11698" lon="5.90354">
        <ele>1957</ele>
        <time>2021-08-06T11:26:01Z</time>
      </trkpt>
      <trkpt lat="45.11697" lon="5.90352">
        <ele>1957</ele>
        <time>2021-08-06T11:26:03Z</time>
      </trkpt>
      <trkpt lat="45.11695" lon="5.90352">
        <ele>1957</ele>
        <time>2021-08-06T11:26:06Z</time>
      </trkpt>
      <trkpt lat="45.11694" lon="5.90354">
        <ele>1956</ele>
        <time>2021-08-06T11:26:09Z</time>
      </trkpt>
      <trkpt lat="45.11693" lon="5.90354">
        <ele>1956</ele>
        <time>2021-08-06T11:26:12Z</time>
      </trkpt>
      <trkpt lat="45.11692" lon="5.90353">
        <ele>1955</ele>
        <time>2021-08-06T11:26:15Z</time>
      </trkpt>
      <trkpt lat="45.11691" lon="5.90351">
        <ele>1955</ele>
        <time>2021-08-06T11:26:19Z</time>
      </trkpt>
      <trkpt lat="45.1169" lon="5.90352">
        <ele>1955</ele>
        <time>2021-08-06T11:26:24Z</time>
      </trkpt>
      <trkpt lat="45.11689" lon="5.90351">
        <ele>1955</ele>
        <time>2021-08-06T11:26:27Z</time>
      </trkpt>
      <trkpt lat="45.11688" lon="5.90349">
        <ele>1955</ele>
        <time>2021-08-06T11:26:32Z</time>
      </trkpt>
      <trkpt lat="45.11688" lon="5.90347">
        <ele>1955</ele>
        <time>2021-08-06T11:26:34Z</time>
      </trkpt>
      <trkpt lat="45.11687" lon="5.90345">
        <ele>1955</ele>
        <time>2021-08-06T11:26:36Z</time>
      </trkpt>
      <trkpt lat="45.11685" lon="5.90344">
        <ele>1955</ele>
        <time>2021-08-06T11:26:38Z</time>
      </trkpt>
      <trkpt lat="45.11683" lon="5.90343">
        <ele>1955</ele>
        <time>2021-08-06T11:26:40Z</time>
      </trkpt>
      <trkpt lat="45.11682" lon="5.90342">
        <ele>1955</ele>
        <time>2021-08-06T11:26:42Z</time>
      </trkpt>
      <trkpt lat="45.11681" lon="5.90341">
        <ele>1954</ele>
        <time>2021-08-06T11:26:45Z</time>
      </trkpt>
      <trkpt lat="45.11679" lon="5.90341">
        <ele>1954</ele>
        <time>2021-08-06T11:26:47Z</time>
      </trkpt>
      <trkpt lat="45.11678" lon="5.90339">
        <ele>1954</ele>
        <time>2021-08-06T11:26:49Z</time>
      </trkpt>
      <trkpt lat="45.11676" lon="5.90338">
        <ele>1953</ele>
        <time>2021-08-06T11:26:51Z</time>
      </trkpt>
      <trkpt lat="45.11674" lon="5.90338">
        <ele>1953</ele>
        <time>2021-08-06T11:26:53Z</time>
      </trkpt>
      <trkpt lat="45.11672" lon="5.90337">
        <ele>1953</ele>
        <time>2021-08-06T11:26:55Z</time>
      </trkpt>
      <trkpt lat="45.11671" lon="5.90336">
        <ele>1952</ele>
        <time>2021-08-06T11:26:57Z</time>
      </trkpt>
      <trkpt lat="45.11669" lon="5.90335">
        <ele>1952</ele>
        <time>2021-08-06T11:26:59Z</time>
      </trkpt>
      <trkpt lat="45.11668" lon="5.90334">
        <ele>1951</ele>
        <time>2021-08-06T11:27:01Z</time>
      </trkpt>
      <trkpt lat="45.11666" lon="5.90333">
        <ele>1950</ele>
        <time>2021-08-06T11:27:03Z</time>
      </trkpt>
      <trkpt lat="45.11664" lon="5.90331">
        <ele>1950</ele>
        <time>2021-08-06T11:27:05Z</time>
      </trkpt>
      <trkpt lat="45.11663" lon="5.90329">
        <ele>1949</ele>
        <time>2021-08-06T11:27:07Z</time>
      </trkpt>
      <trkpt lat="45.11661" lon="5.90328">
        <ele>1949</ele>
        <time>2021-08-06T11:27:09Z</time>
      </trkpt>
      <trkpt lat="45.11659" lon="5.90326">
        <ele>1949</ele>
        <time>2021-08-06T11:27:11Z</time>
      </trkpt>
      <trkpt lat="45.11658" lon="5.90324">
        <ele>1948</ele>
        <time>2021-08-06T11:27:13Z</time>
      </trkpt>
      <trkpt lat="45.11657" lon="5.90322">
        <ele>1948</ele>
        <time>2021-08-06T11:27:15Z</time>
      </trkpt>
      <trkpt lat="45.11655" lon="5.90321">
        <ele>1948</ele>
        <time>2021-08-06T11:27:17Z</time>
      </trkpt>
      <trkpt lat="45.11654" lon="5.90319">
        <ele>1948</ele>
        <time>2021-08-06T11:27:19Z</time>
      </trkpt>
      <trkpt lat="45.11652" lon="5.90318">
        <ele>1947</ele>
        <time>2021-08-06T11:27:21Z</time>
      </trkpt>
      <trkpt lat="45.11651" lon="5.90316">
        <ele>1947</ele>
        <time>2021-08-06T11:27:23Z</time>
      </trkpt>
      <trkpt lat="45.11649" lon="5.90315">
        <ele>1947</ele>
        <time>2021-08-06T11:27:25Z</time>
      </trkpt>
      <trkpt lat="45.11648" lon="5.90313">
        <ele>1947</ele>
        <time>2021-08-06T11:27:29Z</time>
      </trkpt>
      <trkpt lat="45.11647" lon="5.90311">
        <ele>1946</ele>
        <time>2021-08-06T11:27:31Z</time>
      </trkpt>
      <trkpt lat="45.11646" lon="5.90309">
        <ele>1946</ele>
        <time>2021-08-06T11:27:33Z</time>
      </trkpt>
      <trkpt lat="45.11644" lon="5.90307">
        <ele>1946</ele>
        <time>2021-08-06T11:27:35Z</time>
      </trkpt>
      <trkpt lat="45.11644" lon="5.90305">
        <ele>1945</ele>
        <time>2021-08-06T11:27:37Z</time>
      </trkpt>
      <trkpt lat="45.11642" lon="5.90303">
        <ele>1945</ele>
        <time>2021-08-06T11:27:39Z</time>
      </trkpt>
      <trkpt lat="45.11641" lon="5.90303">
        <ele>1945</ele>
        <time>2021-08-06T11:27:41Z</time>
      </trkpt>
      <trkpt lat="45.11639" lon="5.90302">
        <ele>1944</ele>
        <time>2021-08-06T11:27:43Z</time>
      </trkpt>
      <trkpt lat="45.11637" lon="5.90301">
        <ele>1944</ele>
        <time>2021-08-06T11:27:45Z</time>
      </trkpt>
      <trkpt lat="45.11636" lon="5.90301">
        <ele>1944</ele>
        <time>2021-08-06T11:27:46Z</time>
      </trkpt>
      <trkpt lat="45.11635" lon="5.90301">
        <ele>1943</ele>
        <time>2021-08-06T11:27:48Z</time>
      </trkpt>
      <trkpt lat="45.11633" lon="5.903">
        <ele>1943</ele>
        <time>2021-08-06T11:27:50Z</time>
      </trkpt>
      <trkpt lat="45.11631" lon="5.903">
        <ele>1942</ele>
        <time>2021-08-06T11:27:52Z</time>
      </trkpt>
      <trkpt lat="45.1163" lon="5.903">
        <ele>1942</ele>
        <time>2021-08-06T11:27:54Z</time>
      </trkpt>
      <trkpt lat="45.11628" lon="5.90301">
        <ele>1942</ele>
        <time>2021-08-06T11:27:57Z</time>
      </trkpt>
      <trkpt lat="45.11627" lon="5.90301">
        <ele>1942</ele>
        <time>2021-08-06T11:28:01Z</time>
      </trkpt>
      <trkpt lat="45.11626" lon="5.90299">
        <ele>1942</ele>
        <time>2021-08-06T11:28:05Z</time>
      </trkpt>
      <trkpt lat="45.11625" lon="5.90298">
        <ele>1942</ele>
        <time>2021-08-06T11:28:09Z</time>
      </trkpt>
      <trkpt lat="45.11623" lon="5.90298">
        <ele>1942</ele>
        <time>2021-08-06T11:28:12Z</time>
      </trkpt>
      <trkpt lat="45.11622" lon="5.90299">
        <ele>1942</ele>
        <time>2021-08-06T11:28:15Z</time>
      </trkpt>
      <trkpt lat="45.1162" lon="5.90299">
        <ele>1942</ele>
        <time>2021-08-06T11:28:18Z</time>
      </trkpt>
      <trkpt lat="45.11619" lon="5.90297">
        <ele>1942</ele>
        <time>2021-08-06T11:28:21Z</time>
      </trkpt>
      <trkpt lat="45.11618" lon="5.90296">
        <ele>1942</ele>
        <time>2021-08-06T11:28:23Z</time>
      </trkpt>
      <trkpt lat="45.11617" lon="5.90294">
        <ele>1942</ele>
        <time>2021-08-06T11:28:25Z</time>
      </trkpt>
      <trkpt lat="45.11615" lon="5.90293">
        <ele>1942</ele>
        <time>2021-08-06T11:28:27Z</time>
      </trkpt>
      <trkpt lat="45.11614" lon="5.90292">
        <ele>1942</ele>
        <time>2021-08-06T11:28:29Z</time>
      </trkpt>
      <trkpt lat="45.11613" lon="5.9029">
        <ele>1942</ele>
        <time>2021-08-06T11:28:31Z</time>
      </trkpt>
      <trkpt lat="45.11612" lon="5.90289">
        <ele>1941</ele>
        <time>2021-08-06T11:28:33Z</time>
      </trkpt>
      <trkpt lat="45.11611" lon="5.90287">
        <ele>1941</ele>
        <time>2021-08-06T11:28:35Z</time>
      </trkpt>
      <trkpt lat="45.1161" lon="5.90285">
        <ele>1941</ele>
        <time>2021-08-06T11:28:37Z</time>
      </trkpt>
      <trkpt lat="45.1161" lon="5.90283">
        <ele>1941</ele>
        <time>2021-08-06T11:28:39Z</time>
      </trkpt>
      <trkpt lat="45.11609" lon="5.90282">
        <ele>1941</ele>
        <time>2021-08-06T11:28:41Z</time>
      </trkpt>
      <trkpt lat="45.11609" lon="5.9028">
        <ele>1941</ele>
        <time>2021-08-06T11:28:45Z</time>
      </trkpt>
      <trkpt lat="45.11609" lon="5.90279">
        <ele>1941</ele>
        <time>2021-08-06T11:28:47Z</time>
      </trkpt>
      <trkpt lat="45.11608" lon="5.90277">
        <ele>1941</ele>
        <time>2021-08-06T11:28:50Z</time>
      </trkpt>
      <trkpt lat="45.11607" lon="5.90275">
        <ele>1941</ele>
        <time>2021-08-06T11:29:04Z</time>
      </trkpt>
      <trkpt lat="45.11606" lon="5.90275">
        <ele>1941</ele>
        <time>2021-08-06T11:29:07Z</time>
      </trkpt>
      <trkpt lat="45.11605" lon="5.90274">
        <ele>1937</ele>
        <time>2021-08-06T11:30:00Z</time>
      </trkpt>
      <trkpt lat="45.11604" lon="5.90274">
        <ele>1936</ele>
        <time>2021-08-06T11:30:13Z</time>
      </trkpt>
      <trkpt lat="45.11602" lon="5.90273">
        <ele>1936</ele>
        <time>2021-08-06T11:30:16Z</time>
      </trkpt>
      <trkpt lat="45.11601" lon="5.90271">
        <ele>1936</ele>
        <time>2021-08-06T11:30:18Z</time>
      </trkpt>
      <trkpt lat="45.116" lon="5.9027">
        <ele>1936</ele>
        <time>2021-08-06T11:30:20Z</time>
      </trkpt>
      <trkpt lat="45.11599" lon="5.90269">
        <ele>1936</ele>
        <time>2021-08-06T11:30:23Z</time>
      </trkpt>
      <trkpt lat="45.11597" lon="5.90269">
        <ele>1936</ele>
        <time>2021-08-06T11:30:28Z</time>
      </trkpt>
      <trkpt lat="45.11596" lon="5.90268">
        <ele>1936</ele>
        <time>2021-08-06T11:30:31Z</time>
      </trkpt>
      <trkpt lat="45.11594" lon="5.90267">
        <ele>1935</ele>
        <time>2021-08-06T11:30:34Z</time>
      </trkpt>
      <trkpt lat="45.11593" lon="5.90268">
        <ele>1935</ele>
        <time>2021-08-06T11:30:36Z</time>
      </trkpt>
      <trkpt lat="45.11592" lon="5.90269">
        <ele>1935</ele>
        <time>2021-08-06T11:30:38Z</time>
      </trkpt>
      <trkpt lat="45.11591" lon="5.90269">
        <ele>1935</ele>
        <time>2021-08-06T11:30:40Z</time>
      </trkpt>
      <trkpt lat="45.11589" lon="5.90268">
        <ele>1935</ele>
        <time>2021-08-06T11:30:42Z</time>
      </trkpt>
      <trkpt lat="45.11588" lon="5.90267">
        <ele>1935</ele>
        <time>2021-08-06T11:30:44Z</time>
      </trkpt>
      <trkpt lat="45.11587" lon="5.90266">
        <ele>1935</ele>
        <time>2021-08-06T11:30:46Z</time>
      </trkpt>
      <trkpt lat="45.11586" lon="5.90265">
        <ele>1935</ele>
        <time>2021-08-06T11:30:49Z</time>
      </trkpt>
      <trkpt lat="45.11584" lon="5.90264">
        <ele>1934</ele>
        <time>2021-08-06T11:30:51Z</time>
      </trkpt>
      <trkpt lat="45.11583" lon="5.90264">
        <ele>1934</ele>
        <time>2021-08-06T11:30:53Z</time>
      </trkpt>
      <trkpt lat="45.11581" lon="5.90265">
        <ele>1933</ele>
        <time>2021-08-06T11:30:55Z</time>
      </trkpt>
      <trkpt lat="45.1158" lon="5.90265">
        <ele>1933</ele>
        <time>2021-08-06T11:30:57Z</time>
      </trkpt>
      <trkpt lat="45.11578" lon="5.90266">
        <ele>1933</ele>
        <time>2021-08-06T11:31:00Z</time>
      </trkpt>
      <trkpt lat="45.11577" lon="5.90266">
        <ele>1933</ele>
        <time>2021-08-06T11:31:02Z</time>
      </trkpt>
      <trkpt lat="45.11576" lon="5.90266">
        <ele>1933</ele>
        <time>2021-08-06T11:31:04Z</time>
      </trkpt>
      <trkpt lat="45.11575" lon="5.90266">
        <ele>1933</ele>
        <time>2021-08-06T11:31:06Z</time>
      </trkpt>
      <trkpt lat="45.11573" lon="5.90265">
        <ele>1933</ele>
        <time>2021-08-06T11:31:09Z</time>
      </trkpt>
      <trkpt lat="45.11572" lon="5.90265">
        <ele>1933</ele>
        <time>2021-08-06T11:31:12Z</time>
      </trkpt>
      <trkpt lat="45.11571" lon="5.90264">
        <ele>1933</ele>
        <time>2021-08-06T11:31:14Z</time>
      </trkpt>
      <trkpt lat="45.1157" lon="5.90264">
        <ele>1933</ele>
        <time>2021-08-06T11:31:16Z</time>
      </trkpt>
      <trkpt lat="45.11568" lon="5.90262">
        <ele>1933</ele>
        <time>2021-08-06T11:31:18Z</time>
      </trkpt>
      <trkpt lat="45.11567" lon="5.90262">
        <ele>1933</ele>
        <time>2021-08-06T11:31:21Z</time>
      </trkpt>
      <trkpt lat="45.11565" lon="5.90261">
        <ele>1933</ele>
        <time>2021-08-06T11:31:24Z</time>
      </trkpt>
      <trkpt lat="45.11564" lon="5.9026">
        <ele>1933</ele>
        <time>2021-08-06T11:31:26Z</time>
      </trkpt>
      <trkpt lat="45.11562" lon="5.90259">
        <ele>1933</ele>
        <time>2021-08-06T11:31:28Z</time>
      </trkpt>
      <trkpt lat="45.11561" lon="5.90258">
        <ele>1933</ele>
        <time>2021-08-06T11:31:31Z</time>
      </trkpt>
      <trkpt lat="45.1156" lon="5.90257">
        <ele>1933</ele>
        <time>2021-08-06T11:31:33Z</time>
      </trkpt>
      <trkpt lat="45.11558" lon="5.90256">
        <ele>1933</ele>
        <time>2021-08-06T11:31:35Z</time>
      </trkpt>
      <trkpt lat="45.11557" lon="5.90256">
        <ele>1933</ele>
        <time>2021-08-06T11:31:37Z</time>
      </trkpt>
      <trkpt lat="45.11555" lon="5.90256">
        <ele>1933</ele>
        <time>2021-08-06T11:31:39Z</time>
      </trkpt>
      <trkpt lat="45.11554" lon="5.90256">
        <ele>1933</ele>
        <time>2021-08-06T11:31:41Z</time>
      </trkpt>
      <trkpt lat="45.11555" lon="5.90256">
        <ele>1933</ele>
        <time>2021-08-06T11:32:14Z</time>
      </trkpt>
      <trkpt lat="45.11556" lon="5.90254">
        <ele>1933</ele>
        <time>2021-08-06T11:32:16Z</time>
      </trkpt>
      <trkpt lat="45.11556" lon="5.90252">
        <ele>1933</ele>
        <time>2021-08-06T11:32:18Z</time>
      </trkpt>
      <trkpt lat="45.11555" lon="5.90251">
        <ele>1933</ele>
        <time>2021-08-06T11:32:20Z</time>
      </trkpt>
      <trkpt lat="45.11553" lon="5.9025">
        <ele>1933</ele>
        <time>2021-08-06T11:32:22Z</time>
      </trkpt>
      <trkpt lat="45.11552" lon="5.9025">
        <ele>1933</ele>
        <time>2021-08-06T11:32:24Z</time>
      </trkpt>
      <trkpt lat="45.1155" lon="5.9025">
        <ele>1933</ele>
        <time>2021-08-06T11:32:26Z</time>
      </trkpt>
      <trkpt lat="45.11548" lon="5.90249">
        <ele>1933</ele>
        <time>2021-08-06T11:32:28Z</time>
      </trkpt>
      <trkpt lat="45.11546" lon="5.90249">
        <ele>1933</ele>
        <time>2021-08-06T11:32:30Z</time>
      </trkpt>
      <trkpt lat="45.11544" lon="5.90248">
        <ele>1933</ele>
        <time>2021-08-06T11:32:32Z</time>
      </trkpt>
      <trkpt lat="45.11543" lon="5.90248">
        <ele>1932</ele>
        <time>2021-08-06T11:32:34Z</time>
      </trkpt>
      <trkpt lat="45.11541" lon="5.90248">
        <ele>1932</ele>
        <time>2021-08-06T11:32:36Z</time>
      </trkpt>
      <trkpt lat="45.11539" lon="5.90249">
        <ele>1932</ele>
        <time>2021-08-06T11:32:38Z</time>
      </trkpt>
      <trkpt lat="45.11537" lon="5.90248">
        <ele>1932</ele>
        <time>2021-08-06T11:32:40Z</time>
      </trkpt>
      <trkpt lat="45.11535" lon="5.90249">
        <ele>1932</ele>
        <time>2021-08-06T11:32:42Z</time>
      </trkpt>
      <trkpt lat="45.11533" lon="5.90249">
        <ele>1932</ele>
        <time>2021-08-06T11:32:44Z</time>
      </trkpt>
      <trkpt lat="45.11531" lon="5.90249">
        <ele>1932</ele>
        <time>2021-08-06T11:32:46Z</time>
      </trkpt>
      <trkpt lat="45.1153" lon="5.90249">
        <ele>1932</ele>
        <time>2021-08-06T11:32:48Z</time>
      </trkpt>
      <trkpt lat="45.11528" lon="5.90249">
        <ele>1932</ele>
        <time>2021-08-06T11:32:50Z</time>
      </trkpt>
      <trkpt lat="45.11527" lon="5.90249">
        <ele>1931</ele>
        <time>2021-08-06T11:32:55Z</time>
      </trkpt>
      <trkpt lat="45.11526" lon="5.90248">
        <ele>1931</ele>
        <time>2021-08-06T11:33:01Z</time>
      </trkpt>
      <trkpt lat="45.11525" lon="5.90247">
        <ele>1931</ele>
        <time>2021-08-06T11:33:11Z</time>
      </trkpt>
      <trkpt lat="45.11523" lon="5.90245">
        <ele>1931</ele>
        <time>2021-08-06T11:33:14Z</time>
      </trkpt>
      <trkpt lat="45.11522" lon="5.90244">
        <ele>1931</ele>
        <time>2021-08-06T11:33:18Z</time>
      </trkpt>
      <trkpt lat="45.11521" lon="5.90244">
        <ele>1931</ele>
        <time>2021-08-06T11:33:21Z</time>
      </trkpt>
      <trkpt lat="45.1152" lon="5.90243">
        <ele>1931</ele>
        <time>2021-08-06T11:33:24Z</time>
      </trkpt>
      <trkpt lat="45.11518" lon="5.90243">
        <ele>1931</ele>
        <time>2021-08-06T11:33:27Z</time>
      </trkpt>
      <trkpt lat="45.11517" lon="5.90241">
        <ele>1931</ele>
        <time>2021-08-06T11:33:31Z</time>
      </trkpt>
      <trkpt lat="45.11517" lon="5.90239">
        <ele>1931</ele>
        <time>2021-08-06T11:33:33Z</time>
      </trkpt>
      <trkpt lat="45.11516" lon="5.90238">
        <ele>1930</ele>
        <time>2021-08-06T11:33:35Z</time>
      </trkpt>
      <trkpt lat="45.11515" lon="5.90237">
        <ele>1930</ele>
        <time>2021-08-06T11:33:38Z</time>
      </trkpt>
      <trkpt lat="45.11513" lon="5.90238">
        <ele>1929</ele>
        <time>2021-08-06T11:33:41Z</time>
      </trkpt>
      <trkpt lat="45.11512" lon="5.90238">
        <ele>1929</ele>
        <time>2021-08-06T11:33:44Z</time>
      </trkpt>
      <trkpt lat="45.11511" lon="5.9024">
        <ele>1929</ele>
        <time>2021-08-06T11:33:47Z</time>
      </trkpt>
      <trkpt lat="45.1151" lon="5.90242">
        <ele>1929</ele>
        <time>2021-08-06T11:33:50Z</time>
      </trkpt>
      <trkpt lat="45.11509" lon="5.90242">
        <ele>1929</ele>
        <time>2021-08-06T11:33:53Z</time>
      </trkpt>
      <trkpt lat="45.11507" lon="5.90243">
        <ele>1929</ele>
        <time>2021-08-06T11:33:55Z</time>
      </trkpt>
      <trkpt lat="45.11506" lon="5.90244">
        <ele>1929</ele>
        <time>2021-08-06T11:34:02Z</time>
      </trkpt>
      <trkpt lat="45.11505" lon="5.90245">
        <ele>1929</ele>
        <time>2021-08-06T11:34:07Z</time>
      </trkpt>
      <trkpt lat="45.11506" lon="5.90247">
        <ele>1929</ele>
        <time>2021-08-06T11:34:22Z</time>
      </trkpt>
      <trkpt lat="45.11507" lon="5.90246">
        <ele>1929</ele>
        <time>2021-08-06T11:34:26Z</time>
      </trkpt>
      <trkpt lat="45.11506" lon="5.90244">
        <ele>1928</ele>
        <time>2021-08-06T11:34:55Z</time>
      </trkpt>
      <trkpt lat="45.11506" lon="5.90243">
        <ele>1927</ele>
        <time>2021-08-06T11:35:01Z</time>
      </trkpt>
      <trkpt lat="45.11505" lon="5.90244">
        <ele>1925</ele>
        <time>2021-08-06T11:35:26Z</time>
      </trkpt>
      <trkpt lat="45.11506" lon="5.90243">
        <ele>1925</ele>
        <time>2021-08-06T11:35:47Z</time>
      </trkpt>
      <trkpt lat="45.11505" lon="5.90244">
        <ele>1925</ele>
        <time>2021-08-06T11:36:18Z</time>
      </trkpt>
      <trkpt lat="45.11506" lon="5.90243">
        <ele>1925</ele>
        <time>2021-08-06T11:37:22Z</time>
      </trkpt>
      <trkpt lat="45.11507" lon="5.90242">
        <ele>1926</ele>
        <time>2021-08-06T11:37:30Z</time>
      </trkpt>
      <trkpt lat="45.11506" lon="5.9024">
        <ele>1928</ele>
        <time>2021-08-06T11:37:42Z</time>
      </trkpt>
      <trkpt lat="45.11507" lon="5.90239">
        <ele>1930</ele>
        <time>2021-08-06T11:37:49Z</time>
      </trkpt>
      <trkpt lat="45.11508" lon="5.9024">
        <ele>1930</ele>
        <time>2021-08-06T11:37:52Z</time>
      </trkpt>
      <trkpt lat="45.11508" lon="5.90239">
        <ele>1929</ele>
        <time>2021-08-06T11:37:58Z</time>
      </trkpt>
      <trkpt lat="45.11509" lon="5.9024">
        <ele>1929</ele>
        <time>2021-08-06T11:38:02Z</time>
      </trkpt>
      <trkpt lat="45.1151" lon="5.90241">
        <ele>1926</ele>
        <time>2021-08-06T11:38:06Z</time>
      </trkpt>
      <trkpt lat="45.1151" lon="5.90243">
        <ele>1923</ele>
        <time>2021-08-06T11:38:12Z</time>
      </trkpt>
      <trkpt lat="45.1151" lon="5.90244">
        <ele>1923</ele>
        <time>2021-08-06T11:38:20Z</time>
      </trkpt>
      <trkpt lat="45.11509" lon="5.90243">
        <ele>1923</ele>
        <time>2021-08-06T11:39:04Z</time>
      </trkpt>
      <trkpt lat="45.11508" lon="5.90241">
        <ele>1923</ele>
        <time>2021-08-06T11:39:13Z</time>
      </trkpt>
      <trkpt lat="45.11509" lon="5.90243">
        <ele>1923</ele>
        <time>2021-08-06T11:39:39Z</time>
      </trkpt>
      <trkpt lat="45.11508" lon="5.90242">
        <ele>1922</ele>
        <time>2021-08-06T11:39:46Z</time>
      </trkpt>
      <trkpt lat="45.11507" lon="5.9024">
        <ele>1922</ele>
        <time>2021-08-06T11:39:49Z</time>
      </trkpt>
      <trkpt lat="45.11506" lon="5.90238">
        <ele>1924</ele>
        <time>2021-08-06T11:39:58Z</time>
      </trkpt>
      <trkpt lat="45.11505" lon="5.90236">
        <ele>1925</ele>
        <time>2021-08-06T11:40:00Z</time>
      </trkpt>
      <trkpt lat="45.11505" lon="5.90235">
        <ele>1927</ele>
        <time>2021-08-06T11:40:02Z</time>
      </trkpt>
      <trkpt lat="45.11504" lon="5.90233">
        <ele>1930</ele>
        <time>2021-08-06T11:40:05Z</time>
      </trkpt>
      <trkpt lat="45.11503" lon="5.90235">
        <ele>1933</ele>
        <time>2021-08-06T11:40:15Z</time>
      </trkpt>
      <trkpt lat="45.11503" lon="5.90237">
        <ele>1933</ele>
        <time>2021-08-06T11:40:17Z</time>
      </trkpt>
      <trkpt lat="45.11503" lon="5.90239">
        <ele>1934</ele>
        <time>2021-08-06T11:40:19Z</time>
      </trkpt>
      <trkpt lat="45.11502" lon="5.9024">
        <ele>1936</ele>
        <time>2021-08-06T11:40:35Z</time>
      </trkpt>
      <trkpt lat="45.11504" lon="5.90242">
        <ele>1936</ele>
        <time>2021-08-06T11:40:39Z</time>
      </trkpt>
      <trkpt lat="45.11504" lon="5.90244">
        <ele>1936</ele>
        <time>2021-08-06T11:40:42Z</time>
      </trkpt>
      <trkpt lat="45.11506" lon="5.90242">
        <ele>1934</ele>
        <time>2021-08-06T11:40:45Z</time>
      </trkpt>
      <trkpt lat="45.11506" lon="5.9024">
        <ele>1932</ele>
        <time>2021-08-06T11:40:55Z</time>
      </trkpt>
      <trkpt lat="45.11506" lon="5.90239">
        <ele>1932</ele>
        <time>2021-08-06T11:41:02Z</time>
      </trkpt>
      <trkpt lat="45.11507" lon="5.9024">
        <ele>1932</ele>
        <time>2021-08-06T11:41:05Z</time>
      </trkpt>
      <trkpt lat="45.11506" lon="5.90238">
        <ele>1931</ele>
        <time>2021-08-06T11:41:17Z</time>
      </trkpt>
      <trkpt lat="45.11507" lon="5.90236">
        <ele>1938</ele>
        <time>2021-08-06T11:41:36Z</time>
      </trkpt>
      <trkpt lat="45.11507" lon="5.90235">
        <ele>1938</ele>
        <time>2021-08-06T11:41:38Z</time>
      </trkpt>
      <trkpt lat="45.11507" lon="5.90233">
        <ele>1938</ele>
        <time>2021-08-06T11:41:46Z</time>
      </trkpt>
      <trkpt lat="45.11506" lon="5.90232">
        <ele>1938</ele>
        <time>2021-08-06T11:41:50Z</time>
      </trkpt>
      <trkpt lat="45.11505" lon="5.90233">
        <ele>1938</ele>
        <time>2021-08-06T11:41:57Z</time>
      </trkpt>
      <trkpt lat="45.11505" lon="5.90235">
        <ele>1938</ele>
        <time>2021-08-06T11:41:59Z</time>
      </trkpt>
      <trkpt lat="45.11506" lon="5.90236">
        <ele>1937</ele>
        <time>2021-08-06T11:42:01Z</time>
      </trkpt>
      <trkpt lat="45.11505" lon="5.90238">
        <ele>1932</ele>
        <time>2021-08-06T11:42:07Z</time>
      </trkpt>
      <trkpt lat="45.11506" lon="5.90239">
        <ele>1931</ele>
        <time>2021-08-06T11:42:11Z</time>
      </trkpt>
      <trkpt lat="45.11506" lon="5.90238">
        <ele>1926</ele>
        <time>2021-08-06T11:42:25Z</time>
      </trkpt>
      <trkpt lat="45.11504" lon="5.90236">
        <ele>1926</ele>
        <time>2021-08-06T11:42:29Z</time>
      </trkpt>
      <trkpt lat="45.11504" lon="5.90234">
        <ele>1930</ele>
        <time>2021-08-06T11:42:35Z</time>
      </trkpt>
      <trkpt lat="45.11504" lon="5.90236">
        <ele>1933</ele>
        <time>2021-08-06T11:42:49Z</time>
      </trkpt>
      <trkpt lat="45.11505" lon="5.90238">
        <ele>1933</ele>
        <time>2021-08-06T11:42:55Z</time>
      </trkpt>
      <trkpt lat="45.11505" lon="5.90239">
        <ele>1932</ele>
        <time>2021-08-06T11:42:57Z</time>
      </trkpt>
      <trkpt lat="45.11506" lon="5.90241">
        <ele>1929</ele>
        <time>2021-08-06T11:43:00Z</time>
      </trkpt>
      <trkpt lat="45.11507" lon="5.90243">
        <ele>1927</ele>
        <time>2021-08-06T11:43:02Z</time>
      </trkpt>
      <trkpt lat="45.11507" lon="5.90245">
        <ele>1925</ele>
        <time>2021-08-06T11:43:04Z</time>
      </trkpt>
      <trkpt lat="45.11508" lon="5.90244">
        <ele>1919</ele>
        <time>2021-08-06T11:43:12Z</time>
      </trkpt>
      <trkpt lat="45.11508" lon="5.90245">
        <ele>1919</ele>
        <time>2021-08-06T11:43:15Z</time>
      </trkpt>
      <trkpt lat="45.11508" lon="5.90247">
        <ele>1917</ele>
        <time>2021-08-06T11:43:21Z</time>
      </trkpt>
      <trkpt lat="45.11509" lon="5.90247">
        <ele>1917</ele>
        <time>2021-08-06T11:43:29Z</time>
      </trkpt>
      <trkpt lat="45.11508" lon="5.90247">
        <ele>1916</ele>
        <time>2021-08-06T11:43:39Z</time>
      </trkpt>
      <trkpt lat="45.11509" lon="5.90245">
        <ele>1916</ele>
        <time>2021-08-06T11:43:48Z</time>
      </trkpt>
      <trkpt lat="45.1151" lon="5.90246">
        <ele>1916</ele>
        <time>2021-08-06T11:44:03Z</time>
      </trkpt>
      <trkpt lat="45.11509" lon="5.90245">
        <ele>1917</ele>
        <time>2021-08-06T11:44:15Z</time>
      </trkpt>
      <trkpt lat="45.11509" lon="5.90247">
        <ele>1921</ele>
        <time>2021-08-06T11:44:22Z</time>
      </trkpt>
      <trkpt lat="45.11509" lon="5.90245">
        <ele>1925</ele>
        <time>2021-08-06T11:44:28Z</time>
      </trkpt>
      <trkpt lat="45.11509" lon="5.90247">
        <ele>1925</ele>
        <time>2021-08-06T11:44:30Z</time>
      </trkpt>
      <trkpt lat="45.11509" lon="5.90244">
        <ele>1925</ele>
        <time>2021-08-06T11:44:32Z</time>
      </trkpt>
      <trkpt lat="45.11509" lon="5.90242">
        <ele>1926</ele>
        <time>2021-08-06T11:44:35Z</time>
      </trkpt>
      <trkpt lat="45.11508" lon="5.9024">
        <ele>1927</ele>
        <time>2021-08-06T11:44:38Z</time>
      </trkpt>
      <trkpt lat="45.11507" lon="5.90241">
        <ele>1927</ele>
        <time>2021-08-06T11:44:41Z</time>
      </trkpt>
      <trkpt lat="45.11507" lon="5.90242">
        <ele>1928</ele>
        <time>2021-08-06T11:44:51Z</time>
      </trkpt>
      <trkpt lat="45.11507" lon="5.90241">
        <ele>1928</ele>
        <time>2021-08-06T11:45:15Z</time>
      </trkpt>
      <trkpt lat="45.11506" lon="5.90242">
        <ele>1928</ele>
        <time>2021-08-06T11:45:35Z</time>
      </trkpt>
      <trkpt lat="45.11505" lon="5.90242">
        <ele>1928</ele>
        <time>2021-08-06T11:45:41Z</time>
      </trkpt>
      <trkpt lat="45.11504" lon="5.9024">
        <ele>1929</ele>
        <time>2021-08-06T11:45:43Z</time>
      </trkpt>
      <trkpt lat="45.11503" lon="5.90239">
        <ele>1930</ele>
        <time>2021-08-06T11:45:54Z</time>
      </trkpt>
      <trkpt lat="45.11503" lon="5.90237">
        <ele>1930</ele>
        <time>2021-08-06T11:46:03Z</time>
      </trkpt>
      <trkpt lat="45.11503" lon="5.90239">
        <ele>1930</ele>
        <time>2021-08-06T11:46:21Z</time>
      </trkpt>
      <trkpt lat="45.11504" lon="5.9024">
        <ele>1930</ele>
        <time>2021-08-06T11:46:52Z</time>
      </trkpt>
      <trkpt lat="45.11504" lon="5.90242">
        <ele>1930</ele>
        <time>2021-08-06T11:47:24Z</time>
      </trkpt>
      <trkpt lat="45.11505" lon="5.90243">
        <ele>1930</ele>
        <time>2021-08-06T11:47:32Z</time>
      </trkpt>
      <trkpt lat="45.11506" lon="5.90245">
        <ele>1930</ele>
        <time>2021-08-06T11:47:35Z</time>
      </trkpt>
      <trkpt lat="45.11504" lon="5.90246">
        <ele>1929</ele>
        <time>2021-08-06T11:47:49Z</time>
      </trkpt>
      <trkpt lat="45.11505" lon="5.90247">
        <ele>1929</ele>
        <time>2021-08-06T11:47:55Z</time>
      </trkpt>
      <trkpt lat="45.11507" lon="5.90247">
        <ele>1925</ele>
        <time>2021-08-06T11:48:02Z</time>
      </trkpt>
      <trkpt lat="45.11508" lon="5.90248">
        <ele>1922</ele>
        <time>2021-08-06T11:48:05Z</time>
      </trkpt>
      <trkpt lat="45.11509" lon="5.90248">
        <ele>1919</ele>
        <time>2021-08-06T11:48:09Z</time>
      </trkpt>
      <trkpt lat="45.11509" lon="5.90247">
        <ele>1917</ele>
        <time>2021-08-06T11:48:13Z</time>
      </trkpt>
      <trkpt lat="45.11509" lon="5.90245">
        <ele>1917</ele>
        <time>2021-08-06T11:48:15Z</time>
      </trkpt>
      <trkpt lat="45.11508" lon="5.90242">
        <ele>1917</ele>
        <time>2021-08-06T11:48:19Z</time>
      </trkpt>
      <trkpt lat="45.11507" lon="5.90241">
        <ele>1922</ele>
        <time>2021-08-06T11:48:29Z</time>
      </trkpt>
      <trkpt lat="45.11507" lon="5.90239">
        <ele>1924</ele>
        <time>2021-08-06T11:48:31Z</time>
      </trkpt>
      <trkpt lat="45.11506" lon="5.90238">
        <ele>1924</ele>
        <time>2021-08-06T11:48:33Z</time>
      </trkpt>
      <trkpt lat="45.11506" lon="5.90236">
        <ele>1925</ele>
        <time>2021-08-06T11:48:37Z</time>
      </trkpt>
      <trkpt lat="45.11507" lon="5.90237">
        <ele>1927</ele>
        <time>2021-08-06T11:48:45Z</time>
      </trkpt>
      <trkpt lat="45.11506" lon="5.90235">
        <ele>1932</ele>
        <time>2021-08-06T11:48:55Z</time>
      </trkpt>
      <trkpt lat="45.11506" lon="5.90237">
        <ele>1936</ele>
        <time>2021-08-06T11:49:05Z</time>
      </trkpt>
      <trkpt lat="45.11507" lon="5.90239">
        <ele>1936</ele>
        <time>2021-08-06T11:49:05Z</time>
      </trkpt>
      <trkpt lat="45.11509" lon="5.9024">
        <ele>1936</ele>
        <time>2021-08-06T11:49:08Z</time>
      </trkpt>
      <trkpt lat="45.11507" lon="5.90239">
        <ele>1936</ele>
        <time>2021-08-06T11:49:20Z</time>
      </trkpt>
      <trkpt lat="45.11508" lon="5.90241">
        <ele>1936</ele>
        <time>2021-08-06T11:49:24Z</time>
      </trkpt>
      <trkpt lat="45.11507" lon="5.9024">
        <ele>1933</ele>
        <time>2021-08-06T11:49:33Z</time>
      </trkpt>
      <trkpt lat="45.11507" lon="5.90242">
        <ele>1932</ele>
        <time>2021-08-06T11:49:43Z</time>
      </trkpt>
      <trkpt lat="45.11508" lon="5.90244">
        <ele>1930</ele>
        <time>2021-08-06T11:49:46Z</time>
      </trkpt>
      <trkpt lat="45.11507" lon="5.90244">
        <ele>1926</ele>
        <time>2021-08-06T11:50:10Z</time>
      </trkpt>
      <trkpt lat="45.11505" lon="5.90244">
        <ele>1926</ele>
        <time>2021-08-06T11:50:13Z</time>
      </trkpt>
      <trkpt lat="45.11504" lon="5.90244">
        <ele>1926</ele>
        <time>2021-08-06T11:50:20Z</time>
      </trkpt>
      <trkpt lat="45.11503" lon="5.90246">
        <ele>1927</ele>
        <time>2021-08-06T11:50:27Z</time>
      </trkpt>
      <trkpt lat="45.11504" lon="5.90245">
        <ele>1928</ele>
        <time>2021-08-06T11:51:15Z</time>
      </trkpt>
      <trkpt lat="45.11506" lon="5.90245">
        <ele>1928</ele>
        <time>2021-08-06T11:51:45Z</time>
      </trkpt>
      <trkpt lat="45.11506" lon="5.90243">
        <ele>1928</ele>
        <time>2021-08-06T11:52:15Z</time>
      </trkpt>
      <trkpt lat="45.11507" lon="5.90241">
        <ele>1921</ele>
        <time>2021-08-06T11:52:22Z</time>
      </trkpt>
      <trkpt lat="45.11508" lon="5.90241">
        <ele>1917</ele>
        <time>2021-08-06T11:52:35Z</time>
      </trkpt>
      <trkpt lat="45.11508" lon="5.90243">
        <ele>1918</ele>
        <time>2021-08-06T11:52:56Z</time>
      </trkpt>
      <trkpt lat="45.11509" lon="5.90244">
        <ele>1918</ele>
        <time>2021-08-06T11:53:11Z</time>
      </trkpt>
      <trkpt lat="45.1151" lon="5.90246">
        <ele>1918</ele>
        <time>2021-08-06T11:53:13Z</time>
      </trkpt>
      <trkpt lat="45.11511" lon="5.90248">
        <ele>1917</ele>
        <time>2021-08-06T11:53:18Z</time>
      </trkpt>
      <trkpt lat="45.11511" lon="5.90246">
        <ele>1913</ele>
        <time>2021-08-06T11:53:39Z</time>
      </trkpt>
      <trkpt lat="45.11509" lon="5.90244">
        <ele>1914</ele>
        <time>2021-08-06T11:53:45Z</time>
      </trkpt>
      <trkpt lat="45.11509" lon="5.90243">
        <ele>1917</ele>
        <time>2021-08-06T11:53:54Z</time>
      </trkpt>
      <trkpt lat="45.11508" lon="5.90243">
        <ele>1919</ele>
        <time>2021-08-06T11:54:03Z</time>
      </trkpt>
      <trkpt lat="45.11507" lon="5.90244">
        <ele>1920</ele>
        <time>2021-08-06T11:54:44Z</time>
      </trkpt>
      <trkpt lat="45.11506" lon="5.90244">
        <ele>1921</ele>
        <time>2021-08-06T11:54:54Z</time>
      </trkpt>
      <trkpt lat="45.11504" lon="5.90244">
        <ele>1921</ele>
        <time>2021-08-06T11:55:10Z</time>
      </trkpt>
      <trkpt lat="45.11505" lon="5.90246">
        <ele>1922</ele>
        <time>2021-08-06T11:56:36Z</time>
      </trkpt>
      <trkpt lat="45.11507" lon="5.90247">
        <ele>1922</ele>
        <time>2021-08-06T11:56:53Z</time>
      </trkpt>
      <trkpt lat="45.11508" lon="5.90247">
        <ele>1925</ele>
        <time>2021-08-06T11:57:12Z</time>
      </trkpt>
      <trkpt lat="45.11508" lon="5.90246">
        <ele>1925</ele>
        <time>2021-08-06T11:57:18Z</time>
      </trkpt>
      <trkpt lat="45.11508" lon="5.90244">
        <ele>1925</ele>
        <time>2021-08-06T11:57:20Z</time>
      </trkpt>
      <trkpt lat="45.11507" lon="5.90243">
        <ele>1925</ele>
        <time>2021-08-06T11:57:33Z</time>
      </trkpt>
      <trkpt lat="45.11507" lon="5.90241">
        <ele>1925</ele>
        <time>2021-08-06T11:57:38Z</time>
      </trkpt>
      <trkpt lat="45.11507" lon="5.9024">
        <ele>1925</ele>
        <time>2021-08-06T11:57:43Z</time>
      </trkpt>
      <trkpt lat="45.11509" lon="5.90239">
        <ele>1925</ele>
        <time>2021-08-06T11:57:46Z</time>
      </trkpt>
      <trkpt lat="45.11509" lon="5.90237">
        <ele>1925</ele>
        <time>2021-08-06T11:57:59Z</time>
      </trkpt>
      <trkpt lat="45.11508" lon="5.90237">
        <ele>1925</ele>
        <time>2021-08-06T11:58:04Z</time>
      </trkpt>
      <trkpt lat="45.11506" lon="5.90238">
        <ele>1925</ele>
        <time>2021-08-06T11:58:06Z</time>
      </trkpt>
      <trkpt lat="45.11505" lon="5.90239">
        <ele>1925</ele>
        <time>2021-08-06T11:58:09Z</time>
      </trkpt>
      <trkpt lat="45.11504" lon="5.9024">
        <ele>1925</ele>
        <time>2021-08-06T11:58:15Z</time>
      </trkpt>
      <trkpt lat="45.11503" lon="5.9024">
        <ele>1925</ele>
        <time>2021-08-06T11:58:25Z</time>
      </trkpt>
      <trkpt lat="45.11501" lon="5.90241">
        <ele>1925</ele>
        <time>2021-08-06T11:58:30Z</time>
      </trkpt>
      <trkpt lat="45.115" lon="5.90243">
        <ele>1925</ele>
        <time>2021-08-06T11:58:36Z</time>
      </trkpt>
      <trkpt lat="45.11501" lon="5.90243">
        <ele>1925</ele>
        <time>2021-08-06T11:58:48Z</time>
      </trkpt>
      <trkpt lat="45.11503" lon="5.90244">
        <ele>1925</ele>
        <time>2021-08-06T11:58:56Z</time>
      </trkpt>
      <trkpt lat="45.11504" lon="5.90244">
        <ele>1925</ele>
        <time>2021-08-06T11:59:13Z</time>
      </trkpt>
      <trkpt lat="45.11504" lon="5.90245">
        <ele>1925</ele>
        <time>2021-08-06T11:59:17Z</time>
      </trkpt>
      <trkpt lat="45.11506" lon="5.90245">
        <ele>1925</ele>
        <time>2021-08-06T11:59:24Z</time>
      </trkpt>
      <trkpt lat="45.11507" lon="5.90243">
        <ele>1924</ele>
        <time>2021-08-06T11:59:32Z</time>
      </trkpt>
      <trkpt lat="45.11508" lon="5.90242">
        <ele>1922</ele>
        <time>2021-08-06T11:59:39Z</time>
      </trkpt>
      <trkpt lat="45.11509" lon="5.90241">
        <ele>1920</ele>
        <time>2021-08-06T11:59:46Z</time>
      </trkpt>
      <trkpt lat="45.1151" lon="5.9024">
        <ele>1919</ele>
        <time>2021-08-06T11:59:53Z</time>
      </trkpt>
      <trkpt lat="45.1151" lon="5.90239">
        <ele>1918</ele>
        <time>2021-08-06T11:59:57Z</time>
      </trkpt>
      <trkpt lat="45.11509" lon="5.90237">
        <ele>1918</ele>
        <time>2021-08-06T12:00:14Z</time>
      </trkpt>
      <trkpt lat="45.11508" lon="5.90236">
        <ele>1918</ele>
        <time>2021-08-06T12:00:27Z</time>
      </trkpt>
      <trkpt lat="45.11507" lon="5.90234">
        <ele>1918</ele>
        <time>2021-08-06T12:00:30Z</time>
      </trkpt>
      <trkpt lat="45.11507" lon="5.90236">
        <ele>1925</ele>
        <time>2021-08-06T12:00:44Z</time>
      </trkpt>
      <trkpt lat="45.11508" lon="5.90238">
        <ele>1925</ele>
        <time>2021-08-06T12:00:47Z</time>
      </trkpt>
      <trkpt lat="45.11509" lon="5.90239">
        <ele>1923</ele>
        <time>2021-08-06T12:00:51Z</time>
      </trkpt>
      <trkpt lat="45.11509" lon="5.90241">
        <ele>1922</ele>
        <time>2021-08-06T12:01:31Z</time>
      </trkpt>
      <trkpt lat="45.11509" lon="5.90242">
        <ele>1922</ele>
        <time>2021-08-06T12:01:59Z</time>
      </trkpt>
      <trkpt lat="45.11509" lon="5.90244">
        <ele>1916</ele>
        <time>2021-08-06T12:02:55Z</time>
      </trkpt>
      <trkpt lat="45.11508" lon="5.90244">
        <ele>1916</ele>
        <time>2021-08-06T12:03:13Z</time>
      </trkpt>
      <trkpt lat="45.11507" lon="5.90243">
        <ele>1920</ele>
        <time>2021-08-06T12:03:41Z</time>
      </trkpt>
      <trkpt lat="45.11506" lon="5.90242">
        <ele>1923</ele>
        <time>2021-08-06T12:04:01Z</time>
      </trkpt>
      <trkpt lat="45.11507" lon="5.90243">
        <ele>1923</ele>
        <time>2021-08-06T12:04:56Z</time>
      </trkpt>
      <trkpt lat="45.11507" lon="5.90244">
        <ele>1923</ele>
        <time>2021-08-06T12:05:20Z</time>
      </trkpt>
      <trkpt lat="45.11506" lon="5.90244">
        <ele>1923</ele>
        <time>2021-08-06T12:06:13Z</time>
      </trkpt>
      <trkpt lat="45.11507" lon="5.90244">
        <ele>1924</ele>
        <time>2021-08-06T12:06:27Z</time>
      </trkpt>
      <trkpt lat="45.11507" lon="5.90242">
        <ele>1924</ele>
        <time>2021-08-06T12:06:31Z</time>
      </trkpt>
      <trkpt lat="45.11507" lon="5.90239">
        <ele>1924</ele>
        <time>2021-08-06T12:06:34Z</time>
      </trkpt>
      <trkpt lat="45.11506" lon="5.90238">
        <ele>1924</ele>
        <time>2021-08-06T12:06:37Z</time>
      </trkpt>
      <trkpt lat="45.11505" lon="5.90236">
        <ele>1924</ele>
        <time>2021-08-06T12:06:40Z</time>
      </trkpt>
      <trkpt lat="45.11505" lon="5.90238">
        <ele>1930</ele>
        <time>2021-08-06T12:06:59Z</time>
      </trkpt>
      <trkpt lat="45.11505" lon="5.90239">
        <ele>1930</ele>
        <time>2021-08-06T12:07:03Z</time>
      </trkpt>
      <trkpt lat="45.11506" lon="5.90241">
        <ele>1930</ele>
        <time>2021-08-06T12:07:09Z</time>
      </trkpt>
      <trkpt lat="45.11506" lon="5.90242">
        <ele>1930</ele>
        <time>2021-08-06T12:07:23Z</time>
      </trkpt>
      <trkpt lat="45.11507" lon="5.90244">
        <ele>1930</ele>
        <time>2021-08-06T12:07:31Z</time>
      </trkpt>
      <trkpt lat="45.11506" lon="5.90243">
        <ele>1930</ele>
        <time>2021-08-06T12:07:42Z</time>
      </trkpt>
      <trkpt lat="45.11504" lon="5.90242">
        <ele>1931</ele>
        <time>2021-08-06T12:07:59Z</time>
      </trkpt>
      <trkpt lat="45.11505" lon="5.90243">
        <ele>1932</ele>
        <time>2021-08-06T12:08:05Z</time>
      </trkpt>
      <trkpt lat="45.11505" lon="5.90245">
        <ele>1932</ele>
        <time>2021-08-06T12:08:13Z</time>
      </trkpt>
      <trkpt lat="45.11505" lon="5.90243">
        <ele>1932</ele>
        <time>2021-08-06T12:08:22Z</time>
      </trkpt>
      <trkpt lat="45.11506" lon="5.90243">
        <ele>1930</ele>
        <time>2021-08-06T12:08:53Z</time>
      </trkpt>
      <trkpt lat="45.11507" lon="5.90243">
        <ele>1930</ele>
        <time>2021-08-06T12:09:05Z</time>
      </trkpt>
      <trkpt lat="45.11508" lon="5.90241">
        <ele>1927</ele>
        <time>2021-08-06T12:09:23Z</time>
      </trkpt>
      <trkpt lat="45.11507" lon="5.90241">
        <ele>1927</ele>
        <time>2021-08-06T12:09:25Z</time>
      </trkpt>
      <trkpt lat="45.11507" lon="5.90242">
        <ele>1927</ele>
        <time>2021-08-06T12:09:54Z</time>
      </trkpt>
      <trkpt lat="45.11507" lon="5.90244">
        <ele>1927</ele>
        <time>2021-08-06T12:10:25Z</time>
      </trkpt>
      <trkpt lat="45.11507" lon="5.90245">
        <ele>1927</ele>
        <time>2021-08-06T12:11:04Z</time>
      </trkpt>
      <trkpt lat="45.11506" lon="5.90247">
        <ele>1927</ele>
        <time>2021-08-06T12:11:34Z</time>
      </trkpt>
      <trkpt lat="45.11506" lon="5.90245">
        <ele>1928</ele>
        <time>2021-08-06T12:11:45Z</time>
      </trkpt>
      <trkpt lat="45.11508" lon="5.90244">
        <ele>1929</ele>
        <time>2021-08-06T12:11:53Z</time>
      </trkpt>
      <trkpt lat="45.11509" lon="5.90242">
        <ele>1929</ele>
        <time>2021-08-06T12:11:59Z</time>
      </trkpt>
      <trkpt lat="45.11507" lon="5.90244">
        <ele>1924</ele>
        <time>2021-08-06T12:13:15Z</time>
      </trkpt>
      <trkpt lat="45.11506" lon="5.90242">
        <ele>1924</ele>
        <time>2021-08-06T12:13:23Z</time>
      </trkpt>
      <trkpt lat="45.11505" lon="5.90241">
        <ele>1927</ele>
        <time>2021-08-06T12:13:39Z</time>
      </trkpt>
      <trkpt lat="45.11504" lon="5.90241">
        <ele>1927</ele>
        <time>2021-08-06T12:14:45Z</time>
      </trkpt>
      <trkpt lat="45.11504" lon="5.90243">
        <ele>1927</ele>
        <time>2021-08-06T12:14:50Z</time>
      </trkpt>
      <trkpt lat="45.11505" lon="5.90244">
        <ele>1927</ele>
        <time>2021-08-06T12:14:55Z</time>
      </trkpt>
      <trkpt lat="45.11506" lon="5.90243">
        <ele>1925</ele>
        <time>2021-08-06T12:15:52Z</time>
      </trkpt>
      <trkpt lat="45.11507" lon="5.90243">
        <ele>1921</ele>
        <time>2021-08-06T12:16:43Z</time>
      </trkpt>
      <trkpt lat="45.11508" lon="5.90245">
        <ele>1919</ele>
        <time>2021-08-06T12:16:53Z</time>
      </trkpt>
      <trkpt lat="45.11507" lon="5.90243">
        <ele>1919</ele>
        <time>2021-08-06T12:16:59Z</time>
      </trkpt>
      <trkpt lat="45.11508" lon="5.90245">
        <ele>1919</ele>
        <time>2021-08-06T12:17:02Z</time>
      </trkpt>
      <trkpt lat="45.11507" lon="5.90244">
        <ele>1916</ele>
        <time>2021-08-06T12:17:24Z</time>
      </trkpt>
      <trkpt lat="45.11506" lon="5.90243">
        <ele>1916</ele>
        <time>2021-08-06T12:17:33Z</time>
      </trkpt>
      <trkpt lat="45.11505" lon="5.90242">
        <ele>1916</ele>
        <time>2021-08-06T12:17:51Z</time>
      </trkpt>
      <trkpt lat="45.11504" lon="5.90241">
        <ele>1918</ele>
        <time>2021-08-06T12:18:05Z</time>
      </trkpt>
      <trkpt lat="45.11505" lon="5.90243">
        <ele>1920</ele>
        <time>2021-08-06T12:18:18Z</time>
      </trkpt>
      <trkpt lat="45.11506" lon="5.90244">
        <ele>1920</ele>
        <time>2021-08-06T12:18:23Z</time>
      </trkpt>
      <trkpt lat="45.11507" lon="5.90245">
        <ele>1920</ele>
        <time>2021-08-06T12:18:35Z</time>
      </trkpt>
      <trkpt lat="45.11506" lon="5.90247">
        <ele>1920</ele>
        <time>2021-08-06T12:18:45Z</time>
      </trkpt>
      <trkpt lat="45.11505" lon="5.90248">
        <ele>1920</ele>
        <time>2021-08-06T12:18:51Z</time>
      </trkpt>
      <trkpt lat="45.11504" lon="5.90246">
        <ele>1920</ele>
        <time>2021-08-06T12:19:03Z</time>
      </trkpt>
      <trkpt lat="45.11504" lon="5.90245">
        <ele>1923</ele>
        <time>2021-08-06T12:20:31Z</time>
      </trkpt>
      <trkpt lat="45.11505" lon="5.90244">
        <ele>1923</ele>
        <time>2021-08-06T12:20:58Z</time>
      </trkpt>
      <trkpt lat="45.11507" lon="5.90244">
        <ele>1923</ele>
        <time>2021-08-06T12:21:01Z</time>
      </trkpt>
      <trkpt lat="45.11507" lon="5.90243">
        <ele>1923</ele>
        <time>2021-08-06T12:21:13Z</time>
      </trkpt>
      <trkpt lat="45.11507" lon="5.90241">
        <ele>1923</ele>
        <time>2021-08-06T12:21:18Z</time>
      </trkpt>
      <trkpt lat="45.11506" lon="5.90239">
        <ele>1924</ele>
        <time>2021-08-06T12:21:25Z</time>
      </trkpt>
      <trkpt lat="45.11508" lon="5.90241">
        <ele>1924</ele>
        <time>2021-08-06T12:21:31Z</time>
      </trkpt>
      <trkpt lat="45.11509" lon="5.90241">
        <ele>1924</ele>
        <time>2021-08-06T12:21:35Z</time>
      </trkpt>
      <trkpt lat="45.1151" lon="5.90242">
        <ele>1921</ele>
        <time>2021-08-06T12:21:38Z</time>
      </trkpt>
      <trkpt lat="45.1151" lon="5.9024">
        <ele>1913</ele>
        <time>2021-08-06T12:21:57Z</time>
      </trkpt>
      <trkpt lat="45.11509" lon="5.90239">
        <ele>1913</ele>
        <time>2021-08-06T12:22:11Z</time>
      </trkpt>
      <trkpt lat="45.11508" lon="5.90239">
        <ele>1915</ele>
        <time>2021-08-06T12:22:29Z</time>
      </trkpt>
      <trkpt lat="45.11507" lon="5.90239">
        <ele>1918</ele>
        <time>2021-08-06T12:22:42Z</time>
      </trkpt>
      <trkpt lat="45.11506" lon="5.90239">
        <ele>1921</ele>
        <time>2021-08-06T12:23:03Z</time>
      </trkpt>
      <trkpt lat="45.11506" lon="5.9024">
        <ele>1922</ele>
        <time>2021-08-06T12:23:26Z</time>
      </trkpt>
      <trkpt lat="45.11506" lon="5.90242">
        <ele>1922</ele>
        <time>2021-08-06T12:24:09Z</time>
      </trkpt>
      <trkpt lat="45.11505" lon="5.9024">
        <ele>1923</ele>
        <time>2021-08-06T12:25:42Z</time>
      </trkpt>
      <trkpt lat="45.11506" lon="5.90241">
        <ele>1923</ele>
        <time>2021-08-06T12:25:46Z</time>
      </trkpt>
      <trkpt lat="45.11505" lon="5.9024">
        <ele>1922</ele>
        <time>2021-08-06T12:26:04Z</time>
      </trkpt>
      <trkpt lat="45.11503" lon="5.90239">
        <ele>1922</ele>
        <time>2021-08-06T12:26:07Z</time>
      </trkpt>
      <trkpt lat="45.11502" lon="5.90238">
        <ele>1924</ele>
        <time>2021-08-06T12:26:09Z</time>
      </trkpt>
      <trkpt lat="45.11501" lon="5.90238">
        <ele>1927</ele>
        <time>2021-08-06T12:26:12Z</time>
      </trkpt>
      <trkpt lat="45.115" lon="5.90237">
        <ele>1936</ele>
        <time>2021-08-06T12:26:21Z</time>
      </trkpt>
      <trkpt lat="45.11501" lon="5.90238">
        <ele>1937</ele>
        <time>2021-08-06T12:26:31Z</time>
      </trkpt>
      <trkpt lat="45.11502" lon="5.90239">
        <ele>1937</ele>
        <time>2021-08-06T12:26:43Z</time>
      </trkpt>
      <trkpt lat="45.11503" lon="5.90238">
        <ele>1937</ele>
        <time>2021-08-06T12:26:46Z</time>
      </trkpt>
      <trkpt lat="45.11502" lon="5.90237">
        <ele>1936</ele>
        <time>2021-08-06T12:26:50Z</time>
      </trkpt>
      <trkpt lat="45.11501" lon="5.90237">
        <ele>1936</ele>
        <time>2021-08-06T12:26:54Z</time>
      </trkpt>
      <trkpt lat="45.11502" lon="5.90239">
        <ele>1936</ele>
        <time>2021-08-06T12:26:58Z</time>
      </trkpt>
      <trkpt lat="45.11503" lon="5.9024">
        <ele>1932</ele>
        <time>2021-08-06T12:27:02Z</time>
      </trkpt>
      <trkpt lat="45.11504" lon="5.90242">
        <ele>1927</ele>
        <time>2021-08-06T12:27:09Z</time>
      </trkpt>
      <trkpt lat="45.11504" lon="5.90244">
        <ele>1927</ele>
        <time>2021-08-06T12:27:13Z</time>
      </trkpt>
      <trkpt lat="45.11504" lon="5.90246">
        <ele>1927</ele>
        <time>2021-08-06T12:27:15Z</time>
      </trkpt>
      <trkpt lat="45.11504" lon="5.90248">
        <ele>1927</ele>
        <time>2021-08-06T12:27:17Z</time>
      </trkpt>
      <trkpt lat="45.11504" lon="5.90249">
        <ele>1927</ele>
        <time>2021-08-06T12:27:20Z</time>
      </trkpt>
      <trkpt lat="45.11504" lon="5.90248">
        <ele>1928</ele>
        <time>2021-08-06T12:27:26Z</time>
      </trkpt>
      <trkpt lat="45.11504" lon="5.90246">
        <ele>1928</ele>
        <time>2021-08-06T12:27:30Z</time>
      </trkpt>
      <trkpt lat="45.11504" lon="5.90248">
        <ele>1928</ele>
        <time>2021-08-06T12:27:33Z</time>
      </trkpt>
      <trkpt lat="45.11504" lon="5.90245">
        <ele>1930</ele>
        <time>2021-08-06T12:27:37Z</time>
      </trkpt>
      <trkpt lat="45.11504" lon="5.90244">
        <ele>1928</ele>
        <time>2021-08-06T12:27:50Z</time>
      </trkpt>
      <trkpt lat="45.11504" lon="5.90246">
        <ele>1925</ele>
        <time>2021-08-06T12:27:56Z</time>
      </trkpt>
      <trkpt lat="45.11505" lon="5.90248">
        <ele>1925</ele>
        <time>2021-08-06T12:28:00Z</time>
      </trkpt>
      <trkpt lat="45.11506" lon="5.90249">
        <ele>1928</ele>
        <time>2021-08-06T12:28:03Z</time>
      </trkpt>
      <trkpt lat="45.11506" lon="5.90251">
        <ele>1930</ele>
        <time>2021-08-06T12:28:12Z</time>
      </trkpt>
      <trkpt lat="45.11504" lon="5.90252">
        <ele>1930</ele>
        <time>2021-08-06T12:28:16Z</time>
      </trkpt>
      <trkpt lat="45.11504" lon="5.90251">
        <ele>1930</ele>
        <time>2021-08-06T12:28:24Z</time>
      </trkpt>
      <trkpt lat="45.11505" lon="5.90249">
        <ele>1930</ele>
        <time>2021-08-06T12:28:29Z</time>
      </trkpt>
      <trkpt lat="45.11506" lon="5.90248">
        <ele>1930</ele>
        <time>2021-08-06T12:28:36Z</time>
      </trkpt>
      <trkpt lat="45.11506" lon="5.90246">
        <ele>1929</ele>
        <time>2021-08-06T12:28:43Z</time>
      </trkpt>
      <trkpt lat="45.11506" lon="5.90245">
        <ele>1926</ele>
        <time>2021-08-06T12:28:50Z</time>
      </trkpt>
      <trkpt lat="45.11506" lon="5.90243">
        <ele>1925</ele>
        <time>2021-08-06T12:28:55Z</time>
      </trkpt>
      <trkpt lat="45.11508" lon="5.90241">
        <ele>1925</ele>
        <time>2021-08-06T12:29:04Z</time>
      </trkpt>
      <trkpt lat="45.1151" lon="5.90239">
        <ele>1925</ele>
        <time>2021-08-06T12:29:06Z</time>
      </trkpt>
      <trkpt lat="45.11511" lon="5.90239">
        <ele>1926</ele>
        <time>2021-08-06T12:29:08Z</time>
      </trkpt>
      <trkpt lat="45.11512" lon="5.90239">
        <ele>1926</ele>
        <time>2021-08-06T12:29:10Z</time>
      </trkpt>
      <trkpt lat="45.11514" lon="5.90238">
        <ele>1927</ele>
        <time>2021-08-06T12:29:13Z</time>
      </trkpt>
      <trkpt lat="45.11515" lon="5.90238">
        <ele>1927</ele>
        <time>2021-08-06T12:29:16Z</time>
      </trkpt>
      <trkpt lat="45.11516" lon="5.90238">
        <ele>1927</ele>
        <time>2021-08-06T12:29:19Z</time>
      </trkpt>
      <trkpt lat="45.11515" lon="5.90237">
        <ele>1925</ele>
        <time>2021-08-06T12:29:30Z</time>
      </trkpt>
      <trkpt lat="45.11514" lon="5.90238">
        <ele>1923</ele>
        <time>2021-08-06T12:29:39Z</time>
      </trkpt>
      <trkpt lat="45.11512" lon="5.90239">
        <ele>1922</ele>
        <time>2021-08-06T12:29:44Z</time>
      </trkpt>
      <trkpt lat="45.1151" lon="5.9024">
        <ele>1921</ele>
        <time>2021-08-06T12:29:47Z</time>
      </trkpt>
      <trkpt lat="45.11509" lon="5.90241">
        <ele>1921</ele>
        <time>2021-08-06T12:29:51Z</time>
      </trkpt>
      <trkpt lat="45.11508" lon="5.90242">
        <ele>1921</ele>
        <time>2021-08-06T12:29:58Z</time>
      </trkpt>
      <trkpt lat="45.11508" lon="5.90243">
        <ele>1921</ele>
        <time>2021-08-06T12:30:08Z</time>
      </trkpt>
      <trkpt lat="45.11508" lon="5.90245">
        <ele>1921</ele>
        <time>2021-08-06T12:30:11Z</time>
      </trkpt>
      <trkpt lat="45.11509" lon="5.90247">
        <ele>1921</ele>
        <time>2021-08-06T12:30:19Z</time>
      </trkpt>
      <trkpt lat="45.11507" lon="5.90245">
        <ele>1921</ele>
        <time>2021-08-06T12:30:28Z</time>
      </trkpt>
      <trkpt lat="45.11507" lon="5.90244">
        <ele>1921</ele>
        <time>2021-08-06T12:30:31Z</time>
      </trkpt>
      <trkpt lat="45.11506" lon="5.90243">
        <ele>1921</ele>
        <time>2021-08-06T12:30:36Z</time>
      </trkpt>
      <trkpt lat="45.11505" lon="5.90241">
        <ele>1921</ele>
        <time>2021-08-06T12:30:38Z</time>
      </trkpt>
      <trkpt lat="45.11504" lon="5.9024">
        <ele>1921</ele>
        <time>2021-08-06T12:30:40Z</time>
      </trkpt>
      <trkpt lat="45.11503" lon="5.90239">
        <ele>1921</ele>
        <time>2021-08-06T12:30:45Z</time>
      </trkpt>
      <trkpt lat="45.11502" lon="5.90239">
        <ele>1921</ele>
        <time>2021-08-06T12:30:50Z</time>
      </trkpt>
      <trkpt lat="45.11502" lon="5.90241">
        <ele>1924</ele>
        <time>2021-08-06T12:30:56Z</time>
      </trkpt>
      <trkpt lat="45.11501" lon="5.90242">
        <ele>1928</ele>
        <time>2021-08-06T12:31:01Z</time>
      </trkpt>
      <trkpt lat="45.115" lon="5.90242">
        <ele>1929</ele>
        <time>2021-08-06T12:31:05Z</time>
      </trkpt>
      <trkpt lat="45.11499" lon="5.90244">
        <ele>1929</ele>
        <time>2021-08-06T12:31:07Z</time>
      </trkpt>
      <trkpt lat="45.11499" lon="5.90246">
        <ele>1929</ele>
        <time>2021-08-06T12:31:08Z</time>
      </trkpt>
      <trkpt lat="45.115" lon="5.90244">
        <ele>1933</ele>
        <time>2021-08-06T12:31:16Z</time>
      </trkpt>
      <trkpt lat="45.11501" lon="5.90242">
        <ele>1933</ele>
        <time>2021-08-06T12:31:18Z</time>
      </trkpt>
      <trkpt lat="45.11501" lon="5.9024">
        <ele>1933</ele>
        <time>2021-08-06T12:31:21Z</time>
      </trkpt>
      <trkpt lat="45.11501" lon="5.90239">
        <ele>1933</ele>
        <time>2021-08-06T12:31:23Z</time>
      </trkpt>
      <trkpt lat="45.11501" lon="5.9024">
        <ele>1933</ele>
        <time>2021-08-06T12:31:26Z</time>
      </trkpt>
      <trkpt lat="45.11501" lon="5.90243">
        <ele>1932</ele>
        <time>2021-08-06T12:31:29Z</time>
      </trkpt>
      <trkpt lat="45.115" lon="5.90247">
        <ele>1931</ele>
        <time>2021-08-06T12:31:31Z</time>
      </trkpt>
      <trkpt lat="45.115" lon="5.90249">
        <ele>1931</ele>
        <time>2021-08-06T12:31:32Z</time>
      </trkpt>
      <trkpt lat="45.11502" lon="5.90249">
        <ele>1930</ele>
        <time>2021-08-06T12:31:34Z</time>
      </trkpt>
      <trkpt lat="45.11504" lon="5.90248">
        <ele>1927</ele>
        <time>2021-08-06T12:31:37Z</time>
      </trkpt>
      <trkpt lat="45.11505" lon="5.90246">
        <ele>1926</ele>
        <time>2021-08-06T12:31:38Z</time>
      </trkpt>
      <trkpt lat="45.11508" lon="5.90244">
        <ele>1925</ele>
        <time>2021-08-06T12:31:40Z</time>
      </trkpt>
      <trkpt lat="45.1151" lon="5.90242">
        <ele>1925</ele>
        <time>2021-08-06T12:31:41Z</time>
      </trkpt>
      <trkpt lat="45.11509" lon="5.90242">
        <ele>1925</ele>
        <time>2021-08-06T12:31:42Z</time>
      </trkpt>
      <trkpt lat="45.11507" lon="5.90242">
        <ele>1925</ele>
        <time>2021-08-06T12:31:44Z</time>
      </trkpt>
      <trkpt lat="45.11506" lon="5.90242">
        <ele>1925</ele>
        <time>2021-08-06T12:31:46Z</time>
      </trkpt>
      <trkpt lat="45.11505" lon="5.90242">
        <ele>1926</ele>
        <time>2021-08-06T12:31:48Z</time>
      </trkpt>
      <trkpt lat="45.11506" lon="5.90243">
        <ele>1931</ele>
        <time>2021-08-06T12:31:53Z</time>
      </trkpt>
      <trkpt lat="45.11504" lon="5.90244">
        <ele>1928</ele>
        <time>2021-08-06T12:32:07Z</time>
      </trkpt>
      <trkpt lat="45.11502" lon="5.90247">
        <ele>1923</ele>
        <time>2021-08-06T12:32:14Z</time>
      </trkpt>
      <trkpt lat="45.11502" lon="5.9025">
        <ele>1923</ele>
        <time>2021-08-06T12:32:15Z</time>
      </trkpt>
      <trkpt lat="45.11502" lon="5.90252">
        <ele>1923</ele>
        <time>2021-08-06T12:32:16Z</time>
      </trkpt>
      <trkpt lat="45.11502" lon="5.90254">
        <ele>1923</ele>
        <time>2021-08-06T12:32:17Z</time>
      </trkpt>
      <trkpt lat="45.11502" lon="5.90256">
        <ele>1924</ele>
        <time>2021-08-06T12:32:18Z</time>
      </trkpt>
      <trkpt lat="45.11501" lon="5.90258">
        <ele>1926</ele>
        <time>2021-08-06T12:32:20Z</time>
      </trkpt>
      <trkpt lat="45.11502" lon="5.90255">
        <ele>1928</ele>
        <time>2021-08-06T12:32:22Z</time>
      </trkpt>
      <trkpt lat="45.11503" lon="5.90252">
        <ele>1929</ele>
        <time>2021-08-06T12:32:23Z</time>
      </trkpt>
      <trkpt lat="45.11504" lon="5.90251">
        <ele>1932</ele>
        <time>2021-08-06T12:32:26Z</time>
      </trkpt>
      <trkpt lat="45.11505" lon="5.90249">
        <ele>1932</ele>
        <time>2021-08-06T12:32:29Z</time>
      </trkpt>
      <trkpt lat="45.11504" lon="5.90248">
        <ele>1931</ele>
        <time>2021-08-06T12:32:35Z</time>
      </trkpt>
      <trkpt lat="45.11503" lon="5.90247">
        <ele>1931</ele>
        <time>2021-08-06T12:32:37Z</time>
      </trkpt>
      <trkpt lat="45.11502" lon="5.90244">
        <ele>1931</ele>
        <time>2021-08-06T12:32:40Z</time>
      </trkpt>
      <trkpt lat="45.11501" lon="5.90242">
        <ele>1931</ele>
        <time>2021-08-06T12:32:41Z</time>
      </trkpt>
      <trkpt lat="45.11499" lon="5.90241">
        <ele>1931</ele>
        <time>2021-08-06T12:32:42Z</time>
      </trkpt>
      <trkpt lat="45.11499" lon="5.90239">
        <ele>1931</ele>
        <time>2021-08-06T12:32:43Z</time>
      </trkpt>
      <trkpt lat="45.11497" lon="5.90238">
        <ele>1931</ele>
        <time>2021-08-06T12:32:44Z</time>
      </trkpt>
      <trkpt lat="45.11496" lon="5.90234">
        <ele>1931</ele>
        <time>2021-08-06T12:32:45Z</time>
      </trkpt>
      <trkpt lat="45.11493" lon="5.90228">
        <ele>1931</ele>
        <time>2021-08-06T12:32:47Z</time>
      </trkpt>
      <trkpt lat="45.11491" lon="5.90227">
        <ele>1931</ele>
        <time>2021-08-06T12:32:48Z</time>
      </trkpt>
      <trkpt lat="45.1149" lon="5.90227">
        <ele>1932</ele>
        <time>2021-08-06T12:32:50Z</time>
      </trkpt>
      <trkpt lat="45.11488" lon="5.90225">
        <ele>1934</ele>
        <time>2021-08-06T12:32:52Z</time>
      </trkpt>
      <trkpt lat="45.1149" lon="5.9023">
        <ele>1936</ele>
        <time>2021-08-06T12:32:55Z</time>
      </trkpt>
      <trkpt lat="45.11493" lon="5.90235">
        <ele>1937</ele>
        <time>2021-08-06T12:32:56Z</time>
      </trkpt>
      <trkpt lat="45.11494" lon="5.90238">
        <ele>1937</ele>
        <time>2021-08-06T12:32:57Z</time>
      </trkpt>
      <trkpt lat="45.11498" lon="5.90249">
        <ele>1938</ele>
        <time>2021-08-06T12:32:58Z</time>
      </trkpt>
      <trkpt lat="45.11499" lon="5.90248">
        <ele>1938</ele>
        <time>2021-08-06T12:32:59Z</time>
      </trkpt>
      <trkpt lat="45.11499" lon="5.90247">
        <ele>1938</ele>
        <time>2021-08-06T12:33:01Z</time>
      </trkpt>
      <trkpt lat="45.11501" lon="5.9025">
        <ele>1938</ele>
        <time>2021-08-06T12:33:07Z</time>
      </trkpt>
      <trkpt lat="45.11501" lon="5.90252">
        <ele>1938</ele>
        <time>2021-08-06T12:33:08Z</time>
      </trkpt>
      <trkpt lat="45.11494" lon="5.9024">
        <ele>1938</ele>
        <time>2021-08-06T12:33:16Z</time>
      </trkpt>
      <trkpt lat="45.11492" lon="5.90241">
        <ele>1938</ele>
        <time>2021-08-06T12:33:17Z</time>
      </trkpt>
      <trkpt lat="45.11474" lon="5.90254">
        <ele>1938</ele>
        <time>2021-08-06T12:33:27Z</time>
      </trkpt>
      <trkpt lat="45.11471" lon="5.90259">
        <ele>1939</ele>
        <time>2021-08-06T12:33:28Z</time>
      </trkpt>
      <trkpt lat="45.11466" lon="5.90275">
        <ele>1940</ele>
        <time>2021-08-06T12:33:35Z</time>
      </trkpt>
      <trkpt lat="45.11471" lon="5.90277">
        <ele>1941</ele>
        <time>2021-08-06T12:33:36Z</time>
      </trkpt>
      <trkpt lat="45.11476" lon="5.90278">
        <ele>1942</ele>
        <time>2021-08-06T12:33:37Z</time>
      </trkpt>
      <trkpt lat="45.11482" lon="5.90275">
        <ele>1943</ele>
        <time>2021-08-06T12:33:38Z</time>
      </trkpt>
      <trkpt lat="45.11481" lon="5.9028">
        <ele>1944</ele>
        <time>2021-08-06T12:33:39Z</time>
      </trkpt>
      <trkpt lat="45.11481" lon="5.90284">
        <ele>1945</ele>
        <time>2021-08-06T12:33:40Z</time>
      </trkpt>
      <trkpt lat="45.11482" lon="5.90287">
        <ele>1946</ele>
        <time>2021-08-06T12:33:41Z</time>
      </trkpt>
      <trkpt lat="45.11482" lon="5.90285">
        <ele>1948</ele>
        <time>2021-08-06T12:33:42Z</time>
      </trkpt>
      <trkpt lat="45.11483" lon="5.90282">
        <ele>1950</ele>
        <time>2021-08-06T12:33:43Z</time>
      </trkpt>
      <trkpt lat="45.11487" lon="5.90276">
        <ele>1952</ele>
        <time>2021-08-06T12:33:45Z</time>
      </trkpt>
      <trkpt lat="45.11491" lon="5.90272">
        <ele>1953</ele>
        <time>2021-08-06T12:33:46Z</time>
      </trkpt>
      <trkpt lat="45.11493" lon="5.9027">
        <ele>1954</ele>
        <time>2021-08-06T12:33:47Z</time>
      </trkpt>
      <trkpt lat="45.11494" lon="5.90268">
        <ele>1954</ele>
        <time>2021-08-06T12:33:48Z</time>
      </trkpt>
      <trkpt lat="45.11496" lon="5.90265">
        <ele>1954</ele>
        <time>2021-08-06T12:33:49Z</time>
      </trkpt>
      <trkpt lat="45.11497" lon="5.90263">
        <ele>1954</ele>
        <time>2021-08-06T12:33:50Z</time>
      </trkpt>
      <trkpt lat="45.11498" lon="5.90261">
        <ele>1953</ele>
        <time>2021-08-06T12:33:51Z</time>
      </trkpt>
      <trkpt lat="45.11498" lon="5.9026">
        <ele>1952</ele>
        <time>2021-08-06T12:33:52Z</time>
      </trkpt>
      <trkpt lat="45.11498" lon="5.90257">
        <ele>1950</ele>
        <time>2021-08-06T12:33:54Z</time>
      </trkpt>
      <trkpt lat="45.11498" lon="5.90255">
        <ele>1949</ele>
        <time>2021-08-06T12:33:57Z</time>
      </trkpt>
      <trkpt lat="45.11499" lon="5.90254">
        <ele>1949</ele>
        <time>2021-08-06T12:34:00Z</time>
      </trkpt>
      <trkpt lat="45.11499" lon="5.90252">
        <ele>1948</ele>
        <time>2021-08-06T12:34:05Z</time>
      </trkpt>
      <trkpt lat="45.115" lon="5.90251">
        <ele>1945</ele>
        <time>2021-08-06T12:34:12Z</time>
      </trkpt>
      <trkpt lat="45.11501" lon="5.9025">
        <ele>1943</ele>
        <time>2021-08-06T12:34:14Z</time>
      </trkpt>
      <trkpt lat="45.11502" lon="5.90249">
        <ele>1936</ele>
        <time>2021-08-06T12:34:21Z</time>
      </trkpt>
      <trkpt lat="45.11503" lon="5.90248">
        <ele>1934</ele>
        <time>2021-08-06T12:34:26Z</time>
      </trkpt>
      <trkpt lat="45.11505" lon="5.90247">
        <ele>1934</ele>
        <time>2021-08-06T12:34:30Z</time>
      </trkpt>
      <trkpt lat="45.11506" lon="5.90246">
        <ele>1934</ele>
        <time>2021-08-06T12:34:33Z</time>
      </trkpt>
      <trkpt lat="45.11506" lon="5.90244">
        <ele>1933</ele>
        <time>2021-08-06T12:34:41Z</time>
      </trkpt>
      <trkpt lat="45.11507" lon="5.90243">
        <ele>1933</ele>
        <time>2021-08-06T12:34:47Z</time>
      </trkpt>
      <trkpt lat="45.11506" lon="5.90241">
        <ele>1932</ele>
        <time>2021-08-06T12:34:50Z</time>
      </trkpt>
      <trkpt lat="45.11506" lon="5.90239">
        <ele>1930</ele>
        <time>2021-08-06T12:34:53Z</time>
      </trkpt>
      <trkpt lat="45.11506" lon="5.90238">
        <ele>1930</ele>
        <time>2021-08-06T12:34:55Z</time>
      </trkpt>
      <trkpt lat="45.11507" lon="5.90236">
        <ele>1929</ele>
        <time>2021-08-06T12:34:57Z</time>
      </trkpt>
      <trkpt lat="45.11507" lon="5.90234">
        <ele>1928</ele>
        <time>2021-08-06T12:34:59Z</time>
      </trkpt>
      <trkpt lat="45.11507" lon="5.90233">
        <ele>1928</ele>
        <time>2021-08-06T12:35:01Z</time>
      </trkpt>
      <trkpt lat="45.11506" lon="5.90231">
        <ele>1926</ele>
        <time>2021-08-06T12:35:04Z</time>
      </trkpt>
      <trkpt lat="45.11505" lon="5.90229">
        <ele>1926</ele>
        <time>2021-08-06T12:35:06Z</time>
      </trkpt>
      <trkpt lat="45.11504" lon="5.90229">
        <ele>1925</ele>
        <time>2021-08-06T12:35:08Z</time>
      </trkpt>
      <trkpt lat="45.11503" lon="5.90228">
        <ele>1924</ele>
        <time>2021-08-06T12:35:10Z</time>
      </trkpt>
      <trkpt lat="45.11504" lon="5.90227">
        <ele>1922</ele>
        <time>2021-08-06T12:35:17Z</time>
      </trkpt>
      <trkpt lat="45.11506" lon="5.90226">
        <ele>1922</ele>
        <time>2021-08-06T12:35:19Z</time>
      </trkpt>
      <trkpt lat="45.11507" lon="5.90225">
        <ele>1922</ele>
        <time>2021-08-06T12:35:21Z</time>
      </trkpt>
      <trkpt lat="45.11508" lon="5.90225">
        <ele>1921</ele>
        <time>2021-08-06T12:35:24Z</time>
      </trkpt>
      <trkpt lat="45.1151" lon="5.90224">
        <ele>1921</ele>
        <time>2021-08-06T12:35:27Z</time>
      </trkpt>
      <trkpt lat="45.11511" lon="5.90222">
        <ele>1921</ele>
        <time>2021-08-06T12:35:30Z</time>
      </trkpt>
      <trkpt lat="45.11512" lon="5.90221">
        <ele>1920</ele>
        <time>2021-08-06T12:35:32Z</time>
      </trkpt>
      <trkpt lat="45.11514" lon="5.9022">
        <ele>1920</ele>
        <time>2021-08-06T12:35:34Z</time>
      </trkpt>
      <trkpt lat="45.11515" lon="5.90219">
        <ele>1920</ele>
        <time>2021-08-06T12:35:36Z</time>
      </trkpt>
      <trkpt lat="45.11516" lon="5.90217">
        <ele>1919</ele>
        <time>2021-08-06T12:35:38Z</time>
      </trkpt>
      <trkpt lat="45.11518" lon="5.90215">
        <ele>1919</ele>
        <time>2021-08-06T12:35:40Z</time>
      </trkpt>
      <trkpt lat="45.11519" lon="5.90213">
        <ele>1919</ele>
        <time>2021-08-06T12:35:42Z</time>
      </trkpt>
      <trkpt lat="45.11519" lon="5.90211">
        <ele>1918</ele>
        <time>2021-08-06T12:35:44Z</time>
      </trkpt>
      <trkpt lat="45.11521" lon="5.90209">
        <ele>1918</ele>
        <time>2021-08-06T12:35:46Z</time>
      </trkpt>
      <trkpt lat="45.11522" lon="5.90207">
        <ele>1918</ele>
        <time>2021-08-06T12:35:48Z</time>
      </trkpt>
      <trkpt lat="45.11523" lon="5.90205">
        <ele>1918</ele>
        <time>2021-08-06T12:35:50Z</time>
      </trkpt>
      <trkpt lat="45.11525" lon="5.90204">
        <ele>1918</ele>
        <time>2021-08-06T12:35:52Z</time>
      </trkpt>
      <trkpt lat="45.11526" lon="5.90203">
        <ele>1917</ele>
        <time>2021-08-06T12:35:54Z</time>
      </trkpt>
      <trkpt lat="45.11527" lon="5.90203">
        <ele>1917</ele>
        <time>2021-08-06T12:35:56Z</time>
      </trkpt>
      <trkpt lat="45.11529" lon="5.90203">
        <ele>1917</ele>
        <time>2021-08-06T12:35:58Z</time>
      </trkpt>
      <trkpt lat="45.1153" lon="5.90202">
        <ele>1917</ele>
        <time>2021-08-06T12:36:00Z</time>
      </trkpt>
      <trkpt lat="45.11532" lon="5.902">
        <ele>1917</ele>
        <time>2021-08-06T12:36:03Z</time>
      </trkpt>
      <trkpt lat="45.11532" lon="5.90198">
        <ele>1917</ele>
        <time>2021-08-06T12:36:05Z</time>
      </trkpt>
      <trkpt lat="45.11531" lon="5.90197">
        <ele>1917</ele>
        <time>2021-08-06T12:36:10Z</time>
      </trkpt>
      <trkpt lat="45.1153" lon="5.90196">
        <ele>1917</ele>
        <time>2021-08-06T12:36:13Z</time>
      </trkpt>
      <trkpt lat="45.11528" lon="5.90197">
        <ele>1917</ele>
        <time>2021-08-06T12:36:29Z</time>
      </trkpt>
      <trkpt lat="45.11527" lon="5.90197">
        <ele>1916</ele>
        <time>2021-08-06T12:37:11Z</time>
      </trkpt>
      <trkpt lat="45.11526" lon="5.90196">
        <ele>1916</ele>
        <time>2021-08-06T12:37:14Z</time>
      </trkpt>
      <trkpt lat="45.11525" lon="5.90197">
        <ele>1916</ele>
        <time>2021-08-06T12:37:20Z</time>
      </trkpt>
      <trkpt lat="45.11524" lon="5.90198">
        <ele>1916</ele>
        <time>2021-08-06T12:37:23Z</time>
      </trkpt>
      <trkpt lat="45.11522" lon="5.90197">
        <ele>1917</ele>
        <time>2021-08-06T12:37:25Z</time>
      </trkpt>
      <trkpt lat="45.11521" lon="5.90197">
        <ele>1917</ele>
        <time>2021-08-06T12:37:35Z</time>
      </trkpt>
      <trkpt lat="45.1152" lon="5.90197">
        <ele>1918</ele>
        <time>2021-08-06T12:37:37Z</time>
      </trkpt>
      <trkpt lat="45.11518" lon="5.90195">
        <ele>1918</ele>
        <time>2021-08-06T12:37:39Z</time>
      </trkpt>
      <trkpt lat="45.11517" lon="5.90193">
        <ele>1918</ele>
        <time>2021-08-06T12:37:41Z</time>
      </trkpt>
      <trkpt lat="45.11515" lon="5.90191">
        <ele>1918</ele>
        <time>2021-08-06T12:37:43Z</time>
      </trkpt>
      <trkpt lat="45.11514" lon="5.90189">
        <ele>1918</ele>
        <time>2021-08-06T12:37:45Z</time>
      </trkpt>
      <trkpt lat="45.11512" lon="5.90187">
        <ele>1918</ele>
        <time>2021-08-06T12:37:47Z</time>
      </trkpt>
      <trkpt lat="45.11511" lon="5.90185">
        <ele>1918</ele>
        <time>2021-08-06T12:37:49Z</time>
      </trkpt>
      <trkpt lat="45.1151" lon="5.90183">
        <ele>1918</ele>
        <time>2021-08-06T12:37:51Z</time>
      </trkpt>
      <trkpt lat="45.11509" lon="5.9018">
        <ele>1918</ele>
        <time>2021-08-06T12:37:53Z</time>
      </trkpt>
      <trkpt lat="45.11508" lon="5.90178">
        <ele>1918</ele>
        <time>2021-08-06T12:37:55Z</time>
      </trkpt>
      <trkpt lat="45.11508" lon="5.90177">
        <ele>1918</ele>
        <time>2021-08-06T12:37:57Z</time>
      </trkpt>
      <trkpt lat="45.11507" lon="5.90175">
        <ele>1918</ele>
        <time>2021-08-06T12:37:59Z</time>
      </trkpt>
      <trkpt lat="45.11507" lon="5.90173">
        <ele>1918</ele>
        <time>2021-08-06T12:38:04Z</time>
      </trkpt>
      <trkpt lat="45.11507" lon="5.90172">
        <ele>1918</ele>
        <time>2021-08-06T12:38:07Z</time>
      </trkpt>
      <trkpt lat="45.11506" lon="5.9017">
        <ele>1918</ele>
        <time>2021-08-06T12:38:11Z</time>
      </trkpt>
      <trkpt lat="45.11504" lon="5.90169">
        <ele>1918</ele>
        <time>2021-08-06T12:38:15Z</time>
      </trkpt>
      <trkpt lat="45.11505" lon="5.90168">
        <ele>1918</ele>
        <time>2021-08-06T12:38:21Z</time>
      </trkpt>
      <trkpt lat="45.11504" lon="5.90166">
        <ele>1918</ele>
        <time>2021-08-06T12:38:28Z</time>
      </trkpt>
      <trkpt lat="45.11503" lon="5.90167">
        <ele>1918</ele>
        <time>2021-08-06T12:38:36Z</time>
      </trkpt>
      <trkpt lat="45.11501" lon="5.90167">
        <ele>1918</ele>
        <time>2021-08-06T12:38:41Z</time>
      </trkpt>
      <trkpt lat="45.115" lon="5.90166">
        <ele>1918</ele>
        <time>2021-08-06T12:38:50Z</time>
      </trkpt>
      <trkpt lat="45.11499" lon="5.90166">
        <ele>1918</ele>
        <time>2021-08-06T12:38:56Z</time>
      </trkpt>
      <trkpt lat="45.11498" lon="5.90165">
        <ele>1918</ele>
        <time>2021-08-06T12:39:04Z</time>
      </trkpt>
      <trkpt lat="45.11497" lon="5.90164">
        <ele>1918</ele>
        <time>2021-08-06T12:39:07Z</time>
      </trkpt>
      <trkpt lat="45.11495" lon="5.90164">
        <ele>1918</ele>
        <time>2021-08-06T12:39:10Z</time>
      </trkpt>
      <trkpt lat="45.11494" lon="5.90163">
        <ele>1918</ele>
        <time>2021-08-06T12:39:12Z</time>
      </trkpt>
      <trkpt lat="45.11493" lon="5.90161">
        <ele>1918</ele>
        <time>2021-08-06T12:39:14Z</time>
      </trkpt>
      <trkpt lat="45.11492" lon="5.90159">
        <ele>1918</ele>
        <time>2021-08-06T12:39:16Z</time>
      </trkpt>
      <trkpt lat="45.1149" lon="5.90158">
        <ele>1918</ele>
        <time>2021-08-06T12:39:18Z</time>
      </trkpt>
      <trkpt lat="45.11489" lon="5.90157">
        <ele>1918</ele>
        <time>2021-08-06T12:39:20Z</time>
      </trkpt>
      <trkpt lat="45.11487" lon="5.90156">
        <ele>1918</ele>
        <time>2021-08-06T12:39:22Z</time>
      </trkpt>
      <trkpt lat="45.11485" lon="5.90155">
        <ele>1918</ele>
        <time>2021-08-06T12:39:24Z</time>
      </trkpt>
      <trkpt lat="45.11483" lon="5.90154">
        <ele>1918</ele>
        <time>2021-08-06T12:39:26Z</time>
      </trkpt>
      <trkpt lat="45.11482" lon="5.90153">
        <ele>1918</ele>
        <time>2021-08-06T12:39:28Z</time>
      </trkpt>
      <trkpt lat="45.11481" lon="5.9015">
        <ele>1918</ele>
        <time>2021-08-06T12:39:31Z</time>
      </trkpt>
      <trkpt lat="45.1148" lon="5.90149">
        <ele>1918</ele>
        <time>2021-08-06T12:39:33Z</time>
      </trkpt>
      <trkpt lat="45.11478" lon="5.90148">
        <ele>1918</ele>
        <time>2021-08-06T12:39:35Z</time>
      </trkpt>
      <trkpt lat="45.11477" lon="5.90147">
        <ele>1918</ele>
        <time>2021-08-06T12:39:38Z</time>
      </trkpt>
      <trkpt lat="45.11476" lon="5.90145">
        <ele>1918</ele>
        <time>2021-08-06T12:39:41Z</time>
      </trkpt>
      <trkpt lat="45.11475" lon="5.90143">
        <ele>1918</ele>
        <time>2021-08-06T12:39:44Z</time>
      </trkpt>
      <trkpt lat="45.11475" lon="5.90141">
        <ele>1918</ele>
        <time>2021-08-06T12:39:47Z</time>
      </trkpt>
      <trkpt lat="45.11475" lon="5.90139">
        <ele>1918</ele>
        <time>2021-08-06T12:39:49Z</time>
      </trkpt>
      <trkpt lat="45.11474" lon="5.90138">
        <ele>1918</ele>
        <time>2021-08-06T12:39:51Z</time>
      </trkpt>
      <trkpt lat="45.11473" lon="5.90136">
        <ele>1919</ele>
        <time>2021-08-06T12:39:53Z</time>
      </trkpt>
      <trkpt lat="45.11473" lon="5.90134">
        <ele>1919</ele>
        <time>2021-08-06T12:39:55Z</time>
      </trkpt>
      <trkpt lat="45.11472" lon="5.90134">
        <ele>1920</ele>
        <time>2021-08-06T12:40:04Z</time>
      </trkpt>
      <trkpt lat="45.11471" lon="5.90136">
        <ele>1922</ele>
        <time>2021-08-06T12:40:10Z</time>
      </trkpt>
      <trkpt lat="45.1147" lon="5.90137">
        <ele>1923</ele>
        <time>2021-08-06T12:40:12Z</time>
      </trkpt>
      <trkpt lat="45.11469" lon="5.9014">
        <ele>1925</ele>
        <time>2021-08-06T12:40:14Z</time>
      </trkpt>
      <trkpt lat="45.11469" lon="5.90141">
        <ele>1926</ele>
        <time>2021-08-06T12:40:15Z</time>
      </trkpt>
      <trkpt lat="45.11468" lon="5.90144">
        <ele>1928</ele>
        <time>2021-08-06T12:40:17Z</time>
      </trkpt>
      <trkpt lat="45.11467" lon="5.90145">
        <ele>1930</ele>
        <time>2021-08-06T12:40:19Z</time>
      </trkpt>
      <trkpt lat="45.11466" lon="5.90146">
        <ele>1933</ele>
        <time>2021-08-06T12:40:24Z</time>
      </trkpt>
      <trkpt lat="45.11465" lon="5.90145">
        <ele>1934</ele>
        <time>2021-08-06T12:40:32Z</time>
      </trkpt>
      <trkpt lat="45.11467" lon="5.90143">
        <ele>1934</ele>
        <time>2021-08-06T12:40:41Z</time>
      </trkpt>
      <trkpt lat="45.11466" lon="5.90142">
        <ele>1934</ele>
        <time>2021-08-06T12:40:45Z</time>
      </trkpt>
      <trkpt lat="45.11466" lon="5.9014">
        <ele>1934</ele>
        <time>2021-08-06T12:40:47Z</time>
      </trkpt>
      <trkpt lat="45.11467" lon="5.90138">
        <ele>1934</ele>
        <time>2021-08-06T12:40:48Z</time>
      </trkpt>
      <trkpt lat="45.11467" lon="5.90135">
        <ele>1934</ele>
        <time>2021-08-06T12:40:50Z</time>
      </trkpt>
      <trkpt lat="45.11467" lon="5.90133">
        <ele>1934</ele>
        <time>2021-08-06T12:40:52Z</time>
      </trkpt>
      <trkpt lat="45.11466" lon="5.90131">
        <ele>1934</ele>
        <time>2021-08-06T12:40:54Z</time>
      </trkpt>
      <trkpt lat="45.11466" lon="5.90129">
        <ele>1934</ele>
        <time>2021-08-06T12:40:56Z</time>
      </trkpt>
      <trkpt lat="45.11464" lon="5.90128">
        <ele>1934</ele>
        <time>2021-08-06T12:40:58Z</time>
      </trkpt>
      <trkpt lat="45.11463" lon="5.90127">
        <ele>1934</ele>
        <time>2021-08-06T12:41:00Z</time>
      </trkpt>
      <trkpt lat="45.11462" lon="5.90125">
        <ele>1933</ele>
        <time>2021-08-06T12:41:03Z</time>
      </trkpt>
      <trkpt lat="45.1146" lon="5.90124">
        <ele>1931</ele>
        <time>2021-08-06T12:41:08Z</time>
      </trkpt>
      <trkpt lat="45.11459" lon="5.90123">
        <ele>1931</ele>
        <time>2021-08-06T12:41:10Z</time>
      </trkpt>
      <trkpt lat="45.11458" lon="5.90122">
        <ele>1931</ele>
        <time>2021-08-06T12:41:12Z</time>
      </trkpt>
      <trkpt lat="45.11456" lon="5.90123">
        <ele>1930</ele>
        <time>2021-08-06T12:41:14Z</time>
      </trkpt>
      <trkpt lat="45.11454" lon="5.90124">
        <ele>1930</ele>
        <time>2021-08-06T12:41:16Z</time>
      </trkpt>
      <trkpt lat="45.11453" lon="5.90126">
        <ele>1929</ele>
        <time>2021-08-06T12:41:18Z</time>
      </trkpt>
      <trkpt lat="45.11451" lon="5.90127">
        <ele>1928</ele>
        <time>2021-08-06T12:41:20Z</time>
      </trkpt>
      <trkpt lat="45.1145" lon="5.90128">
        <ele>1928</ele>
        <time>2021-08-06T12:41:22Z</time>
      </trkpt>
      <trkpt lat="45.11448" lon="5.90128">
        <ele>1928</ele>
        <time>2021-08-06T12:41:24Z</time>
      </trkpt>
      <trkpt lat="45.11446" lon="5.90128">
        <ele>1928</ele>
        <time>2021-08-06T12:41:26Z</time>
      </trkpt>
      <trkpt lat="45.11445" lon="5.90127">
        <ele>1928</ele>
        <time>2021-08-06T12:41:28Z</time>
      </trkpt>
      <trkpt lat="45.11443" lon="5.90127">
        <ele>1928</ele>
        <time>2021-08-06T12:41:30Z</time>
      </trkpt>
      <trkpt lat="45.11442" lon="5.90126">
        <ele>1928</ele>
        <time>2021-08-06T12:41:32Z</time>
      </trkpt>
      <trkpt lat="45.11441" lon="5.90126">
        <ele>1928</ele>
        <time>2021-08-06T12:41:34Z</time>
      </trkpt>
      <trkpt lat="45.11439" lon="5.90125">
        <ele>1928</ele>
        <time>2021-08-06T12:41:36Z</time>
      </trkpt>
      <trkpt lat="45.11437" lon="5.90125">
        <ele>1928</ele>
        <time>2021-08-06T12:41:38Z</time>
      </trkpt>
      <trkpt lat="45.11436" lon="5.90125">
        <ele>1928</ele>
        <time>2021-08-06T12:41:40Z</time>
      </trkpt>
      <trkpt lat="45.11434" lon="5.90123">
        <ele>1928</ele>
        <time>2021-08-06T12:41:42Z</time>
      </trkpt>
      <trkpt lat="45.11432" lon="5.90123">
        <ele>1928</ele>
        <time>2021-08-06T12:41:44Z</time>
      </trkpt>
      <trkpt lat="45.1143" lon="5.90122">
        <ele>1928</ele>
        <time>2021-08-06T12:41:46Z</time>
      </trkpt>
      <trkpt lat="45.11429" lon="5.90122">
        <ele>1928</ele>
        <time>2021-08-06T12:41:48Z</time>
      </trkpt>
      <trkpt lat="45.11428" lon="5.90122">
        <ele>1928</ele>
        <time>2021-08-06T12:41:51Z</time>
      </trkpt>
      <trkpt lat="45.11426" lon="5.9012">
        <ele>1928</ele>
        <time>2021-08-06T12:41:53Z</time>
      </trkpt>
      <trkpt lat="45.11425" lon="5.90119">
        <ele>1928</ele>
        <time>2021-08-06T12:41:55Z</time>
      </trkpt>
      <trkpt lat="45.11423" lon="5.90118">
        <ele>1928</ele>
        <time>2021-08-06T12:41:57Z</time>
      </trkpt>
      <trkpt lat="45.11422" lon="5.90119">
        <ele>1928</ele>
        <time>2021-08-06T12:41:59Z</time>
      </trkpt>
      <trkpt lat="45.11421" lon="5.90119">
        <ele>1928</ele>
        <time>2021-08-06T12:42:01Z</time>
      </trkpt>
      <trkpt lat="45.11419" lon="5.90119">
        <ele>1928</ele>
        <time>2021-08-06T12:42:03Z</time>
      </trkpt>
      <trkpt lat="45.11418" lon="5.90119">
        <ele>1928</ele>
        <time>2021-08-06T12:42:05Z</time>
      </trkpt>
      <trkpt lat="45.11416" lon="5.90119">
        <ele>1928</ele>
        <time>2021-08-06T12:42:07Z</time>
      </trkpt>
      <trkpt lat="45.11415" lon="5.90121">
        <ele>1928</ele>
        <time>2021-08-06T12:42:10Z</time>
      </trkpt>
      <trkpt lat="45.11414" lon="5.90122">
        <ele>1928</ele>
        <time>2021-08-06T12:42:12Z</time>
      </trkpt>
      <trkpt lat="45.11412" lon="5.90123">
        <ele>1928</ele>
        <time>2021-08-06T12:42:15Z</time>
      </trkpt>
      <trkpt lat="45.11411" lon="5.90123">
        <ele>1927</ele>
        <time>2021-08-06T12:42:18Z</time>
      </trkpt>
      <trkpt lat="45.1141" lon="5.90122">
        <ele>1927</ele>
        <time>2021-08-06T12:42:20Z</time>
      </trkpt>
      <trkpt lat="45.11408" lon="5.90121">
        <ele>1927</ele>
        <time>2021-08-06T12:42:23Z</time>
      </trkpt>
      <trkpt lat="45.11407" lon="5.9012">
        <ele>1926</ele>
        <time>2021-08-06T12:42:49Z</time>
      </trkpt>
      <trkpt lat="45.11406" lon="5.90118">
        <ele>1926</ele>
        <time>2021-08-06T12:42:55Z</time>
      </trkpt>
      <trkpt lat="45.11405" lon="5.90119">
        <ele>1924</ele>
        <time>2021-08-06T12:43:00Z</time>
      </trkpt>
      <trkpt lat="45.11404" lon="5.90119">
        <ele>1924</ele>
        <time>2021-08-06T12:43:03Z</time>
      </trkpt>
      <trkpt lat="45.11403" lon="5.90118">
        <ele>1924</ele>
        <time>2021-08-06T12:43:06Z</time>
      </trkpt>
      <trkpt lat="45.11401" lon="5.90118">
        <ele>1924</ele>
        <time>2021-08-06T12:43:09Z</time>
      </trkpt>
      <trkpt lat="45.114" lon="5.90117">
        <ele>1923</ele>
        <time>2021-08-06T12:43:14Z</time>
      </trkpt>
      <trkpt lat="45.11399" lon="5.90116">
        <ele>1923</ele>
        <time>2021-08-06T12:43:18Z</time>
      </trkpt>
      <trkpt lat="45.11397" lon="5.90115">
        <ele>1923</ele>
        <time>2021-08-06T12:43:20Z</time>
      </trkpt>
      <trkpt lat="45.11396" lon="5.90115">
        <ele>1923</ele>
        <time>2021-08-06T12:43:22Z</time>
      </trkpt>
      <trkpt lat="45.11394" lon="5.90115">
        <ele>1923</ele>
        <time>2021-08-06T12:43:24Z</time>
      </trkpt>
      <trkpt lat="45.11393" lon="5.90113">
        <ele>1922</ele>
        <time>2021-08-06T12:43:26Z</time>
      </trkpt>
      <trkpt lat="45.11391" lon="5.90112">
        <ele>1922</ele>
        <time>2021-08-06T12:43:28Z</time>
      </trkpt>
      <trkpt lat="45.1139" lon="5.90109">
        <ele>1922</ele>
        <time>2021-08-06T12:43:30Z</time>
      </trkpt>
      <trkpt lat="45.11388" lon="5.90108">
        <ele>1922</ele>
        <time>2021-08-06T12:43:32Z</time>
      </trkpt>
      <trkpt lat="45.11387" lon="5.90106">
        <ele>1922</ele>
        <time>2021-08-06T12:43:34Z</time>
      </trkpt>
      <trkpt lat="45.11385" lon="5.90104">
        <ele>1922</ele>
        <time>2021-08-06T12:43:36Z</time>
      </trkpt>
      <trkpt lat="45.11383" lon="5.90103">
        <ele>1922</ele>
        <time>2021-08-06T12:43:38Z</time>
      </trkpt>
      <trkpt lat="45.11381" lon="5.90102">
        <ele>1922</ele>
        <time>2021-08-06T12:43:40Z</time>
      </trkpt>
      <trkpt lat="45.1138" lon="5.901">
        <ele>1922</ele>
        <time>2021-08-06T12:43:42Z</time>
      </trkpt>
      <trkpt lat="45.11379" lon="5.90098">
        <ele>1922</ele>
        <time>2021-08-06T12:43:44Z</time>
      </trkpt>
      <trkpt lat="45.11377" lon="5.90096">
        <ele>1922</ele>
        <time>2021-08-06T12:43:46Z</time>
      </trkpt>
      <trkpt lat="45.11376" lon="5.90095">
        <ele>1922</ele>
        <time>2021-08-06T12:43:48Z</time>
      </trkpt>
      <trkpt lat="45.11374" lon="5.90094">
        <ele>1922</ele>
        <time>2021-08-06T12:43:50Z</time>
      </trkpt>
      <trkpt lat="45.11372" lon="5.90093">
        <ele>1922</ele>
        <time>2021-08-06T12:43:52Z</time>
      </trkpt>
      <trkpt lat="45.1137" lon="5.90093">
        <ele>1922</ele>
        <time>2021-08-06T12:43:54Z</time>
      </trkpt>
      <trkpt lat="45.11369" lon="5.90094">
        <ele>1922</ele>
        <time>2021-08-06T12:43:56Z</time>
      </trkpt>
      <trkpt lat="45.11367" lon="5.90095">
        <ele>1922</ele>
        <time>2021-08-06T12:43:58Z</time>
      </trkpt>
      <trkpt lat="45.11365" lon="5.90096">
        <ele>1922</ele>
        <time>2021-08-06T12:44:00Z</time>
      </trkpt>
      <trkpt lat="45.11364" lon="5.90096">
        <ele>1922</ele>
        <time>2021-08-06T12:44:01Z</time>
      </trkpt>
      <trkpt lat="45.11363" lon="5.90097">
        <ele>1922</ele>
        <time>2021-08-06T12:44:03Z</time>
      </trkpt>
      <trkpt lat="45.11361" lon="5.90097">
        <ele>1922</ele>
        <time>2021-08-06T12:44:06Z</time>
      </trkpt>
      <trkpt lat="45.11359" lon="5.90097">
        <ele>1922</ele>
        <time>2021-08-06T12:44:10Z</time>
      </trkpt>
      <trkpt lat="45.11358" lon="5.90096">
        <ele>1922</ele>
        <time>2021-08-06T12:44:12Z</time>
      </trkpt>
      <trkpt lat="45.11356" lon="5.90095">
        <ele>1922</ele>
        <time>2021-08-06T12:44:14Z</time>
      </trkpt>
      <trkpt lat="45.11355" lon="5.90094">
        <ele>1922</ele>
        <time>2021-08-06T12:44:16Z</time>
      </trkpt>
      <trkpt lat="45.11353" lon="5.90093">
        <ele>1922</ele>
        <time>2021-08-06T12:44:18Z</time>
      </trkpt>
      <trkpt lat="45.11351" lon="5.90092">
        <ele>1922</ele>
        <time>2021-08-06T12:44:20Z</time>
      </trkpt>
      <trkpt lat="45.1135" lon="5.9009">
        <ele>1922</ele>
        <time>2021-08-06T12:44:22Z</time>
      </trkpt>
      <trkpt lat="45.11348" lon="5.9009">
        <ele>1922</ele>
        <time>2021-08-06T12:44:24Z</time>
      </trkpt>
      <trkpt lat="45.11346" lon="5.9009">
        <ele>1922</ele>
        <time>2021-08-06T12:44:26Z</time>
      </trkpt>
      <trkpt lat="45.11345" lon="5.90091">
        <ele>1922</ele>
        <time>2021-08-06T12:44:27Z</time>
      </trkpt>
      <trkpt lat="45.11343" lon="5.9009">
        <ele>1922</ele>
        <time>2021-08-06T12:44:29Z</time>
      </trkpt>
      <trkpt lat="45.11341" lon="5.90088">
        <ele>1922</ele>
        <time>2021-08-06T12:44:32Z</time>
      </trkpt>
      <trkpt lat="45.1134" lon="5.90088">
        <ele>1922</ele>
        <time>2021-08-06T12:44:34Z</time>
      </trkpt>
      <trkpt lat="45.11339" lon="5.90087">
        <ele>1922</ele>
        <time>2021-08-06T12:44:36Z</time>
      </trkpt>
      <trkpt lat="45.11337" lon="5.90085">
        <ele>1922</ele>
        <time>2021-08-06T12:44:38Z</time>
      </trkpt>
      <trkpt lat="45.11335" lon="5.90085">
        <ele>1922</ele>
        <time>2021-08-06T12:44:40Z</time>
      </trkpt>
      <trkpt lat="45.11334" lon="5.90085">
        <ele>1922</ele>
        <time>2021-08-06T12:44:42Z</time>
      </trkpt>
      <trkpt lat="45.11333" lon="5.90085">
        <ele>1922</ele>
        <time>2021-08-06T12:44:44Z</time>
      </trkpt>
      <trkpt lat="45.11331" lon="5.90086">
        <ele>1922</ele>
        <time>2021-08-06T12:44:46Z</time>
      </trkpt>
      <trkpt lat="45.1133" lon="5.90087">
        <ele>1922</ele>
        <time>2021-08-06T12:44:48Z</time>
      </trkpt>
      <trkpt lat="45.11329" lon="5.90086">
        <ele>1922</ele>
        <time>2021-08-06T12:44:50Z</time>
      </trkpt>
      <trkpt lat="45.11327" lon="5.90086">
        <ele>1922</ele>
        <time>2021-08-06T12:44:51Z</time>
      </trkpt>
      <trkpt lat="45.11326" lon="5.90085">
        <ele>1923</ele>
        <time>2021-08-06T12:44:54Z</time>
      </trkpt>
      <trkpt lat="45.11324" lon="5.90085">
        <ele>1923</ele>
        <time>2021-08-06T12:44:56Z</time>
      </trkpt>
      <trkpt lat="45.11322" lon="5.90084">
        <ele>1923</ele>
        <time>2021-08-06T12:44:58Z</time>
      </trkpt>
      <trkpt lat="45.11321" lon="5.90084">
        <ele>1923</ele>
        <time>2021-08-06T12:45:00Z</time>
      </trkpt>
      <trkpt lat="45.11319" lon="5.90084">
        <ele>1923</ele>
        <time>2021-08-06T12:45:02Z</time>
      </trkpt>
      <trkpt lat="45.11318" lon="5.90085">
        <ele>1923</ele>
        <time>2021-08-06T12:45:04Z</time>
      </trkpt>
      <trkpt lat="45.11316" lon="5.90085">
        <ele>1924</ele>
        <time>2021-08-06T12:45:06Z</time>
      </trkpt>
      <trkpt lat="45.11314" lon="5.90085">
        <ele>1924</ele>
        <time>2021-08-06T12:45:08Z</time>
      </trkpt>
      <trkpt lat="45.11313" lon="5.90085">
        <ele>1924</ele>
        <time>2021-08-06T12:45:10Z</time>
      </trkpt>
      <trkpt lat="45.11312" lon="5.90085">
        <ele>1924</ele>
        <time>2021-08-06T12:45:12Z</time>
      </trkpt>
      <trkpt lat="45.11311" lon="5.90085">
        <ele>1924</ele>
        <time>2021-08-06T12:45:13Z</time>
      </trkpt>
      <trkpt lat="45.11309" lon="5.90085">
        <ele>1924</ele>
        <time>2021-08-06T12:45:15Z</time>
      </trkpt>
      <trkpt lat="45.11307" lon="5.90085">
        <ele>1924</ele>
        <time>2021-08-06T12:45:17Z</time>
      </trkpt>
      <trkpt lat="45.11306" lon="5.90084">
        <ele>1924</ele>
        <time>2021-08-06T12:45:19Z</time>
      </trkpt>
      <trkpt lat="45.11304" lon="5.90084">
        <ele>1924</ele>
        <time>2021-08-06T12:45:21Z</time>
      </trkpt>
      <trkpt lat="45.11303" lon="5.90083">
        <ele>1924</ele>
        <time>2021-08-06T12:45:23Z</time>
      </trkpt>
      <trkpt lat="45.11302" lon="5.90082">
        <ele>1924</ele>
        <time>2021-08-06T12:45:25Z</time>
      </trkpt>
      <trkpt lat="45.113" lon="5.90081">
        <ele>1924</ele>
        <time>2021-08-06T12:45:28Z</time>
      </trkpt>
      <trkpt lat="45.11299" lon="5.9008">
        <ele>1924</ele>
        <time>2021-08-06T12:45:31Z</time>
      </trkpt>
      <trkpt lat="45.11298" lon="5.9008">
        <ele>1924</ele>
        <time>2021-08-06T12:45:36Z</time>
      </trkpt>
      <trkpt lat="45.11297" lon="5.90078">
        <ele>1924</ele>
        <time>2021-08-06T12:45:40Z</time>
      </trkpt>
      <trkpt lat="45.11295" lon="5.90076">
        <ele>1924</ele>
        <time>2021-08-06T12:45:44Z</time>
      </trkpt>
      <trkpt lat="45.11294" lon="5.90076">
        <ele>1924</ele>
        <time>2021-08-06T12:45:46Z</time>
      </trkpt>
      <trkpt lat="45.11293" lon="5.90075">
        <ele>1924</ele>
        <time>2021-08-06T12:45:48Z</time>
      </trkpt>
      <trkpt lat="45.11291" lon="5.90075">
        <ele>1924</ele>
        <time>2021-08-06T12:45:50Z</time>
      </trkpt>
      <trkpt lat="45.1129" lon="5.90075">
        <ele>1924</ele>
        <time>2021-08-06T12:45:52Z</time>
      </trkpt>
      <trkpt lat="45.11289" lon="5.90076">
        <ele>1924</ele>
        <time>2021-08-06T12:45:55Z</time>
      </trkpt>
      <trkpt lat="45.11287" lon="5.90075">
        <ele>1924</ele>
        <time>2021-08-06T12:45:58Z</time>
      </trkpt>
      <trkpt lat="45.11286" lon="5.90075">
        <ele>1924</ele>
        <time>2021-08-06T12:46:01Z</time>
      </trkpt>
      <trkpt lat="45.11285" lon="5.90075">
        <ele>1924</ele>
        <time>2021-08-06T12:46:03Z</time>
      </trkpt>
      <trkpt lat="45.11283" lon="5.90074">
        <ele>1924</ele>
        <time>2021-08-06T12:46:06Z</time>
      </trkpt>
      <trkpt lat="45.11282" lon="5.90074">
        <ele>1924</ele>
        <time>2021-08-06T12:46:08Z</time>
      </trkpt>
      <trkpt lat="45.11281" lon="5.90075">
        <ele>1924</ele>
        <time>2021-08-06T12:46:11Z</time>
      </trkpt>
      <trkpt lat="45.1128" lon="5.90075">
        <ele>1924</ele>
        <time>2021-08-06T12:46:13Z</time>
      </trkpt>
      <trkpt lat="45.11278" lon="5.90075">
        <ele>1924</ele>
        <time>2021-08-06T12:46:18Z</time>
      </trkpt>
      <trkpt lat="45.11277" lon="5.90074">
        <ele>1924</ele>
        <time>2021-08-06T12:46:21Z</time>
      </trkpt>
      <trkpt lat="45.11276" lon="5.90073">
        <ele>1924</ele>
        <time>2021-08-06T12:46:26Z</time>
      </trkpt>
      <trkpt lat="45.11275" lon="5.90071">
        <ele>1924</ele>
        <time>2021-08-06T12:46:29Z</time>
      </trkpt>
      <trkpt lat="45.11273" lon="5.9007">
        <ele>1924</ele>
        <time>2021-08-06T12:46:32Z</time>
      </trkpt>
      <trkpt lat="45.11273" lon="5.90068">
        <ele>1924</ele>
        <time>2021-08-06T12:46:35Z</time>
      </trkpt>
      <trkpt lat="45.11273" lon="5.90066">
        <ele>1924</ele>
        <time>2021-08-06T12:46:38Z</time>
      </trkpt>
      <trkpt lat="45.11272" lon="5.90064">
        <ele>1924</ele>
        <time>2021-08-06T12:46:42Z</time>
      </trkpt>
      <trkpt lat="45.11271" lon="5.90063">
        <ele>1924</ele>
        <time>2021-08-06T12:46:47Z</time>
      </trkpt>
      <trkpt lat="45.1127" lon="5.90063">
        <ele>1923</ele>
        <time>2021-08-06T12:46:50Z</time>
      </trkpt>
      <trkpt lat="45.11269" lon="5.90064">
        <ele>1923</ele>
        <time>2021-08-06T12:46:54Z</time>
      </trkpt>
      <trkpt lat="45.11267" lon="5.90064">
        <ele>1923</ele>
        <time>2021-08-06T12:46:57Z</time>
      </trkpt>
      <trkpt lat="45.11266" lon="5.90063">
        <ele>1922</ele>
        <time>2021-08-06T12:47:01Z</time>
      </trkpt>
      <trkpt lat="45.11264" lon="5.90062">
        <ele>1922</ele>
        <time>2021-08-06T12:47:04Z</time>
      </trkpt>
      <trkpt lat="45.11263" lon="5.90061">
        <ele>1922</ele>
        <time>2021-08-06T12:47:07Z</time>
      </trkpt>
      <trkpt lat="45.11262" lon="5.90061">
        <ele>1922</ele>
        <time>2021-08-06T12:47:10Z</time>
      </trkpt>
      <trkpt lat="45.11261" lon="5.9006">
        <ele>1921</ele>
        <time>2021-08-06T12:47:14Z</time>
      </trkpt>
      <trkpt lat="45.1126" lon="5.9006">
        <ele>1921</ele>
        <time>2021-08-06T12:47:17Z</time>
      </trkpt>
      <trkpt lat="45.11258" lon="5.9006">
        <ele>1921</ele>
        <time>2021-08-06T12:47:19Z</time>
      </trkpt>
      <trkpt lat="45.11257" lon="5.90061">
        <ele>1921</ele>
        <time>2021-08-06T12:47:22Z</time>
      </trkpt>
      <trkpt lat="45.11256" lon="5.90061">
        <ele>1920</ele>
        <time>2021-08-06T12:47:26Z</time>
      </trkpt>
      <trkpt lat="45.11254" lon="5.9006">
        <ele>1920</ele>
        <time>2021-08-06T12:47:29Z</time>
      </trkpt>
      <trkpt lat="45.11253" lon="5.90058">
        <ele>1920</ele>
        <time>2021-08-06T12:47:32Z</time>
      </trkpt>
      <trkpt lat="45.11252" lon="5.90056">
        <ele>1920</ele>
        <time>2021-08-06T12:47:35Z</time>
      </trkpt>
      <trkpt lat="45.11252" lon="5.90054">
        <ele>1920</ele>
        <time>2021-08-06T12:47:37Z</time>
      </trkpt>
      <trkpt lat="45.11252" lon="5.90052">
        <ele>1919</ele>
        <time>2021-08-06T12:47:50Z</time>
      </trkpt>
      <trkpt lat="45.11252" lon="5.90051">
        <ele>1919</ele>
        <time>2021-08-06T12:47:52Z</time>
      </trkpt>
      <trkpt lat="45.11252" lon="5.90049">
        <ele>1919</ele>
        <time>2021-08-06T12:47:54Z</time>
      </trkpt>
      <trkpt lat="45.11251" lon="5.90047">
        <ele>1919</ele>
        <time>2021-08-06T12:47:56Z</time>
      </trkpt>
      <trkpt lat="45.11251" lon="5.90046">
        <ele>1919</ele>
        <time>2021-08-06T12:47:59Z</time>
      </trkpt>
      <trkpt lat="45.1125" lon="5.90044">
        <ele>1919</ele>
        <time>2021-08-06T12:48:02Z</time>
      </trkpt>
      <trkpt lat="45.11249" lon="5.90042">
        <ele>1919</ele>
        <time>2021-08-06T12:48:06Z</time>
      </trkpt>
      <trkpt lat="45.1125" lon="5.90039">
        <ele>1919</ele>
        <time>2021-08-06T12:48:09Z</time>
      </trkpt>
      <trkpt lat="45.1125" lon="5.90038">
        <ele>1919</ele>
        <time>2021-08-06T12:48:12Z</time>
      </trkpt>
      <trkpt lat="45.11249" lon="5.90036">
        <ele>1919</ele>
        <time>2021-08-06T12:48:15Z</time>
      </trkpt>
      <trkpt lat="45.11248" lon="5.90035">
        <ele>1919</ele>
        <time>2021-08-06T12:48:19Z</time>
      </trkpt>
      <trkpt lat="45.11247" lon="5.90033">
        <ele>1919</ele>
        <time>2021-08-06T12:48:22Z</time>
      </trkpt>
      <trkpt lat="45.11245" lon="5.90032">
        <ele>1919</ele>
        <time>2021-08-06T12:48:26Z</time>
      </trkpt>
      <trkpt lat="45.11244" lon="5.90031">
        <ele>1919</ele>
        <time>2021-08-06T12:48:28Z</time>
      </trkpt>
      <trkpt lat="45.11243" lon="5.9003">
        <ele>1919</ele>
        <time>2021-08-06T12:48:31Z</time>
      </trkpt>
      <trkpt lat="45.11241" lon="5.90029">
        <ele>1919</ele>
        <time>2021-08-06T12:48:33Z</time>
      </trkpt>
      <trkpt lat="45.11239" lon="5.90029">
        <ele>1919</ele>
        <time>2021-08-06T12:48:35Z</time>
      </trkpt>
      <trkpt lat="45.11237" lon="5.90029">
        <ele>1919</ele>
        <time>2021-08-06T12:48:37Z</time>
      </trkpt>
      <trkpt lat="45.11236" lon="5.90028">
        <ele>1919</ele>
        <time>2021-08-06T12:48:39Z</time>
      </trkpt>
      <trkpt lat="45.11235" lon="5.90028">
        <ele>1919</ele>
        <time>2021-08-06T12:48:42Z</time>
      </trkpt>
      <trkpt lat="45.11234" lon="5.90028">
        <ele>1919</ele>
        <time>2021-08-06T12:48:46Z</time>
      </trkpt>
      <trkpt lat="45.11232" lon="5.90026">
        <ele>1919</ele>
        <time>2021-08-06T12:48:49Z</time>
      </trkpt>
      <trkpt lat="45.11231" lon="5.90025">
        <ele>1919</ele>
        <time>2021-08-06T12:48:51Z</time>
      </trkpt>
      <trkpt lat="45.11229" lon="5.90024">
        <ele>1919</ele>
        <time>2021-08-06T12:48:53Z</time>
      </trkpt>
      <trkpt lat="45.11228" lon="5.90024">
        <ele>1919</ele>
        <time>2021-08-06T12:48:56Z</time>
      </trkpt>
      <trkpt lat="45.11227" lon="5.90022">
        <ele>1919</ele>
        <time>2021-08-06T12:49:00Z</time>
      </trkpt>
      <trkpt lat="45.11225" lon="5.90022">
        <ele>1919</ele>
        <time>2021-08-06T12:49:03Z</time>
      </trkpt>
      <trkpt lat="45.11224" lon="5.90021">
        <ele>1919</ele>
        <time>2021-08-06T12:49:06Z</time>
      </trkpt>
      <trkpt lat="45.11223" lon="5.9002">
        <ele>1919</ele>
        <time>2021-08-06T12:49:12Z</time>
      </trkpt>
      <trkpt lat="45.11221" lon="5.9002">
        <ele>1919</ele>
        <time>2021-08-06T12:49:15Z</time>
      </trkpt>
      <trkpt lat="45.1122" lon="5.90018">
        <ele>1919</ele>
        <time>2021-08-06T12:49:18Z</time>
      </trkpt>
      <trkpt lat="45.11219" lon="5.90017">
        <ele>1918</ele>
        <time>2021-08-06T12:49:21Z</time>
      </trkpt>
      <trkpt lat="45.11217" lon="5.90017">
        <ele>1918</ele>
        <time>2021-08-06T12:49:23Z</time>
      </trkpt>
      <trkpt lat="45.11216" lon="5.90017">
        <ele>1918</ele>
        <time>2021-08-06T12:49:29Z</time>
      </trkpt>
      <trkpt lat="45.11215" lon="5.90017">
        <ele>1918</ele>
        <time>2021-08-06T12:49:31Z</time>
      </trkpt>
      <trkpt lat="45.11213" lon="5.90017">
        <ele>1918</ele>
        <time>2021-08-06T12:49:38Z</time>
      </trkpt>
      <trkpt lat="45.11212" lon="5.90017">
        <ele>1918</ele>
        <time>2021-08-06T12:49:44Z</time>
      </trkpt>
      <trkpt lat="45.11211" lon="5.90017">
        <ele>1918</ele>
        <time>2021-08-06T12:49:47Z</time>
      </trkpt>
      <trkpt lat="45.11209" lon="5.90016">
        <ele>1918</ele>
        <time>2021-08-06T12:49:54Z</time>
      </trkpt>
      <trkpt lat="45.11208" lon="5.90015">
        <ele>1918</ele>
        <time>2021-08-06T12:49:58Z</time>
      </trkpt>
      <trkpt lat="45.11206" lon="5.90014">
        <ele>1918</ele>
        <time>2021-08-06T12:50:00Z</time>
      </trkpt>
      <trkpt lat="45.11205" lon="5.90014">
        <ele>1918</ele>
        <time>2021-08-06T12:50:01Z</time>
      </trkpt>
      <trkpt lat="45.11203" lon="5.90012">
        <ele>1918</ele>
        <time>2021-08-06T12:50:03Z</time>
      </trkpt>
      <trkpt lat="45.11201" lon="5.90012">
        <ele>1918</ele>
        <time>2021-08-06T12:50:04Z</time>
      </trkpt>
      <trkpt lat="45.112" lon="5.90011">
        <ele>1918</ele>
        <time>2021-08-06T12:50:05Z</time>
      </trkpt>
      <trkpt lat="45.11198" lon="5.90009">
        <ele>1918</ele>
        <time>2021-08-06T12:50:07Z</time>
      </trkpt>
      <trkpt lat="45.11197" lon="5.90008">
        <ele>1918</ele>
        <time>2021-08-06T12:50:09Z</time>
      </trkpt>
      <trkpt lat="45.11196" lon="5.90007">
        <ele>1918</ele>
        <time>2021-08-06T12:50:11Z</time>
      </trkpt>
      <trkpt lat="45.11196" lon="5.90005">
        <ele>1918</ele>
        <time>2021-08-06T12:50:15Z</time>
      </trkpt>
      <trkpt lat="45.11196" lon="5.90004">
        <ele>1918</ele>
        <time>2021-08-06T12:50:21Z</time>
      </trkpt>
      <trkpt lat="45.11195" lon="5.90003">
        <ele>1918</ele>
        <time>2021-08-06T12:50:23Z</time>
      </trkpt>
      <trkpt lat="45.11194" lon="5.90002">
        <ele>1918</ele>
        <time>2021-08-06T12:50:25Z</time>
      </trkpt>
      <trkpt lat="45.11192" lon="5.90001">
        <ele>1918</ele>
        <time>2021-08-06T12:50:28Z</time>
      </trkpt>
      <trkpt lat="45.11191" lon="5.90001">
        <ele>1917</ele>
        <time>2021-08-06T12:50:31Z</time>
      </trkpt>
      <trkpt lat="45.1119" lon="5.89999">
        <ele>1915</ele>
        <time>2021-08-06T12:50:38Z</time>
      </trkpt>
      <trkpt lat="45.1119" lon="5.89998">
        <ele>1914</ele>
        <time>2021-08-06T12:50:44Z</time>
      </trkpt>
      <trkpt lat="45.11189" lon="5.89996">
        <ele>1913</ele>
        <time>2021-08-06T12:50:48Z</time>
      </trkpt>
      <trkpt lat="45.11189" lon="5.89994">
        <ele>1913</ele>
        <time>2021-08-06T12:50:54Z</time>
      </trkpt>
      <trkpt lat="45.11189" lon="5.89993">
        <ele>1913</ele>
        <time>2021-08-06T12:51:01Z</time>
      </trkpt>
      <trkpt lat="45.11188" lon="5.89991">
        <ele>1913</ele>
        <time>2021-08-06T12:51:05Z</time>
      </trkpt>
      <trkpt lat="45.11188" lon="5.89989">
        <ele>1912</ele>
        <time>2021-08-06T12:51:08Z</time>
      </trkpt>
      <trkpt lat="45.11187" lon="5.89987">
        <ele>1912</ele>
        <time>2021-08-06T12:51:11Z</time>
      </trkpt>
      <trkpt lat="45.11186" lon="5.89986">
        <ele>1912</ele>
        <time>2021-08-06T12:51:14Z</time>
      </trkpt>
      <trkpt lat="45.11185" lon="5.89984">
        <ele>1911</ele>
        <time>2021-08-06T12:51:16Z</time>
      </trkpt>
      <trkpt lat="45.11184" lon="5.89983">
        <ele>1911</ele>
        <time>2021-08-06T12:51:18Z</time>
      </trkpt>
      <trkpt lat="45.11184" lon="5.89981">
        <ele>1911</ele>
        <time>2021-08-06T12:51:20Z</time>
      </trkpt>
      <trkpt lat="45.11184" lon="5.89979">
        <ele>1911</ele>
        <time>2021-08-06T12:51:22Z</time>
      </trkpt>
      <trkpt lat="45.11182" lon="5.89977">
        <ele>1911</ele>
        <time>2021-08-06T12:51:24Z</time>
      </trkpt>
      <trkpt lat="45.11181" lon="5.89977">
        <ele>1910</ele>
        <time>2021-08-06T12:51:26Z</time>
      </trkpt>
      <trkpt lat="45.1118" lon="5.89976">
        <ele>1910</ele>
        <time>2021-08-06T12:51:28Z</time>
      </trkpt>
      <trkpt lat="45.11179" lon="5.89974">
        <ele>1910</ele>
        <time>2021-08-06T12:51:30Z</time>
      </trkpt>
      <trkpt lat="45.11178" lon="5.89972">
        <ele>1910</ele>
        <time>2021-08-06T12:51:33Z</time>
      </trkpt>
      <trkpt lat="45.11177" lon="5.8997">
        <ele>1910</ele>
        <time>2021-08-06T12:51:35Z</time>
      </trkpt>
      <trkpt lat="45.11176" lon="5.89969">
        <ele>1910</ele>
        <time>2021-08-06T12:51:38Z</time>
      </trkpt>
      <trkpt lat="45.11176" lon="5.89967">
        <ele>1910</ele>
        <time>2021-08-06T12:51:41Z</time>
      </trkpt>
      <trkpt lat="45.11175" lon="5.89965">
        <ele>1910</ele>
        <time>2021-08-06T12:51:44Z</time>
      </trkpt>
      <trkpt lat="45.11174" lon="5.89964">
        <ele>1910</ele>
        <time>2021-08-06T12:51:47Z</time>
      </trkpt>
      <trkpt lat="45.11174" lon="5.89962">
        <ele>1910</ele>
        <time>2021-08-06T12:51:50Z</time>
      </trkpt>
      <trkpt lat="45.11174" lon="5.8996">
        <ele>1910</ele>
        <time>2021-08-06T12:51:53Z</time>
      </trkpt>
      <trkpt lat="45.11174" lon="5.89958">
        <ele>1910</ele>
        <time>2021-08-06T12:51:55Z</time>
      </trkpt>
      <trkpt lat="45.11174" lon="5.89957">
        <ele>1910</ele>
        <time>2021-08-06T12:51:58Z</time>
      </trkpt>
      <trkpt lat="45.11173" lon="5.89955">
        <ele>1910</ele>
        <time>2021-08-06T12:52:02Z</time>
      </trkpt>
      <trkpt lat="45.11172" lon="5.89954">
        <ele>1910</ele>
        <time>2021-08-06T12:52:05Z</time>
      </trkpt>
      <trkpt lat="45.11171" lon="5.89952">
        <ele>1910</ele>
        <time>2021-08-06T12:52:09Z</time>
      </trkpt>
      <trkpt lat="45.11172" lon="5.89951">
        <ele>1910</ele>
        <time>2021-08-06T12:52:12Z</time>
      </trkpt>
      <trkpt lat="45.11172" lon="5.89949">
        <ele>1910</ele>
        <time>2021-08-06T12:52:14Z</time>
      </trkpt>
      <trkpt lat="45.11173" lon="5.89947">
        <ele>1910</ele>
        <time>2021-08-06T12:52:17Z</time>
      </trkpt>
      <trkpt lat="45.11173" lon="5.89946">
        <ele>1910</ele>
        <time>2021-08-06T12:52:19Z</time>
      </trkpt>
      <trkpt lat="45.11172" lon="5.89944">
        <ele>1910</ele>
        <time>2021-08-06T12:52:21Z</time>
      </trkpt>
      <trkpt lat="45.11171" lon="5.89942">
        <ele>1911</ele>
        <time>2021-08-06T12:52:25Z</time>
      </trkpt>
      <trkpt lat="45.1117" lon="5.89941">
        <ele>1911</ele>
        <time>2021-08-06T12:52:29Z</time>
      </trkpt>
      <trkpt lat="45.11169" lon="5.89939">
        <ele>1911</ele>
        <time>2021-08-06T12:52:32Z</time>
      </trkpt>
      <trkpt lat="45.11167" lon="5.89938">
        <ele>1911</ele>
        <time>2021-08-06T12:52:35Z</time>
      </trkpt>
      <trkpt lat="45.11166" lon="5.89936">
        <ele>1911</ele>
        <time>2021-08-06T12:52:38Z</time>
      </trkpt>
      <trkpt lat="45.11166" lon="5.89935">
        <ele>1911</ele>
        <time>2021-08-06T12:52:40Z</time>
      </trkpt>
      <trkpt lat="45.11166" lon="5.89933">
        <ele>1911</ele>
        <time>2021-08-06T12:52:42Z</time>
      </trkpt>
      <trkpt lat="45.11166" lon="5.89932">
        <ele>1911</ele>
        <time>2021-08-06T12:52:45Z</time>
      </trkpt>
      <trkpt lat="45.11165" lon="5.8993">
        <ele>1911</ele>
        <time>2021-08-06T12:52:48Z</time>
      </trkpt>
      <trkpt lat="45.11164" lon="5.89929">
        <ele>1911</ele>
        <time>2021-08-06T12:52:52Z</time>
      </trkpt>
      <trkpt lat="45.11163" lon="5.8993">
        <ele>1911</ele>
        <time>2021-08-06T12:52:57Z</time>
      </trkpt>
      <trkpt lat="45.11161" lon="5.89928">
        <ele>1911</ele>
        <time>2021-08-06T12:53:00Z</time>
      </trkpt>
      <trkpt lat="45.1116" lon="5.89927">
        <ele>1911</ele>
        <time>2021-08-06T12:53:02Z</time>
      </trkpt>
      <trkpt lat="45.11159" lon="5.89927">
        <ele>1912</ele>
        <time>2021-08-06T12:53:04Z</time>
      </trkpt>
      <trkpt lat="45.11158" lon="5.89926">
        <ele>1912</ele>
        <time>2021-08-06T12:53:06Z</time>
      </trkpt>
      <trkpt lat="45.11156" lon="5.89926">
        <ele>1913</ele>
        <time>2021-08-06T12:53:08Z</time>
      </trkpt>
      <trkpt lat="45.11155" lon="5.89926">
        <ele>1913</ele>
        <time>2021-08-06T12:53:09Z</time>
      </trkpt>
      <trkpt lat="45.11153" lon="5.89926">
        <ele>1914</ele>
        <time>2021-08-06T12:53:10Z</time>
      </trkpt>
      <trkpt lat="45.11152" lon="5.89926">
        <ele>1914</ele>
        <time>2021-08-06T12:53:12Z</time>
      </trkpt>
      <trkpt lat="45.1115" lon="5.89925">
        <ele>1915</ele>
        <time>2021-08-06T12:53:14Z</time>
      </trkpt>
      <trkpt lat="45.11148" lon="5.89924">
        <ele>1915</ele>
        <time>2021-08-06T12:53:16Z</time>
      </trkpt>
      <trkpt lat="45.11147" lon="5.89922">
        <ele>1915</ele>
        <time>2021-08-06T12:53:18Z</time>
      </trkpt>
      <trkpt lat="45.11147" lon="5.8992">
        <ele>1915</ele>
        <time>2021-08-06T12:53:20Z</time>
      </trkpt>
      <trkpt lat="45.11148" lon="5.89919">
        <ele>1915</ele>
        <time>2021-08-06T12:53:22Z</time>
      </trkpt>
      <trkpt lat="45.11148" lon="5.89917">
        <ele>1915</ele>
        <time>2021-08-06T12:53:24Z</time>
      </trkpt>
      <trkpt lat="45.11149" lon="5.89915">
        <ele>1915</ele>
        <time>2021-08-06T12:53:26Z</time>
      </trkpt>
      <trkpt lat="45.1115" lon="5.89913">
        <ele>1915</ele>
        <time>2021-08-06T12:53:29Z</time>
      </trkpt>
      <trkpt lat="45.1115" lon="5.89911">
        <ele>1915</ele>
        <time>2021-08-06T12:53:39Z</time>
      </trkpt>
      <trkpt lat="45.11149" lon="5.89909">
        <ele>1915</ele>
        <time>2021-08-06T12:53:42Z</time>
      </trkpt>
      <trkpt lat="45.11149" lon="5.89907">
        <ele>1915</ele>
        <time>2021-08-06T12:53:44Z</time>
      </trkpt>
      <trkpt lat="45.11149" lon="5.89906">
        <ele>1915</ele>
        <time>2021-08-06T12:53:46Z</time>
      </trkpt>
      <trkpt lat="45.11147" lon="5.89905">
        <ele>1915</ele>
        <time>2021-08-06T12:53:48Z</time>
      </trkpt>
      <trkpt lat="45.11146" lon="5.89904">
        <ele>1915</ele>
        <time>2021-08-06T12:53:51Z</time>
      </trkpt>
      <trkpt lat="45.11144" lon="5.89903">
        <ele>1915</ele>
        <time>2021-08-06T12:53:53Z</time>
      </trkpt>
      <trkpt lat="45.11143" lon="5.89902">
        <ele>1915</ele>
        <time>2021-08-06T12:53:56Z</time>
      </trkpt>
      <trkpt lat="45.11142" lon="5.89901">
        <ele>1915</ele>
        <time>2021-08-06T12:53:58Z</time>
      </trkpt>
      <trkpt lat="45.1114" lon="5.89899">
        <ele>1915</ele>
        <time>2021-08-06T12:54:00Z</time>
      </trkpt>
      <trkpt lat="45.11139" lon="5.89897">
        <ele>1915</ele>
        <time>2021-08-06T12:54:02Z</time>
      </trkpt>
      <trkpt lat="45.11138" lon="5.89895">
        <ele>1915</ele>
        <time>2021-08-06T12:54:04Z</time>
      </trkpt>
      <trkpt lat="45.11138" lon="5.89893">
        <ele>1915</ele>
        <time>2021-08-06T12:54:06Z</time>
      </trkpt>
      <trkpt lat="45.11137" lon="5.89891">
        <ele>1915</ele>
        <time>2021-08-06T12:54:08Z</time>
      </trkpt>
      <trkpt lat="45.11137" lon="5.89889">
        <ele>1915</ele>
        <time>2021-08-06T12:54:10Z</time>
      </trkpt>
      <trkpt lat="45.11135" lon="5.89888">
        <ele>1915</ele>
        <time>2021-08-06T12:54:13Z</time>
      </trkpt>
      <trkpt lat="45.11134" lon="5.89888">
        <ele>1915</ele>
        <time>2021-08-06T12:54:15Z</time>
      </trkpt>
      <trkpt lat="45.11133" lon="5.89888">
        <ele>1915</ele>
        <time>2021-08-06T12:54:17Z</time>
      </trkpt>
      <trkpt lat="45.11132" lon="5.89887">
        <ele>1915</ele>
        <time>2021-08-06T12:54:20Z</time>
      </trkpt>
      <trkpt lat="45.1113" lon="5.89887">
        <ele>1915</ele>
        <time>2021-08-06T12:54:23Z</time>
      </trkpt>
      <trkpt lat="45.11129" lon="5.89886">
        <ele>1915</ele>
        <time>2021-08-06T12:54:26Z</time>
      </trkpt>
      <trkpt lat="45.11128" lon="5.89884">
        <ele>1915</ele>
        <time>2021-08-06T12:54:30Z</time>
      </trkpt>
      <trkpt lat="45.11127" lon="5.89883">
        <ele>1915</ele>
        <time>2021-08-06T12:54:34Z</time>
      </trkpt>
      <trkpt lat="45.11126" lon="5.89881">
        <ele>1915</ele>
        <time>2021-08-06T12:54:38Z</time>
      </trkpt>
      <trkpt lat="45.11125" lon="5.8988">
        <ele>1915</ele>
        <time>2021-08-06T12:54:41Z</time>
      </trkpt>
      <trkpt lat="45.11124" lon="5.89877">
        <ele>1915</ele>
        <time>2021-08-06T12:54:44Z</time>
      </trkpt>
      <trkpt lat="45.11124" lon="5.89876">
        <ele>1915</ele>
        <time>2021-08-06T12:54:46Z</time>
      </trkpt>
      <trkpt lat="45.11123" lon="5.89874">
        <ele>1915</ele>
        <time>2021-08-06T12:54:49Z</time>
      </trkpt>
      <trkpt lat="45.11122" lon="5.89873">
        <ele>1915</ele>
        <time>2021-08-06T12:54:52Z</time>
      </trkpt>
      <trkpt lat="45.11121" lon="5.89872">
        <ele>1915</ele>
        <time>2021-08-06T12:54:57Z</time>
      </trkpt>
      <trkpt lat="45.11119" lon="5.8987">
        <ele>1915</ele>
        <time>2021-08-06T12:55:01Z</time>
      </trkpt>
      <trkpt lat="45.1112" lon="5.89868">
        <ele>1915</ele>
        <time>2021-08-06T12:55:04Z</time>
      </trkpt>
      <trkpt lat="45.11121" lon="5.89867">
        <ele>1915</ele>
        <time>2021-08-06T12:55:07Z</time>
      </trkpt>
      <trkpt lat="45.11121" lon="5.89864">
        <ele>1915</ele>
        <time>2021-08-06T12:55:17Z</time>
      </trkpt>
      <trkpt lat="45.11122" lon="5.89863">
        <ele>1915</ele>
        <time>2021-08-06T12:55:20Z</time>
      </trkpt>
      <trkpt lat="45.11122" lon="5.8986">
        <ele>1915</ele>
        <time>2021-08-06T12:55:22Z</time>
      </trkpt>
      <trkpt lat="45.11122" lon="5.89858">
        <ele>1915</ele>
        <time>2021-08-06T12:55:24Z</time>
      </trkpt>
      <trkpt lat="45.11123" lon="5.89856">
        <ele>1915</ele>
        <time>2021-08-06T12:55:25Z</time>
      </trkpt>
      <trkpt lat="45.11123" lon="5.89854">
        <ele>1915</ele>
        <time>2021-08-06T12:55:26Z</time>
      </trkpt>
      <trkpt lat="45.11122" lon="5.89853">
        <ele>1915</ele>
        <time>2021-08-06T12:55:30Z</time>
      </trkpt>
      <trkpt lat="45.11121" lon="5.89852">
        <ele>1915</ele>
        <time>2021-08-06T12:55:34Z</time>
      </trkpt>
      <trkpt lat="45.11119" lon="5.89852">
        <ele>1915</ele>
        <time>2021-08-06T12:55:37Z</time>
      </trkpt>
      <trkpt lat="45.11118" lon="5.89852">
        <ele>1915</ele>
        <time>2021-08-06T12:55:40Z</time>
      </trkpt>
      <trkpt lat="45.11117" lon="5.89852">
        <ele>1915</ele>
        <time>2021-08-06T12:55:45Z</time>
      </trkpt>
      <trkpt lat="45.11116" lon="5.8985">
        <ele>1915</ele>
        <time>2021-08-06T12:55:48Z</time>
      </trkpt>
      <trkpt lat="45.11115" lon="5.89849">
        <ele>1915</ele>
        <time>2021-08-06T12:55:50Z</time>
      </trkpt>
      <trkpt lat="45.11114" lon="5.89847">
        <ele>1915</ele>
        <time>2021-08-06T12:55:53Z</time>
      </trkpt>
      <trkpt lat="45.11115" lon="5.89846">
        <ele>1915</ele>
        <time>2021-08-06T12:55:55Z</time>
      </trkpt>
      <trkpt lat="45.11115" lon="5.89844">
        <ele>1915</ele>
        <time>2021-08-06T12:55:57Z</time>
      </trkpt>
      <trkpt lat="45.11114" lon="5.89842">
        <ele>1915</ele>
        <time>2021-08-06T12:55:59Z</time>
      </trkpt>
      <trkpt lat="45.11114" lon="5.8984">
        <ele>1915</ele>
        <time>2021-08-06T12:56:01Z</time>
      </trkpt>
      <trkpt lat="45.11114" lon="5.89838">
        <ele>1915</ele>
        <time>2021-08-06T12:56:03Z</time>
      </trkpt>
      <trkpt lat="45.11114" lon="5.89835">
        <ele>1915</ele>
        <time>2021-08-06T12:56:05Z</time>
      </trkpt>
      <trkpt lat="45.11114" lon="5.89834">
        <ele>1915</ele>
        <time>2021-08-06T12:56:06Z</time>
      </trkpt>
      <trkpt lat="45.11115" lon="5.89831">
        <ele>1915</ele>
        <time>2021-08-06T12:56:08Z</time>
      </trkpt>
      <trkpt lat="45.11115" lon="5.89829">
        <ele>1915</ele>
        <time>2021-08-06T12:56:10Z</time>
      </trkpt>
      <trkpt lat="45.11115" lon="5.89828">
        <ele>1915</ele>
        <time>2021-08-06T12:56:12Z</time>
      </trkpt>
      <trkpt lat="45.11115" lon="5.89826">
        <ele>1915</ele>
        <time>2021-08-06T12:56:25Z</time>
      </trkpt>
      <trkpt lat="45.11116" lon="5.89824">
        <ele>1915</ele>
        <time>2021-08-06T12:56:27Z</time>
      </trkpt>
      <trkpt lat="45.11116" lon="5.89822">
        <ele>1915</ele>
        <time>2021-08-06T12:56:31Z</time>
      </trkpt>
      <trkpt lat="45.11115" lon="5.89821">
        <ele>1915</ele>
        <time>2021-08-06T12:56:35Z</time>
      </trkpt>
      <trkpt lat="45.11114" lon="5.89819">
        <ele>1915</ele>
        <time>2021-08-06T12:56:43Z</time>
      </trkpt>
      <trkpt lat="45.11114" lon="5.89818">
        <ele>1915</ele>
        <time>2021-08-06T12:56:48Z</time>
      </trkpt>
      <trkpt lat="45.11113" lon="5.89816">
        <ele>1915</ele>
        <time>2021-08-06T12:56:51Z</time>
      </trkpt>
      <trkpt lat="45.11111" lon="5.89814">
        <ele>1915</ele>
        <time>2021-08-06T12:56:55Z</time>
      </trkpt>
      <trkpt lat="45.1111" lon="5.89813">
        <ele>1916</ele>
        <time>2021-08-06T12:56:58Z</time>
      </trkpt>
      <trkpt lat="45.11111" lon="5.89811">
        <ele>1917</ele>
        <time>2021-08-06T12:57:02Z</time>
      </trkpt>
      <trkpt lat="45.1111" lon="5.89809">
        <ele>1919</ele>
        <time>2021-08-06T12:57:05Z</time>
      </trkpt>
      <trkpt lat="45.1111" lon="5.89807">
        <ele>1920</ele>
        <time>2021-08-06T12:57:09Z</time>
      </trkpt>
      <trkpt lat="45.1111" lon="5.89805">
        <ele>1920</ele>
        <time>2021-08-06T12:57:12Z</time>
      </trkpt>
      <trkpt lat="45.11111" lon="5.89804">
        <ele>1920</ele>
        <time>2021-08-06T12:57:25Z</time>
      </trkpt>
      <trkpt lat="45.11111" lon="5.89801">
        <ele>1920</ele>
        <time>2021-08-06T12:57:27Z</time>
      </trkpt>
      <trkpt lat="45.11111" lon="5.89798">
        <ele>1920</ele>
        <time>2021-08-06T12:57:29Z</time>
      </trkpt>
      <trkpt lat="45.11112" lon="5.89796">
        <ele>1920</ele>
        <time>2021-08-06T12:57:31Z</time>
      </trkpt>
      <trkpt lat="45.11113" lon="5.89794">
        <ele>1920</ele>
        <time>2021-08-06T12:57:34Z</time>
      </trkpt>
      <trkpt lat="45.11112" lon="5.89792">
        <ele>1920</ele>
        <time>2021-08-06T12:57:36Z</time>
      </trkpt>
      <trkpt lat="45.11112" lon="5.89789">
        <ele>1920</ele>
        <time>2021-08-06T12:57:38Z</time>
      </trkpt>
      <trkpt lat="45.11113" lon="5.89787">
        <ele>1920</ele>
        <time>2021-08-06T12:57:40Z</time>
      </trkpt>
      <trkpt lat="45.11113" lon="5.89785">
        <ele>1920</ele>
        <time>2021-08-06T12:57:43Z</time>
      </trkpt>
      <trkpt lat="45.11114" lon="5.89782">
        <ele>1920</ele>
        <time>2021-08-06T12:57:47Z</time>
      </trkpt>
      <trkpt lat="45.11115" lon="5.89781">
        <ele>1920</ele>
        <time>2021-08-06T12:57:49Z</time>
      </trkpt>
      <trkpt lat="45.11115" lon="5.89779">
        <ele>1920</ele>
        <time>2021-08-06T12:57:51Z</time>
      </trkpt>
      <trkpt lat="45.11115" lon="5.89777">
        <ele>1920</ele>
        <time>2021-08-06T12:57:53Z</time>
      </trkpt>
      <trkpt lat="45.11117" lon="5.89776">
        <ele>1920</ele>
        <time>2021-08-06T12:57:59Z</time>
      </trkpt>
      <trkpt lat="45.11116" lon="5.89774">
        <ele>1920</ele>
        <time>2021-08-06T12:58:07Z</time>
      </trkpt>
      <trkpt lat="45.11115" lon="5.89774">
        <ele>1922</ele>
        <time>2021-08-06T12:58:10Z</time>
      </trkpt>
      <trkpt lat="45.11113" lon="5.89774">
        <ele>1923</ele>
        <time>2021-08-06T12:58:12Z</time>
      </trkpt>
      <trkpt lat="45.11115" lon="5.89773">
        <ele>1926</ele>
        <time>2021-08-06T12:58:19Z</time>
      </trkpt>
      <trkpt lat="45.11114" lon="5.89771">
        <ele>1926</ele>
        <time>2021-08-06T12:58:28Z</time>
      </trkpt>
      <trkpt lat="45.11114" lon="5.89769">
        <ele>1927</ele>
        <time>2021-08-06T12:58:31Z</time>
      </trkpt>
      <trkpt lat="45.11115" lon="5.89767">
        <ele>1928</ele>
        <time>2021-08-06T12:58:36Z</time>
      </trkpt>
      <trkpt lat="45.11115" lon="5.89766">
        <ele>1929</ele>
        <time>2021-08-06T12:58:39Z</time>
      </trkpt>
      <trkpt lat="45.11116" lon="5.89763">
        <ele>1930</ele>
        <time>2021-08-06T12:58:43Z</time>
      </trkpt>
      <trkpt lat="45.11116" lon="5.89761">
        <ele>1930</ele>
        <time>2021-08-06T12:58:46Z</time>
      </trkpt>
      <trkpt lat="45.11117" lon="5.89759">
        <ele>1930</ele>
        <time>2021-08-06T12:58:49Z</time>
      </trkpt>
      <trkpt lat="45.11118" lon="5.89759">
        <ele>1930</ele>
        <time>2021-08-06T12:58:52Z</time>
      </trkpt>
      <trkpt lat="45.11119" lon="5.89758">
        <ele>1930</ele>
        <time>2021-08-06T12:58:54Z</time>
      </trkpt>
      <trkpt lat="45.1112" lon="5.89757">
        <ele>1930</ele>
        <time>2021-08-06T12:58:58Z</time>
      </trkpt>
      <trkpt lat="45.11121" lon="5.89755">
        <ele>1930</ele>
        <time>2021-08-06T12:59:01Z</time>
      </trkpt>
      <trkpt lat="45.11122" lon="5.89754">
        <ele>1928</ele>
        <time>2021-08-06T12:59:20Z</time>
      </trkpt>
      <trkpt lat="45.11123" lon="5.89753">
        <ele>1928</ele>
        <time>2021-08-06T12:59:52Z</time>
      </trkpt>
      <trkpt lat="45.11121" lon="5.89754">
        <ele>1928</ele>
        <time>2021-08-06T13:00:11Z</time>
      </trkpt>
      <trkpt lat="45.11123" lon="5.89753">
        <ele>1928</ele>
        <time>2021-08-06T13:00:38Z</time>
      </trkpt>
      <trkpt lat="45.11123" lon="5.89751">
        <ele>1928</ele>
        <time>2021-08-06T13:00:44Z</time>
      </trkpt>
      <trkpt lat="45.11124" lon="5.8975">
        <ele>1928</ele>
        <time>2021-08-06T13:00:48Z</time>
      </trkpt>
      <trkpt lat="45.11124" lon="5.89747">
        <ele>1928</ele>
        <time>2021-08-06T13:00:50Z</time>
      </trkpt>
      <trkpt lat="45.11124" lon="5.89746">
        <ele>1928</ele>
        <time>2021-08-06T13:00:52Z</time>
      </trkpt>
      <trkpt lat="45.11126" lon="5.89744">
        <ele>1928</ele>
        <time>2021-08-06T13:00:55Z</time>
      </trkpt>
      <trkpt lat="45.11126" lon="5.89742">
        <ele>1928</ele>
        <time>2021-08-06T13:00:59Z</time>
      </trkpt>
      <trkpt lat="45.11126" lon="5.89741">
        <ele>1928</ele>
        <time>2021-08-06T13:01:01Z</time>
      </trkpt>
      <trkpt lat="45.11126" lon="5.89739">
        <ele>1928</ele>
        <time>2021-08-06T13:01:06Z</time>
      </trkpt>
      <trkpt lat="45.11126" lon="5.89737">
        <ele>1928</ele>
        <time>2021-08-06T13:01:08Z</time>
      </trkpt>
      <trkpt lat="45.11126" lon="5.89735">
        <ele>1928</ele>
        <time>2021-08-06T13:01:10Z</time>
      </trkpt>
      <trkpt lat="45.11126" lon="5.89733">
        <ele>1928</ele>
        <time>2021-08-06T13:01:12Z</time>
      </trkpt>
      <trkpt lat="45.11127" lon="5.89732">
        <ele>1928</ele>
        <time>2021-08-06T13:01:14Z</time>
      </trkpt>
      <trkpt lat="45.11126" lon="5.8973">
        <ele>1929</ele>
        <time>2021-08-06T13:01:16Z</time>
      </trkpt>
      <trkpt lat="45.11126" lon="5.89728">
        <ele>1929</ele>
        <time>2021-08-06T13:01:18Z</time>
      </trkpt>
      <trkpt lat="45.11127" lon="5.89726">
        <ele>1929</ele>
        <time>2021-08-06T13:01:20Z</time>
      </trkpt>
      <trkpt lat="45.11127" lon="5.89724">
        <ele>1929</ele>
        <time>2021-08-06T13:01:23Z</time>
      </trkpt>
      <trkpt lat="45.11129" lon="5.89723">
        <ele>1931</ele>
        <time>2021-08-06T13:01:27Z</time>
      </trkpt>
      <trkpt lat="45.11129" lon="5.89721">
        <ele>1932</ele>
        <time>2021-08-06T13:01:32Z</time>
      </trkpt>
      <trkpt lat="45.11129" lon="5.89719">
        <ele>1932</ele>
        <time>2021-08-06T13:01:34Z</time>
      </trkpt>
      <trkpt lat="45.11129" lon="5.89717">
        <ele>1932</ele>
        <time>2021-08-06T13:01:36Z</time>
      </trkpt>
      <trkpt lat="45.11131" lon="5.89717">
        <ele>1932</ele>
        <time>2021-08-06T13:01:48Z</time>
      </trkpt>
      <trkpt lat="45.1113" lon="5.89715">
        <ele>1932</ele>
        <time>2021-08-06T13:01:53Z</time>
      </trkpt>
      <trkpt lat="45.1113" lon="5.89713">
        <ele>1932</ele>
        <time>2021-08-06T13:02:00Z</time>
      </trkpt>
      <trkpt lat="45.1113" lon="5.89711">
        <ele>1932</ele>
        <time>2021-08-06T13:02:05Z</time>
      </trkpt>
      <trkpt lat="45.11129" lon="5.8971">
        <ele>1932</ele>
        <time>2021-08-06T13:02:07Z</time>
      </trkpt>
      <trkpt lat="45.11129" lon="5.89708">
        <ele>1932</ele>
        <time>2021-08-06T13:02:09Z</time>
      </trkpt>
      <trkpt lat="45.1113" lon="5.89706">
        <ele>1932</ele>
        <time>2021-08-06T13:02:12Z</time>
      </trkpt>
      <trkpt lat="45.11131" lon="5.89704">
        <ele>1932</ele>
        <time>2021-08-06T13:02:15Z</time>
      </trkpt>
      <trkpt lat="45.11132" lon="5.89703">
        <ele>1932</ele>
        <time>2021-08-06T13:02:18Z</time>
      </trkpt>
      <trkpt lat="45.11132" lon="5.89701">
        <ele>1932</ele>
        <time>2021-08-06T13:02:24Z</time>
      </trkpt>
      <trkpt lat="45.11132" lon="5.89699">
        <ele>1932</ele>
        <time>2021-08-06T13:02:28Z</time>
      </trkpt>
      <trkpt lat="45.11133" lon="5.89698">
        <ele>1932</ele>
        <time>2021-08-06T13:02:41Z</time>
      </trkpt>
      <trkpt lat="45.11134" lon="5.89696">
        <ele>1932</ele>
        <time>2021-08-06T13:02:45Z</time>
      </trkpt>
      <trkpt lat="45.11133" lon="5.89696">
        <ele>1932</ele>
        <time>2021-08-06T13:03:05Z</time>
      </trkpt>
      <trkpt lat="45.11133" lon="5.89694">
        <ele>1932</ele>
        <time>2021-08-06T13:03:12Z</time>
      </trkpt>
      <trkpt lat="45.11134" lon="5.89693">
        <ele>1932</ele>
        <time>2021-08-06T13:03:17Z</time>
      </trkpt>
      <trkpt lat="45.11135" lon="5.89692">
        <ele>1932</ele>
        <time>2021-08-06T13:03:22Z</time>
      </trkpt>
      <trkpt lat="45.11135" lon="5.8969">
        <ele>1932</ele>
        <time>2021-08-06T13:03:25Z</time>
      </trkpt>
      <trkpt lat="45.11137" lon="5.89689">
        <ele>1932</ele>
        <time>2021-08-06T13:03:33Z</time>
      </trkpt>
      <trkpt lat="45.11137" lon="5.89687">
        <ele>1932</ele>
        <time>2021-08-06T13:03:41Z</time>
      </trkpt>
      <trkpt lat="45.11139" lon="5.89686">
        <ele>1932</ele>
        <time>2021-08-06T13:03:44Z</time>
      </trkpt>
      <trkpt lat="45.11139" lon="5.89684">
        <ele>1932</ele>
        <time>2021-08-06T13:03:46Z</time>
      </trkpt>
      <trkpt lat="45.11139" lon="5.89683">
        <ele>1932</ele>
        <time>2021-08-06T13:03:51Z</time>
      </trkpt>
      <trkpt lat="45.1114" lon="5.89681">
        <ele>1932</ele>
        <time>2021-08-06T13:03:54Z</time>
      </trkpt>
      <trkpt lat="45.1114" lon="5.89679">
        <ele>1932</ele>
        <time>2021-08-06T13:03:56Z</time>
      </trkpt>
      <trkpt lat="45.1114" lon="5.89677">
        <ele>1932</ele>
        <time>2021-08-06T13:03:59Z</time>
      </trkpt>
      <trkpt lat="45.1114" lon="5.89676">
        <ele>1932</ele>
        <time>2021-08-06T13:04:02Z</time>
      </trkpt>
      <trkpt lat="45.1114" lon="5.89674">
        <ele>1932</ele>
        <time>2021-08-06T13:04:05Z</time>
      </trkpt>
      <trkpt lat="45.11141" lon="5.89672">
        <ele>1932</ele>
        <time>2021-08-06T13:04:08Z</time>
      </trkpt>
      <trkpt lat="45.11141" lon="5.8967">
        <ele>1932</ele>
        <time>2021-08-06T13:04:10Z</time>
      </trkpt>
      <trkpt lat="45.11141" lon="5.89669">
        <ele>1932</ele>
        <time>2021-08-06T13:04:13Z</time>
      </trkpt>
      <trkpt lat="45.11142" lon="5.89667">
        <ele>1932</ele>
        <time>2021-08-06T13:04:17Z</time>
      </trkpt>
      <trkpt lat="45.11142" lon="5.89665">
        <ele>1932</ele>
        <time>2021-08-06T13:04:19Z</time>
      </trkpt>
      <trkpt lat="45.1114" lon="5.89664">
        <ele>1932</ele>
        <time>2021-08-06T13:04:22Z</time>
      </trkpt>
      <trkpt lat="45.1114" lon="5.89662">
        <ele>1932</ele>
        <time>2021-08-06T13:04:24Z</time>
      </trkpt>
      <trkpt lat="45.1114" lon="5.8966">
        <ele>1932</ele>
        <time>2021-08-06T13:04:26Z</time>
      </trkpt>
      <trkpt lat="45.1114" lon="5.89658">
        <ele>1932</ele>
        <time>2021-08-06T13:04:29Z</time>
      </trkpt>
      <trkpt lat="45.1114" lon="5.89657">
        <ele>1932</ele>
        <time>2021-08-06T13:04:33Z</time>
      </trkpt>
      <trkpt lat="45.1114" lon="5.89655">
        <ele>1932</ele>
        <time>2021-08-06T13:04:36Z</time>
      </trkpt>
      <trkpt lat="45.1114" lon="5.89653">
        <ele>1932</ele>
        <time>2021-08-06T13:04:38Z</time>
      </trkpt>
      <trkpt lat="45.1114" lon="5.89652">
        <ele>1932</ele>
        <time>2021-08-06T13:04:40Z</time>
      </trkpt>
      <trkpt lat="45.11141" lon="5.8965">
        <ele>1932</ele>
        <time>2021-08-06T13:04:42Z</time>
      </trkpt>
      <trkpt lat="45.11141" lon="5.89648">
        <ele>1932</ele>
        <time>2021-08-06T13:04:44Z</time>
      </trkpt>
      <trkpt lat="45.11141" lon="5.89646">
        <ele>1932</ele>
        <time>2021-08-06T13:04:46Z</time>
      </trkpt>
      <trkpt lat="45.11141" lon="5.89644">
        <ele>1932</ele>
        <time>2021-08-06T13:04:48Z</time>
      </trkpt>
      <trkpt lat="45.1114" lon="5.89642">
        <ele>1932</ele>
        <time>2021-08-06T13:04:50Z</time>
      </trkpt>
      <trkpt lat="45.1114" lon="5.89641">
        <ele>1932</ele>
        <time>2021-08-06T13:04:52Z</time>
      </trkpt>
      <trkpt lat="45.11139" lon="5.89639">
        <ele>1932</ele>
        <time>2021-08-06T13:04:54Z</time>
      </trkpt>
      <trkpt lat="45.11138" lon="5.89638">
        <ele>1932</ele>
        <time>2021-08-06T13:04:57Z</time>
      </trkpt>
      <trkpt lat="45.11137" lon="5.89636">
        <ele>1933</ele>
        <time>2021-08-06T13:05:01Z</time>
      </trkpt>
      <trkpt lat="45.11137" lon="5.89634">
        <ele>1934</ele>
        <time>2021-08-06T13:05:03Z</time>
      </trkpt>
      <trkpt lat="45.11137" lon="5.89632">
        <ele>1934</ele>
        <time>2021-08-06T13:05:05Z</time>
      </trkpt>
      <trkpt lat="45.11136" lon="5.89631">
        <ele>1934</ele>
        <time>2021-08-06T13:05:07Z</time>
      </trkpt>
      <trkpt lat="45.11136" lon="5.89629">
        <ele>1934</ele>
        <time>2021-08-06T13:05:09Z</time>
      </trkpt>
      <trkpt lat="45.11135" lon="5.89627">
        <ele>1934</ele>
        <time>2021-08-06T13:05:11Z</time>
      </trkpt>
      <trkpt lat="45.11135" lon="5.89625">
        <ele>1934</ele>
        <time>2021-08-06T13:05:13Z</time>
      </trkpt>
      <trkpt lat="45.11134" lon="5.89623">
        <ele>1934</ele>
        <time>2021-08-06T13:05:15Z</time>
      </trkpt>
      <trkpt lat="45.11133" lon="5.89622">
        <ele>1934</ele>
        <time>2021-08-06T13:05:17Z</time>
      </trkpt>
      <trkpt lat="45.11133" lon="5.8962">
        <ele>1934</ele>
        <time>2021-08-06T13:05:19Z</time>
      </trkpt>
      <trkpt lat="45.11133" lon="5.89619">
        <ele>1934</ele>
        <time>2021-08-06T13:05:21Z</time>
      </trkpt>
      <trkpt lat="45.11132" lon="5.89617">
        <ele>1934</ele>
        <time>2021-08-06T13:05:24Z</time>
      </trkpt>
      <trkpt lat="45.11132" lon="5.89616">
        <ele>1936</ele>
        <time>2021-08-06T13:05:28Z</time>
      </trkpt>
      <trkpt lat="45.11132" lon="5.89614">
        <ele>1938</ele>
        <time>2021-08-06T13:05:35Z</time>
      </trkpt>
      <trkpt lat="45.11132" lon="5.89612">
        <ele>1938</ele>
        <time>2021-08-06T13:05:39Z</time>
      </trkpt>
      <trkpt lat="45.11131" lon="5.8961">
        <ele>1938</ele>
        <time>2021-08-06T13:05:42Z</time>
      </trkpt>
      <trkpt lat="45.1113" lon="5.89609">
        <ele>1938</ele>
        <time>2021-08-06T13:05:45Z</time>
      </trkpt>
      <trkpt lat="45.11129" lon="5.89607">
        <ele>1938</ele>
        <time>2021-08-06T13:05:48Z</time>
      </trkpt>
      <trkpt lat="45.11129" lon="5.89605">
        <ele>1938</ele>
        <time>2021-08-06T13:05:51Z</time>
      </trkpt>
      <trkpt lat="45.11129" lon="5.89603">
        <ele>1938</ele>
        <time>2021-08-06T13:05:53Z</time>
      </trkpt>
      <trkpt lat="45.11128" lon="5.89601">
        <ele>1938</ele>
        <time>2021-08-06T13:05:56Z</time>
      </trkpt>
      <trkpt lat="45.11129" lon="5.89599">
        <ele>1938</ele>
        <time>2021-08-06T13:05:59Z</time>
      </trkpt>
      <trkpt lat="45.11129" lon="5.89597">
        <ele>1938</ele>
        <time>2021-08-06T13:06:02Z</time>
      </trkpt>
      <trkpt lat="45.11129" lon="5.89595">
        <ele>1938</ele>
        <time>2021-08-06T13:06:05Z</time>
      </trkpt>
      <trkpt lat="45.11129" lon="5.89594">
        <ele>1938</ele>
        <time>2021-08-06T13:06:12Z</time>
      </trkpt>
      <trkpt lat="45.11129" lon="5.89592">
        <ele>1938</ele>
        <time>2021-08-06T13:06:15Z</time>
      </trkpt>
      <trkpt lat="45.11127" lon="5.89591">
        <ele>1938</ele>
        <time>2021-08-06T13:06:18Z</time>
      </trkpt>
      <trkpt lat="45.11127" lon="5.89589">
        <ele>1938</ele>
        <time>2021-08-06T13:06:22Z</time>
      </trkpt>
      <trkpt lat="45.11128" lon="5.89588">
        <ele>1938</ele>
        <time>2021-08-06T13:06:26Z</time>
      </trkpt>
      <trkpt lat="45.11129" lon="5.89586">
        <ele>1938</ele>
        <time>2021-08-06T13:06:29Z</time>
      </trkpt>
      <trkpt lat="45.11129" lon="5.89584">
        <ele>1938</ele>
        <time>2021-08-06T13:06:32Z</time>
      </trkpt>
      <trkpt lat="45.1113" lon="5.89583">
        <ele>1938</ele>
        <time>2021-08-06T13:06:34Z</time>
      </trkpt>
      <trkpt lat="45.1113" lon="5.89581">
        <ele>1938</ele>
        <time>2021-08-06T13:06:36Z</time>
      </trkpt>
      <trkpt lat="45.11132" lon="5.8958">
        <ele>1938</ele>
        <time>2021-08-06T13:06:39Z</time>
      </trkpt>
      <trkpt lat="45.11133" lon="5.89579">
        <ele>1938</ele>
        <time>2021-08-06T13:07:19Z</time>
      </trkpt>
      <trkpt lat="45.11134" lon="5.89578">
        <ele>1938</ele>
        <time>2021-08-06T13:07:39Z</time>
      </trkpt>
      <trkpt lat="45.11135" lon="5.89578">
        <ele>1937</ele>
        <time>2021-08-06T13:07:55Z</time>
      </trkpt>
      <trkpt lat="45.11136" lon="5.89579">
        <ele>1937</ele>
        <time>2021-08-06T13:07:57Z</time>
      </trkpt>
      <trkpt lat="45.11138" lon="5.89578">
        <ele>1937</ele>
        <time>2021-08-06T13:07:59Z</time>
      </trkpt>
      <trkpt lat="45.11138" lon="5.89576">
        <ele>1937</ele>
        <time>2021-08-06T13:08:01Z</time>
      </trkpt>
      <trkpt lat="45.11139" lon="5.89574">
        <ele>1937</ele>
        <time>2021-08-06T13:08:04Z</time>
      </trkpt>
      <trkpt lat="45.1114" lon="5.89572">
        <ele>1937</ele>
        <time>2021-08-06T13:08:06Z</time>
      </trkpt>
      <trkpt lat="45.1114" lon="5.89569">
        <ele>1937</ele>
        <time>2021-08-06T13:08:08Z</time>
      </trkpt>
      <trkpt lat="45.1114" lon="5.89567">
        <ele>1937</ele>
        <time>2021-08-06T13:08:10Z</time>
      </trkpt>
      <trkpt lat="45.1114" lon="5.89565">
        <ele>1937</ele>
        <time>2021-08-06T13:08:12Z</time>
      </trkpt>
      <trkpt lat="45.1114" lon="5.89562">
        <ele>1937</ele>
        <time>2021-08-06T13:08:14Z</time>
      </trkpt>
      <trkpt lat="45.11141" lon="5.8956">
        <ele>1937</ele>
        <time>2021-08-06T13:08:16Z</time>
      </trkpt>
      <trkpt lat="45.11142" lon="5.89558">
        <ele>1937</ele>
        <time>2021-08-06T13:08:19Z</time>
      </trkpt>
      <trkpt lat="45.11143" lon="5.89557">
        <ele>1937</ele>
        <time>2021-08-06T13:08:23Z</time>
      </trkpt>
      <trkpt lat="45.11144" lon="5.89555">
        <ele>1937</ele>
        <time>2021-08-06T13:08:26Z</time>
      </trkpt>
      <trkpt lat="45.11144" lon="5.89554">
        <ele>1937</ele>
        <time>2021-08-06T13:08:29Z</time>
      </trkpt>
      <trkpt lat="45.11145" lon="5.89553">
        <ele>1937</ele>
        <time>2021-08-06T13:08:32Z</time>
      </trkpt>
      <trkpt lat="45.11147" lon="5.89552">
        <ele>1937</ele>
        <time>2021-08-06T13:08:34Z</time>
      </trkpt>
      <trkpt lat="45.11147" lon="5.8955">
        <ele>1937</ele>
        <time>2021-08-06T13:08:38Z</time>
      </trkpt>
      <trkpt lat="45.11148" lon="5.89548">
        <ele>1937</ele>
        <time>2021-08-06T13:08:41Z</time>
      </trkpt>
      <trkpt lat="45.11148" lon="5.89547">
        <ele>1937</ele>
        <time>2021-08-06T13:08:44Z</time>
      </trkpt>
      <trkpt lat="45.11148" lon="5.89545">
        <ele>1937</ele>
        <time>2021-08-06T13:08:46Z</time>
      </trkpt>
      <trkpt lat="45.11148" lon="5.89544">
        <ele>1937</ele>
        <time>2021-08-06T13:08:48Z</time>
      </trkpt>
      <trkpt lat="45.11149" lon="5.89542">
        <ele>1937</ele>
        <time>2021-08-06T13:08:50Z</time>
      </trkpt>
      <trkpt lat="45.11148" lon="5.8954">
        <ele>1937</ele>
        <time>2021-08-06T13:08:52Z</time>
      </trkpt>
      <trkpt lat="45.11148" lon="5.89539">
        <ele>1937</ele>
        <time>2021-08-06T13:08:54Z</time>
      </trkpt>
      <trkpt lat="45.11149" lon="5.89537">
        <ele>1937</ele>
        <time>2021-08-06T13:08:56Z</time>
      </trkpt>
      <trkpt lat="45.1115" lon="5.89535">
        <ele>1938</ele>
        <time>2021-08-06T13:08:58Z</time>
      </trkpt>
      <trkpt lat="45.11149" lon="5.89533">
        <ele>1938</ele>
        <time>2021-08-06T13:09:00Z</time>
      </trkpt>
      <trkpt lat="45.11148" lon="5.89531">
        <ele>1938</ele>
        <time>2021-08-06T13:09:02Z</time>
      </trkpt>
      <trkpt lat="45.11149" lon="5.89528">
        <ele>1938</ele>
        <time>2021-08-06T13:09:04Z</time>
      </trkpt>
      <trkpt lat="45.11149" lon="5.89526">
        <ele>1938</ele>
        <time>2021-08-06T13:09:06Z</time>
      </trkpt>
      <trkpt lat="45.11149" lon="5.89525">
        <ele>1938</ele>
        <time>2021-08-06T13:09:08Z</time>
      </trkpt>
      <trkpt lat="45.11149" lon="5.89523">
        <ele>1940</ele>
        <time>2021-08-06T13:09:21Z</time>
      </trkpt>
      <trkpt lat="45.1115" lon="5.89521">
        <ele>1940</ele>
        <time>2021-08-06T13:09:23Z</time>
      </trkpt>
      <trkpt lat="45.1115" lon="5.89519">
        <ele>1940</ele>
        <time>2021-08-06T13:09:26Z</time>
      </trkpt>
      <trkpt lat="45.11151" lon="5.89521">
        <ele>1941</ele>
        <time>2021-08-06T13:09:42Z</time>
      </trkpt>
      <trkpt lat="45.11152" lon="5.89522">
        <ele>1941</ele>
        <time>2021-08-06T13:09:46Z</time>
      </trkpt>
      <trkpt lat="45.11153" lon="5.89523">
        <ele>1941</ele>
        <time>2021-08-06T13:09:49Z</time>
      </trkpt>
      <trkpt lat="45.11155" lon="5.89521">
        <ele>1941</ele>
        <time>2021-08-06T13:09:52Z</time>
      </trkpt>
      <trkpt lat="45.11155" lon="5.89519">
        <ele>1941</ele>
        <time>2021-08-06T13:09:56Z</time>
      </trkpt>
      <trkpt lat="45.11156" lon="5.89517">
        <ele>1941</ele>
        <time>2021-08-06T13:09:59Z</time>
      </trkpt>
      <trkpt lat="45.11156" lon="5.89516">
        <ele>1941</ele>
        <time>2021-08-06T13:10:04Z</time>
      </trkpt>
      <trkpt lat="45.11156" lon="5.89514">
        <ele>1941</ele>
        <time>2021-08-06T13:10:07Z</time>
      </trkpt>
      <trkpt lat="45.11155" lon="5.89512">
        <ele>1941</ele>
        <time>2021-08-06T13:10:11Z</time>
      </trkpt>
      <trkpt lat="45.11155" lon="5.89511">
        <ele>1941</ele>
        <time>2021-08-06T13:10:14Z</time>
      </trkpt>
      <trkpt lat="45.11155" lon="5.89509">
        <ele>1941</ele>
        <time>2021-08-06T13:10:18Z</time>
      </trkpt>
      <trkpt lat="45.11156" lon="5.89508">
        <ele>1941</ele>
        <time>2021-08-06T13:10:21Z</time>
      </trkpt>
      <trkpt lat="45.11156" lon="5.89506">
        <ele>1942</ele>
        <time>2021-08-06T13:10:23Z</time>
      </trkpt>
      <trkpt lat="45.11156" lon="5.89504">
        <ele>1942</ele>
        <time>2021-08-06T13:10:26Z</time>
      </trkpt>
      <trkpt lat="45.11156" lon="5.89503">
        <ele>1942</ele>
        <time>2021-08-06T13:10:29Z</time>
      </trkpt>
      <trkpt lat="45.11156" lon="5.89501">
        <ele>1942</ele>
        <time>2021-08-06T13:10:32Z</time>
      </trkpt>
      <trkpt lat="45.11156" lon="5.89499">
        <ele>1942</ele>
        <time>2021-08-06T13:10:34Z</time>
      </trkpt>
      <trkpt lat="45.11157" lon="5.89498">
        <ele>1942</ele>
        <time>2021-08-06T13:10:37Z</time>
      </trkpt>
      <trkpt lat="45.11157" lon="5.89496">
        <ele>1942</ele>
        <time>2021-08-06T13:10:41Z</time>
      </trkpt>
      <trkpt lat="45.11158" lon="5.89494">
        <ele>1942</ele>
        <time>2021-08-06T13:10:45Z</time>
      </trkpt>
      <trkpt lat="45.11157" lon="5.89492">
        <ele>1942</ele>
        <time>2021-08-06T13:10:48Z</time>
      </trkpt>
      <trkpt lat="45.11157" lon="5.8949">
        <ele>1942</ele>
        <time>2021-08-06T13:10:50Z</time>
      </trkpt>
      <trkpt lat="45.11157" lon="5.89488">
        <ele>1942</ele>
        <time>2021-08-06T13:10:52Z</time>
      </trkpt>
      <trkpt lat="45.11157" lon="5.89485">
        <ele>1942</ele>
        <time>2021-08-06T13:10:54Z</time>
      </trkpt>
      <trkpt lat="45.11157" lon="5.89483">
        <ele>1942</ele>
        <time>2021-08-06T13:10:56Z</time>
      </trkpt>
      <trkpt lat="45.11158" lon="5.8948">
        <ele>1942</ele>
        <time>2021-08-06T13:10:58Z</time>
      </trkpt>
      <trkpt lat="45.11158" lon="5.89479">
        <ele>1942</ele>
        <time>2021-08-06T13:11:00Z</time>
      </trkpt>
      <trkpt lat="45.11158" lon="5.89476">
        <ele>1942</ele>
        <time>2021-08-06T13:11:02Z</time>
      </trkpt>
      <trkpt lat="45.11158" lon="5.89474">
        <ele>1941</ele>
        <time>2021-08-06T13:11:04Z</time>
      </trkpt>
      <trkpt lat="45.11158" lon="5.89472">
        <ele>1941</ele>
        <time>2021-08-06T13:11:06Z</time>
      </trkpt>
      <trkpt lat="45.11158" lon="5.89471">
        <ele>1941</ele>
        <time>2021-08-06T13:11:08Z</time>
      </trkpt>
      <trkpt lat="45.11159" lon="5.89469">
        <ele>1940</ele>
        <time>2021-08-06T13:11:10Z</time>
      </trkpt>
      <trkpt lat="45.11159" lon="5.89467">
        <ele>1940</ele>
        <time>2021-08-06T13:11:12Z</time>
      </trkpt>
      <trkpt lat="45.11159" lon="5.89465">
        <ele>1940</ele>
        <time>2021-08-06T13:11:14Z</time>
      </trkpt>
      <trkpt lat="45.1116" lon="5.89463">
        <ele>1940</ele>
        <time>2021-08-06T13:11:16Z</time>
      </trkpt>
      <trkpt lat="45.1116" lon="5.89462">
        <ele>1940</ele>
        <time>2021-08-06T13:11:20Z</time>
      </trkpt>
      <trkpt lat="45.1116" lon="5.8946">
        <ele>1940</ele>
        <time>2021-08-06T13:11:22Z</time>
      </trkpt>
      <trkpt lat="45.1116" lon="5.89458">
        <ele>1940</ele>
        <time>2021-08-06T13:11:24Z</time>
      </trkpt>
      <trkpt lat="45.11161" lon="5.89456">
        <ele>1940</ele>
        <time>2021-08-06T13:11:26Z</time>
      </trkpt>
      <trkpt lat="45.11161" lon="5.89455">
        <ele>1940</ele>
        <time>2021-08-06T13:11:28Z</time>
      </trkpt>
      <trkpt lat="45.11162" lon="5.89453">
        <ele>1940</ele>
        <time>2021-08-06T13:11:31Z</time>
      </trkpt>
      <trkpt lat="45.11162" lon="5.89452">
        <ele>1940</ele>
        <time>2021-08-06T13:11:34Z</time>
      </trkpt>
      <trkpt lat="45.11164" lon="5.8945">
        <ele>1940</ele>
        <time>2021-08-06T13:11:37Z</time>
      </trkpt>
      <trkpt lat="45.11165" lon="5.89448">
        <ele>1940</ele>
        <time>2021-08-06T13:11:41Z</time>
      </trkpt>
      <trkpt lat="45.11166" lon="5.89446">
        <ele>1940</ele>
        <time>2021-08-06T13:11:44Z</time>
      </trkpt>
      <trkpt lat="45.11166" lon="5.89445">
        <ele>1940</ele>
        <time>2021-08-06T13:11:46Z</time>
      </trkpt>
      <trkpt lat="45.11166" lon="5.89443">
        <ele>1940</ele>
        <time>2021-08-06T13:11:48Z</time>
      </trkpt>
      <trkpt lat="45.11166" lon="5.89441">
        <ele>1940</ele>
        <time>2021-08-06T13:11:50Z</time>
      </trkpt>
      <trkpt lat="45.11166" lon="5.89439">
        <ele>1940</ele>
        <time>2021-08-06T13:11:52Z</time>
      </trkpt>
      <trkpt lat="45.11166" lon="5.89438">
        <ele>1940</ele>
        <time>2021-08-06T13:11:54Z</time>
      </trkpt>
      <trkpt lat="45.11166" lon="5.89436">
        <ele>1940</ele>
        <time>2021-08-06T13:11:56Z</time>
      </trkpt>
      <trkpt lat="45.11167" lon="5.89434">
        <ele>1940</ele>
        <time>2021-08-06T13:11:58Z</time>
      </trkpt>
      <trkpt lat="45.11167" lon="5.89432">
        <ele>1940</ele>
        <time>2021-08-06T13:12:00Z</time>
      </trkpt>
      <trkpt lat="45.11167" lon="5.89431">
        <ele>1940</ele>
        <time>2021-08-06T13:12:02Z</time>
      </trkpt>
      <trkpt lat="45.11167" lon="5.89429">
        <ele>1940</ele>
        <time>2021-08-06T13:12:05Z</time>
      </trkpt>
      <trkpt lat="45.11168" lon="5.89428">
        <ele>1940</ele>
        <time>2021-08-06T13:12:07Z</time>
      </trkpt>
      <trkpt lat="45.11168" lon="5.89426">
        <ele>1940</ele>
        <time>2021-08-06T13:12:12Z</time>
      </trkpt>
      <trkpt lat="45.11168" lon="5.89424">
        <ele>1940</ele>
        <time>2021-08-06T13:12:25Z</time>
      </trkpt>
      <trkpt lat="45.11168" lon="5.89422">
        <ele>1940</ele>
        <time>2021-08-06T13:12:28Z</time>
      </trkpt>
      <trkpt lat="45.11169" lon="5.8942">
        <ele>1940</ele>
        <time>2021-08-06T13:12:34Z</time>
      </trkpt>
      <trkpt lat="45.11169" lon="5.89419">
        <ele>1940</ele>
        <time>2021-08-06T13:12:36Z</time>
      </trkpt>
      <trkpt lat="45.1117" lon="5.89417">
        <ele>1940</ele>
        <time>2021-08-06T13:12:39Z</time>
      </trkpt>
      <trkpt lat="45.11171" lon="5.89415">
        <ele>1940</ele>
        <time>2021-08-06T13:12:42Z</time>
      </trkpt>
      <trkpt lat="45.11171" lon="5.89413">
        <ele>1940</ele>
        <time>2021-08-06T13:12:44Z</time>
      </trkpt>
      <trkpt lat="45.11171" lon="5.89411">
        <ele>1940</ele>
        <time>2021-08-06T13:12:46Z</time>
      </trkpt>
      <trkpt lat="45.11172" lon="5.8941">
        <ele>1940</ele>
        <time>2021-08-06T13:12:48Z</time>
      </trkpt>
      <trkpt lat="45.11172" lon="5.89407">
        <ele>1940</ele>
        <time>2021-08-06T13:12:50Z</time>
      </trkpt>
      <trkpt lat="45.11172" lon="5.89405">
        <ele>1940</ele>
        <time>2021-08-06T13:12:52Z</time>
      </trkpt>
      <trkpt lat="45.11172" lon="5.89404">
        <ele>1940</ele>
        <time>2021-08-06T13:12:54Z</time>
      </trkpt>
      <trkpt lat="45.11171" lon="5.89402">
        <ele>1940</ele>
        <time>2021-08-06T13:12:57Z</time>
      </trkpt>
      <trkpt lat="45.11171" lon="5.894">
        <ele>1940</ele>
        <time>2021-08-06T13:12:59Z</time>
      </trkpt>
      <trkpt lat="45.11173" lon="5.89399">
        <ele>1940</ele>
        <time>2021-08-06T13:13:07Z</time>
      </trkpt>
      <trkpt lat="45.11174" lon="5.89398">
        <ele>1940</ele>
        <time>2021-08-06T13:13:12Z</time>
      </trkpt>
      <trkpt lat="45.11175" lon="5.89397">
        <ele>1940</ele>
        <time>2021-08-06T13:13:22Z</time>
      </trkpt>
      <trkpt lat="45.11175" lon="5.89395">
        <ele>1939</ele>
        <time>2021-08-06T13:13:44Z</time>
      </trkpt>
      <trkpt lat="45.11174" lon="5.89394">
        <ele>1939</ele>
        <time>2021-08-06T13:13:50Z</time>
      </trkpt>
      <trkpt lat="45.11172" lon="5.89394">
        <ele>1939</ele>
        <time>2021-08-06T13:13:52Z</time>
      </trkpt>
      <trkpt lat="45.11172" lon="5.89393">
        <ele>1939</ele>
        <time>2021-08-06T13:13:57Z</time>
      </trkpt>
      <trkpt lat="45.11172" lon="5.89391">
        <ele>1939</ele>
        <time>2021-08-06T13:14:00Z</time>
      </trkpt>
      <trkpt lat="45.11173" lon="5.89389">
        <ele>1939</ele>
        <time>2021-08-06T13:14:04Z</time>
      </trkpt>
      <trkpt lat="45.11174" lon="5.89387">
        <ele>1939</ele>
        <time>2021-08-06T13:14:07Z</time>
      </trkpt>
      <trkpt lat="45.11174" lon="5.89386">
        <ele>1939</ele>
        <time>2021-08-06T13:14:12Z</time>
      </trkpt>
      <trkpt lat="45.11175" lon="5.89385">
        <ele>1939</ele>
        <time>2021-08-06T13:14:22Z</time>
      </trkpt>
      <trkpt lat="45.11176" lon="5.89384">
        <ele>1939</ele>
        <time>2021-08-06T13:14:47Z</time>
      </trkpt>
      <trkpt lat="45.11176" lon="5.89382">
        <ele>1939</ele>
        <time>2021-08-06T13:15:03Z</time>
      </trkpt>
      <trkpt lat="45.11176" lon="5.8938">
        <ele>1939</ele>
        <time>2021-08-06T13:15:05Z</time>
      </trkpt>
      <trkpt lat="45.11177" lon="5.89379">
        <ele>1939</ele>
        <time>2021-08-06T13:15:11Z</time>
      </trkpt>
      <trkpt lat="45.11177" lon="5.89377">
        <ele>1939</ele>
        <time>2021-08-06T13:15:26Z</time>
      </trkpt>
      <trkpt lat="45.11177" lon="5.89375">
        <ele>1939</ele>
        <time>2021-08-06T13:15:34Z</time>
      </trkpt>
      <trkpt lat="45.11178" lon="5.89374">
        <ele>1938</ele>
        <time>2021-08-06T13:15:40Z</time>
      </trkpt>
      <trkpt lat="45.11179" lon="5.89372">
        <ele>1938</ele>
        <time>2021-08-06T13:15:47Z</time>
      </trkpt>
      <trkpt lat="45.11179" lon="5.8937">
        <ele>1938</ele>
        <time>2021-08-06T13:15:53Z</time>
      </trkpt>
      <trkpt lat="45.1118" lon="5.89368">
        <ele>1938</ele>
        <time>2021-08-06T13:15:55Z</time>
      </trkpt>
      <trkpt lat="45.11181" lon="5.89366">
        <ele>1938</ele>
        <time>2021-08-06T13:15:57Z</time>
      </trkpt>
      <trkpt lat="45.11182" lon="5.89365">
        <ele>1938</ele>
        <time>2021-08-06T13:16:00Z</time>
      </trkpt>
      <trkpt lat="45.11184" lon="5.89363">
        <ele>1938</ele>
        <time>2021-08-06T13:16:03Z</time>
      </trkpt>
      <trkpt lat="45.11184" lon="5.89361">
        <ele>1938</ele>
        <time>2021-08-06T13:16:05Z</time>
      </trkpt>
      <trkpt lat="45.11184" lon="5.89359">
        <ele>1938</ele>
        <time>2021-08-06T13:16:08Z</time>
      </trkpt>
      <trkpt lat="45.11183" lon="5.89358">
        <ele>1938</ele>
        <time>2021-08-06T13:16:12Z</time>
      </trkpt>
      <trkpt lat="45.11182" lon="5.89356">
        <ele>1938</ele>
        <time>2021-08-06T13:16:33Z</time>
      </trkpt>
      <trkpt lat="45.11183" lon="5.89354">
        <ele>1938</ele>
        <time>2021-08-06T13:16:59Z</time>
      </trkpt>
      <trkpt lat="45.11183" lon="5.89353">
        <ele>1938</ele>
        <time>2021-08-06T13:17:12Z</time>
      </trkpt>
      <trkpt lat="45.11183" lon="5.89351">
        <ele>1938</ele>
        <time>2021-08-06T13:17:15Z</time>
      </trkpt>
      <trkpt lat="45.11182" lon="5.8935">
        <ele>1938</ele>
        <time>2021-08-06T13:17:19Z</time>
      </trkpt>
      <trkpt lat="45.1118" lon="5.89348">
        <ele>1938</ele>
        <time>2021-08-06T13:17:22Z</time>
      </trkpt>
      <trkpt lat="45.11179" lon="5.89348">
        <ele>1938</ele>
        <time>2021-08-06T13:17:24Z</time>
      </trkpt>
      <trkpt lat="45.11177" lon="5.89347">
        <ele>1938</ele>
        <time>2021-08-06T13:17:27Z</time>
      </trkpt>
      <trkpt lat="45.11176" lon="5.89345">
        <ele>1938</ele>
        <time>2021-08-06T13:17:31Z</time>
      </trkpt>
      <trkpt lat="45.11175" lon="5.89344">
        <ele>1938</ele>
        <time>2021-08-06T13:17:35Z</time>
      </trkpt>
      <trkpt lat="45.11173" lon="5.89343">
        <ele>1938</ele>
        <time>2021-08-06T13:17:43Z</time>
      </trkpt>
      <trkpt lat="45.11172" lon="5.89343">
        <ele>1937</ele>
        <time>2021-08-06T13:17:46Z</time>
      </trkpt>
      <trkpt lat="45.1117" lon="5.89343">
        <ele>1937</ele>
        <time>2021-08-06T13:18:04Z</time>
      </trkpt>
      <trkpt lat="45.1117" lon="5.89341">
        <ele>1936</ele>
        <time>2021-08-06T13:18:09Z</time>
      </trkpt>
      <trkpt lat="45.11171" lon="5.8934">
        <ele>1936</ele>
        <time>2021-08-06T13:18:13Z</time>
      </trkpt>
      <trkpt lat="45.11172" lon="5.89339">
        <ele>1936</ele>
        <time>2021-08-06T13:18:18Z</time>
      </trkpt>
      <trkpt lat="45.11174" lon="5.89337">
        <ele>1936</ele>
        <time>2021-08-06T13:18:21Z</time>
      </trkpt>
      <trkpt lat="45.11174" lon="5.89335">
        <ele>1935</ele>
        <time>2021-08-06T13:18:23Z</time>
      </trkpt>
      <trkpt lat="45.11174" lon="5.89333">
        <ele>1935</ele>
        <time>2021-08-06T13:18:25Z</time>
      </trkpt>
      <trkpt lat="45.11174" lon="5.89331">
        <ele>1935</ele>
        <time>2021-08-06T13:18:27Z</time>
      </trkpt>
      <trkpt lat="45.11175" lon="5.8933">
        <ele>1935</ele>
        <time>2021-08-06T13:18:29Z</time>
      </trkpt>
      <trkpt lat="45.11175" lon="5.89328">
        <ele>1934</ele>
        <time>2021-08-06T13:18:31Z</time>
      </trkpt>
      <trkpt lat="45.11176" lon="5.89329">
        <ele>1934</ele>
        <time>2021-08-06T13:18:34Z</time>
      </trkpt>
      <trkpt lat="45.11178" lon="5.89329">
        <ele>1934</ele>
        <time>2021-08-06T13:18:37Z</time>
      </trkpt>
      <trkpt lat="45.11179" lon="5.89328">
        <ele>1934</ele>
        <time>2021-08-06T13:18:40Z</time>
      </trkpt>
      <trkpt lat="45.1118" lon="5.89326">
        <ele>1934</ele>
        <time>2021-08-06T13:18:42Z</time>
      </trkpt>
      <trkpt lat="45.1118" lon="5.89324">
        <ele>1934</ele>
        <time>2021-08-06T13:18:44Z</time>
      </trkpt>
      <trkpt lat="45.11181" lon="5.89323">
        <ele>1934</ele>
        <time>2021-08-06T13:18:46Z</time>
      </trkpt>
      <trkpt lat="45.11179" lon="5.89322">
        <ele>1933</ele>
        <time>2021-08-06T13:19:27Z</time>
      </trkpt>
      <trkpt lat="45.11179" lon="5.8932">
        <ele>1933</ele>
        <time>2021-08-06T13:19:33Z</time>
      </trkpt>
      <trkpt lat="45.1118" lon="5.89321">
        <ele>1933</ele>
        <time>2021-08-06T13:19:47Z</time>
      </trkpt>
      <trkpt lat="45.1118" lon="5.89319">
        <ele>1933</ele>
        <time>2021-08-06T13:19:52Z</time>
      </trkpt>
      <trkpt lat="45.11182" lon="5.89318">
        <ele>1933</ele>
        <time>2021-08-06T13:19:57Z</time>
      </trkpt>
      <trkpt lat="45.11183" lon="5.89316">
        <ele>1933</ele>
        <time>2021-08-06T13:20:01Z</time>
      </trkpt>
      <trkpt lat="45.11184" lon="5.89315">
        <ele>1933</ele>
        <time>2021-08-06T13:20:03Z</time>
      </trkpt>
      <trkpt lat="45.11184" lon="5.89313">
        <ele>1933</ele>
        <time>2021-08-06T13:20:05Z</time>
      </trkpt>
      <trkpt lat="45.11184" lon="5.89312">
        <ele>1933</ele>
        <time>2021-08-06T13:20:08Z</time>
      </trkpt>
      <trkpt lat="45.11185" lon="5.8931">
        <ele>1933</ele>
        <time>2021-08-06T13:20:12Z</time>
      </trkpt>
      <trkpt lat="45.11185" lon="5.89308">
        <ele>1933</ele>
        <time>2021-08-06T13:20:14Z</time>
      </trkpt>
      <trkpt lat="45.11186" lon="5.89307">
        <ele>1933</ele>
        <time>2021-08-06T13:20:16Z</time>
      </trkpt>
      <trkpt lat="45.11186" lon="5.89305">
        <ele>1933</ele>
        <time>2021-08-06T13:20:18Z</time>
      </trkpt>
      <trkpt lat="45.11185" lon="5.89303">
        <ele>1933</ele>
        <time>2021-08-06T13:20:20Z</time>
      </trkpt>
      <trkpt lat="45.11186" lon="5.89301">
        <ele>1933</ele>
        <time>2021-08-06T13:20:24Z</time>
      </trkpt>
      <trkpt lat="45.11186" lon="5.89299">
        <ele>1933</ele>
        <time>2021-08-06T13:20:26Z</time>
      </trkpt>
      <trkpt lat="45.11185" lon="5.89297">
        <ele>1933</ele>
        <time>2021-08-06T13:20:28Z</time>
      </trkpt>
      <trkpt lat="45.11185" lon="5.89295">
        <ele>1933</ele>
        <time>2021-08-06T13:20:31Z</time>
      </trkpt>
      <trkpt lat="45.11184" lon="5.89294">
        <ele>1933</ele>
        <time>2021-08-06T13:20:35Z</time>
      </trkpt>
      <trkpt lat="45.11184" lon="5.89292">
        <ele>1933</ele>
        <time>2021-08-06T13:20:37Z</time>
      </trkpt>
      <trkpt lat="45.11184" lon="5.8929">
        <ele>1933</ele>
        <time>2021-08-06T13:20:39Z</time>
      </trkpt>
      <trkpt lat="45.11184" lon="5.89288">
        <ele>1933</ele>
        <time>2021-08-06T13:20:41Z</time>
      </trkpt>
      <trkpt lat="45.11185" lon="5.89286">
        <ele>1933</ele>
        <time>2021-08-06T13:20:43Z</time>
      </trkpt>
      <trkpt lat="45.11186" lon="5.89285">
        <ele>1933</ele>
        <time>2021-08-06T13:20:45Z</time>
      </trkpt>
      <trkpt lat="45.11187" lon="5.89284">
        <ele>1933</ele>
        <time>2021-08-06T13:20:48Z</time>
      </trkpt>
      <trkpt lat="45.11189" lon="5.89283">
        <ele>1933</ele>
        <time>2021-08-06T13:20:50Z</time>
      </trkpt>
      <trkpt lat="45.1119" lon="5.89282">
        <ele>1933</ele>
        <time>2021-08-06T13:20:52Z</time>
      </trkpt>
      <trkpt lat="45.11191" lon="5.8928">
        <ele>1933</ele>
        <time>2021-08-06T13:20:55Z</time>
      </trkpt>
      <trkpt lat="45.11191" lon="5.89279">
        <ele>1933</ele>
        <time>2021-08-06T13:20:58Z</time>
      </trkpt>
      <trkpt lat="45.11192" lon="5.89278">
        <ele>1933</ele>
        <time>2021-08-06T13:21:05Z</time>
      </trkpt>
      <trkpt lat="45.11193" lon="5.89277">
        <ele>1933</ele>
        <time>2021-08-06T13:21:12Z</time>
      </trkpt>
      <trkpt lat="45.11193" lon="5.89275">
        <ele>1933</ele>
        <time>2021-08-06T13:21:16Z</time>
      </trkpt>
      <trkpt lat="45.11195" lon="5.89273">
        <ele>1932</ele>
        <time>2021-08-06T13:21:23Z</time>
      </trkpt>
      <trkpt lat="45.11196" lon="5.89271">
        <ele>1931</ele>
        <time>2021-08-06T13:21:27Z</time>
      </trkpt>
      <trkpt lat="45.11197" lon="5.8927">
        <ele>1929</ele>
        <time>2021-08-06T13:21:35Z</time>
      </trkpt>
      <trkpt lat="45.11198" lon="5.89268">
        <ele>1929</ele>
        <time>2021-08-06T13:21:38Z</time>
      </trkpt>
      <trkpt lat="45.11198" lon="5.89266">
        <ele>1929</ele>
        <time>2021-08-06T13:21:41Z</time>
      </trkpt>
      <trkpt lat="45.112" lon="5.89265">
        <ele>1929</ele>
        <time>2021-08-06T13:21:44Z</time>
      </trkpt>
      <trkpt lat="45.112" lon="5.89263">
        <ele>1929</ele>
        <time>2021-08-06T13:21:48Z</time>
      </trkpt>
      <trkpt lat="45.112" lon="5.89262">
        <ele>1929</ele>
        <time>2021-08-06T13:21:53Z</time>
      </trkpt>
      <trkpt lat="45.112" lon="5.8926">
        <ele>1929</ele>
        <time>2021-08-06T13:21:56Z</time>
      </trkpt>
      <trkpt lat="45.112" lon="5.89258">
        <ele>1929</ele>
        <time>2021-08-06T13:21:58Z</time>
      </trkpt>
      <trkpt lat="45.11201" lon="5.89257">
        <ele>1929</ele>
        <time>2021-08-06T13:22:00Z</time>
      </trkpt>
      <trkpt lat="45.11202" lon="5.89255">
        <ele>1929</ele>
        <time>2021-08-06T13:22:03Z</time>
      </trkpt>
      <trkpt lat="45.11203" lon="5.89254">
        <ele>1929</ele>
        <time>2021-08-06T13:22:07Z</time>
      </trkpt>
      <trkpt lat="45.11204" lon="5.89252">
        <ele>1929</ele>
        <time>2021-08-06T13:22:13Z</time>
      </trkpt>
      <trkpt lat="45.11204" lon="5.8925">
        <ele>1929</ele>
        <time>2021-08-06T13:22:19Z</time>
      </trkpt>
      <trkpt lat="45.11205" lon="5.89249">
        <ele>1929</ele>
        <time>2021-08-06T13:22:22Z</time>
      </trkpt>
      <trkpt lat="45.11206" lon="5.89247">
        <ele>1929</ele>
        <time>2021-08-06T13:22:26Z</time>
      </trkpt>
      <trkpt lat="45.11206" lon="5.89245">
        <ele>1929</ele>
        <time>2021-08-06T13:22:28Z</time>
      </trkpt>
      <trkpt lat="45.11206" lon="5.89244">
        <ele>1929</ele>
        <time>2021-08-06T13:22:30Z</time>
      </trkpt>
      <trkpt lat="45.11208" lon="5.89243">
        <ele>1930</ele>
        <time>2021-08-06T13:22:35Z</time>
      </trkpt>
      <trkpt lat="45.11208" lon="5.89241">
        <ele>1931</ele>
        <time>2021-08-06T13:22:39Z</time>
      </trkpt>
      <trkpt lat="45.11209" lon="5.8924">
        <ele>1932</ele>
        <time>2021-08-06T13:22:50Z</time>
      </trkpt>
      <trkpt lat="45.11209" lon="5.89238">
        <ele>1932</ele>
        <time>2021-08-06T13:22:53Z</time>
      </trkpt>
      <trkpt lat="45.1121" lon="5.89236">
        <ele>1932</ele>
        <time>2021-08-06T13:22:56Z</time>
      </trkpt>
      <trkpt lat="45.1121" lon="5.89235">
        <ele>1932</ele>
        <time>2021-08-06T13:22:59Z</time>
      </trkpt>
      <trkpt lat="45.11211" lon="5.89234">
        <ele>1932</ele>
        <time>2021-08-06T13:23:38Z</time>
      </trkpt>
      <trkpt lat="45.1121" lon="5.89233">
        <ele>1932</ele>
        <time>2021-08-06T13:23:41Z</time>
      </trkpt>
      <trkpt lat="45.1121" lon="5.89231">
        <ele>1932</ele>
        <time>2021-08-06T13:23:49Z</time>
      </trkpt>
      <trkpt lat="45.11209" lon="5.8923">
        <ele>1932</ele>
        <time>2021-08-06T13:23:53Z</time>
      </trkpt>
      <trkpt lat="45.11207" lon="5.8923">
        <ele>1932</ele>
        <time>2021-08-06T13:23:59Z</time>
      </trkpt>
      <trkpt lat="45.11206" lon="5.89231">
        <ele>1932</ele>
        <time>2021-08-06T13:24:03Z</time>
      </trkpt>
      <trkpt lat="45.11206" lon="5.89229">
        <ele>1932</ele>
        <time>2021-08-06T13:24:32Z</time>
      </trkpt>
      <trkpt lat="45.11205" lon="5.89228">
        <ele>1932</ele>
        <time>2021-08-06T13:24:37Z</time>
      </trkpt>
      <trkpt lat="45.11206" lon="5.89227">
        <ele>1932</ele>
        <time>2021-08-06T13:24:55Z</time>
      </trkpt>
      <trkpt lat="45.11205" lon="5.89225">
        <ele>1932</ele>
        <time>2021-08-06T13:24:59Z</time>
      </trkpt>
      <trkpt lat="45.11205" lon="5.89224">
        <ele>1932</ele>
        <time>2021-08-06T13:25:01Z</time>
      </trkpt>
      <trkpt lat="45.11203" lon="5.89222">
        <ele>1932</ele>
        <time>2021-08-06T13:25:03Z</time>
      </trkpt>
      <trkpt lat="45.11202" lon="5.89221">
        <ele>1932</ele>
        <time>2021-08-06T13:25:05Z</time>
      </trkpt>
      <trkpt lat="45.11201" lon="5.89219">
        <ele>1932</ele>
        <time>2021-08-06T13:25:09Z</time>
      </trkpt>
      <trkpt lat="45.112" lon="5.89218">
        <ele>1932</ele>
        <time>2021-08-06T13:25:12Z</time>
      </trkpt>
      <trkpt lat="45.11198" lon="5.89217">
        <ele>1932</ele>
        <time>2021-08-06T13:25:14Z</time>
      </trkpt>
      <trkpt lat="45.11198" lon="5.89215">
        <ele>1932</ele>
        <time>2021-08-06T13:25:17Z</time>
      </trkpt>
      <trkpt lat="45.11197" lon="5.89213">
        <ele>1931</ele>
        <time>2021-08-06T13:25:19Z</time>
      </trkpt>
      <trkpt lat="45.11197" lon="5.8921">
        <ele>1931</ele>
        <time>2021-08-06T13:25:21Z</time>
      </trkpt>
      <trkpt lat="45.11198" lon="5.89208">
        <ele>1931</ele>
        <time>2021-08-06T13:25:23Z</time>
      </trkpt>
      <trkpt lat="45.11197" lon="5.89207">
        <ele>1931</ele>
        <time>2021-08-06T13:25:25Z</time>
      </trkpt>
      <trkpt lat="45.11197" lon="5.89205">
        <ele>1931</ele>
        <time>2021-08-06T13:25:27Z</time>
      </trkpt>
      <trkpt lat="45.11195" lon="5.89202">
        <ele>1931</ele>
        <time>2021-08-06T13:25:30Z</time>
      </trkpt>
      <trkpt lat="45.11195" lon="5.89201">
        <ele>1931</ele>
        <time>2021-08-06T13:25:32Z</time>
      </trkpt>
      <trkpt lat="45.11194" lon="5.89199">
        <ele>1931</ele>
        <time>2021-08-06T13:25:36Z</time>
      </trkpt>
      <trkpt lat="45.11195" lon="5.89197">
        <ele>1931</ele>
        <time>2021-08-06T13:25:40Z</time>
      </trkpt>
      <trkpt lat="45.11194" lon="5.89196">
        <ele>1931</ele>
        <time>2021-08-06T13:25:44Z</time>
      </trkpt>
      <trkpt lat="45.11192" lon="5.89195">
        <ele>1930</ele>
        <time>2021-08-06T13:25:48Z</time>
      </trkpt>
      <trkpt lat="45.11191" lon="5.89194">
        <ele>1930</ele>
        <time>2021-08-06T13:25:52Z</time>
      </trkpt>
      <trkpt lat="45.11191" lon="5.89192">
        <ele>1930</ele>
        <time>2021-08-06T13:26:11Z</time>
      </trkpt>
      <trkpt lat="45.11192" lon="5.89191">
        <ele>1930</ele>
        <time>2021-08-06T13:26:15Z</time>
      </trkpt>
      <trkpt lat="45.11191" lon="5.89189">
        <ele>1929</ele>
        <time>2021-08-06T13:26:19Z</time>
      </trkpt>
      <trkpt lat="45.1119" lon="5.89189">
        <ele>1928</ele>
        <time>2021-08-06T13:26:26Z</time>
      </trkpt>
      <trkpt lat="45.11188" lon="5.89188">
        <ele>1928</ele>
        <time>2021-08-06T13:26:33Z</time>
      </trkpt>
      <trkpt lat="45.11187" lon="5.89187">
        <ele>1928</ele>
        <time>2021-08-06T13:26:34Z</time>
      </trkpt>
      <trkpt lat="45.11185" lon="5.89185">
        <ele>1927</ele>
        <time>2021-08-06T13:26:36Z</time>
      </trkpt>
      <trkpt lat="45.11187" lon="5.89184">
        <ele>1925</ele>
        <time>2021-08-06T13:26:43Z</time>
      </trkpt>
      <trkpt lat="45.11188" lon="5.89184">
        <ele>1925</ele>
        <time>2021-08-06T13:26:45Z</time>
      </trkpt>
      <trkpt lat="45.11189" lon="5.89184">
        <ele>1924</ele>
        <time>2021-08-06T13:26:47Z</time>
      </trkpt>
      <trkpt lat="45.11189" lon="5.89182">
        <ele>1924</ele>
        <time>2021-08-06T13:26:51Z</time>
      </trkpt>
      <trkpt lat="45.11189" lon="5.8918">
        <ele>1924</ele>
        <time>2021-08-06T13:26:53Z</time>
      </trkpt>
      <trkpt lat="45.11188" lon="5.89178">
        <ele>1924</ele>
        <time>2021-08-06T13:26:55Z</time>
      </trkpt>
      <trkpt lat="45.11187" lon="5.89176">
        <ele>1924</ele>
        <time>2021-08-06T13:26:57Z</time>
      </trkpt>
      <trkpt lat="45.11186" lon="5.89174">
        <ele>1924</ele>
        <time>2021-08-06T13:26:59Z</time>
      </trkpt>
      <trkpt lat="45.11185" lon="5.89172">
        <ele>1924</ele>
        <time>2021-08-06T13:27:02Z</time>
      </trkpt>
      <trkpt lat="45.11185" lon="5.8917">
        <ele>1923</ele>
        <time>2021-08-06T13:27:07Z</time>
      </trkpt>
      <trkpt lat="45.11184" lon="5.89169">
        <ele>1922</ele>
        <time>2021-08-06T13:27:09Z</time>
      </trkpt>
      <trkpt lat="45.11184" lon="5.89167">
        <ele>1922</ele>
        <time>2021-08-06T13:27:12Z</time>
      </trkpt>
      <trkpt lat="45.11182" lon="5.89165">
        <ele>1922</ele>
        <time>2021-08-06T13:27:15Z</time>
      </trkpt>
      <trkpt lat="45.1118" lon="5.89163">
        <ele>1922</ele>
        <time>2021-08-06T13:27:18Z</time>
      </trkpt>
      <trkpt lat="45.1118" lon="5.89161">
        <ele>1922</ele>
        <time>2021-08-06T13:27:21Z</time>
      </trkpt>
      <trkpt lat="45.11179" lon="5.8916">
        <ele>1922</ele>
        <time>2021-08-06T13:27:25Z</time>
      </trkpt>
      <trkpt lat="45.1118" lon="5.89159">
        <ele>1922</ele>
        <time>2021-08-06T13:27:32Z</time>
      </trkpt>
      <trkpt lat="45.11181" lon="5.89158">
        <ele>1922</ele>
        <time>2021-08-06T13:27:36Z</time>
      </trkpt>
      <trkpt lat="45.1118" lon="5.89156">
        <ele>1922</ele>
        <time>2021-08-06T13:27:41Z</time>
      </trkpt>
      <trkpt lat="45.11179" lon="5.89154">
        <ele>1922</ele>
        <time>2021-08-06T13:27:44Z</time>
      </trkpt>
      <trkpt lat="45.11178" lon="5.89152">
        <ele>1922</ele>
        <time>2021-08-06T13:27:47Z</time>
      </trkpt>
      <trkpt lat="45.11177" lon="5.89151">
        <ele>1922</ele>
        <time>2021-08-06T13:27:50Z</time>
      </trkpt>
      <trkpt lat="45.11176" lon="5.89149">
        <ele>1922</ele>
        <time>2021-08-06T13:27:52Z</time>
      </trkpt>
      <trkpt lat="45.11176" lon="5.89147">
        <ele>1922</ele>
        <time>2021-08-06T13:27:54Z</time>
      </trkpt>
      <trkpt lat="45.11176" lon="5.89146">
        <ele>1922</ele>
        <time>2021-08-06T13:27:57Z</time>
      </trkpt>
      <trkpt lat="45.11175" lon="5.89143">
        <ele>1922</ele>
        <time>2021-08-06T13:27:59Z</time>
      </trkpt>
      <trkpt lat="45.11175" lon="5.89142">
        <ele>1921</ele>
        <time>2021-08-06T13:28:02Z</time>
      </trkpt>
      <trkpt lat="45.11175" lon="5.8914">
        <ele>1920</ele>
        <time>2021-08-06T13:28:05Z</time>
      </trkpt>
      <trkpt lat="45.11174" lon="5.89138">
        <ele>1919</ele>
        <time>2021-08-06T13:28:07Z</time>
      </trkpt>
      <trkpt lat="45.11174" lon="5.89136">
        <ele>1919</ele>
        <time>2021-08-06T13:28:09Z</time>
      </trkpt>
      <trkpt lat="45.11174" lon="5.89134">
        <ele>1918</ele>
        <time>2021-08-06T13:28:14Z</time>
      </trkpt>
      <trkpt lat="45.11173" lon="5.89132">
        <ele>1918</ele>
        <time>2021-08-06T13:28:17Z</time>
      </trkpt>
      <trkpt lat="45.11172" lon="5.8913">
        <ele>1918</ele>
        <time>2021-08-06T13:28:19Z</time>
      </trkpt>
      <trkpt lat="45.11171" lon="5.89129">
        <ele>1918</ele>
        <time>2021-08-06T13:28:21Z</time>
      </trkpt>
      <trkpt lat="45.1117" lon="5.89128">
        <ele>1918</ele>
        <time>2021-08-06T13:28:25Z</time>
      </trkpt>
      <trkpt lat="45.11169" lon="5.89126">
        <ele>1918</ele>
        <time>2021-08-06T13:28:27Z</time>
      </trkpt>
      <trkpt lat="45.11168" lon="5.89124">
        <ele>1918</ele>
        <time>2021-08-06T13:28:30Z</time>
      </trkpt>
      <trkpt lat="45.11167" lon="5.89122">
        <ele>1918</ele>
        <time>2021-08-06T13:28:32Z</time>
      </trkpt>
      <trkpt lat="45.11166" lon="5.89121">
        <ele>1918</ele>
        <time>2021-08-06T13:28:35Z</time>
      </trkpt>
      <trkpt lat="45.11165" lon="5.89121">
        <ele>1918</ele>
        <time>2021-08-06T13:28:40Z</time>
      </trkpt>
      <trkpt lat="45.11166" lon="5.89122">
        <ele>1918</ele>
        <time>2021-08-06T13:28:43Z</time>
      </trkpt>
      <trkpt lat="45.11166" lon="5.8912">
        <ele>1920</ele>
        <time>2021-08-06T13:28:48Z</time>
      </trkpt>
      <trkpt lat="45.11164" lon="5.89119">
        <ele>1924</ele>
        <time>2021-08-06T13:28:57Z</time>
      </trkpt>
      <trkpt lat="45.11163" lon="5.89118">
        <ele>1924</ele>
        <time>2021-08-06T13:29:00Z</time>
      </trkpt>
      <trkpt lat="45.11163" lon="5.89116">
        <ele>1924</ele>
        <time>2021-08-06T13:29:03Z</time>
      </trkpt>
      <trkpt lat="45.11163" lon="5.89114">
        <ele>1924</ele>
        <time>2021-08-06T13:29:05Z</time>
      </trkpt>
      <trkpt lat="45.11162" lon="5.89112">
        <ele>1924</ele>
        <time>2021-08-06T13:29:07Z</time>
      </trkpt>
      <trkpt lat="45.11162" lon="5.8911">
        <ele>1924</ele>
        <time>2021-08-06T13:29:10Z</time>
      </trkpt>
      <trkpt lat="45.11161" lon="5.89109">
        <ele>1924</ele>
        <time>2021-08-06T13:29:18Z</time>
      </trkpt>
      <trkpt lat="45.1116" lon="5.89108">
        <ele>1923</ele>
        <time>2021-08-06T13:29:23Z</time>
      </trkpt>
      <trkpt lat="45.11158" lon="5.89107">
        <ele>1922</ele>
        <time>2021-08-06T13:29:26Z</time>
      </trkpt>
      <trkpt lat="45.11158" lon="5.89105">
        <ele>1922</ele>
        <time>2021-08-06T13:29:29Z</time>
      </trkpt>
      <trkpt lat="45.11157" lon="5.89103">
        <ele>1919</ele>
        <time>2021-08-06T13:29:46Z</time>
      </trkpt>
      <trkpt lat="45.11156" lon="5.89102">
        <ele>1919</ele>
        <time>2021-08-06T13:29:50Z</time>
      </trkpt>
      <trkpt lat="45.11156" lon="5.891">
        <ele>1918</ele>
        <time>2021-08-06T13:29:54Z</time>
      </trkpt>
      <trkpt lat="45.11154" lon="5.89099">
        <ele>1918</ele>
        <time>2021-08-06T13:29:59Z</time>
      </trkpt>
      <trkpt lat="45.11153" lon="5.89097">
        <ele>1916</ele>
        <time>2021-08-06T13:30:07Z</time>
      </trkpt>
      <trkpt lat="45.11152" lon="5.89096">
        <ele>1916</ele>
        <time>2021-08-06T13:30:10Z</time>
      </trkpt>
      <trkpt lat="45.11151" lon="5.89094">
        <ele>1916</ele>
        <time>2021-08-06T13:30:17Z</time>
      </trkpt>
      <trkpt lat="45.1115" lon="5.89093">
        <ele>1916</ele>
        <time>2021-08-06T13:30:20Z</time>
      </trkpt>
      <trkpt lat="45.11148" lon="5.89092">
        <ele>1916</ele>
        <time>2021-08-06T13:30:22Z</time>
      </trkpt>
      <trkpt lat="45.11148" lon="5.89091">
        <ele>1915</ele>
        <time>2021-08-06T13:30:24Z</time>
      </trkpt>
      <trkpt lat="45.11148" lon="5.89089">
        <ele>1915</ele>
        <time>2021-08-06T13:30:27Z</time>
      </trkpt>
      <trkpt lat="45.11148" lon="5.89087">
        <ele>1915</ele>
        <time>2021-08-06T13:30:30Z</time>
      </trkpt>
      <trkpt lat="45.11147" lon="5.89086">
        <ele>1914</ele>
        <time>2021-08-06T13:30:33Z</time>
      </trkpt>
      <trkpt lat="45.11146" lon="5.89084">
        <ele>1913</ele>
        <time>2021-08-06T13:30:35Z</time>
      </trkpt>
      <trkpt lat="45.11145" lon="5.89082">
        <ele>1913</ele>
        <time>2021-08-06T13:30:38Z</time>
      </trkpt>
      <trkpt lat="45.11145" lon="5.8908">
        <ele>1913</ele>
        <time>2021-08-06T13:30:40Z</time>
      </trkpt>
      <trkpt lat="45.11144" lon="5.89079">
        <ele>1912</ele>
        <time>2021-08-06T13:30:42Z</time>
      </trkpt>
      <trkpt lat="45.11144" lon="5.89076">
        <ele>1912</ele>
        <time>2021-08-06T13:30:45Z</time>
      </trkpt>
      <trkpt lat="45.11143" lon="5.89074">
        <ele>1911</ele>
        <time>2021-08-06T13:30:47Z</time>
      </trkpt>
      <trkpt lat="45.11143" lon="5.89072">
        <ele>1911</ele>
        <time>2021-08-06T13:30:49Z</time>
      </trkpt>
      <trkpt lat="45.11142" lon="5.89071">
        <ele>1911</ele>
        <time>2021-08-06T13:30:50Z</time>
      </trkpt>
      <trkpt lat="45.11142" lon="5.89069">
        <ele>1910</ele>
        <time>2021-08-06T13:30:51Z</time>
      </trkpt>
      <trkpt lat="45.1114" lon="5.89067">
        <ele>1910</ele>
        <time>2021-08-06T13:30:53Z</time>
      </trkpt>
      <trkpt lat="45.11139" lon="5.89066">
        <ele>1910</ele>
        <time>2021-08-06T13:30:55Z</time>
      </trkpt>
      <trkpt lat="45.11137" lon="5.89065">
        <ele>1910</ele>
        <time>2021-08-06T13:30:57Z</time>
      </trkpt>
      <trkpt lat="45.11136" lon="5.89063">
        <ele>1910</ele>
        <time>2021-08-06T13:30:59Z</time>
      </trkpt>
      <trkpt lat="45.11134" lon="5.89061">
        <ele>1910</ele>
        <time>2021-08-06T13:31:02Z</time>
      </trkpt>
      <trkpt lat="45.11133" lon="5.89061">
        <ele>1910</ele>
        <time>2021-08-06T13:31:04Z</time>
      </trkpt>
      <trkpt lat="45.11132" lon="5.8906">
        <ele>1909</ele>
        <time>2021-08-06T13:31:06Z</time>
      </trkpt>
      <trkpt lat="45.1113" lon="5.8906">
        <ele>1908</ele>
        <time>2021-08-06T13:31:08Z</time>
      </trkpt>
      <trkpt lat="45.11129" lon="5.89059">
        <ele>1908</ele>
        <time>2021-08-06T13:31:10Z</time>
      </trkpt>
      <trkpt lat="45.11127" lon="5.89057">
        <ele>1908</ele>
        <time>2021-08-06T13:31:13Z</time>
      </trkpt>
      <trkpt lat="45.11126" lon="5.89056">
        <ele>1908</ele>
        <time>2021-08-06T13:31:15Z</time>
      </trkpt>
      <trkpt lat="45.11125" lon="5.89055">
        <ele>1908</ele>
        <time>2021-08-06T13:31:17Z</time>
      </trkpt>
      <trkpt lat="45.11124" lon="5.89053">
        <ele>1908</ele>
        <time>2021-08-06T13:31:20Z</time>
      </trkpt>
      <trkpt lat="45.11123" lon="5.89052">
        <ele>1908</ele>
        <time>2021-08-06T13:31:22Z</time>
      </trkpt>
      <trkpt lat="45.11121" lon="5.89051">
        <ele>1908</ele>
        <time>2021-08-06T13:31:24Z</time>
      </trkpt>
      <trkpt lat="45.1112" lon="5.8905">
        <ele>1908</ele>
        <time>2021-08-06T13:31:26Z</time>
      </trkpt>
      <trkpt lat="45.11118" lon="5.8905">
        <ele>1908</ele>
        <time>2021-08-06T13:31:29Z</time>
      </trkpt>
      <trkpt lat="45.11116" lon="5.89049">
        <ele>1908</ele>
        <time>2021-08-06T13:31:31Z</time>
      </trkpt>
      <trkpt lat="45.11115" lon="5.89049">
        <ele>1908</ele>
        <time>2021-08-06T13:31:32Z</time>
      </trkpt>
      <trkpt lat="45.11113" lon="5.89049">
        <ele>1908</ele>
        <time>2021-08-06T13:31:34Z</time>
      </trkpt>
      <trkpt lat="45.11112" lon="5.89048">
        <ele>1908</ele>
        <time>2021-08-06T13:31:36Z</time>
      </trkpt>
      <trkpt lat="45.11111" lon="5.89047">
        <ele>1908</ele>
        <time>2021-08-06T13:31:40Z</time>
      </trkpt>
      <trkpt lat="45.1111" lon="5.89045">
        <ele>1908</ele>
        <time>2021-08-06T13:31:42Z</time>
      </trkpt>
      <trkpt lat="45.11108" lon="5.89044">
        <ele>1908</ele>
        <time>2021-08-06T13:31:44Z</time>
      </trkpt>
      <trkpt lat="45.11107" lon="5.89043">
        <ele>1908</ele>
        <time>2021-08-06T13:31:46Z</time>
      </trkpt>
      <trkpt lat="45.11106" lon="5.89042">
        <ele>1908</ele>
        <time>2021-08-06T13:31:48Z</time>
      </trkpt>
      <trkpt lat="45.11105" lon="5.89043">
        <ele>1908</ele>
        <time>2021-08-06T13:31:54Z</time>
      </trkpt>
      <trkpt lat="45.11103" lon="5.89043">
        <ele>1908</ele>
        <time>2021-08-06T13:31:57Z</time>
      </trkpt>
      <trkpt lat="45.11101" lon="5.89041">
        <ele>1908</ele>
        <time>2021-08-06T13:32:00Z</time>
      </trkpt>
      <trkpt lat="45.11099" lon="5.8904">
        <ele>1908</ele>
        <time>2021-08-06T13:32:07Z</time>
      </trkpt>
      <trkpt lat="45.111" lon="5.89039">
        <ele>1908</ele>
        <time>2021-08-06T13:32:20Z</time>
      </trkpt>
      <trkpt lat="45.11099" lon="5.89038">
        <ele>1910</ele>
        <time>2021-08-06T13:32:28Z</time>
      </trkpt>
      <trkpt lat="45.11098" lon="5.89038">
        <ele>1910</ele>
        <time>2021-08-06T13:32:30Z</time>
      </trkpt>
      <trkpt lat="45.11097" lon="5.89038">
        <ele>1910</ele>
        <time>2021-08-06T13:32:32Z</time>
      </trkpt>
      <trkpt lat="45.11097" lon="5.89036">
        <ele>1910</ele>
        <time>2021-08-06T13:32:58Z</time>
      </trkpt>
      <trkpt lat="45.11096" lon="5.89034">
        <ele>1910</ele>
        <time>2021-08-06T13:33:00Z</time>
      </trkpt>
      <trkpt lat="45.11095" lon="5.89033">
        <ele>1910</ele>
        <time>2021-08-06T13:33:02Z</time>
      </trkpt>
      <trkpt lat="45.11094" lon="5.89031">
        <ele>1910</ele>
        <time>2021-08-06T13:33:04Z</time>
      </trkpt>
      <trkpt lat="45.11093" lon="5.89029">
        <ele>1910</ele>
        <time>2021-08-06T13:33:06Z</time>
      </trkpt>
      <trkpt lat="45.11092" lon="5.89027">
        <ele>1910</ele>
        <time>2021-08-06T13:33:08Z</time>
      </trkpt>
      <trkpt lat="45.11092" lon="5.89026">
        <ele>1910</ele>
        <time>2021-08-06T13:33:11Z</time>
      </trkpt>
      <trkpt lat="45.11091" lon="5.89024">
        <ele>1910</ele>
        <time>2021-08-06T13:33:14Z</time>
      </trkpt>
      <trkpt lat="45.1109" lon="5.89022">
        <ele>1910</ele>
        <time>2021-08-06T13:33:17Z</time>
      </trkpt>
      <trkpt lat="45.11089" lon="5.89021">
        <ele>1910</ele>
        <time>2021-08-06T13:33:20Z</time>
      </trkpt>
      <trkpt lat="45.11087" lon="5.89019">
        <ele>1910</ele>
        <time>2021-08-06T13:33:23Z</time>
      </trkpt>
      <trkpt lat="45.11086" lon="5.89018">
        <ele>1910</ele>
        <time>2021-08-06T13:33:26Z</time>
      </trkpt>
      <trkpt lat="45.11085" lon="5.89016">
        <ele>1910</ele>
        <time>2021-08-06T13:33:28Z</time>
      </trkpt>
      <trkpt lat="45.11084" lon="5.89015">
        <ele>1910</ele>
        <time>2021-08-06T13:33:30Z</time>
      </trkpt>
      <trkpt lat="45.11084" lon="5.89013">
        <ele>1910</ele>
        <time>2021-08-06T13:33:33Z</time>
      </trkpt>
      <trkpt lat="45.11082" lon="5.89011">
        <ele>1910</ele>
        <time>2021-08-06T13:33:36Z</time>
      </trkpt>
      <trkpt lat="45.11082" lon="5.89009">
        <ele>1911</ele>
        <time>2021-08-06T13:33:40Z</time>
      </trkpt>
      <trkpt lat="45.1108" lon="5.89008">
        <ele>1911</ele>
        <time>2021-08-06T13:33:42Z</time>
      </trkpt>
      <trkpt lat="45.11079" lon="5.89008">
        <ele>1911</ele>
        <time>2021-08-06T13:33:44Z</time>
      </trkpt>
      <trkpt lat="45.11078" lon="5.89006">
        <ele>1911</ele>
        <time>2021-08-06T13:33:46Z</time>
      </trkpt>
      <trkpt lat="45.11077" lon="5.89004">
        <ele>1911</ele>
        <time>2021-08-06T13:33:48Z</time>
      </trkpt>
      <trkpt lat="45.11076" lon="5.89003">
        <ele>1911</ele>
        <time>2021-08-06T13:33:50Z</time>
      </trkpt>
      <trkpt lat="45.11075" lon="5.89001">
        <ele>1911</ele>
        <time>2021-08-06T13:33:52Z</time>
      </trkpt>
      <trkpt lat="45.11074" lon="5.88999">
        <ele>1911</ele>
        <time>2021-08-06T13:33:54Z</time>
      </trkpt>
      <trkpt lat="45.11073" lon="5.88997">
        <ele>1911</ele>
        <time>2021-08-06T13:33:56Z</time>
      </trkpt>
      <trkpt lat="45.11072" lon="5.88995">
        <ele>1911</ele>
        <time>2021-08-06T13:33:58Z</time>
      </trkpt>
      <trkpt lat="45.11071" lon="5.88993">
        <ele>1911</ele>
        <time>2021-08-06T13:34:00Z</time>
      </trkpt>
      <trkpt lat="45.11069" lon="5.88991">
        <ele>1911</ele>
        <time>2021-08-06T13:34:02Z</time>
      </trkpt>
      <trkpt lat="45.11068" lon="5.8899">
        <ele>1911</ele>
        <time>2021-08-06T13:34:04Z</time>
      </trkpt>
      <trkpt lat="45.11066" lon="5.88988">
        <ele>1911</ele>
        <time>2021-08-06T13:34:06Z</time>
      </trkpt>
      <trkpt lat="45.11065" lon="5.88987">
        <ele>1911</ele>
        <time>2021-08-06T13:34:08Z</time>
      </trkpt>
      <trkpt lat="45.11063" lon="5.88985">
        <ele>1911</ele>
        <time>2021-08-06T13:34:10Z</time>
      </trkpt>
      <trkpt lat="45.11063" lon="5.88984">
        <ele>1911</ele>
        <time>2021-08-06T13:34:12Z</time>
      </trkpt>
      <trkpt lat="45.11061" lon="5.88982">
        <ele>1911</ele>
        <time>2021-08-06T13:34:14Z</time>
      </trkpt>
      <trkpt lat="45.1106" lon="5.88981">
        <ele>1911</ele>
        <time>2021-08-06T13:34:16Z</time>
      </trkpt>
      <trkpt lat="45.11059" lon="5.8898">
        <ele>1911</ele>
        <time>2021-08-06T13:34:19Z</time>
      </trkpt>
      <trkpt lat="45.11058" lon="5.88978">
        <ele>1911</ele>
        <time>2021-08-06T13:34:22Z</time>
      </trkpt>
      <trkpt lat="45.11058" lon="5.88976">
        <ele>1911</ele>
        <time>2021-08-06T13:34:24Z</time>
      </trkpt>
      <trkpt lat="45.11058" lon="5.88974">
        <ele>1911</ele>
        <time>2021-08-06T13:34:26Z</time>
      </trkpt>
      <trkpt lat="45.11057" lon="5.88972">
        <ele>1911</ele>
        <time>2021-08-06T13:34:28Z</time>
      </trkpt>
      <trkpt lat="45.11056" lon="5.8897">
        <ele>1911</ele>
        <time>2021-08-06T13:34:30Z</time>
      </trkpt>
      <trkpt lat="45.11055" lon="5.88969">
        <ele>1911</ele>
        <time>2021-08-06T13:34:32Z</time>
      </trkpt>
      <trkpt lat="45.11055" lon="5.88967">
        <ele>1911</ele>
        <time>2021-08-06T13:34:35Z</time>
      </trkpt>
      <trkpt lat="45.11054" lon="5.88965">
        <ele>1911</ele>
        <time>2021-08-06T13:34:38Z</time>
      </trkpt>
      <trkpt lat="45.11053" lon="5.88963">
        <ele>1911</ele>
        <time>2021-08-06T13:34:41Z</time>
      </trkpt>
      <trkpt lat="45.11053" lon="5.88961">
        <ele>1911</ele>
        <time>2021-08-06T13:34:43Z</time>
      </trkpt>
      <trkpt lat="45.11053" lon="5.8896">
        <ele>1911</ele>
        <time>2021-08-06T13:34:47Z</time>
      </trkpt>
      <trkpt lat="45.11054" lon="5.88958">
        <ele>1911</ele>
        <time>2021-08-06T13:34:50Z</time>
      </trkpt>
      <trkpt lat="45.11055" lon="5.88958">
        <ele>1911</ele>
        <time>2021-08-06T13:35:21Z</time>
      </trkpt>
      <trkpt lat="45.11056" lon="5.88956">
        <ele>1911</ele>
        <time>2021-08-06T13:35:24Z</time>
      </trkpt>
      <trkpt lat="45.11057" lon="5.88955">
        <ele>1911</ele>
        <time>2021-08-06T13:35:28Z</time>
      </trkpt>
      <trkpt lat="45.11058" lon="5.88953">
        <ele>1911</ele>
        <time>2021-08-06T13:35:34Z</time>
      </trkpt>
      <trkpt lat="45.11057" lon="5.88952">
        <ele>1911</ele>
        <time>2021-08-06T13:35:42Z</time>
      </trkpt>
      <trkpt lat="45.11058" lon="5.8895">
        <ele>1911</ele>
        <time>2021-08-06T13:35:46Z</time>
      </trkpt>
      <trkpt lat="45.11059" lon="5.88949">
        <ele>1911</ele>
        <time>2021-08-06T13:35:49Z</time>
      </trkpt>
      <trkpt lat="45.11059" lon="5.88946">
        <ele>1912</ele>
        <time>2021-08-06T13:35:51Z</time>
      </trkpt>
      <trkpt lat="45.1106" lon="5.88944">
        <ele>1912</ele>
        <time>2021-08-06T13:35:53Z</time>
      </trkpt>
      <trkpt lat="45.1106" lon="5.88942">
        <ele>1912</ele>
        <time>2021-08-06T13:35:55Z</time>
      </trkpt>
      <trkpt lat="45.11061" lon="5.8894">
        <ele>1912</ele>
        <time>2021-08-06T13:35:57Z</time>
      </trkpt>
      <trkpt lat="45.11062" lon="5.88938">
        <ele>1912</ele>
        <time>2021-08-06T13:36:00Z</time>
      </trkpt>
      <trkpt lat="45.11064" lon="5.88936">
        <ele>1912</ele>
        <time>2021-08-06T13:36:05Z</time>
      </trkpt>
      <trkpt lat="45.11065" lon="5.88935">
        <ele>1912</ele>
        <time>2021-08-06T13:36:07Z</time>
      </trkpt>
      <trkpt lat="45.11066" lon="5.88933">
        <ele>1912</ele>
        <time>2021-08-06T13:36:09Z</time>
      </trkpt>
      <trkpt lat="45.11067" lon="5.88932">
        <ele>1912</ele>
        <time>2021-08-06T13:36:12Z</time>
      </trkpt>
      <trkpt lat="45.11068" lon="5.8893">
        <ele>1912</ele>
        <time>2021-08-06T13:36:15Z</time>
      </trkpt>
      <trkpt lat="45.11068" lon="5.88928">
        <ele>1912</ele>
        <time>2021-08-06T13:36:17Z</time>
      </trkpt>
      <trkpt lat="45.11069" lon="5.88927">
        <ele>1912</ele>
        <time>2021-08-06T13:36:20Z</time>
      </trkpt>
      <trkpt lat="45.1107" lon="5.88924">
        <ele>1912</ele>
        <time>2021-08-06T13:36:23Z</time>
      </trkpt>
      <trkpt lat="45.11071" lon="5.88923">
        <ele>1912</ele>
        <time>2021-08-06T13:36:25Z</time>
      </trkpt>
      <trkpt lat="45.11071" lon="5.88921">
        <ele>1912</ele>
        <time>2021-08-06T13:36:27Z</time>
      </trkpt>
      <trkpt lat="45.11072" lon="5.88919">
        <ele>1912</ele>
        <time>2021-08-06T13:36:29Z</time>
      </trkpt>
      <trkpt lat="45.11073" lon="5.88917">
        <ele>1912</ele>
        <time>2021-08-06T13:36:31Z</time>
      </trkpt>
      <trkpt lat="45.11074" lon="5.88914">
        <ele>1912</ele>
        <time>2021-08-06T13:36:33Z</time>
      </trkpt>
      <trkpt lat="45.11074" lon="5.88912">
        <ele>1912</ele>
        <time>2021-08-06T13:36:35Z</time>
      </trkpt>
      <trkpt lat="45.11075" lon="5.88911">
        <ele>1912</ele>
        <time>2021-08-06T13:36:38Z</time>
      </trkpt>
      <trkpt lat="45.11075" lon="5.88909">
        <ele>1912</ele>
        <time>2021-08-06T13:36:40Z</time>
      </trkpt>
      <trkpt lat="45.11076" lon="5.88907">
        <ele>1912</ele>
        <time>2021-08-06T13:36:43Z</time>
      </trkpt>
      <trkpt lat="45.11076" lon="5.88905">
        <ele>1912</ele>
        <time>2021-08-06T13:36:45Z</time>
      </trkpt>
      <trkpt lat="45.11076" lon="5.88903">
        <ele>1912</ele>
        <time>2021-08-06T13:36:46Z</time>
      </trkpt>
      <trkpt lat="45.11076" lon="5.88902">
        <ele>1912</ele>
        <time>2021-08-06T13:36:47Z</time>
      </trkpt>
      <trkpt lat="45.11078" lon="5.889">
        <ele>1912</ele>
        <time>2021-08-06T13:36:49Z</time>
      </trkpt>
      <trkpt lat="45.11079" lon="5.88897">
        <ele>1912</ele>
        <time>2021-08-06T13:36:51Z</time>
      </trkpt>
      <trkpt lat="45.1108" lon="5.88894">
        <ele>1912</ele>
        <time>2021-08-06T13:36:53Z</time>
      </trkpt>
      <trkpt lat="45.11081" lon="5.88893">
        <ele>1912</ele>
        <time>2021-08-06T13:36:55Z</time>
      </trkpt>
      <trkpt lat="45.11082" lon="5.88891">
        <ele>1912</ele>
        <time>2021-08-06T13:36:57Z</time>
      </trkpt>
      <trkpt lat="45.11083" lon="5.88889">
        <ele>1912</ele>
        <time>2021-08-06T13:37:00Z</time>
      </trkpt>
      <trkpt lat="45.11084" lon="5.88889">
        <ele>1912</ele>
        <time>2021-08-06T13:37:07Z</time>
      </trkpt>
      <trkpt lat="45.11084" lon="5.88887">
        <ele>1912</ele>
        <time>2021-08-06T13:37:15Z</time>
      </trkpt>
      <trkpt lat="45.11084" lon="5.88885">
        <ele>1912</ele>
        <time>2021-08-06T13:37:20Z</time>
      </trkpt>
      <trkpt lat="45.11084" lon="5.88884">
        <ele>1912</ele>
        <time>2021-08-06T13:37:24Z</time>
      </trkpt>
      <trkpt lat="45.11085" lon="5.88882">
        <ele>1912</ele>
        <time>2021-08-06T13:37:29Z</time>
      </trkpt>
      <trkpt lat="45.11086" lon="5.88881">
        <ele>1912</ele>
        <time>2021-08-06T13:37:33Z</time>
      </trkpt>
      <trkpt lat="45.11087" lon="5.88879">
        <ele>1912</ele>
        <time>2021-08-06T13:37:37Z</time>
      </trkpt>
      <trkpt lat="45.11087" lon="5.88877">
        <ele>1912</ele>
        <time>2021-08-06T13:37:39Z</time>
      </trkpt>
      <trkpt lat="45.11087" lon="5.88875">
        <ele>1912</ele>
        <time>2021-08-06T13:37:42Z</time>
      </trkpt>
      <trkpt lat="45.11087" lon="5.88874">
        <ele>1912</ele>
        <time>2021-08-06T13:37:45Z</time>
      </trkpt>
      <trkpt lat="45.11087" lon="5.88872">
        <ele>1912</ele>
        <time>2021-08-06T13:37:49Z</time>
      </trkpt>
      <trkpt lat="45.11087" lon="5.8887">
        <ele>1912</ele>
        <time>2021-08-06T13:37:51Z</time>
      </trkpt>
      <trkpt lat="45.11087" lon="5.88869">
        <ele>1911</ele>
        <time>2021-08-06T13:37:53Z</time>
      </trkpt>
      <trkpt lat="45.11087" lon="5.88867">
        <ele>1911</ele>
        <time>2021-08-06T13:37:55Z</time>
      </trkpt>
      <trkpt lat="45.11086" lon="5.88865">
        <ele>1909</ele>
        <time>2021-08-06T13:37:59Z</time>
      </trkpt>
      <trkpt lat="45.11086" lon="5.88863">
        <ele>1908</ele>
        <time>2021-08-06T13:38:02Z</time>
      </trkpt>
      <trkpt lat="45.11086" lon="5.88861">
        <ele>1908</ele>
        <time>2021-08-06T13:38:04Z</time>
      </trkpt>
      <trkpt lat="45.11085" lon="5.8886">
        <ele>1907</ele>
        <time>2021-08-06T13:38:06Z</time>
      </trkpt>
      <trkpt lat="45.11086" lon="5.88858">
        <ele>1907</ele>
        <time>2021-08-06T13:38:14Z</time>
      </trkpt>
      <trkpt lat="45.11086" lon="5.88856">
        <ele>1907</ele>
        <time>2021-08-06T13:38:17Z</time>
      </trkpt>
      <trkpt lat="45.11086" lon="5.88854">
        <ele>1907</ele>
        <time>2021-08-06T13:38:19Z</time>
      </trkpt>
      <trkpt lat="45.11086" lon="5.88852">
        <ele>1907</ele>
        <time>2021-08-06T13:38:22Z</time>
      </trkpt>
      <trkpt lat="45.11086" lon="5.8885">
        <ele>1907</ele>
        <time>2021-08-06T13:38:24Z</time>
      </trkpt>
      <trkpt lat="45.11086" lon="5.88848">
        <ele>1906</ele>
        <time>2021-08-06T13:38:26Z</time>
      </trkpt>
      <trkpt lat="45.11087" lon="5.88845">
        <ele>1906</ele>
        <time>2021-08-06T13:38:28Z</time>
      </trkpt>
      <trkpt lat="45.11087" lon="5.88843">
        <ele>1905</ele>
        <time>2021-08-06T13:38:30Z</time>
      </trkpt>
      <trkpt lat="45.11088" lon="5.88842">
        <ele>1905</ele>
        <time>2021-08-06T13:38:34Z</time>
      </trkpt>
      <trkpt lat="45.11087" lon="5.8884">
        <ele>1905</ele>
        <time>2021-08-06T13:38:45Z</time>
      </trkpt>
      <trkpt lat="45.11089" lon="5.88837">
        <ele>1905</ele>
        <time>2021-08-06T13:38:47Z</time>
      </trkpt>
      <trkpt lat="45.11089" lon="5.88835">
        <ele>1905</ele>
        <time>2021-08-06T13:38:49Z</time>
      </trkpt>
      <trkpt lat="45.1109" lon="5.88833">
        <ele>1905</ele>
        <time>2021-08-06T13:39:04Z</time>
      </trkpt>
      <trkpt lat="45.1109" lon="5.88832">
        <ele>1905</ele>
        <time>2021-08-06T13:39:09Z</time>
      </trkpt>
      <trkpt lat="45.11091" lon="5.8883">
        <ele>1905</ele>
        <time>2021-08-06T13:39:11Z</time>
      </trkpt>
      <trkpt lat="45.11091" lon="5.88828">
        <ele>1905</ele>
        <time>2021-08-06T13:39:13Z</time>
      </trkpt>
      <trkpt lat="45.1109" lon="5.88826">
        <ele>1905</ele>
        <time>2021-08-06T13:39:15Z</time>
      </trkpt>
      <trkpt lat="45.1109" lon="5.88824">
        <ele>1905</ele>
        <time>2021-08-06T13:39:17Z</time>
      </trkpt>
      <trkpt lat="45.1109" lon="5.88823">
        <ele>1905</ele>
        <time>2021-08-06T13:39:19Z</time>
      </trkpt>
      <trkpt lat="45.1109" lon="5.88821">
        <ele>1905</ele>
        <time>2021-08-06T13:39:21Z</time>
      </trkpt>
      <trkpt lat="45.1109" lon="5.88819">
        <ele>1904</ele>
        <time>2021-08-06T13:39:23Z</time>
      </trkpt>
      <trkpt lat="45.11089" lon="5.88818">
        <ele>1904</ele>
        <time>2021-08-06T13:39:25Z</time>
      </trkpt>
      <trkpt lat="45.11089" lon="5.88816">
        <ele>1904</ele>
        <time>2021-08-06T13:39:27Z</time>
      </trkpt>
      <trkpt lat="45.1109" lon="5.88814">
        <ele>1903</ele>
        <time>2021-08-06T13:39:29Z</time>
      </trkpt>
      <trkpt lat="45.1109" lon="5.88813">
        <ele>1903</ele>
        <time>2021-08-06T13:39:32Z</time>
      </trkpt>
      <trkpt lat="45.1109" lon="5.88811">
        <ele>1902</ele>
        <time>2021-08-06T13:39:44Z</time>
      </trkpt>
      <trkpt lat="45.11091" lon="5.88811">
        <ele>1902</ele>
        <time>2021-08-06T13:39:46Z</time>
      </trkpt>
      <trkpt lat="45.11092" lon="5.88809">
        <ele>1902</ele>
        <time>2021-08-06T13:39:48Z</time>
      </trkpt>
      <trkpt lat="45.11094" lon="5.88808">
        <ele>1902</ele>
        <time>2021-08-06T13:39:50Z</time>
      </trkpt>
      <trkpt lat="45.11095" lon="5.88806">
        <ele>1901</ele>
        <time>2021-08-06T13:39:52Z</time>
      </trkpt>
      <trkpt lat="45.11097" lon="5.88805">
        <ele>1901</ele>
        <time>2021-08-06T13:39:54Z</time>
      </trkpt>
      <trkpt lat="45.11098" lon="5.88803">
        <ele>1901</ele>
        <time>2021-08-06T13:39:56Z</time>
      </trkpt>
      <trkpt lat="45.11098" lon="5.88801">
        <ele>1900</ele>
        <time>2021-08-06T13:39:58Z</time>
      </trkpt>
      <trkpt lat="45.11099" lon="5.88799">
        <ele>1900</ele>
        <time>2021-08-06T13:40:00Z</time>
      </trkpt>
      <trkpt lat="45.111" lon="5.88798">
        <ele>1900</ele>
        <time>2021-08-06T13:40:02Z</time>
      </trkpt>
      <trkpt lat="45.111" lon="5.88796">
        <ele>1899</ele>
        <time>2021-08-06T13:40:04Z</time>
      </trkpt>
      <trkpt lat="45.11101" lon="5.88794">
        <ele>1899</ele>
        <time>2021-08-06T13:40:06Z</time>
      </trkpt>
      <trkpt lat="45.11101" lon="5.88792">
        <ele>1899</ele>
        <time>2021-08-06T13:40:08Z</time>
      </trkpt>
      <trkpt lat="45.11102" lon="5.8879">
        <ele>1898</ele>
        <time>2021-08-06T13:40:10Z</time>
      </trkpt>
      <trkpt lat="45.11102" lon="5.88788">
        <ele>1898</ele>
        <time>2021-08-06T13:40:12Z</time>
      </trkpt>
      <trkpt lat="45.11103" lon="5.88786">
        <ele>1897</ele>
        <time>2021-08-06T13:40:14Z</time>
      </trkpt>
      <trkpt lat="45.11103" lon="5.88784">
        <ele>1897</ele>
        <time>2021-08-06T13:40:16Z</time>
      </trkpt>
      <trkpt lat="45.11103" lon="5.88783">
        <ele>1897</ele>
        <time>2021-08-06T13:40:17Z</time>
      </trkpt>
      <trkpt lat="45.11103" lon="5.88781">
        <ele>1897</ele>
        <time>2021-08-06T13:40:18Z</time>
      </trkpt>
      <trkpt lat="45.11102" lon="5.88779">
        <ele>1896</ele>
        <time>2021-08-06T13:40:20Z</time>
      </trkpt>
      <trkpt lat="45.11102" lon="5.88776">
        <ele>1896</ele>
        <time>2021-08-06T13:40:22Z</time>
      </trkpt>
      <trkpt lat="45.11101" lon="5.88774">
        <ele>1895</ele>
        <time>2021-08-06T13:40:24Z</time>
      </trkpt>
      <trkpt lat="45.111" lon="5.88772">
        <ele>1895</ele>
        <time>2021-08-06T13:40:26Z</time>
      </trkpt>
      <trkpt lat="45.11099" lon="5.88771">
        <ele>1894</ele>
        <time>2021-08-06T13:40:31Z</time>
      </trkpt>
      <trkpt lat="45.11098" lon="5.88769">
        <ele>1894</ele>
        <time>2021-08-06T13:40:33Z</time>
      </trkpt>
      <trkpt lat="45.11098" lon="5.88767">
        <ele>1894</ele>
        <time>2021-08-06T13:40:35Z</time>
      </trkpt>
      <trkpt lat="45.11098" lon="5.88765">
        <ele>1894</ele>
        <time>2021-08-06T13:40:41Z</time>
      </trkpt>
      <trkpt lat="45.11097" lon="5.88762">
        <ele>1893</ele>
        <time>2021-08-06T13:40:43Z</time>
      </trkpt>
      <trkpt lat="45.11096" lon="5.8876">
        <ele>1893</ele>
        <time>2021-08-06T13:40:45Z</time>
      </trkpt>
      <trkpt lat="45.11095" lon="5.88757">
        <ele>1892</ele>
        <time>2021-08-06T13:40:47Z</time>
      </trkpt>
      <trkpt lat="45.11096" lon="5.88755">
        <ele>1892</ele>
        <time>2021-08-06T13:40:49Z</time>
      </trkpt>
      <trkpt lat="45.11096" lon="5.88754">
        <ele>1892</ele>
        <time>2021-08-06T13:40:50Z</time>
      </trkpt>
      <trkpt lat="45.11097" lon="5.88751">
        <ele>1891</ele>
        <time>2021-08-06T13:40:52Z</time>
      </trkpt>
      <trkpt lat="45.11097" lon="5.88749">
        <ele>1891</ele>
        <time>2021-08-06T13:40:54Z</time>
      </trkpt>
      <trkpt lat="45.11097" lon="5.88746">
        <ele>1891</ele>
        <time>2021-08-06T13:40:56Z</time>
      </trkpt>
      <trkpt lat="45.11099" lon="5.88744">
        <ele>1890</ele>
        <time>2021-08-06T13:40:58Z</time>
      </trkpt>
      <trkpt lat="45.111" lon="5.88743">
        <ele>1890</ele>
        <time>2021-08-06T13:41:00Z</time>
      </trkpt>
      <trkpt lat="45.11102" lon="5.88742">
        <ele>1890</ele>
        <time>2021-08-06T13:41:02Z</time>
      </trkpt>
      <trkpt lat="45.11103" lon="5.88742">
        <ele>1890</ele>
        <time>2021-08-06T13:41:07Z</time>
      </trkpt>
      <trkpt lat="45.11104" lon="5.88742">
        <ele>1890</ele>
        <time>2021-08-06T13:41:16Z</time>
      </trkpt>
      <trkpt lat="45.11105" lon="5.88741">
        <ele>1890</ele>
        <time>2021-08-06T13:41:18Z</time>
      </trkpt>
      <trkpt lat="45.11107" lon="5.88739">
        <ele>1890</ele>
        <time>2021-08-06T13:41:20Z</time>
      </trkpt>
      <trkpt lat="45.11108" lon="5.88737">
        <ele>1890</ele>
        <time>2021-08-06T13:41:22Z</time>
      </trkpt>
      <trkpt lat="45.11109" lon="5.88734">
        <ele>1890</ele>
        <time>2021-08-06T13:41:24Z</time>
      </trkpt>
      <trkpt lat="45.1111" lon="5.88732">
        <ele>1890</ele>
        <time>2021-08-06T13:41:26Z</time>
      </trkpt>
      <trkpt lat="45.11111" lon="5.8873">
        <ele>1890</ele>
        <time>2021-08-06T13:41:28Z</time>
      </trkpt>
      <trkpt lat="45.11113" lon="5.88728">
        <ele>1890</ele>
        <time>2021-08-06T13:41:30Z</time>
      </trkpt>
      <trkpt lat="45.11114" lon="5.88726">
        <ele>1890</ele>
        <time>2021-08-06T13:41:32Z</time>
      </trkpt>
      <trkpt lat="45.11115" lon="5.88724">
        <ele>1890</ele>
        <time>2021-08-06T13:41:34Z</time>
      </trkpt>
      <trkpt lat="45.11116" lon="5.88721">
        <ele>1890</ele>
        <time>2021-08-06T13:41:36Z</time>
      </trkpt>
      <trkpt lat="45.11118" lon="5.88719">
        <ele>1890</ele>
        <time>2021-08-06T13:41:38Z</time>
      </trkpt>
      <trkpt lat="45.11119" lon="5.88717">
        <ele>1890</ele>
        <time>2021-08-06T13:41:40Z</time>
      </trkpt>
      <trkpt lat="45.1112" lon="5.88716">
        <ele>1890</ele>
        <time>2021-08-06T13:41:41Z</time>
      </trkpt>
      <trkpt lat="45.11121" lon="5.88714">
        <ele>1890</ele>
        <time>2021-08-06T13:41:42Z</time>
      </trkpt>
      <trkpt lat="45.11121" lon="5.88712">
        <ele>1890</ele>
        <time>2021-08-06T13:41:43Z</time>
      </trkpt>
      <trkpt lat="45.11122" lon="5.8871">
        <ele>1890</ele>
        <time>2021-08-06T13:41:45Z</time>
      </trkpt>
      <trkpt lat="45.11123" lon="5.88708">
        <ele>1890</ele>
        <time>2021-08-06T13:41:47Z</time>
      </trkpt>
      <trkpt lat="45.11124" lon="5.88705">
        <ele>1890</ele>
        <time>2021-08-06T13:41:49Z</time>
      </trkpt>
      <trkpt lat="45.11125" lon="5.88705">
        <ele>1890</ele>
        <time>2021-08-06T13:41:52Z</time>
      </trkpt>
      <trkpt lat="45.11126" lon="5.88703">
        <ele>1890</ele>
        <time>2021-08-06T13:41:54Z</time>
      </trkpt>
      <trkpt lat="45.11127" lon="5.88701">
        <ele>1890</ele>
        <time>2021-08-06T13:41:56Z</time>
      </trkpt>
      <trkpt lat="45.11128" lon="5.88698">
        <ele>1890</ele>
        <time>2021-08-06T13:41:58Z</time>
      </trkpt>
      <trkpt lat="45.11129" lon="5.88696">
        <ele>1890</ele>
        <time>2021-08-06T13:42:00Z</time>
      </trkpt>
      <trkpt lat="45.1113" lon="5.88693">
        <ele>1890</ele>
        <time>2021-08-06T13:42:02Z</time>
      </trkpt>
      <trkpt lat="45.11131" lon="5.88691">
        <ele>1890</ele>
        <time>2021-08-06T13:42:04Z</time>
      </trkpt>
      <trkpt lat="45.11131" lon="5.8869">
        <ele>1890</ele>
        <time>2021-08-06T13:42:05Z</time>
      </trkpt>
      <trkpt lat="45.11131" lon="5.88688">
        <ele>1890</ele>
        <time>2021-08-06T13:42:06Z</time>
      </trkpt>
      <trkpt lat="45.11131" lon="5.88685">
        <ele>1890</ele>
        <time>2021-08-06T13:42:08Z</time>
      </trkpt>
      <trkpt lat="45.11132" lon="5.88683">
        <ele>1890</ele>
        <time>2021-08-06T13:42:10Z</time>
      </trkpt>
      <trkpt lat="45.11134" lon="5.88683">
        <ele>1890</ele>
        <time>2021-08-06T13:42:14Z</time>
      </trkpt>
      <trkpt lat="45.11135" lon="5.88683">
        <ele>1890</ele>
        <time>2021-08-06T13:42:21Z</time>
      </trkpt>
      <trkpt lat="45.11136" lon="5.8868">
        <ele>1890</ele>
        <time>2021-08-06T13:42:23Z</time>
      </trkpt>
      <trkpt lat="45.11137" lon="5.88678">
        <ele>1890</ele>
        <time>2021-08-06T13:42:25Z</time>
      </trkpt>
      <trkpt lat="45.11138" lon="5.88677">
        <ele>1890</ele>
        <time>2021-08-06T13:42:27Z</time>
      </trkpt>
      <trkpt lat="45.11139" lon="5.88674">
        <ele>1890</ele>
        <time>2021-08-06T13:42:29Z</time>
      </trkpt>
      <trkpt lat="45.11139" lon="5.88672">
        <ele>1890</ele>
        <time>2021-08-06T13:42:31Z</time>
      </trkpt>
      <trkpt lat="45.1114" lon="5.88671">
        <ele>1890</ele>
        <time>2021-08-06T13:42:33Z</time>
      </trkpt>
      <trkpt lat="45.11141" lon="5.88668">
        <ele>1890</ele>
        <time>2021-08-06T13:42:35Z</time>
      </trkpt>
      <trkpt lat="45.11141" lon="5.88666">
        <ele>1890</ele>
        <time>2021-08-06T13:42:37Z</time>
      </trkpt>
      <trkpt lat="45.11142" lon="5.88665">
        <ele>1890</ele>
        <time>2021-08-06T13:42:39Z</time>
      </trkpt>
      <trkpt lat="45.11142" lon="5.88662">
        <ele>1890</ele>
        <time>2021-08-06T13:42:41Z</time>
      </trkpt>
      <trkpt lat="45.11142" lon="5.8866">
        <ele>1890</ele>
        <time>2021-08-06T13:42:43Z</time>
      </trkpt>
      <trkpt lat="45.11142" lon="5.88658">
        <ele>1890</ele>
        <time>2021-08-06T13:42:45Z</time>
      </trkpt>
      <trkpt lat="45.11142" lon="5.88656">
        <ele>1890</ele>
        <time>2021-08-06T13:42:47Z</time>
      </trkpt>
      <trkpt lat="45.11142" lon="5.88654">
        <ele>1890</ele>
        <time>2021-08-06T13:42:50Z</time>
      </trkpt>
      <trkpt lat="45.11142" lon="5.88652">
        <ele>1890</ele>
        <time>2021-08-06T13:42:53Z</time>
      </trkpt>
      <trkpt lat="45.11142" lon="5.88651">
        <ele>1889</ele>
        <time>2021-08-06T13:42:55Z</time>
      </trkpt>
      <trkpt lat="45.11142" lon="5.88649">
        <ele>1889</ele>
        <time>2021-08-06T13:42:57Z</time>
      </trkpt>
      <trkpt lat="45.11141" lon="5.88646">
        <ele>1889</ele>
        <time>2021-08-06T13:42:59Z</time>
      </trkpt>
      <trkpt lat="45.1114" lon="5.88644">
        <ele>1889</ele>
        <time>2021-08-06T13:43:01Z</time>
      </trkpt>
      <trkpt lat="45.1114" lon="5.88642">
        <ele>1889</ele>
        <time>2021-08-06T13:43:03Z</time>
      </trkpt>
      <trkpt lat="45.11139" lon="5.88639">
        <ele>1889</ele>
        <time>2021-08-06T13:43:05Z</time>
      </trkpt>
      <trkpt lat="45.11139" lon="5.88637">
        <ele>1889</ele>
        <time>2021-08-06T13:43:07Z</time>
      </trkpt>
      <trkpt lat="45.11139" lon="5.88635">
        <ele>1889</ele>
        <time>2021-08-06T13:43:09Z</time>
      </trkpt>
      <trkpt lat="45.11139" lon="5.88633">
        <ele>1888</ele>
        <time>2021-08-06T13:43:11Z</time>
      </trkpt>
      <trkpt lat="45.11139" lon="5.88631">
        <ele>1888</ele>
        <time>2021-08-06T13:43:13Z</time>
      </trkpt>
      <trkpt lat="45.11138" lon="5.88629">
        <ele>1888</ele>
        <time>2021-08-06T13:43:15Z</time>
      </trkpt>
      <trkpt lat="45.11138" lon="5.88627">
        <ele>1888</ele>
        <time>2021-08-06T13:43:17Z</time>
      </trkpt>
      <trkpt lat="45.11138" lon="5.88624">
        <ele>1887</ele>
        <time>2021-08-06T13:43:19Z</time>
      </trkpt>
      <trkpt lat="45.11137" lon="5.88622">
        <ele>1887</ele>
        <time>2021-08-06T13:43:21Z</time>
      </trkpt>
      <trkpt lat="45.11136" lon="5.8862">
        <ele>1886</ele>
        <time>2021-08-06T13:43:23Z</time>
      </trkpt>
      <trkpt lat="45.11136" lon="5.88618">
        <ele>1886</ele>
        <time>2021-08-06T13:43:27Z</time>
      </trkpt>
      <trkpt lat="45.11136" lon="5.88616">
        <ele>1886</ele>
        <time>2021-08-06T13:43:29Z</time>
      </trkpt>
      <trkpt lat="45.11136" lon="5.88614">
        <ele>1886</ele>
        <time>2021-08-06T13:43:31Z</time>
      </trkpt>
      <trkpt lat="45.11136" lon="5.88612">
        <ele>1886</ele>
        <time>2021-08-06T13:43:33Z</time>
      </trkpt>
      <trkpt lat="45.11136" lon="5.8861">
        <ele>1885</ele>
        <time>2021-08-06T13:43:35Z</time>
      </trkpt>
      <trkpt lat="45.11136" lon="5.88608">
        <ele>1885</ele>
        <time>2021-08-06T13:43:36Z</time>
      </trkpt>
      <trkpt lat="45.11136" lon="5.88606">
        <ele>1885</ele>
        <time>2021-08-06T13:43:38Z</time>
      </trkpt>
      <trkpt lat="45.11136" lon="5.88603">
        <ele>1885</ele>
        <time>2021-08-06T13:43:40Z</time>
      </trkpt>
      <trkpt lat="45.11136" lon="5.88601">
        <ele>1883</ele>
        <time>2021-08-06T13:43:54Z</time>
      </trkpt>
      <trkpt lat="45.11136" lon="5.88599">
        <ele>1883</ele>
        <time>2021-08-06T13:43:56Z</time>
      </trkpt>
      <trkpt lat="45.11135" lon="5.88597">
        <ele>1883</ele>
        <time>2021-08-06T13:43:58Z</time>
      </trkpt>
      <trkpt lat="45.11135" lon="5.88595">
        <ele>1883</ele>
        <time>2021-08-06T13:44:00Z</time>
      </trkpt>
      <trkpt lat="45.11134" lon="5.88593">
        <ele>1883</ele>
        <time>2021-08-06T13:44:02Z</time>
      </trkpt>
      <trkpt lat="45.11134" lon="5.8859">
        <ele>1883</ele>
        <time>2021-08-06T13:44:04Z</time>
      </trkpt>
      <trkpt lat="45.11133" lon="5.88588">
        <ele>1882</ele>
        <time>2021-08-06T13:44:06Z</time>
      </trkpt>
      <trkpt lat="45.11132" lon="5.88586">
        <ele>1882</ele>
        <time>2021-08-06T13:44:08Z</time>
      </trkpt>
      <trkpt lat="45.11131" lon="5.88585">
        <ele>1881</ele>
        <time>2021-08-06T13:44:10Z</time>
      </trkpt>
      <trkpt lat="45.11129" lon="5.88583">
        <ele>1881</ele>
        <time>2021-08-06T13:44:12Z</time>
      </trkpt>
      <trkpt lat="45.11128" lon="5.88582">
        <ele>1881</ele>
        <time>2021-08-06T13:44:14Z</time>
      </trkpt>
      <trkpt lat="45.11126" lon="5.8858">
        <ele>1880</ele>
        <time>2021-08-06T13:44:16Z</time>
      </trkpt>
      <trkpt lat="45.11125" lon="5.88579">
        <ele>1880</ele>
        <time>2021-08-06T13:44:18Z</time>
      </trkpt>
      <trkpt lat="45.11124" lon="5.88577">
        <ele>1879</ele>
        <time>2021-08-06T13:44:20Z</time>
      </trkpt>
      <trkpt lat="45.11123" lon="5.88575">
        <ele>1879</ele>
        <time>2021-08-06T13:44:22Z</time>
      </trkpt>
      <trkpt lat="45.11122" lon="5.88573">
        <ele>1879</ele>
        <time>2021-08-06T13:44:24Z</time>
      </trkpt>
      <trkpt lat="45.11121" lon="5.88571">
        <ele>1878</ele>
        <time>2021-08-06T13:44:26Z</time>
      </trkpt>
      <trkpt lat="45.11119" lon="5.8857">
        <ele>1878</ele>
        <time>2021-08-06T13:44:28Z</time>
      </trkpt>
      <trkpt lat="45.11118" lon="5.88569">
        <ele>1878</ele>
        <time>2021-08-06T13:44:30Z</time>
      </trkpt>
      <trkpt lat="45.11116" lon="5.88567">
        <ele>1877</ele>
        <time>2021-08-06T13:44:32Z</time>
      </trkpt>
      <trkpt lat="45.11115" lon="5.88566">
        <ele>1877</ele>
        <time>2021-08-06T13:44:34Z</time>
      </trkpt>
      <trkpt lat="45.11113" lon="5.88564">
        <ele>1877</ele>
        <time>2021-08-06T13:44:36Z</time>
      </trkpt>
      <trkpt lat="45.11112" lon="5.88563">
        <ele>1877</ele>
        <time>2021-08-06T13:44:38Z</time>
      </trkpt>
      <trkpt lat="45.11111" lon="5.8856">
        <ele>1877</ele>
        <time>2021-08-06T13:44:45Z</time>
      </trkpt>
      <trkpt lat="45.11109" lon="5.88559">
        <ele>1876</ele>
        <time>2021-08-06T13:44:47Z</time>
      </trkpt>
      <trkpt lat="45.11108" lon="5.88557">
        <ele>1876</ele>
        <time>2021-08-06T13:44:49Z</time>
      </trkpt>
      <trkpt lat="45.11106" lon="5.88556">
        <ele>1876</ele>
        <time>2021-08-06T13:44:51Z</time>
      </trkpt>
      <trkpt lat="45.11105" lon="5.88555">
        <ele>1875</ele>
        <time>2021-08-06T13:44:53Z</time>
      </trkpt>
      <trkpt lat="45.11103" lon="5.88553">
        <ele>1875</ele>
        <time>2021-08-06T13:44:55Z</time>
      </trkpt>
      <trkpt lat="45.11102" lon="5.88552">
        <ele>1875</ele>
        <time>2021-08-06T13:44:57Z</time>
      </trkpt>
      <trkpt lat="45.11101" lon="5.88551">
        <ele>1875</ele>
        <time>2021-08-06T13:44:59Z</time>
      </trkpt>
      <trkpt lat="45.111" lon="5.88549">
        <ele>1874</ele>
        <time>2021-08-06T13:45:01Z</time>
      </trkpt>
      <trkpt lat="45.11098" lon="5.88549">
        <ele>1874</ele>
        <time>2021-08-06T13:45:07Z</time>
      </trkpt>
      <trkpt lat="45.11097" lon="5.88548">
        <ele>1873</ele>
        <time>2021-08-06T13:45:09Z</time>
      </trkpt>
      <trkpt lat="45.11095" lon="5.88547">
        <ele>1873</ele>
        <time>2021-08-06T13:45:11Z</time>
      </trkpt>
      <trkpt lat="45.11094" lon="5.88545">
        <ele>1872</ele>
        <time>2021-08-06T13:45:13Z</time>
      </trkpt>
      <trkpt lat="45.11093" lon="5.88544">
        <ele>1872</ele>
        <time>2021-08-06T13:45:15Z</time>
      </trkpt>
      <trkpt lat="45.11091" lon="5.88542">
        <ele>1871</ele>
        <time>2021-08-06T13:45:17Z</time>
      </trkpt>
      <trkpt lat="45.1109" lon="5.88541">
        <ele>1871</ele>
        <time>2021-08-06T13:45:19Z</time>
      </trkpt>
      <trkpt lat="45.11088" lon="5.8854">
        <ele>1870</ele>
        <time>2021-08-06T13:45:21Z</time>
      </trkpt>
      <trkpt lat="45.11087" lon="5.88539">
        <ele>1870</ele>
        <time>2021-08-06T13:45:23Z</time>
      </trkpt>
      <trkpt lat="45.11085" lon="5.88538">
        <ele>1869</ele>
        <time>2021-08-06T13:45:25Z</time>
      </trkpt>
      <trkpt lat="45.11084" lon="5.88537">
        <ele>1869</ele>
        <time>2021-08-06T13:45:27Z</time>
      </trkpt>
      <trkpt lat="45.11082" lon="5.88535">
        <ele>1868</ele>
        <time>2021-08-06T13:45:29Z</time>
      </trkpt>
      <trkpt lat="45.11081" lon="5.88534">
        <ele>1867</ele>
        <time>2021-08-06T13:45:31Z</time>
      </trkpt>
      <trkpt lat="45.11079" lon="5.88533">
        <ele>1867</ele>
        <time>2021-08-06T13:45:33Z</time>
      </trkpt>
      <trkpt lat="45.11078" lon="5.88532">
        <ele>1866</ele>
        <time>2021-08-06T13:45:35Z</time>
      </trkpt>
      <trkpt lat="45.11076" lon="5.88531">
        <ele>1866</ele>
        <time>2021-08-06T13:45:37Z</time>
      </trkpt>
      <trkpt lat="45.11075" lon="5.88529">
        <ele>1865</ele>
        <time>2021-08-06T13:45:39Z</time>
      </trkpt>
      <trkpt lat="45.11073" lon="5.88528">
        <ele>1865</ele>
        <time>2021-08-06T13:45:41Z</time>
      </trkpt>
      <trkpt lat="45.11072" lon="5.88527">
        <ele>1865</ele>
        <time>2021-08-06T13:45:43Z</time>
      </trkpt>
      <trkpt lat="45.11071" lon="5.88525">
        <ele>1864</ele>
        <time>2021-08-06T13:45:45Z</time>
      </trkpt>
      <trkpt lat="45.11069" lon="5.88524">
        <ele>1864</ele>
        <time>2021-08-06T13:45:47Z</time>
      </trkpt>
      <trkpt lat="45.11068" lon="5.88523">
        <ele>1864</ele>
        <time>2021-08-06T13:45:49Z</time>
      </trkpt>
      <trkpt lat="45.11066" lon="5.88522">
        <ele>1863</ele>
        <time>2021-08-06T13:45:51Z</time>
      </trkpt>
      <trkpt lat="45.11065" lon="5.8852">
        <ele>1863</ele>
        <time>2021-08-06T13:45:53Z</time>
      </trkpt>
      <trkpt lat="45.11064" lon="5.88519">
        <ele>1863</ele>
        <time>2021-08-06T13:45:55Z</time>
      </trkpt>
      <trkpt lat="45.11063" lon="5.88517">
        <ele>1863</ele>
        <time>2021-08-06T13:46:00Z</time>
      </trkpt>
      <trkpt lat="45.11061" lon="5.88516">
        <ele>1863</ele>
        <time>2021-08-06T13:46:02Z</time>
      </trkpt>
      <trkpt lat="45.1106" lon="5.88515">
        <ele>1863</ele>
        <time>2021-08-06T13:46:04Z</time>
      </trkpt>
      <trkpt lat="45.11058" lon="5.88514">
        <ele>1862</ele>
        <time>2021-08-06T13:46:06Z</time>
      </trkpt>
      <trkpt lat="45.11057" lon="5.88513">
        <ele>1862</ele>
        <time>2021-08-06T13:46:08Z</time>
      </trkpt>
      <trkpt lat="45.11055" lon="5.88512">
        <ele>1861</ele>
        <time>2021-08-06T13:46:10Z</time>
      </trkpt>
      <trkpt lat="45.11054" lon="5.88511">
        <ele>1861</ele>
        <time>2021-08-06T13:46:12Z</time>
      </trkpt>
      <trkpt lat="45.11053" lon="5.88509">
        <ele>1861</ele>
        <time>2021-08-06T13:46:14Z</time>
      </trkpt>
      <trkpt lat="45.11052" lon="5.88508">
        <ele>1861</ele>
        <time>2021-08-06T13:46:16Z</time>
      </trkpt>
      <trkpt lat="45.1105" lon="5.88507">
        <ele>1860</ele>
        <time>2021-08-06T13:46:18Z</time>
      </trkpt>
      <trkpt lat="45.11049" lon="5.88506">
        <ele>1860</ele>
        <time>2021-08-06T13:46:20Z</time>
      </trkpt>
      <trkpt lat="45.11047" lon="5.88505">
        <ele>1860</ele>
        <time>2021-08-06T13:46:22Z</time>
      </trkpt>
      <trkpt lat="45.11046" lon="5.88504">
        <ele>1860</ele>
        <time>2021-08-06T13:46:24Z</time>
      </trkpt>
      <trkpt lat="45.11045" lon="5.88503">
        <ele>1860</ele>
        <time>2021-08-06T13:46:26Z</time>
      </trkpt>
      <trkpt lat="45.11043" lon="5.88502">
        <ele>1859</ele>
        <time>2021-08-06T13:46:28Z</time>
      </trkpt>
      <trkpt lat="45.11042" lon="5.88501">
        <ele>1859</ele>
        <time>2021-08-06T13:46:30Z</time>
      </trkpt>
      <trkpt lat="45.11041" lon="5.885">
        <ele>1858</ele>
        <time>2021-08-06T13:46:32Z</time>
      </trkpt>
      <trkpt lat="45.1104" lon="5.88499">
        <ele>1858</ele>
        <time>2021-08-06T13:46:35Z</time>
      </trkpt>
      <trkpt lat="45.11038" lon="5.88498">
        <ele>1857</ele>
        <time>2021-08-06T13:46:39Z</time>
      </trkpt>
      <trkpt lat="45.11037" lon="5.88497">
        <ele>1857</ele>
        <time>2021-08-06T13:46:41Z</time>
      </trkpt>
      <trkpt lat="45.11036" lon="5.88495">
        <ele>1857</ele>
        <time>2021-08-06T13:46:43Z</time>
      </trkpt>
      <trkpt lat="45.11034" lon="5.88494">
        <ele>1856</ele>
        <time>2021-08-06T13:46:45Z</time>
      </trkpt>
      <trkpt lat="45.11033" lon="5.88492">
        <ele>1856</ele>
        <time>2021-08-06T13:46:47Z</time>
      </trkpt>
      <trkpt lat="45.11032" lon="5.8849">
        <ele>1856</ele>
        <time>2021-08-06T13:46:49Z</time>
      </trkpt>
      <trkpt lat="45.11031" lon="5.88489">
        <ele>1855</ele>
        <time>2021-08-06T13:46:51Z</time>
      </trkpt>
      <trkpt lat="45.1103" lon="5.88487">
        <ele>1855</ele>
        <time>2021-08-06T13:46:53Z</time>
      </trkpt>
      <trkpt lat="45.11029" lon="5.88485">
        <ele>1855</ele>
        <time>2021-08-06T13:46:55Z</time>
      </trkpt>
      <trkpt lat="45.11029" lon="5.88483">
        <ele>1854</ele>
        <time>2021-08-06T13:46:57Z</time>
      </trkpt>
      <trkpt lat="45.11028" lon="5.88481">
        <ele>1854</ele>
        <time>2021-08-06T13:46:59Z</time>
      </trkpt>
      <trkpt lat="45.11027" lon="5.88479">
        <ele>1854</ele>
        <time>2021-08-06T13:47:03Z</time>
      </trkpt>
      <trkpt lat="45.11026" lon="5.88477">
        <ele>1853</ele>
        <time>2021-08-06T13:47:05Z</time>
      </trkpt>
      <trkpt lat="45.11026" lon="5.88474">
        <ele>1853</ele>
        <time>2021-08-06T13:47:07Z</time>
      </trkpt>
      <trkpt lat="45.11025" lon="5.88472">
        <ele>1853</ele>
        <time>2021-08-06T13:47:09Z</time>
      </trkpt>
      <trkpt lat="45.11024" lon="5.88471">
        <ele>1852</ele>
        <time>2021-08-06T13:47:11Z</time>
      </trkpt>
      <trkpt lat="45.11023" lon="5.88469">
        <ele>1852</ele>
        <time>2021-08-06T13:47:13Z</time>
      </trkpt>
      <trkpt lat="45.11022" lon="5.88466">
        <ele>1852</ele>
        <time>2021-08-06T13:47:15Z</time>
      </trkpt>
      <trkpt lat="45.11021" lon="5.88464">
        <ele>1852</ele>
        <time>2021-08-06T13:47:17Z</time>
      </trkpt>
      <trkpt lat="45.1102" lon="5.88462">
        <ele>1852</ele>
        <time>2021-08-06T13:47:19Z</time>
      </trkpt>
      <trkpt lat="45.1102" lon="5.88459">
        <ele>1851</ele>
        <time>2021-08-06T13:47:21Z</time>
      </trkpt>
      <trkpt lat="45.1102" lon="5.88457">
        <ele>1851</ele>
        <time>2021-08-06T13:47:23Z</time>
      </trkpt>
      <trkpt lat="45.11021" lon="5.88454">
        <ele>1851</ele>
        <time>2021-08-06T13:47:25Z</time>
      </trkpt>
      <trkpt lat="45.11021" lon="5.88451">
        <ele>1851</ele>
        <time>2021-08-06T13:47:27Z</time>
      </trkpt>
      <trkpt lat="45.11021" lon="5.88449">
        <ele>1851</ele>
        <time>2021-08-06T13:47:29Z</time>
      </trkpt>
      <trkpt lat="45.11021" lon="5.88447">
        <ele>1851</ele>
        <time>2021-08-06T13:47:30Z</time>
      </trkpt>
      <trkpt lat="45.11021" lon="5.88446">
        <ele>1851</ele>
        <time>2021-08-06T13:47:31Z</time>
      </trkpt>
      <trkpt lat="45.11021" lon="5.88444">
        <ele>1851</ele>
        <time>2021-08-06T13:47:32Z</time>
      </trkpt>
      <trkpt lat="45.11021" lon="5.88441">
        <ele>1851</ele>
        <time>2021-08-06T13:47:34Z</time>
      </trkpt>
      <trkpt lat="45.11021" lon="5.88439">
        <ele>1851</ele>
        <time>2021-08-06T13:47:36Z</time>
      </trkpt>
      <trkpt lat="45.11021" lon="5.88437">
        <ele>1851</ele>
        <time>2021-08-06T13:47:37Z</time>
      </trkpt>
      <trkpt lat="45.11021" lon="5.88436">
        <ele>1851</ele>
        <time>2021-08-06T13:47:38Z</time>
      </trkpt>
      <trkpt lat="45.11021" lon="5.88433">
        <ele>1851</ele>
        <time>2021-08-06T13:47:40Z</time>
      </trkpt>
      <trkpt lat="45.11022" lon="5.8843">
        <ele>1851</ele>
        <time>2021-08-06T13:47:42Z</time>
      </trkpt>
      <trkpt lat="45.11022" lon="5.88429">
        <ele>1851</ele>
        <time>2021-08-06T13:47:43Z</time>
      </trkpt>
      <trkpt lat="45.11022" lon="5.88427">
        <ele>1851</ele>
        <time>2021-08-06T13:47:44Z</time>
      </trkpt>
      <trkpt lat="45.11022" lon="5.88424">
        <ele>1851</ele>
        <time>2021-08-06T13:47:46Z</time>
      </trkpt>
      <trkpt lat="45.11022" lon="5.88423">
        <ele>1851</ele>
        <time>2021-08-06T13:47:47Z</time>
      </trkpt>
      <trkpt lat="45.11022" lon="5.8842">
        <ele>1851</ele>
        <time>2021-08-06T13:47:49Z</time>
      </trkpt>
      <trkpt lat="45.11022" lon="5.88417">
        <ele>1851</ele>
        <time>2021-08-06T13:47:51Z</time>
      </trkpt>
      <trkpt lat="45.11023" lon="5.88415">
        <ele>1851</ele>
        <time>2021-08-06T13:47:53Z</time>
      </trkpt>
      <trkpt lat="45.11023" lon="5.88413">
        <ele>1851</ele>
        <time>2021-08-06T13:48:03Z</time>
      </trkpt>
      <trkpt lat="45.11023" lon="5.88411">
        <ele>1851</ele>
        <time>2021-08-06T13:48:05Z</time>
      </trkpt>
      <trkpt lat="45.11024" lon="5.8841">
        <ele>1850</ele>
        <time>2021-08-06T13:48:07Z</time>
      </trkpt>
      <trkpt lat="45.11025" lon="5.88408">
        <ele>1850</ele>
        <time>2021-08-06T13:48:09Z</time>
      </trkpt>
      <trkpt lat="45.11026" lon="5.88406">
        <ele>1850</ele>
        <time>2021-08-06T13:48:11Z</time>
      </trkpt>
      <trkpt lat="45.11026" lon="5.88404">
        <ele>1849</ele>
        <time>2021-08-06T13:48:13Z</time>
      </trkpt>
      <trkpt lat="45.11027" lon="5.88401">
        <ele>1849</ele>
        <time>2021-08-06T13:48:15Z</time>
      </trkpt>
      <trkpt lat="45.11028" lon="5.88399">
        <ele>1849</ele>
        <time>2021-08-06T13:48:17Z</time>
      </trkpt>
      <trkpt lat="45.11029" lon="5.88396">
        <ele>1848</ele>
        <time>2021-08-06T13:48:19Z</time>
      </trkpt>
      <trkpt lat="45.1103" lon="5.88394">
        <ele>1848</ele>
        <time>2021-08-06T13:48:21Z</time>
      </trkpt>
      <trkpt lat="45.11031" lon="5.88392">
        <ele>1848</ele>
        <time>2021-08-06T13:48:23Z</time>
      </trkpt>
      <trkpt lat="45.11032" lon="5.88392">
        <ele>1848</ele>
        <time>2021-08-06T13:48:25Z</time>
      </trkpt>
      <trkpt lat="45.11033" lon="5.88389">
        <ele>1848</ele>
        <time>2021-08-06T13:48:30Z</time>
      </trkpt>
      <trkpt lat="45.11034" lon="5.88387">
        <ele>1848</ele>
        <time>2021-08-06T13:48:33Z</time>
      </trkpt>
      <trkpt lat="45.11035" lon="5.88385">
        <ele>1847</ele>
        <time>2021-08-06T13:48:35Z</time>
      </trkpt>
      <trkpt lat="45.11036" lon="5.88383">
        <ele>1847</ele>
        <time>2021-08-06T13:48:37Z</time>
      </trkpt>
      <trkpt lat="45.11037" lon="5.88382">
        <ele>1847</ele>
        <time>2021-08-06T13:48:39Z</time>
      </trkpt>
      <trkpt lat="45.11038" lon="5.8838">
        <ele>1846</ele>
        <time>2021-08-06T13:48:41Z</time>
      </trkpt>
      <trkpt lat="45.11039" lon="5.88378">
        <ele>1846</ele>
        <time>2021-08-06T13:48:43Z</time>
      </trkpt>
      <trkpt lat="45.1104" lon="5.88376">
        <ele>1846</ele>
        <time>2021-08-06T13:48:45Z</time>
      </trkpt>
      <trkpt lat="45.11041" lon="5.88374">
        <ele>1845</ele>
        <time>2021-08-06T13:48:47Z</time>
      </trkpt>
      <trkpt lat="45.11042" lon="5.88372">
        <ele>1845</ele>
        <time>2021-08-06T13:48:49Z</time>
      </trkpt>
      <trkpt lat="45.11043" lon="5.8837">
        <ele>1845</ele>
        <time>2021-08-06T13:48:51Z</time>
      </trkpt>
      <trkpt lat="45.11044" lon="5.88368">
        <ele>1844</ele>
        <time>2021-08-06T13:48:53Z</time>
      </trkpt>
      <trkpt lat="45.11044" lon="5.88366">
        <ele>1844</ele>
        <time>2021-08-06T13:49:02Z</time>
      </trkpt>
      <trkpt lat="45.11046" lon="5.88364">
        <ele>1844</ele>
        <time>2021-08-06T13:49:04Z</time>
      </trkpt>
      <trkpt lat="45.11047" lon="5.88361">
        <ele>1844</ele>
        <time>2021-08-06T13:49:06Z</time>
      </trkpt>
      <trkpt lat="45.11048" lon="5.88359">
        <ele>1844</ele>
        <time>2021-08-06T13:49:08Z</time>
      </trkpt>
      <trkpt lat="45.11049" lon="5.88357">
        <ele>1844</ele>
        <time>2021-08-06T13:49:10Z</time>
      </trkpt>
      <trkpt lat="45.1105" lon="5.88354">
        <ele>1843</ele>
        <time>2021-08-06T13:49:12Z</time>
      </trkpt>
      <trkpt lat="45.11051" lon="5.88353">
        <ele>1843</ele>
        <time>2021-08-06T13:49:18Z</time>
      </trkpt>
      <trkpt lat="45.11052" lon="5.88351">
        <ele>1843</ele>
        <time>2021-08-06T13:49:21Z</time>
      </trkpt>
      <trkpt lat="45.11052" lon="5.88349">
        <ele>1843</ele>
        <time>2021-08-06T13:49:23Z</time>
      </trkpt>
      <trkpt lat="45.11052" lon="5.88348">
        <ele>1843</ele>
        <time>2021-08-06T13:49:25Z</time>
      </trkpt>
      <trkpt lat="45.11053" lon="5.88345">
        <ele>1843</ele>
        <time>2021-08-06T13:49:29Z</time>
      </trkpt>
      <trkpt lat="45.11053" lon="5.88343">
        <ele>1843</ele>
        <time>2021-08-06T13:49:31Z</time>
      </trkpt>
      <trkpt lat="45.11054" lon="5.88341">
        <ele>1843</ele>
        <time>2021-08-06T13:49:33Z</time>
      </trkpt>
      <trkpt lat="45.11055" lon="5.88338">
        <ele>1843</ele>
        <time>2021-08-06T13:49:35Z</time>
      </trkpt>
      <trkpt lat="45.11055" lon="5.88336">
        <ele>1843</ele>
        <time>2021-08-06T13:49:37Z</time>
      </trkpt>
      <trkpt lat="45.11056" lon="5.88334">
        <ele>1842</ele>
        <time>2021-08-06T13:49:39Z</time>
      </trkpt>
      <trkpt lat="45.11057" lon="5.88332">
        <ele>1842</ele>
        <time>2021-08-06T13:49:41Z</time>
      </trkpt>
      <trkpt lat="45.11058" lon="5.88331">
        <ele>1841</ele>
        <time>2021-08-06T13:49:57Z</time>
      </trkpt>
      <trkpt lat="45.11059" lon="5.88329">
        <ele>1841</ele>
        <time>2021-08-06T13:50:14Z</time>
      </trkpt>
      <trkpt lat="45.1106" lon="5.88328">
        <ele>1841</ele>
        <time>2021-08-06T13:50:16Z</time>
      </trkpt>
      <trkpt lat="45.11061" lon="5.88327">
        <ele>1841</ele>
        <time>2021-08-06T13:50:18Z</time>
      </trkpt>
      <trkpt lat="45.11062" lon="5.88324">
        <ele>1840</ele>
        <time>2021-08-06T13:50:21Z</time>
      </trkpt>
      <trkpt lat="45.11063" lon="5.88322">
        <ele>1840</ele>
        <time>2021-08-06T13:50:23Z</time>
      </trkpt>
      <trkpt lat="45.11065" lon="5.88321">
        <ele>1840</ele>
        <time>2021-08-06T13:50:25Z</time>
      </trkpt>
      <trkpt lat="45.11066" lon="5.88319">
        <ele>1840</ele>
        <time>2021-08-06T13:50:27Z</time>
      </trkpt>
      <trkpt lat="45.11067" lon="5.88317">
        <ele>1839</ele>
        <time>2021-08-06T13:50:29Z</time>
      </trkpt>
      <trkpt lat="45.11068" lon="5.88315">
        <ele>1839</ele>
        <time>2021-08-06T13:50:31Z</time>
      </trkpt>
      <trkpt lat="45.11069" lon="5.88314">
        <ele>1839</ele>
        <time>2021-08-06T13:50:33Z</time>
      </trkpt>
      <trkpt lat="45.1107" lon="5.88311">
        <ele>1839</ele>
        <time>2021-08-06T13:50:35Z</time>
      </trkpt>
      <trkpt lat="45.11071" lon="5.8831">
        <ele>1838</ele>
        <time>2021-08-06T13:50:37Z</time>
      </trkpt>
      <trkpt lat="45.11072" lon="5.88308">
        <ele>1838</ele>
        <time>2021-08-06T13:50:40Z</time>
      </trkpt>
      <trkpt lat="45.11073" lon="5.88306">
        <ele>1838</ele>
        <time>2021-08-06T13:50:43Z</time>
      </trkpt>
      <trkpt lat="45.11073" lon="5.88304">
        <ele>1838</ele>
        <time>2021-08-06T13:50:48Z</time>
      </trkpt>
      <trkpt lat="45.11074" lon="5.88303">
        <ele>1838</ele>
        <time>2021-08-06T13:50:50Z</time>
      </trkpt>
      <trkpt lat="45.11076" lon="5.88301">
        <ele>1838</ele>
        <time>2021-08-06T13:50:52Z</time>
      </trkpt>
      <trkpt lat="45.11076" lon="5.88299">
        <ele>1838</ele>
        <time>2021-08-06T13:50:54Z</time>
      </trkpt>
      <trkpt lat="45.11077" lon="5.88297">
        <ele>1838</ele>
        <time>2021-08-06T13:50:56Z</time>
      </trkpt>
      <trkpt lat="45.11079" lon="5.88295">
        <ele>1838</ele>
        <time>2021-08-06T13:50:58Z</time>
      </trkpt>
      <trkpt lat="45.1108" lon="5.88294">
        <ele>1838</ele>
        <time>2021-08-06T13:51:00Z</time>
      </trkpt>
      <trkpt lat="45.11081" lon="5.88291">
        <ele>1837</ele>
        <time>2021-08-06T13:51:02Z</time>
      </trkpt>
      <trkpt lat="45.11081" lon="5.88289">
        <ele>1837</ele>
        <time>2021-08-06T13:51:04Z</time>
      </trkpt>
      <trkpt lat="45.11082" lon="5.88287">
        <ele>1837</ele>
        <time>2021-08-06T13:51:06Z</time>
      </trkpt>
      <trkpt lat="45.11083" lon="5.88284">
        <ele>1837</ele>
        <time>2021-08-06T13:51:08Z</time>
      </trkpt>
      <trkpt lat="45.11083" lon="5.88282">
        <ele>1836</ele>
        <time>2021-08-06T13:51:10Z</time>
      </trkpt>
      <trkpt lat="45.11084" lon="5.8828">
        <ele>1836</ele>
        <time>2021-08-06T13:51:12Z</time>
      </trkpt>
      <trkpt lat="45.11085" lon="5.88278">
        <ele>1836</ele>
        <time>2021-08-06T13:51:14Z</time>
      </trkpt>
      <trkpt lat="45.11086" lon="5.88276">
        <ele>1835</ele>
        <time>2021-08-06T13:51:16Z</time>
      </trkpt>
      <trkpt lat="45.11086" lon="5.88273">
        <ele>1835</ele>
        <time>2021-08-06T13:51:18Z</time>
      </trkpt>
      <trkpt lat="45.11087" lon="5.88271">
        <ele>1835</ele>
        <time>2021-08-06T13:51:20Z</time>
      </trkpt>
      <trkpt lat="45.11088" lon="5.88269">
        <ele>1835</ele>
        <time>2021-08-06T13:51:22Z</time>
      </trkpt>
      <trkpt lat="45.11089" lon="5.88266">
        <ele>1835</ele>
        <time>2021-08-06T13:51:24Z</time>
      </trkpt>
      <trkpt lat="45.11089" lon="5.88264">
        <ele>1834</ele>
        <time>2021-08-06T13:51:26Z</time>
      </trkpt>
      <trkpt lat="45.1109" lon="5.88262">
        <ele>1834</ele>
        <time>2021-08-06T13:51:28Z</time>
      </trkpt>
      <trkpt lat="45.11089" lon="5.88261">
        <ele>1833</ele>
        <time>2021-08-06T13:51:44Z</time>
      </trkpt>
      <trkpt lat="45.1109" lon="5.88259">
        <ele>1831</ele>
        <time>2021-08-06T13:52:27Z</time>
      </trkpt>
      <trkpt lat="45.11091" lon="5.88258">
        <ele>1831</ele>
        <time>2021-08-06T13:52:29Z</time>
      </trkpt>
      <trkpt lat="45.11092" lon="5.88256">
        <ele>1831</ele>
        <time>2021-08-06T13:52:31Z</time>
      </trkpt>
      <trkpt lat="45.11092" lon="5.88253">
        <ele>1831</ele>
        <time>2021-08-06T13:52:33Z</time>
      </trkpt>
      <trkpt lat="45.11093" lon="5.88251">
        <ele>1831</ele>
        <time>2021-08-06T13:52:35Z</time>
      </trkpt>
      <trkpt lat="45.11093" lon="5.88249">
        <ele>1831</ele>
        <time>2021-08-06T13:52:44Z</time>
      </trkpt>
      <trkpt lat="45.11094" lon="5.88248">
        <ele>1830</ele>
        <time>2021-08-06T13:52:46Z</time>
      </trkpt>
      <trkpt lat="45.11094" lon="5.88246">
        <ele>1830</ele>
        <time>2021-08-06T13:52:49Z</time>
      </trkpt>
      <trkpt lat="45.11095" lon="5.88245">
        <ele>1830</ele>
        <time>2021-08-06T13:52:52Z</time>
      </trkpt>
      <trkpt lat="45.11095" lon="5.88242">
        <ele>1830</ele>
        <time>2021-08-06T13:52:55Z</time>
      </trkpt>
      <trkpt lat="45.11096" lon="5.88241">
        <ele>1830</ele>
        <time>2021-08-06T13:52:57Z</time>
      </trkpt>
      <trkpt lat="45.11097" lon="5.88239">
        <ele>1830</ele>
        <time>2021-08-06T13:52:59Z</time>
      </trkpt>
      <trkpt lat="45.11098" lon="5.88237">
        <ele>1830</ele>
        <time>2021-08-06T13:53:01Z</time>
      </trkpt>
      <trkpt lat="45.11098" lon="5.88235">
        <ele>1830</ele>
        <time>2021-08-06T13:53:03Z</time>
      </trkpt>
      <trkpt lat="45.11099" lon="5.88233">
        <ele>1829</ele>
        <time>2021-08-06T13:53:05Z</time>
      </trkpt>
      <trkpt lat="45.111" lon="5.88231">
        <ele>1829</ele>
        <time>2021-08-06T13:53:07Z</time>
      </trkpt>
      <trkpt lat="45.11101" lon="5.8823">
        <ele>1829</ele>
        <time>2021-08-06T13:53:09Z</time>
      </trkpt>
      <trkpt lat="45.11102" lon="5.88228">
        <ele>1829</ele>
        <time>2021-08-06T13:53:11Z</time>
      </trkpt>
      <trkpt lat="45.11103" lon="5.88226">
        <ele>1828</ele>
        <time>2021-08-06T13:53:13Z</time>
      </trkpt>
      <trkpt lat="45.11104" lon="5.88224">
        <ele>1828</ele>
        <time>2021-08-06T13:53:15Z</time>
      </trkpt>
      <trkpt lat="45.11105" lon="5.88223">
        <ele>1828</ele>
        <time>2021-08-06T13:53:17Z</time>
      </trkpt>
      <trkpt lat="45.11106" lon="5.8822">
        <ele>1828</ele>
        <time>2021-08-06T13:53:19Z</time>
      </trkpt>
      <trkpt lat="45.11107" lon="5.88218">
        <ele>1828</ele>
        <time>2021-08-06T13:53:21Z</time>
      </trkpt>
      <trkpt lat="45.11108" lon="5.88216">
        <ele>1828</ele>
        <time>2021-08-06T13:53:23Z</time>
      </trkpt>
      <trkpt lat="45.11109" lon="5.88215">
        <ele>1828</ele>
        <time>2021-08-06T13:53:25Z</time>
      </trkpt>
      <trkpt lat="45.11109" lon="5.88213">
        <ele>1827</ele>
        <time>2021-08-06T13:53:27Z</time>
      </trkpt>
      <trkpt lat="45.1111" lon="5.88211">
        <ele>1827</ele>
        <time>2021-08-06T13:53:31Z</time>
      </trkpt>
      <trkpt lat="45.11111" lon="5.8821">
        <ele>1827</ele>
        <time>2021-08-06T13:53:33Z</time>
      </trkpt>
      <trkpt lat="45.11112" lon="5.88208">
        <ele>1826</ele>
        <time>2021-08-06T13:53:38Z</time>
      </trkpt>
      <trkpt lat="45.11113" lon="5.88206">
        <ele>1826</ele>
        <time>2021-08-06T13:53:40Z</time>
      </trkpt>
      <trkpt lat="45.11114" lon="5.88204">
        <ele>1826</ele>
        <time>2021-08-06T13:53:42Z</time>
      </trkpt>
      <trkpt lat="45.11115" lon="5.88201">
        <ele>1826</ele>
        <time>2021-08-06T13:53:44Z</time>
      </trkpt>
      <trkpt lat="45.11116" lon="5.882">
        <ele>1825</ele>
        <time>2021-08-06T13:53:46Z</time>
      </trkpt>
      <trkpt lat="45.11118" lon="5.88198">
        <ele>1825</ele>
        <time>2021-08-06T13:53:48Z</time>
      </trkpt>
      <trkpt lat="45.11119" lon="5.88196">
        <ele>1824</ele>
        <time>2021-08-06T13:53:50Z</time>
      </trkpt>
      <trkpt lat="45.1112" lon="5.88193">
        <ele>1824</ele>
        <time>2021-08-06T13:53:52Z</time>
      </trkpt>
      <trkpt lat="45.1112" lon="5.88192">
        <ele>1824</ele>
        <time>2021-08-06T13:53:54Z</time>
      </trkpt>
      <trkpt lat="45.11122" lon="5.8819">
        <ele>1824</ele>
        <time>2021-08-06T13:53:56Z</time>
      </trkpt>
      <trkpt lat="45.11123" lon="5.88188">
        <ele>1824</ele>
        <time>2021-08-06T13:53:58Z</time>
      </trkpt>
      <trkpt lat="45.11125" lon="5.88186">
        <ele>1823</ele>
        <time>2021-08-06T13:54:00Z</time>
      </trkpt>
      <trkpt lat="45.11126" lon="5.88183">
        <ele>1823</ele>
        <time>2021-08-06T13:54:02Z</time>
      </trkpt>
      <trkpt lat="45.11127" lon="5.88181">
        <ele>1823</ele>
        <time>2021-08-06T13:54:04Z</time>
      </trkpt>
      <trkpt lat="45.11129" lon="5.88179">
        <ele>1823</ele>
        <time>2021-08-06T13:54:06Z</time>
      </trkpt>
      <trkpt lat="45.11129" lon="5.88176">
        <ele>1823</ele>
        <time>2021-08-06T13:54:08Z</time>
      </trkpt>
      <trkpt lat="45.1113" lon="5.88174">
        <ele>1823</ele>
        <time>2021-08-06T13:54:10Z</time>
      </trkpt>
      <trkpt lat="45.11131" lon="5.88171">
        <ele>1822</ele>
        <time>2021-08-06T13:54:12Z</time>
      </trkpt>
      <trkpt lat="45.11132" lon="5.88169">
        <ele>1822</ele>
        <time>2021-08-06T13:54:14Z</time>
      </trkpt>
      <trkpt lat="45.11133" lon="5.88166">
        <ele>1821</ele>
        <time>2021-08-06T13:54:16Z</time>
      </trkpt>
      <trkpt lat="45.11134" lon="5.88164">
        <ele>1821</ele>
        <time>2021-08-06T13:54:18Z</time>
      </trkpt>
      <trkpt lat="45.11135" lon="5.88162">
        <ele>1821</ele>
        <time>2021-08-06T13:54:20Z</time>
      </trkpt>
      <trkpt lat="45.11134" lon="5.8816">
        <ele>1821</ele>
        <time>2021-08-06T13:54:31Z</time>
      </trkpt>
      <trkpt lat="45.11136" lon="5.88159">
        <ele>1821</ele>
        <time>2021-08-06T13:54:41Z</time>
      </trkpt>
      <trkpt lat="45.11137" lon="5.88159">
        <ele>1821</ele>
        <time>2021-08-06T13:55:08Z</time>
      </trkpt>
      <trkpt lat="45.11137" lon="5.88157">
        <ele>1821</ele>
        <time>2021-08-06T13:55:10Z</time>
      </trkpt>
      <trkpt lat="45.11138" lon="5.88155">
        <ele>1821</ele>
        <time>2021-08-06T13:55:12Z</time>
      </trkpt>
      <trkpt lat="45.11138" lon="5.88152">
        <ele>1820</ele>
        <time>2021-08-06T13:55:14Z</time>
      </trkpt>
      <trkpt lat="45.11138" lon="5.8815">
        <ele>1820</ele>
        <time>2021-08-06T13:55:16Z</time>
      </trkpt>
      <trkpt lat="45.11139" lon="5.88147">
        <ele>1820</ele>
        <time>2021-08-06T13:55:18Z</time>
      </trkpt>
      <trkpt lat="45.11139" lon="5.88144">
        <ele>1819</ele>
        <time>2021-08-06T13:55:20Z</time>
      </trkpt>
      <trkpt lat="45.1114" lon="5.88141">
        <ele>1819</ele>
        <time>2021-08-06T13:55:22Z</time>
      </trkpt>
      <trkpt lat="45.1114" lon="5.88139">
        <ele>1818</ele>
        <time>2021-08-06T13:55:24Z</time>
      </trkpt>
      <trkpt lat="45.1114" lon="5.88136">
        <ele>1818</ele>
        <time>2021-08-06T13:55:26Z</time>
      </trkpt>
      <trkpt lat="45.1114" lon="5.88134">
        <ele>1818</ele>
        <time>2021-08-06T13:55:27Z</time>
      </trkpt>
      <trkpt lat="45.1114" lon="5.88132">
        <ele>1817</ele>
        <time>2021-08-06T13:55:29Z</time>
      </trkpt>
      <trkpt lat="45.11141" lon="5.88129">
        <ele>1817</ele>
        <time>2021-08-06T13:55:31Z</time>
      </trkpt>
      <trkpt lat="45.11141" lon="5.88126">
        <ele>1816</ele>
        <time>2021-08-06T13:55:33Z</time>
      </trkpt>
      <trkpt lat="45.11142" lon="5.88124">
        <ele>1816</ele>
        <time>2021-08-06T13:55:35Z</time>
      </trkpt>
      <trkpt lat="45.11142" lon="5.88121">
        <ele>1816</ele>
        <time>2021-08-06T13:55:37Z</time>
      </trkpt>
      <trkpt lat="45.11142" lon="5.88118">
        <ele>1815</ele>
        <time>2021-08-06T13:55:39Z</time>
      </trkpt>
      <trkpt lat="45.11142" lon="5.88117">
        <ele>1815</ele>
        <time>2021-08-06T13:55:40Z</time>
      </trkpt>
      <trkpt lat="45.11142" lon="5.88115">
        <ele>1815</ele>
        <time>2021-08-06T13:55:41Z</time>
      </trkpt>
      <trkpt lat="45.11142" lon="5.88113">
        <ele>1815</ele>
        <time>2021-08-06T13:55:43Z</time>
      </trkpt>
      <trkpt lat="45.11142" lon="5.8811">
        <ele>1814</ele>
        <time>2021-08-06T13:55:45Z</time>
      </trkpt>
      <trkpt lat="45.11141" lon="5.88107">
        <ele>1814</ele>
        <time>2021-08-06T13:55:47Z</time>
      </trkpt>
      <trkpt lat="45.11141" lon="5.88105">
        <ele>1813</ele>
        <time>2021-08-06T13:55:49Z</time>
      </trkpt>
      <trkpt lat="45.11141" lon="5.88103">
        <ele>1813</ele>
        <time>2021-08-06T13:55:50Z</time>
      </trkpt>
      <trkpt lat="45.11141" lon="5.88101">
        <ele>1813</ele>
        <time>2021-08-06T13:55:52Z</time>
      </trkpt>
      <trkpt lat="45.11141" lon="5.88099">
        <ele>1813</ele>
        <time>2021-08-06T13:55:53Z</time>
      </trkpt>
      <trkpt lat="45.11141" lon="5.88098">
        <ele>1812</ele>
        <time>2021-08-06T13:55:54Z</time>
      </trkpt>
      <trkpt lat="45.11141" lon="5.88096">
        <ele>1812</ele>
        <time>2021-08-06T13:55:55Z</time>
      </trkpt>
      <trkpt lat="45.11141" lon="5.88094">
        <ele>1812</ele>
        <time>2021-08-06T13:55:57Z</time>
      </trkpt>
      <trkpt lat="45.11141" lon="5.88092">
        <ele>1812</ele>
        <time>2021-08-06T13:55:58Z</time>
      </trkpt>
      <trkpt lat="45.1114" lon="5.8809">
        <ele>1812</ele>
        <time>2021-08-06T13:55:59Z</time>
      </trkpt>
      <trkpt lat="45.1114" lon="5.88089">
        <ele>1812</ele>
        <time>2021-08-06T13:56:00Z</time>
      </trkpt>
      <trkpt lat="45.11138" lon="5.88087">
        <ele>1812</ele>
        <time>2021-08-06T13:56:02Z</time>
      </trkpt>
      <trkpt lat="45.11137" lon="5.88086">
        <ele>1812</ele>
        <time>2021-08-06T13:56:04Z</time>
      </trkpt>
      <trkpt lat="45.11138" lon="5.88086">
        <ele>1811</ele>
        <time>2021-08-06T13:56:32Z</time>
      </trkpt>
      <trkpt lat="45.11139" lon="5.88084">
        <ele>1811</ele>
        <time>2021-08-06T13:56:38Z</time>
      </trkpt>
      <trkpt lat="45.1114" lon="5.88083">
        <ele>1811</ele>
        <time>2021-08-06T13:56:40Z</time>
      </trkpt>
      <trkpt lat="45.11141" lon="5.88081">
        <ele>1811</ele>
        <time>2021-08-06T13:56:42Z</time>
      </trkpt>
      <trkpt lat="45.11142" lon="5.88078">
        <ele>1810</ele>
        <time>2021-08-06T13:56:44Z</time>
      </trkpt>
      <trkpt lat="45.11142" lon="5.88076">
        <ele>1810</ele>
        <time>2021-08-06T13:56:46Z</time>
      </trkpt>
      <trkpt lat="45.11143" lon="5.88074">
        <ele>1810</ele>
        <time>2021-08-06T13:56:48Z</time>
      </trkpt>
      <trkpt lat="45.11143" lon="5.88073">
        <ele>1810</ele>
        <time>2021-08-06T13:56:50Z</time>
      </trkpt>
      <trkpt lat="45.11143" lon="5.88071">
        <ele>1810</ele>
        <time>2021-08-06T13:57:21Z</time>
      </trkpt>
      <trkpt lat="45.11143" lon="5.88069">
        <ele>1810</ele>
        <time>2021-08-06T13:57:23Z</time>
      </trkpt>
      <trkpt lat="45.11142" lon="5.88067">
        <ele>1810</ele>
        <time>2021-08-06T13:57:25Z</time>
      </trkpt>
      <trkpt lat="45.11142" lon="5.88065">
        <ele>1809</ele>
        <time>2021-08-06T13:57:27Z</time>
      </trkpt>
      <trkpt lat="45.11141" lon="5.88063">
        <ele>1809</ele>
        <time>2021-08-06T13:57:29Z</time>
      </trkpt>
      <trkpt lat="45.1114" lon="5.88061">
        <ele>1809</ele>
        <time>2021-08-06T13:57:31Z</time>
      </trkpt>
      <trkpt lat="45.11139" lon="5.88059">
        <ele>1808</ele>
        <time>2021-08-06T13:57:33Z</time>
      </trkpt>
      <trkpt lat="45.11139" lon="5.88057">
        <ele>1808</ele>
        <time>2021-08-06T13:57:35Z</time>
      </trkpt>
      <trkpt lat="45.11139" lon="5.88056">
        <ele>1807</ele>
        <time>2021-08-06T13:57:37Z</time>
      </trkpt>
      <trkpt lat="45.11139" lon="5.88054">
        <ele>1806</ele>
        <time>2021-08-06T13:57:44Z</time>
      </trkpt>
      <trkpt lat="45.11138" lon="5.88051">
        <ele>1806</ele>
        <time>2021-08-06T13:57:46Z</time>
      </trkpt>
      <trkpt lat="45.11137" lon="5.88049">
        <ele>1805</ele>
        <time>2021-08-06T13:57:48Z</time>
      </trkpt>
      <trkpt lat="45.11137" lon="5.88047">
        <ele>1805</ele>
        <time>2021-08-06T13:57:50Z</time>
      </trkpt>
      <trkpt lat="45.11136" lon="5.88045">
        <ele>1804</ele>
        <time>2021-08-06T13:57:52Z</time>
      </trkpt>
      <trkpt lat="45.11135" lon="5.88043">
        <ele>1804</ele>
        <time>2021-08-06T13:57:54Z</time>
      </trkpt>
      <trkpt lat="45.11135" lon="5.88041">
        <ele>1803</ele>
        <time>2021-08-06T13:57:56Z</time>
      </trkpt>
      <trkpt lat="45.11134" lon="5.88038">
        <ele>1803</ele>
        <time>2021-08-06T13:57:58Z</time>
      </trkpt>
      <trkpt lat="45.11134" lon="5.88036">
        <ele>1802</ele>
        <time>2021-08-06T13:58:00Z</time>
      </trkpt>
      <trkpt lat="45.11133" lon="5.88034">
        <ele>1801</ele>
        <time>2021-08-06T13:58:12Z</time>
      </trkpt>
      <trkpt lat="45.11133" lon="5.88033">
        <ele>1801</ele>
        <time>2021-08-06T13:58:15Z</time>
      </trkpt>
      <trkpt lat="45.11132" lon="5.8803">
        <ele>1801</ele>
        <time>2021-08-06T13:58:26Z</time>
      </trkpt>
      <trkpt lat="45.11131" lon="5.88028">
        <ele>1800</ele>
        <time>2021-08-06T13:58:28Z</time>
      </trkpt>
      <trkpt lat="45.1113" lon="5.88027">
        <ele>1800</ele>
        <time>2021-08-06T13:58:30Z</time>
      </trkpt>
      <trkpt lat="45.11129" lon="5.88025">
        <ele>1799</ele>
        <time>2021-08-06T13:58:32Z</time>
      </trkpt>
      <trkpt lat="45.11129" lon="5.88023">
        <ele>1799</ele>
        <time>2021-08-06T13:58:34Z</time>
      </trkpt>
      <trkpt lat="45.11128" lon="5.88021">
        <ele>1798</ele>
        <time>2021-08-06T13:58:36Z</time>
      </trkpt>
      <trkpt lat="45.11128" lon="5.88019">
        <ele>1798</ele>
        <time>2021-08-06T13:58:38Z</time>
      </trkpt>
      <trkpt lat="45.11127" lon="5.88017">
        <ele>1797</ele>
        <time>2021-08-06T13:58:40Z</time>
      </trkpt>
      <trkpt lat="45.11126" lon="5.88015">
        <ele>1796</ele>
        <time>2021-08-06T13:58:42Z</time>
      </trkpt>
      <trkpt lat="45.11126" lon="5.88013">
        <ele>1796</ele>
        <time>2021-08-06T13:58:44Z</time>
      </trkpt>
      <trkpt lat="45.11126" lon="5.88011">
        <ele>1796</ele>
        <time>2021-08-06T13:58:46Z</time>
      </trkpt>
      <trkpt lat="45.11125" lon="5.88009">
        <ele>1795</ele>
        <time>2021-08-06T13:58:48Z</time>
      </trkpt>
      <trkpt lat="45.11125" lon="5.88007">
        <ele>1795</ele>
        <time>2021-08-06T13:58:50Z</time>
      </trkpt>
      <trkpt lat="45.11124" lon="5.88005">
        <ele>1794</ele>
        <time>2021-08-06T13:58:52Z</time>
      </trkpt>
      <trkpt lat="45.11124" lon="5.88003">
        <ele>1794</ele>
        <time>2021-08-06T13:58:54Z</time>
      </trkpt>
      <trkpt lat="45.11123" lon="5.88001">
        <ele>1793</ele>
        <time>2021-08-06T13:58:56Z</time>
      </trkpt>
      <trkpt lat="45.11123" lon="5.87999">
        <ele>1793</ele>
        <time>2021-08-06T13:58:58Z</time>
      </trkpt>
      <trkpt lat="45.11122" lon="5.87997">
        <ele>1792</ele>
        <time>2021-08-06T13:59:00Z</time>
      </trkpt>
      <trkpt lat="45.11121" lon="5.87995">
        <ele>1792</ele>
        <time>2021-08-06T13:59:02Z</time>
      </trkpt>
      <trkpt lat="45.11121" lon="5.87992">
        <ele>1791</ele>
        <time>2021-08-06T13:59:04Z</time>
      </trkpt>
      <trkpt lat="45.1112" lon="5.8799">
        <ele>1791</ele>
        <time>2021-08-06T13:59:06Z</time>
      </trkpt>
      <trkpt lat="45.1112" lon="5.87987">
        <ele>1790</ele>
        <time>2021-08-06T13:59:08Z</time>
      </trkpt>
      <trkpt lat="45.11119" lon="5.87984">
        <ele>1790</ele>
        <time>2021-08-06T13:59:10Z</time>
      </trkpt>
      <trkpt lat="45.11119" lon="5.87982">
        <ele>1789</ele>
        <time>2021-08-06T13:59:12Z</time>
      </trkpt>
      <trkpt lat="45.11118" lon="5.87981">
        <ele>1789</ele>
        <time>2021-08-06T13:59:13Z</time>
      </trkpt>
      <trkpt lat="45.11118" lon="5.87978">
        <ele>1789</ele>
        <time>2021-08-06T13:59:15Z</time>
      </trkpt>
      <trkpt lat="45.11117" lon="5.87975">
        <ele>1789</ele>
        <time>2021-08-06T13:59:17Z</time>
      </trkpt>
      <trkpt lat="45.11116" lon="5.87972">
        <ele>1789</ele>
        <time>2021-08-06T13:59:19Z</time>
      </trkpt>
      <trkpt lat="45.11116" lon="5.8797">
        <ele>1789</ele>
        <time>2021-08-06T13:59:21Z</time>
      </trkpt>
      <trkpt lat="45.11116" lon="5.87968">
        <ele>1789</ele>
        <time>2021-08-06T13:59:22Z</time>
      </trkpt>
      <trkpt lat="45.11116" lon="5.87967">
        <ele>1788</ele>
        <time>2021-08-06T13:59:23Z</time>
      </trkpt>
      <trkpt lat="45.11116" lon="5.87965">
        <ele>1788</ele>
        <time>2021-08-06T13:59:24Z</time>
      </trkpt>
      <trkpt lat="45.11116" lon="5.87964">
        <ele>1788</ele>
        <time>2021-08-06T13:59:25Z</time>
      </trkpt>
      <trkpt lat="45.11116" lon="5.87962">
        <ele>1788</ele>
        <time>2021-08-06T13:59:26Z</time>
      </trkpt>
      <trkpt lat="45.11116" lon="5.87961">
        <ele>1788</ele>
        <time>2021-08-06T13:59:27Z</time>
      </trkpt>
      <trkpt lat="45.11115" lon="5.87959">
        <ele>1788</ele>
        <time>2021-08-06T13:59:28Z</time>
      </trkpt>
      <trkpt lat="45.11115" lon="5.87957">
        <ele>1788</ele>
        <time>2021-08-06T13:59:29Z</time>
      </trkpt>
      <trkpt lat="45.11114" lon="5.87955">
        <ele>1788</ele>
        <time>2021-08-06T13:59:31Z</time>
      </trkpt>
      <trkpt lat="45.11113" lon="5.87953">
        <ele>1787</ele>
        <time>2021-08-06T13:59:33Z</time>
      </trkpt>
      <trkpt lat="45.11112" lon="5.8795">
        <ele>1787</ele>
        <time>2021-08-06T13:59:35Z</time>
      </trkpt>
      <trkpt lat="45.11111" lon="5.87947">
        <ele>1787</ele>
        <time>2021-08-06T13:59:37Z</time>
      </trkpt>
      <trkpt lat="45.11111" lon="5.87946">
        <ele>1787</ele>
        <time>2021-08-06T13:59:38Z</time>
      </trkpt>
      <trkpt lat="45.1111" lon="5.87943">
        <ele>1787</ele>
        <time>2021-08-06T13:59:40Z</time>
      </trkpt>
      <trkpt lat="45.11109" lon="5.87941">
        <ele>1787</ele>
        <time>2021-08-06T13:59:42Z</time>
      </trkpt>
      <trkpt lat="45.11107" lon="5.87938">
        <ele>1787</ele>
        <time>2021-08-06T13:59:44Z</time>
      </trkpt>
      <trkpt lat="45.11106" lon="5.87935">
        <ele>1787</ele>
        <time>2021-08-06T13:59:46Z</time>
      </trkpt>
      <trkpt lat="45.11105" lon="5.87933">
        <ele>1787</ele>
        <time>2021-08-06T13:59:48Z</time>
      </trkpt>
      <trkpt lat="45.11104" lon="5.87932">
        <ele>1787</ele>
        <time>2021-08-06T13:59:50Z</time>
      </trkpt>
      <trkpt lat="45.11103" lon="5.8793">
        <ele>1787</ele>
        <time>2021-08-06T14:00:15Z</time>
      </trkpt>
      <trkpt lat="45.11102" lon="5.87928">
        <ele>1787</ele>
        <time>2021-08-06T14:00:17Z</time>
      </trkpt>
      <trkpt lat="45.11102" lon="5.87925">
        <ele>1787</ele>
        <time>2021-08-06T14:00:19Z</time>
      </trkpt>
      <trkpt lat="45.11101" lon="5.87923">
        <ele>1787</ele>
        <time>2021-08-06T14:00:21Z</time>
      </trkpt>
      <trkpt lat="45.111" lon="5.87921">
        <ele>1787</ele>
        <time>2021-08-06T14:00:23Z</time>
      </trkpt>
      <trkpt lat="45.11098" lon="5.87919">
        <ele>1787</ele>
        <time>2021-08-06T14:00:25Z</time>
      </trkpt>
      <trkpt lat="45.11098" lon="5.87918">
        <ele>1787</ele>
        <time>2021-08-06T14:00:36Z</time>
      </trkpt>
      <trkpt lat="45.11097" lon="5.87916">
        <ele>1787</ele>
        <time>2021-08-06T14:01:12Z</time>
      </trkpt>
      <trkpt lat="45.11097" lon="5.87914">
        <ele>1786</ele>
        <time>2021-08-06T14:01:21Z</time>
      </trkpt>
      <trkpt lat="45.11097" lon="5.87912">
        <ele>1786</ele>
        <time>2021-08-06T14:01:23Z</time>
      </trkpt>
      <trkpt lat="45.11096" lon="5.87911">
        <ele>1786</ele>
        <time>2021-08-06T14:01:24Z</time>
      </trkpt>
      <trkpt lat="45.11095" lon="5.87909">
        <ele>1786</ele>
        <time>2021-08-06T14:01:25Z</time>
      </trkpt>
      <trkpt lat="45.11095" lon="5.87907">
        <ele>1785</ele>
        <time>2021-08-06T14:01:27Z</time>
      </trkpt>
      <trkpt lat="45.11095" lon="5.87905">
        <ele>1785</ele>
        <time>2021-08-06T14:01:29Z</time>
      </trkpt>
      <trkpt lat="45.11095" lon="5.87903">
        <ele>1785</ele>
        <time>2021-08-06T14:01:34Z</time>
      </trkpt>
      <trkpt lat="45.11094" lon="5.879">
        <ele>1785</ele>
        <time>2021-08-06T14:01:36Z</time>
      </trkpt>
      <trkpt lat="45.11093" lon="5.87898">
        <ele>1784</ele>
        <time>2021-08-06T14:01:38Z</time>
      </trkpt>
      <trkpt lat="45.11092" lon="5.87896">
        <ele>1784</ele>
        <time>2021-08-06T14:01:40Z</time>
      </trkpt>
      <trkpt lat="45.1109" lon="5.87894">
        <ele>1784</ele>
        <time>2021-08-06T14:01:42Z</time>
      </trkpt>
      <trkpt lat="45.11089" lon="5.87892">
        <ele>1784</ele>
        <time>2021-08-06T14:01:44Z</time>
      </trkpt>
      <trkpt lat="45.11088" lon="5.87889">
        <ele>1784</ele>
        <time>2021-08-06T14:01:46Z</time>
      </trkpt>
      <trkpt lat="45.11087" lon="5.87887">
        <ele>1784</ele>
        <time>2021-08-06T14:01:48Z</time>
      </trkpt>
      <trkpt lat="45.11086" lon="5.87885">
        <ele>1783</ele>
        <time>2021-08-06T14:01:50Z</time>
      </trkpt>
      <trkpt lat="45.11084" lon="5.87882">
        <ele>1783</ele>
        <time>2021-08-06T14:01:52Z</time>
      </trkpt>
      <trkpt lat="45.11083" lon="5.8788">
        <ele>1783</ele>
        <time>2021-08-06T14:01:54Z</time>
      </trkpt>
      <trkpt lat="45.11082" lon="5.87877">
        <ele>1783</ele>
        <time>2021-08-06T14:01:56Z</time>
      </trkpt>
      <trkpt lat="45.11081" lon="5.87875">
        <ele>1783</ele>
        <time>2021-08-06T14:01:58Z</time>
      </trkpt>
      <trkpt lat="45.1108" lon="5.87872">
        <ele>1782</ele>
        <time>2021-08-06T14:02:00Z</time>
      </trkpt>
      <trkpt lat="45.11079" lon="5.8787">
        <ele>1782</ele>
        <time>2021-08-06T14:02:02Z</time>
      </trkpt>
      <trkpt lat="45.11079" lon="5.87868">
        <ele>1782</ele>
        <time>2021-08-06T14:02:04Z</time>
      </trkpt>
      <trkpt lat="45.11078" lon="5.87865">
        <ele>1781</ele>
        <time>2021-08-06T14:02:06Z</time>
      </trkpt>
      <trkpt lat="45.11078" lon="5.87863">
        <ele>1781</ele>
        <time>2021-08-06T14:02:08Z</time>
      </trkpt>
      <trkpt lat="45.11077" lon="5.87861">
        <ele>1781</ele>
        <time>2021-08-06T14:02:10Z</time>
      </trkpt>
      <trkpt lat="45.11077" lon="5.87859">
        <ele>1780</ele>
        <time>2021-08-06T14:02:12Z</time>
      </trkpt>
      <trkpt lat="45.11077" lon="5.87856">
        <ele>1780</ele>
        <time>2021-08-06T14:02:14Z</time>
      </trkpt>
      <trkpt lat="45.11077" lon="5.87854">
        <ele>1779</ele>
        <time>2021-08-06T14:02:16Z</time>
      </trkpt>
      <trkpt lat="45.11077" lon="5.87852">
        <ele>1779</ele>
        <time>2021-08-06T14:02:18Z</time>
      </trkpt>
      <trkpt lat="45.11077" lon="5.8785">
        <ele>1778</ele>
        <time>2021-08-06T14:02:20Z</time>
      </trkpt>
      <trkpt lat="45.11077" lon="5.87848">
        <ele>1778</ele>
        <time>2021-08-06T14:02:22Z</time>
      </trkpt>
      <trkpt lat="45.11077" lon="5.87845">
        <ele>1777</ele>
        <time>2021-08-06T14:02:24Z</time>
      </trkpt>
      <trkpt lat="45.11077" lon="5.87843">
        <ele>1777</ele>
        <time>2021-08-06T14:02:26Z</time>
      </trkpt>
      <trkpt lat="45.11076" lon="5.87841">
        <ele>1776</ele>
        <time>2021-08-06T14:02:28Z</time>
      </trkpt>
      <trkpt lat="45.11075" lon="5.87839">
        <ele>1776</ele>
        <time>2021-08-06T14:02:30Z</time>
      </trkpt>
      <trkpt lat="45.11074" lon="5.87836">
        <ele>1775</ele>
        <time>2021-08-06T14:02:32Z</time>
      </trkpt>
      <trkpt lat="45.11074" lon="5.87835">
        <ele>1775</ele>
        <time>2021-08-06T14:02:33Z</time>
      </trkpt>
      <trkpt lat="45.11073" lon="5.87833">
        <ele>1775</ele>
        <time>2021-08-06T14:02:34Z</time>
      </trkpt>
      <trkpt lat="45.11072" lon="5.8783">
        <ele>1774</ele>
        <time>2021-08-06T14:02:36Z</time>
      </trkpt>
      <trkpt lat="45.11071" lon="5.87828">
        <ele>1774</ele>
        <time>2021-08-06T14:02:38Z</time>
      </trkpt>
      <trkpt lat="45.11071" lon="5.87825">
        <ele>1774</ele>
        <time>2021-08-06T14:02:40Z</time>
      </trkpt>
      <trkpt lat="45.11069" lon="5.87822">
        <ele>1774</ele>
        <time>2021-08-06T14:02:42Z</time>
      </trkpt>
      <trkpt lat="45.11068" lon="5.8782">
        <ele>1774</ele>
        <time>2021-08-06T14:02:44Z</time>
      </trkpt>
      <trkpt lat="45.11066" lon="5.87818">
        <ele>1774</ele>
        <time>2021-08-06T14:02:46Z</time>
      </trkpt>
      <trkpt lat="45.11065" lon="5.87817">
        <ele>1774</ele>
        <time>2021-08-06T14:02:50Z</time>
      </trkpt>
      <trkpt lat="45.11063" lon="5.87815">
        <ele>1774</ele>
        <time>2021-08-06T14:02:52Z</time>
      </trkpt>
      <trkpt lat="45.11061" lon="5.87814">
        <ele>1774</ele>
        <time>2021-08-06T14:02:54Z</time>
      </trkpt>
      <trkpt lat="45.1106" lon="5.87811">
        <ele>1773</ele>
        <time>2021-08-06T14:02:56Z</time>
      </trkpt>
      <trkpt lat="45.11058" lon="5.8781">
        <ele>1773</ele>
        <time>2021-08-06T14:02:58Z</time>
      </trkpt>
      <trkpt lat="45.11057" lon="5.87808">
        <ele>1773</ele>
        <time>2021-08-06T14:03:00Z</time>
      </trkpt>
      <trkpt lat="45.11055" lon="5.87805">
        <ele>1773</ele>
        <time>2021-08-06T14:03:02Z</time>
      </trkpt>
      <trkpt lat="45.11053" lon="5.87803">
        <ele>1773</ele>
        <time>2021-08-06T14:03:04Z</time>
      </trkpt>
      <trkpt lat="45.11051" lon="5.87801">
        <ele>1773</ele>
        <time>2021-08-06T14:03:06Z</time>
      </trkpt>
      <trkpt lat="45.11049" lon="5.87799">
        <ele>1773</ele>
        <time>2021-08-06T14:03:08Z</time>
      </trkpt>
      <trkpt lat="45.11047" lon="5.87797">
        <ele>1773</ele>
        <time>2021-08-06T14:03:10Z</time>
      </trkpt>
      <trkpt lat="45.11046" lon="5.87795">
        <ele>1773</ele>
        <time>2021-08-06T14:03:12Z</time>
      </trkpt>
      <trkpt lat="45.11044" lon="5.87793">
        <ele>1773</ele>
        <time>2021-08-06T14:03:14Z</time>
      </trkpt>
      <trkpt lat="45.11043" lon="5.87791">
        <ele>1773</ele>
        <time>2021-08-06T14:03:16Z</time>
      </trkpt>
      <trkpt lat="45.11042" lon="5.87789">
        <ele>1772</ele>
        <time>2021-08-06T14:03:18Z</time>
      </trkpt>
      <trkpt lat="45.1104" lon="5.87787">
        <ele>1772</ele>
        <time>2021-08-06T14:03:20Z</time>
      </trkpt>
      <trkpt lat="45.11039" lon="5.87786">
        <ele>1771</ele>
        <time>2021-08-06T14:03:23Z</time>
      </trkpt>
      <trkpt lat="45.11038" lon="5.87785">
        <ele>1771</ele>
        <time>2021-08-06T14:03:25Z</time>
      </trkpt>
      <trkpt lat="45.11036" lon="5.87784">
        <ele>1771</ele>
        <time>2021-08-06T14:03:28Z</time>
      </trkpt>
      <trkpt lat="45.11035" lon="5.87783">
        <ele>1771</ele>
        <time>2021-08-06T14:03:30Z</time>
      </trkpt>
      <trkpt lat="45.11034" lon="5.87783">
        <ele>1770</ele>
        <time>2021-08-06T14:03:32Z</time>
      </trkpt>
      <trkpt lat="45.11032" lon="5.87781">
        <ele>1770</ele>
        <time>2021-08-06T14:03:35Z</time>
      </trkpt>
      <trkpt lat="45.11031" lon="5.87779">
        <ele>1769</ele>
        <time>2021-08-06T14:03:37Z</time>
      </trkpt>
      <trkpt lat="45.11029" lon="5.87777">
        <ele>1769</ele>
        <time>2021-08-06T14:03:39Z</time>
      </trkpt>
      <trkpt lat="45.11028" lon="5.87776">
        <ele>1769</ele>
        <time>2021-08-06T14:03:41Z</time>
      </trkpt>
      <trkpt lat="45.11026" lon="5.87773">
        <ele>1769</ele>
        <time>2021-08-06T14:03:43Z</time>
      </trkpt>
      <trkpt lat="45.11025" lon="5.87771">
        <ele>1768</ele>
        <time>2021-08-06T14:03:45Z</time>
      </trkpt>
      <trkpt lat="45.11023" lon="5.87769">
        <ele>1768</ele>
        <time>2021-08-06T14:03:47Z</time>
      </trkpt>
      <trkpt lat="45.11022" lon="5.87767">
        <ele>1768</ele>
        <time>2021-08-06T14:03:49Z</time>
      </trkpt>
      <trkpt lat="45.11021" lon="5.87766">
        <ele>1768</ele>
        <time>2021-08-06T14:03:51Z</time>
      </trkpt>
      <trkpt lat="45.11021" lon="5.87767">
        <ele>1767</ele>
        <time>2021-08-06T14:04:05Z</time>
      </trkpt>
      <trkpt lat="45.1102" lon="5.87767">
        <ele>1767</ele>
        <time>2021-08-06T14:04:10Z</time>
      </trkpt>
      <trkpt lat="45.11018" lon="5.87767">
        <ele>1767</ele>
        <time>2021-08-06T14:04:12Z</time>
      </trkpt>
      <trkpt lat="45.11016" lon="5.87766">
        <ele>1767</ele>
        <time>2021-08-06T14:04:14Z</time>
      </trkpt>
      <trkpt lat="45.11014" lon="5.87764">
        <ele>1766</ele>
        <time>2021-08-06T14:04:16Z</time>
      </trkpt>
      <trkpt lat="45.11013" lon="5.87763">
        <ele>1766</ele>
        <time>2021-08-06T14:04:20Z</time>
      </trkpt>
      <trkpt lat="45.11012" lon="5.87761">
        <ele>1766</ele>
        <time>2021-08-06T14:04:22Z</time>
      </trkpt>
      <trkpt lat="45.1101" lon="5.87759">
        <ele>1766</ele>
        <time>2021-08-06T14:04:24Z</time>
      </trkpt>
      <trkpt lat="45.11009" lon="5.87756">
        <ele>1766</ele>
        <time>2021-08-06T14:04:26Z</time>
      </trkpt>
      <trkpt lat="45.11008" lon="5.87753">
        <ele>1766</ele>
        <time>2021-08-06T14:04:28Z</time>
      </trkpt>
      <trkpt lat="45.11007" lon="5.87751">
        <ele>1766</ele>
        <time>2021-08-06T14:04:30Z</time>
      </trkpt>
      <trkpt lat="45.11006" lon="5.87748">
        <ele>1765</ele>
        <time>2021-08-06T14:04:32Z</time>
      </trkpt>
      <trkpt lat="45.11005" lon="5.87746">
        <ele>1765</ele>
        <time>2021-08-06T14:04:34Z</time>
      </trkpt>
      <trkpt lat="45.11004" lon="5.87743">
        <ele>1765</ele>
        <time>2021-08-06T14:04:36Z</time>
      </trkpt>
      <trkpt lat="45.11003" lon="5.87741">
        <ele>1764</ele>
        <time>2021-08-06T14:04:38Z</time>
      </trkpt>
      <trkpt lat="45.11002" lon="5.87739">
        <ele>1764</ele>
        <time>2021-08-06T14:04:40Z</time>
      </trkpt>
      <trkpt lat="45.11001" lon="5.87736">
        <ele>1764</ele>
        <time>2021-08-06T14:04:42Z</time>
      </trkpt>
      <trkpt lat="45.11" lon="5.87734">
        <ele>1764</ele>
        <time>2021-08-06T14:04:44Z</time>
      </trkpt>
      <trkpt lat="45.10999" lon="5.87732">
        <ele>1763</ele>
        <time>2021-08-06T14:04:46Z</time>
      </trkpt>
      <trkpt lat="45.10998" lon="5.87729">
        <ele>1763</ele>
        <time>2021-08-06T14:04:48Z</time>
      </trkpt>
      <trkpt lat="45.10997" lon="5.87727">
        <ele>1763</ele>
        <time>2021-08-06T14:04:50Z</time>
      </trkpt>
      <trkpt lat="45.10997" lon="5.87725">
        <ele>1763</ele>
        <time>2021-08-06T14:04:52Z</time>
      </trkpt>
      <trkpt lat="45.10995" lon="5.87723">
        <ele>1763</ele>
        <time>2021-08-06T14:04:54Z</time>
      </trkpt>
      <trkpt lat="45.10994" lon="5.8772">
        <ele>1762</ele>
        <time>2021-08-06T14:04:56Z</time>
      </trkpt>
      <trkpt lat="45.10994" lon="5.87718">
        <ele>1762</ele>
        <time>2021-08-06T14:04:58Z</time>
      </trkpt>
      <trkpt lat="45.10993" lon="5.87716">
        <ele>1762</ele>
        <time>2021-08-06T14:05:01Z</time>
      </trkpt>
      <trkpt lat="45.10992" lon="5.87714">
        <ele>1761</ele>
        <time>2021-08-06T14:05:03Z</time>
      </trkpt>
      <trkpt lat="45.1099" lon="5.87712">
        <ele>1761</ele>
        <time>2021-08-06T14:05:05Z</time>
      </trkpt>
      <trkpt lat="45.10989" lon="5.8771">
        <ele>1761</ele>
        <time>2021-08-06T14:05:07Z</time>
      </trkpt>
      <trkpt lat="45.10988" lon="5.87708">
        <ele>1760</ele>
        <time>2021-08-06T14:05:09Z</time>
      </trkpt>
      <trkpt lat="45.10987" lon="5.87706">
        <ele>1760</ele>
        <time>2021-08-06T14:05:11Z</time>
      </trkpt>
      <trkpt lat="45.10987" lon="5.87703">
        <ele>1760</ele>
        <time>2021-08-06T14:05:13Z</time>
      </trkpt>
      <trkpt lat="45.10986" lon="5.87702">
        <ele>1760</ele>
        <time>2021-08-06T14:05:15Z</time>
      </trkpt>
      <trkpt lat="45.10986" lon="5.877">
        <ele>1759</ele>
        <time>2021-08-06T14:05:17Z</time>
      </trkpt>
      <trkpt lat="45.10987" lon="5.87698">
        <ele>1759</ele>
        <time>2021-08-06T14:05:19Z</time>
      </trkpt>
      <trkpt lat="45.10987" lon="5.87696">
        <ele>1758</ele>
        <time>2021-08-06T14:05:21Z</time>
      </trkpt>
      <trkpt lat="45.10988" lon="5.87693">
        <ele>1758</ele>
        <time>2021-08-06T14:05:23Z</time>
      </trkpt>
      <trkpt lat="45.10988" lon="5.87691">
        <ele>1757</ele>
        <time>2021-08-06T14:05:25Z</time>
      </trkpt>
      <trkpt lat="45.10989" lon="5.87688">
        <ele>1757</ele>
        <time>2021-08-06T14:05:27Z</time>
      </trkpt>
      <trkpt lat="45.10989" lon="5.87686">
        <ele>1756</ele>
        <time>2021-08-06T14:05:29Z</time>
      </trkpt>
      <trkpt lat="45.10989" lon="5.87683">
        <ele>1756</ele>
        <time>2021-08-06T14:05:31Z</time>
      </trkpt>
      <trkpt lat="45.10989" lon="5.87681">
        <ele>1756</ele>
        <time>2021-08-06T14:05:33Z</time>
      </trkpt>
      <trkpt lat="45.1099" lon="5.87679">
        <ele>1756</ele>
        <time>2021-08-06T14:05:35Z</time>
      </trkpt>
      <trkpt lat="45.1099" lon="5.87677">
        <ele>1755</ele>
        <time>2021-08-06T14:05:38Z</time>
      </trkpt>
      <trkpt lat="45.10991" lon="5.87675">
        <ele>1755</ele>
        <time>2021-08-06T14:05:40Z</time>
      </trkpt>
      <trkpt lat="45.10991" lon="5.87672">
        <ele>1755</ele>
        <time>2021-08-06T14:05:42Z</time>
      </trkpt>
      <trkpt lat="45.10992" lon="5.8767">
        <ele>1755</ele>
        <time>2021-08-06T14:05:44Z</time>
      </trkpt>
      <trkpt lat="45.10992" lon="5.87667">
        <ele>1755</ele>
        <time>2021-08-06T14:05:46Z</time>
      </trkpt>
      <trkpt lat="45.10992" lon="5.87665">
        <ele>1754</ele>
        <time>2021-08-06T14:05:48Z</time>
      </trkpt>
      <trkpt lat="45.10992" lon="5.87662">
        <ele>1754</ele>
        <time>2021-08-06T14:05:50Z</time>
      </trkpt>
      <trkpt lat="45.10992" lon="5.8766">
        <ele>1754</ele>
        <time>2021-08-06T14:05:51Z</time>
      </trkpt>
      <trkpt lat="45.10993" lon="5.87658">
        <ele>1754</ele>
        <time>2021-08-06T14:05:53Z</time>
      </trkpt>
      <trkpt lat="45.10994" lon="5.87655">
        <ele>1754</ele>
        <time>2021-08-06T14:05:55Z</time>
      </trkpt>
      <trkpt lat="45.10994" lon="5.87652">
        <ele>1754</ele>
        <time>2021-08-06T14:05:57Z</time>
      </trkpt>
      <trkpt lat="45.10995" lon="5.8765">
        <ele>1754</ele>
        <time>2021-08-06T14:05:59Z</time>
      </trkpt>
      <trkpt lat="45.10996" lon="5.87647">
        <ele>1754</ele>
        <time>2021-08-06T14:06:01Z</time>
      </trkpt>
      <trkpt lat="45.10996" lon="5.87645">
        <ele>1754</ele>
        <time>2021-08-06T14:06:03Z</time>
      </trkpt>
      <trkpt lat="45.10995" lon="5.87642">
        <ele>1754</ele>
        <time>2021-08-06T14:06:05Z</time>
      </trkpt>
      <trkpt lat="45.10995" lon="5.8764">
        <ele>1754</ele>
        <time>2021-08-06T14:06:07Z</time>
      </trkpt>
      <trkpt lat="45.10995" lon="5.87638">
        <ele>1754</ele>
        <time>2021-08-06T14:06:09Z</time>
      </trkpt>
      <trkpt lat="45.10994" lon="5.87636">
        <ele>1754</ele>
        <time>2021-08-06T14:06:12Z</time>
      </trkpt>
      <trkpt lat="45.10994" lon="5.87634">
        <ele>1754</ele>
        <time>2021-08-06T14:06:15Z</time>
      </trkpt>
      <trkpt lat="45.10995" lon="5.87632">
        <ele>1754</ele>
        <time>2021-08-06T14:06:17Z</time>
      </trkpt>
      <trkpt lat="45.10996" lon="5.8763">
        <ele>1754</ele>
        <time>2021-08-06T14:06:18Z</time>
      </trkpt>
      <trkpt lat="45.10997" lon="5.87628">
        <ele>1754</ele>
        <time>2021-08-06T14:06:20Z</time>
      </trkpt>
      <trkpt lat="45.10998" lon="5.87625">
        <ele>1753</ele>
        <time>2021-08-06T14:06:23Z</time>
      </trkpt>
      <trkpt lat="45.10998" lon="5.87623">
        <ele>1753</ele>
        <time>2021-08-06T14:06:25Z</time>
      </trkpt>
      <trkpt lat="45.10999" lon="5.87621">
        <ele>1753</ele>
        <time>2021-08-06T14:06:27Z</time>
      </trkpt>
      <trkpt lat="45.11" lon="5.87619">
        <ele>1753</ele>
        <time>2021-08-06T14:06:28Z</time>
      </trkpt>
      <trkpt lat="45.11" lon="5.87617">
        <ele>1753</ele>
        <time>2021-08-06T14:06:29Z</time>
      </trkpt>
      <trkpt lat="45.11" lon="5.87615">
        <ele>1753</ele>
        <time>2021-08-06T14:06:31Z</time>
      </trkpt>
      <trkpt lat="45.11" lon="5.87613">
        <ele>1753</ele>
        <time>2021-08-06T14:06:32Z</time>
      </trkpt>
      <trkpt lat="45.11" lon="5.87611">
        <ele>1754</ele>
        <time>2021-08-06T14:06:33Z</time>
      </trkpt>
      <trkpt lat="45.11" lon="5.87609">
        <ele>1754</ele>
        <time>2021-08-06T14:06:34Z</time>
      </trkpt>
      <trkpt lat="45.10998" lon="5.87607">
        <ele>1754</ele>
        <time>2021-08-06T14:06:36Z</time>
      </trkpt>
      <trkpt lat="45.11" lon="5.87607">
        <ele>1754</ele>
        <time>2021-08-06T14:06:39Z</time>
      </trkpt>
      <trkpt lat="45.11001" lon="5.87606">
        <ele>1754</ele>
        <time>2021-08-06T14:06:47Z</time>
      </trkpt>
      <trkpt lat="45.11002" lon="5.87606">
        <ele>1754</ele>
        <time>2021-08-06T14:06:49Z</time>
      </trkpt>
      <trkpt lat="45.11004" lon="5.87606">
        <ele>1754</ele>
        <time>2021-08-06T14:06:51Z</time>
      </trkpt>
      <trkpt lat="45.11005" lon="5.87606">
        <ele>1754</ele>
        <time>2021-08-06T14:06:54Z</time>
      </trkpt>
      <trkpt lat="45.11007" lon="5.87607">
        <ele>1754</ele>
        <time>2021-08-06T14:06:56Z</time>
      </trkpt>
      <trkpt lat="45.11009" lon="5.87606">
        <ele>1754</ele>
        <time>2021-08-06T14:06:58Z</time>
      </trkpt>
      <trkpt lat="45.11011" lon="5.87607">
        <ele>1754</ele>
        <time>2021-08-06T14:07:00Z</time>
      </trkpt>
      <trkpt lat="45.11013" lon="5.87605">
        <ele>1753</ele>
        <time>2021-08-06T14:07:02Z</time>
      </trkpt>
      <trkpt lat="45.11013" lon="5.87604">
        <ele>1753</ele>
        <time>2021-08-06T14:07:04Z</time>
      </trkpt>
      <trkpt lat="45.11015" lon="5.87603">
        <ele>1753</ele>
        <time>2021-08-06T14:07:08Z</time>
      </trkpt>
      <trkpt lat="45.11016" lon="5.87603">
        <ele>1753</ele>
        <time>2021-08-06T14:07:12Z</time>
      </trkpt>
      <trkpt lat="45.11017" lon="5.87603">
        <ele>1752</ele>
        <time>2021-08-06T14:07:17Z</time>
      </trkpt>
      <trkpt lat="45.11018" lon="5.87603">
        <ele>1752</ele>
        <time>2021-08-06T14:07:29Z</time>
      </trkpt>
      <trkpt lat="45.11019" lon="5.87601">
        <ele>1752</ele>
        <time>2021-08-06T14:07:40Z</time>
      </trkpt>
      <trkpt lat="45.1102" lon="5.87602">
        <ele>1752</ele>
        <time>2021-08-06T14:07:45Z</time>
      </trkpt>
      <trkpt lat="45.1102" lon="5.87601">
        <ele>1752</ele>
        <time>2021-08-06T14:07:52Z</time>
      </trkpt>
      <trkpt lat="45.11019" lon="5.87599">
        <ele>1752</ele>
        <time>2021-08-06T14:08:11Z</time>
      </trkpt>
      <trkpt lat="45.11019" lon="5.87601">
        <ele>1754</ele>
        <time>2021-08-06T14:08:23Z</time>
      </trkpt>
      <trkpt lat="45.1102" lon="5.876">
        <ele>1754</ele>
        <time>2021-08-06T14:08:33Z</time>
      </trkpt>
      <trkpt lat="45.11019" lon="5.87598">
        <ele>1754</ele>
        <time>2021-08-06T14:08:43Z</time>
      </trkpt>
      <trkpt lat="45.11018" lon="5.87597">
        <ele>1754</ele>
        <time>2021-08-06T14:08:51Z</time>
      </trkpt>
      <trkpt lat="45.11018" lon="5.87598">
        <ele>1754</ele>
        <time>2021-08-06T14:09:28Z</time>
      </trkpt>
      <trkpt lat="45.11019" lon="5.876">
        <ele>1754</ele>
        <time>2021-08-06T14:09:38Z</time>
      </trkpt>
      <trkpt lat="45.11018" lon="5.87598">
        <ele>1754</ele>
        <time>2021-08-06T14:09:50Z</time>
      </trkpt>
      <trkpt lat="45.11019" lon="5.87598">
        <ele>1754</ele>
        <time>2021-08-06T14:10:02Z</time>
      </trkpt>
    </trkseg>
  </trk>
</gpx>